<?xml version="1.0" encoding="UTF-8" standalone="no" ?>
<gpx xmlns="http://www.topografix.com/GPX/1/1" xmlns:xsi="http://www.w3.org/2001/XMLSchema-instance" xsi:schemaLocation="http://www.topografix.com/GPX/1/1 http://www.topografix.com/GPX/1/1/gpx.xsd" version="1.1" creator="VisuGPX - https://www.visugpx.com">
  <metadata>
    <name>J2 De La Palud sur Verdon - Ferme des Cavaliers en passant par Les Salles et Aiguines.</name>
    <desc><![CDATA[Cette étape ce fait uniquement par la route et la majorité du temps à l'ombre, fait le 13 Novembre, c'est l'extrême limite avant le froid et le verglas.
Je recommande la Ferme auberge des Cavaliers, un véritable cocon au milieu de nul part, qui nous a accueilli avant sa fermeture hivernale.
Ferme des Cavaliers juste à la limite du camp de Canjuers.  ]]></desc>
  </metadata>
  <trk>
    <name><![CDATA[2025-11-13 La Palud Les Salles Aiguines Les Cavaliers]]></name>
    <trkseg>
      <trkpt lat="43.77543" lon="6.34141">
        <ele>898.01</ele>
        <time>2025-11-13T08:01:44Z</time>
      </trkpt>
      <trkpt lat="43.77546" lon="6.34152">
        <ele>898.49</ele>
        <time>2025-11-13T08:02:03Z</time>
      </trkpt>
      <trkpt lat="43.77546" lon="6.34154">
        <ele>899.93</ele>
        <time>2025-11-13T08:02:07Z</time>
      </trkpt>
      <trkpt lat="43.77548" lon="6.34159">
        <ele>899.45</ele>
        <time>2025-11-13T08:02:34Z</time>
      </trkpt>
      <trkpt lat="43.77546" lon="6.34157">
        <ele>899.45</ele>
        <time>2025-11-13T08:03:03Z</time>
      </trkpt>
      <trkpt lat="43.77546" lon="6.34156">
        <ele>899.93</ele>
        <time>2025-11-13T08:03:22Z</time>
      </trkpt>
      <trkpt lat="43.77545" lon="6.34157">
        <ele>899.93</ele>
        <time>2025-11-13T08:03:31Z</time>
      </trkpt>
      <trkpt lat="43.77544" lon="6.34158">
        <ele>900.41</ele>
        <time>2025-11-13T08:03:51Z</time>
      </trkpt>
      <trkpt lat="43.77543" lon="6.34158">
        <ele>900.41</ele>
        <time>2025-11-13T08:04:12Z</time>
      </trkpt>
      <trkpt lat="43.77545" lon="6.34159">
        <ele>900.41</ele>
        <time>2025-11-13T08:04:34Z</time>
      </trkpt>
      <trkpt lat="43.77545" lon="6.34158">
        <ele>900.89</ele>
        <time>2025-11-13T08:04:51Z</time>
      </trkpt>
      <trkpt lat="43.77545" lon="6.34157">
        <ele>901.37</ele>
        <time>2025-11-13T08:05:15Z</time>
      </trkpt>
      <trkpt lat="43.77545" lon="6.34157">
        <ele>901.85</ele>
        <time>2025-11-13T08:05:30Z</time>
      </trkpt>
      <trkpt lat="43.77545" lon="6.34157">
        <ele>901.85</ele>
        <time>2025-11-13T08:05:52Z</time>
      </trkpt>
      <trkpt lat="43.77544" lon="6.34156">
        <ele>902.33</ele>
        <time>2025-11-13T08:06:09Z</time>
      </trkpt>
      <trkpt lat="43.77544" lon="6.34157">
        <ele>902.33</ele>
        <time>2025-11-13T08:06:19Z</time>
      </trkpt>
      <trkpt lat="43.77538" lon="6.34156">
        <ele>902.82</ele>
        <time>2025-11-13T08:06:25Z</time>
      </trkpt>
      <trkpt lat="43.7753" lon="6.3415">
        <ele>902.33</ele>
        <time>2025-11-13T08:06:30Z</time>
      </trkpt>
      <trkpt lat="43.77529" lon="6.34147">
        <ele>901.85</ele>
        <time>2025-11-13T08:06:31Z</time>
      </trkpt>
      <trkpt lat="43.77529" lon="6.34144">
        <ele>901.85</ele>
        <time>2025-11-13T08:06:32Z</time>
      </trkpt>
      <trkpt lat="43.77529" lon="6.34141">
        <ele>901.85</ele>
        <time>2025-11-13T08:06:33Z</time>
      </trkpt>
      <trkpt lat="43.77529" lon="6.34137">
        <ele>901.85</ele>
        <time>2025-11-13T08:06:34Z</time>
      </trkpt>
      <trkpt lat="43.77534" lon="6.3412">
        <ele>901.85</ele>
        <time>2025-11-13T08:06:43Z</time>
      </trkpt>
      <trkpt lat="43.77532" lon="6.34122">
        <ele>901.85</ele>
        <time>2025-11-13T08:06:54Z</time>
      </trkpt>
      <trkpt lat="43.77531" lon="6.34122">
        <ele>902.33</ele>
        <time>2025-11-13T08:07:14Z</time>
      </trkpt>
      <trkpt lat="43.77532" lon="6.34119">
        <ele>902.82</ele>
        <time>2025-11-13T08:07:41Z</time>
      </trkpt>
      <trkpt lat="43.77533" lon="6.3412">
        <ele>903.3</ele>
        <time>2025-11-13T08:07:53Z</time>
      </trkpt>
      <trkpt lat="43.77534" lon="6.34119">
        <ele>903.3</ele>
        <time>2025-11-13T08:07:55Z</time>
      </trkpt>
      <trkpt lat="43.77536" lon="6.34118">
        <ele>902.82</ele>
        <time>2025-11-13T08:07:56Z</time>
      </trkpt>
      <trkpt lat="43.77557" lon="6.34107">
        <ele>901.85</ele>
        <time>2025-11-13T08:08:07Z</time>
      </trkpt>
      <trkpt lat="43.77562" lon="6.34107">
        <ele>901.37</ele>
        <time>2025-11-13T08:08:10Z</time>
      </trkpt>
      <trkpt lat="43.77563" lon="6.34108">
        <ele>901.37</ele>
        <time>2025-11-13T08:08:11Z</time>
      </trkpt>
      <trkpt lat="43.77565" lon="6.3411">
        <ele>900.41</ele>
        <time>2025-11-13T08:08:12Z</time>
      </trkpt>
      <trkpt lat="43.77567" lon="6.34113">
        <ele>899.93</ele>
        <time>2025-11-13T08:08:13Z</time>
      </trkpt>
      <trkpt lat="43.77569" lon="6.34116">
        <ele>899.93</ele>
        <time>2025-11-13T08:08:14Z</time>
      </trkpt>
      <trkpt lat="43.7758" lon="6.34134">
        <ele>896.57</ele>
        <time>2025-11-13T08:08:20Z</time>
      </trkpt>
      <trkpt lat="43.77591" lon="6.34145">
        <ele>893.68</ele>
        <time>2025-11-13T08:08:25Z</time>
      </trkpt>
      <trkpt lat="43.77598" lon="6.34151">
        <ele>893.2</ele>
        <time>2025-11-13T08:08:27Z</time>
      </trkpt>
      <trkpt lat="43.77602" lon="6.34153">
        <ele>892.72</ele>
        <time>2025-11-13T08:08:28Z</time>
      </trkpt>
      <trkpt lat="43.77607" lon="6.34155">
        <ele>892.24</ele>
        <time>2025-11-13T08:08:29Z</time>
      </trkpt>
      <trkpt lat="43.77613" lon="6.34156">
        <ele>891.28</ele>
        <time>2025-11-13T08:08:30Z</time>
      </trkpt>
      <trkpt lat="43.77618" lon="6.34157">
        <ele>891.76</ele>
        <time>2025-11-13T08:08:31Z</time>
      </trkpt>
      <trkpt lat="43.77689" lon="6.34164">
        <ele>889.36</ele>
        <time>2025-11-13T08:08:42Z</time>
      </trkpt>
      <trkpt lat="43.77758" lon="6.3417">
        <ele>889.84</ele>
        <time>2025-11-13T08:08:56Z</time>
      </trkpt>
      <trkpt lat="43.77822" lon="6.34176">
        <ele>891.28</ele>
        <time>2025-11-13T08:09:09Z</time>
      </trkpt>
      <trkpt lat="43.77837" lon="6.34178">
        <ele>891.76</ele>
        <time>2025-11-13T08:09:16Z</time>
      </trkpt>
      <trkpt lat="43.77837" lon="6.34178">
        <ele>891.76</ele>
        <time>2025-11-13T08:09:28Z</time>
      </trkpt>
      <trkpt lat="43.77839" lon="6.34179">
        <ele>892.24</ele>
        <time>2025-11-13T08:09:49Z</time>
      </trkpt>
      <trkpt lat="43.77844" lon="6.34177">
        <ele>892.24</ele>
        <time>2025-11-13T08:10:09Z</time>
      </trkpt>
      <trkpt lat="43.77872" lon="6.34174">
        <ele>892.72</ele>
        <time>2025-11-13T08:10:18Z</time>
      </trkpt>
      <trkpt lat="43.77888" lon="6.34145">
        <ele>895.12</ele>
        <time>2025-11-13T08:10:26Z</time>
      </trkpt>
      <trkpt lat="43.77902" lon="6.34092">
        <ele>898.97</ele>
        <time>2025-11-13T08:10:39Z</time>
      </trkpt>
      <trkpt lat="43.77915" lon="6.34061">
        <ele>900.89</ele>
        <time>2025-11-13T08:10:50Z</time>
      </trkpt>
      <trkpt lat="43.77927" lon="6.34048">
        <ele>897.53</ele>
        <time>2025-11-13T08:10:56Z</time>
      </trkpt>
      <trkpt lat="43.77929" lon="6.34046">
        <ele>902.33</ele>
        <time>2025-11-13T08:10:57Z</time>
      </trkpt>
      <trkpt lat="43.77932" lon="6.34045">
        <ele>908.1</ele>
        <time>2025-11-13T08:10:58Z</time>
      </trkpt>
      <trkpt lat="43.77934" lon="6.34043">
        <ele>903.78</ele>
        <time>2025-11-13T08:10:59Z</time>
      </trkpt>
      <trkpt lat="43.77939" lon="6.3404">
        <ele>902.82</ele>
        <time>2025-11-13T08:11:01Z</time>
      </trkpt>
      <trkpt lat="43.77965" lon="6.34026">
        <ele>906.18</ele>
        <time>2025-11-13T08:11:12Z</time>
      </trkpt>
      <trkpt lat="43.77977" lon="6.34025">
        <ele>907.14</ele>
        <time>2025-11-13T08:11:22Z</time>
      </trkpt>
      <trkpt lat="43.77977" lon="6.34026">
        <ele>907.62</ele>
        <time>2025-11-13T08:11:41Z</time>
      </trkpt>
      <trkpt lat="43.77978" lon="6.34026">
        <ele>907.62</ele>
        <time>2025-11-13T08:12:03Z</time>
      </trkpt>
      <trkpt lat="43.7798" lon="6.34024">
        <ele>908.1</ele>
        <time>2025-11-13T08:12:23Z</time>
      </trkpt>
      <trkpt lat="43.77979" lon="6.34023">
        <ele>908.1</ele>
        <time>2025-11-13T08:12:42Z</time>
      </trkpt>
      <trkpt lat="43.77979" lon="6.34023">
        <ele>908.58</ele>
        <time>2025-11-13T08:12:57Z</time>
      </trkpt>
      <trkpt lat="43.77979" lon="6.34025">
        <ele>909.06</ele>
        <time>2025-11-13T08:13:20Z</time>
      </trkpt>
      <trkpt lat="43.77981" lon="6.34026">
        <ele>909.06</ele>
        <time>2025-11-13T08:13:25Z</time>
      </trkpt>
      <trkpt lat="43.77982" lon="6.34024">
        <ele>909.06</ele>
        <time>2025-11-13T08:13:26Z</time>
      </trkpt>
      <trkpt lat="43.77981" lon="6.34019">
        <ele>909.06</ele>
        <time>2025-11-13T08:13:30Z</time>
      </trkpt>
      <trkpt lat="43.7798" lon="6.34018">
        <ele>909.06</ele>
        <time>2025-11-13T08:13:31Z</time>
      </trkpt>
      <trkpt lat="43.77979" lon="6.34015">
        <ele>909.06</ele>
        <time>2025-11-13T08:13:32Z</time>
      </trkpt>
      <trkpt lat="43.77972" lon="6.33986">
        <ele>910.51</ele>
        <time>2025-11-13T08:13:43Z</time>
      </trkpt>
      <trkpt lat="43.77955" lon="6.33963">
        <ele>911.95</ele>
        <time>2025-11-13T08:13:55Z</time>
      </trkpt>
      <trkpt lat="43.77931" lon="6.33942">
        <ele>914.35</ele>
        <time>2025-11-13T08:14:08Z</time>
      </trkpt>
      <trkpt lat="43.7791" lon="6.33903">
        <ele>914.35</ele>
        <time>2025-11-13T08:14:23Z</time>
      </trkpt>
      <trkpt lat="43.77908" lon="6.33899">
        <ele>917.72</ele>
        <time>2025-11-13T08:14:24Z</time>
      </trkpt>
      <trkpt lat="43.77888" lon="6.3386">
        <ele>919.64</ele>
        <time>2025-11-13T08:14:38Z</time>
      </trkpt>
      <trkpt lat="43.77865" lon="6.33813">
        <ele>922.52</ele>
        <time>2025-11-13T08:14:54Z</time>
      </trkpt>
      <trkpt lat="43.77846" lon="6.33777">
        <ele>925.89</ele>
        <time>2025-11-13T08:15:07Z</time>
      </trkpt>
      <trkpt lat="43.77828" lon="6.33743">
        <ele>928.29</ele>
        <time>2025-11-13T08:15:19Z</time>
      </trkpt>
      <trkpt lat="43.77811" lon="6.33714">
        <ele>931.65</ele>
        <time>2025-11-13T08:15:30Z</time>
      </trkpt>
      <trkpt lat="43.77793" lon="6.33681">
        <ele>934.54</ele>
        <time>2025-11-13T08:15:42Z</time>
      </trkpt>
      <trkpt lat="43.77774" lon="6.33641">
        <ele>937.9</ele>
        <time>2025-11-13T08:15:56Z</time>
      </trkpt>
      <trkpt lat="43.77761" lon="6.336">
        <ele>941.27</ele>
        <time>2025-11-13T08:16:09Z</time>
      </trkpt>
      <trkpt lat="43.7775" lon="6.33571">
        <ele>944.15</ele>
        <time>2025-11-13T08:16:19Z</time>
      </trkpt>
      <trkpt lat="43.77728" lon="6.33539">
        <ele>947.52</ele>
        <time>2025-11-13T08:16:32Z</time>
      </trkpt>
      <trkpt lat="43.77706" lon="6.335">
        <ele>950.4</ele>
        <time>2025-11-13T08:16:46Z</time>
      </trkpt>
      <trkpt lat="43.77687" lon="6.33462">
        <ele>951.84</ele>
        <time>2025-11-13T08:16:59Z</time>
      </trkpt>
      <trkpt lat="43.77665" lon="6.33415">
        <ele>952.32</ele>
        <time>2025-11-13T08:17:13Z</time>
      </trkpt>
      <trkpt lat="43.77639" lon="6.33376">
        <ele>952.32</ele>
        <time>2025-11-13T08:17:25Z</time>
      </trkpt>
      <trkpt lat="43.77599" lon="6.33346">
        <ele>952.32</ele>
        <time>2025-11-13T08:17:37Z</time>
      </trkpt>
      <trkpt lat="43.77554" lon="6.33319">
        <ele>953.77</ele>
        <time>2025-11-13T08:17:51Z</time>
      </trkpt>
      <trkpt lat="43.77519" lon="6.33276">
        <ele>957.61</ele>
        <time>2025-11-13T08:18:05Z</time>
      </trkpt>
      <trkpt lat="43.77488" lon="6.33236">
        <ele>960.01</ele>
        <time>2025-11-13T08:18:18Z</time>
      </trkpt>
      <trkpt lat="43.77453" lon="6.33203">
        <ele>960.01</ele>
        <time>2025-11-13T08:18:30Z</time>
      </trkpt>
      <trkpt lat="43.77435" lon="6.33194">
        <ele>960.01</ele>
        <time>2025-11-13T08:18:35Z</time>
      </trkpt>
      <trkpt lat="43.77392" lon="6.33182">
        <ele>960.98</ele>
        <time>2025-11-13T08:18:46Z</time>
      </trkpt>
      <trkpt lat="43.77354" lon="6.33157">
        <ele>962.9</ele>
        <time>2025-11-13T08:18:57Z</time>
      </trkpt>
      <trkpt lat="43.7733" lon="6.33099">
        <ele>965.3</ele>
        <time>2025-11-13T08:19:10Z</time>
      </trkpt>
      <trkpt lat="43.77305" lon="6.33028">
        <ele>968.18</ele>
        <time>2025-11-13T08:19:26Z</time>
      </trkpt>
      <trkpt lat="43.77291" lon="6.32959">
        <ele>971.55</ele>
        <time>2025-11-13T08:19:41Z</time>
      </trkpt>
      <trkpt lat="43.77293" lon="6.3288">
        <ele>974.91</ele>
        <time>2025-11-13T08:19:58Z</time>
      </trkpt>
      <trkpt lat="43.77307" lon="6.32795">
        <ele>977.32</ele>
        <time>2025-11-13T08:20:16Z</time>
      </trkpt>
      <trkpt lat="43.77301" lon="6.32717">
        <ele>979.72</ele>
        <time>2025-11-13T08:20:33Z</time>
      </trkpt>
      <trkpt lat="43.77277" lon="6.32659">
        <ele>981.16</ele>
        <time>2025-11-13T08:20:47Z</time>
      </trkpt>
      <trkpt lat="43.77272" lon="6.32615">
        <ele>983.57</ele>
        <time>2025-11-13T08:20:57Z</time>
      </trkpt>
      <trkpt lat="43.7728" lon="6.3255">
        <ele>985.49</ele>
        <time>2025-11-13T08:21:12Z</time>
      </trkpt>
      <trkpt lat="43.77282" lon="6.32537">
        <ele>985.49</ele>
        <time>2025-11-13T08:21:19Z</time>
      </trkpt>
      <trkpt lat="43.77282" lon="6.32535">
        <ele>985.97</ele>
        <time>2025-11-13T08:21:34Z</time>
      </trkpt>
      <trkpt lat="43.77281" lon="6.32536">
        <ele>985.97</ele>
        <time>2025-11-13T08:21:57Z</time>
      </trkpt>
      <trkpt lat="43.7728" lon="6.32532">
        <ele>985.97</ele>
        <time>2025-11-13T08:22:04Z</time>
      </trkpt>
      <trkpt lat="43.7728" lon="6.32531">
        <ele>985.97</ele>
        <time>2025-11-13T08:22:05Z</time>
      </trkpt>
      <trkpt lat="43.7728" lon="6.32529">
        <ele>985.97</ele>
        <time>2025-11-13T08:22:06Z</time>
      </trkpt>
      <trkpt lat="43.77279" lon="6.32526">
        <ele>985.97</ele>
        <time>2025-11-13T08:22:07Z</time>
      </trkpt>
      <trkpt lat="43.77278" lon="6.32523">
        <ele>985.97</ele>
        <time>2025-11-13T08:22:08Z</time>
      </trkpt>
      <trkpt lat="43.77277" lon="6.3252">
        <ele>985.97</ele>
        <time>2025-11-13T08:22:09Z</time>
      </trkpt>
      <trkpt lat="43.77275" lon="6.32517">
        <ele>985.97</ele>
        <time>2025-11-13T08:22:10Z</time>
      </trkpt>
      <trkpt lat="43.77273" lon="6.32514">
        <ele>985.97</ele>
        <time>2025-11-13T08:22:11Z</time>
      </trkpt>
      <trkpt lat="43.77242" lon="6.32474">
        <ele>987.41</ele>
        <time>2025-11-13T08:22:24Z</time>
      </trkpt>
      <trkpt lat="43.77214" lon="6.32437">
        <ele>989.81</ele>
        <time>2025-11-13T08:22:36Z</time>
      </trkpt>
      <trkpt lat="43.77176" lon="6.32411">
        <ele>992.22</ele>
        <time>2025-11-13T08:22:49Z</time>
      </trkpt>
      <trkpt lat="43.77147" lon="6.32375">
        <ele>994.62</ele>
        <time>2025-11-13T08:23:01Z</time>
      </trkpt>
      <trkpt lat="43.77106" lon="6.32329">
        <ele>997.02</ele>
        <time>2025-11-13T08:23:17Z</time>
      </trkpt>
      <trkpt lat="43.7707" lon="6.32282">
        <ele>998.95</ele>
        <time>2025-11-13T08:23:32Z</time>
      </trkpt>
      <trkpt lat="43.77044" lon="6.32225">
        <ele>1001.83</ele>
        <time>2025-11-13T08:23:47Z</time>
      </trkpt>
      <trkpt lat="43.77028" lon="6.32174">
        <ele>1004.72</ele>
        <time>2025-11-13T08:24:00Z</time>
      </trkpt>
      <trkpt lat="43.7702" lon="6.32132">
        <ele>1006.16</ele>
        <time>2025-11-13T08:24:11Z</time>
      </trkpt>
      <trkpt lat="43.77015" lon="6.32074">
        <ele>1006.64</ele>
        <time>2025-11-13T08:24:26Z</time>
      </trkpt>
      <trkpt lat="43.77013" lon="6.32024">
        <ele>1006.64</ele>
        <time>2025-11-13T08:24:39Z</time>
      </trkpt>
      <trkpt lat="43.77013" lon="6.31992">
        <ele>1007.12</ele>
        <time>2025-11-13T08:24:50Z</time>
      </trkpt>
      <trkpt lat="43.76999" lon="6.31954">
        <ele>1009.52</ele>
        <time>2025-11-13T08:25:01Z</time>
      </trkpt>
      <trkpt lat="43.76994" lon="6.31911">
        <ele>1012.41</ele>
        <time>2025-11-13T08:25:11Z</time>
      </trkpt>
      <trkpt lat="43.77004" lon="6.31854">
        <ele>1012.41</ele>
        <time>2025-11-13T08:25:24Z</time>
      </trkpt>
      <trkpt lat="43.77022" lon="6.31794">
        <ele>1012.41</ele>
        <time>2025-11-13T08:25:38Z</time>
      </trkpt>
      <trkpt lat="43.77029" lon="6.31749">
        <ele>1012.89</ele>
        <time>2025-11-13T08:25:48Z</time>
      </trkpt>
      <trkpt lat="43.77005" lon="6.31691">
        <ele>1014.81</ele>
        <time>2025-11-13T08:26:02Z</time>
      </trkpt>
      <trkpt lat="43.76971" lon="6.3165">
        <ele>1017.21</ele>
        <time>2025-11-13T08:26:16Z</time>
      </trkpt>
      <trkpt lat="43.7696" lon="6.31608">
        <ele>1019.13</ele>
        <time>2025-11-13T08:26:27Z</time>
      </trkpt>
      <trkpt lat="43.76957" lon="6.31595">
        <ele>1019.62</ele>
        <time>2025-11-13T08:26:35Z</time>
      </trkpt>
      <trkpt lat="43.76958" lon="6.31595">
        <ele>1020.1</ele>
        <time>2025-11-13T08:26:48Z</time>
      </trkpt>
      <trkpt lat="43.76957" lon="6.31593">
        <ele>1020.1</ele>
        <time>2025-11-13T08:27:02Z</time>
      </trkpt>
      <trkpt lat="43.76957" lon="6.31592">
        <ele>1020.1</ele>
        <time>2025-11-13T08:27:22Z</time>
      </trkpt>
      <trkpt lat="43.76957" lon="6.31593">
        <ele>1020.1</ele>
        <time>2025-11-13T08:27:41Z</time>
      </trkpt>
      <trkpt lat="43.76955" lon="6.31593">
        <ele>1020.1</ele>
        <time>2025-11-13T08:28:04Z</time>
      </trkpt>
      <trkpt lat="43.76956" lon="6.31595">
        <ele>1020.58</ele>
        <time>2025-11-13T08:28:19Z</time>
      </trkpt>
      <trkpt lat="43.76957" lon="6.31595">
        <ele>1020.58</ele>
        <time>2025-11-13T08:28:38Z</time>
      </trkpt>
      <trkpt lat="43.76949" lon="6.31586">
        <ele>1020.1</ele>
        <time>2025-11-13T08:28:49Z</time>
      </trkpt>
      <trkpt lat="43.76928" lon="6.31568">
        <ele>1019.62</ele>
        <time>2025-11-13T08:28:58Z</time>
      </trkpt>
      <trkpt lat="43.76889" lon="6.31535">
        <ele>1018.17</ele>
        <time>2025-11-13T08:29:08Z</time>
      </trkpt>
      <trkpt lat="43.76875" lon="6.31524">
        <ele>1018.17</ele>
        <time>2025-11-13T08:29:11Z</time>
      </trkpt>
      <trkpt lat="43.76871" lon="6.3152">
        <ele>1017.21</ele>
        <time>2025-11-13T08:29:12Z</time>
      </trkpt>
      <trkpt lat="43.76867" lon="6.31514">
        <ele>1017.21</ele>
        <time>2025-11-13T08:29:13Z</time>
      </trkpt>
      <trkpt lat="43.76864" lon="6.31507">
        <ele>1017.21</ele>
        <time>2025-11-13T08:29:14Z</time>
      </trkpt>
      <trkpt lat="43.7686" lon="6.31494">
        <ele>1016.25</ele>
        <time>2025-11-13T08:29:16Z</time>
      </trkpt>
      <trkpt lat="43.76859" lon="6.31483">
        <ele>1016.25</ele>
        <time>2025-11-13T08:29:17Z</time>
      </trkpt>
      <trkpt lat="43.76858" lon="6.31475">
        <ele>1015.77</ele>
        <time>2025-11-13T08:29:18Z</time>
      </trkpt>
      <trkpt lat="43.76842" lon="6.31378">
        <ele>1012.41</ele>
        <time>2025-11-13T08:29:28Z</time>
      </trkpt>
      <trkpt lat="43.76839" lon="6.31368">
        <ele>1012.41</ele>
        <time>2025-11-13T08:29:29Z</time>
      </trkpt>
      <trkpt lat="43.76826" lon="6.31325">
        <ele>1010.48</ele>
        <time>2025-11-13T08:29:33Z</time>
      </trkpt>
      <trkpt lat="43.76807" lon="6.31268">
        <ele>1007.12</ele>
        <time>2025-11-13T08:29:38Z</time>
      </trkpt>
      <trkpt lat="43.76797" lon="6.31247">
        <ele>1006.64</ele>
        <time>2025-11-13T08:29:40Z</time>
      </trkpt>
      <trkpt lat="43.76754" lon="6.31178">
        <ele>1003.75</ele>
        <time>2025-11-13T08:29:47Z</time>
      </trkpt>
      <trkpt lat="43.76749" lon="6.31167">
        <ele>1003.27</ele>
        <time>2025-11-13T08:29:48Z</time>
      </trkpt>
      <trkpt lat="43.76745" lon="6.31155">
        <ele>1003.27</ele>
        <time>2025-11-13T08:29:49Z</time>
      </trkpt>
      <trkpt lat="43.76741" lon="6.31143">
        <ele>1002.79</ele>
        <time>2025-11-13T08:29:50Z</time>
      </trkpt>
      <trkpt lat="43.76739" lon="6.3113">
        <ele>1002.31</ele>
        <time>2025-11-13T08:29:51Z</time>
      </trkpt>
      <trkpt lat="43.76737" lon="6.31116">
        <ele>1001.83</ele>
        <time>2025-11-13T08:29:52Z</time>
      </trkpt>
      <trkpt lat="43.76737" lon="6.31103">
        <ele>1001.83</ele>
        <time>2025-11-13T08:29:53Z</time>
      </trkpt>
      <trkpt lat="43.76738" lon="6.31089">
        <ele>1000.87</ele>
        <time>2025-11-13T08:29:54Z</time>
      </trkpt>
      <trkpt lat="43.7674" lon="6.31076">
        <ele>1000.39</ele>
        <time>2025-11-13T08:29:55Z</time>
      </trkpt>
      <trkpt lat="43.76744" lon="6.31062">
        <ele>999.43</ele>
        <time>2025-11-13T08:29:56Z</time>
      </trkpt>
      <trkpt lat="43.76747" lon="6.3105">
        <ele>999.43</ele>
        <time>2025-11-13T08:29:57Z</time>
      </trkpt>
      <trkpt lat="43.76752" lon="6.31036">
        <ele>998.95</ele>
        <time>2025-11-13T08:29:58Z</time>
      </trkpt>
      <trkpt lat="43.76757" lon="6.31023">
        <ele>998.47</ele>
        <time>2025-11-13T08:29:59Z</time>
      </trkpt>
      <trkpt lat="43.76763" lon="6.31011">
        <ele>998.47</ele>
        <time>2025-11-13T08:30:00Z</time>
      </trkpt>
      <trkpt lat="43.76775" lon="6.30986">
        <ele>997.51</ele>
        <time>2025-11-13T08:30:02Z</time>
      </trkpt>
      <trkpt lat="43.76779" lon="6.30974">
        <ele>996.54</ele>
        <time>2025-11-13T08:30:03Z</time>
      </trkpt>
      <trkpt lat="43.76792" lon="6.30934">
        <ele>995.58</ele>
        <time>2025-11-13T08:30:06Z</time>
      </trkpt>
      <trkpt lat="43.76798" lon="6.30922">
        <ele>995.1</ele>
        <time>2025-11-13T08:30:07Z</time>
      </trkpt>
      <trkpt lat="43.76805" lon="6.30912">
        <ele>994.14</ele>
        <time>2025-11-13T08:30:08Z</time>
      </trkpt>
      <trkpt lat="43.76811" lon="6.30902">
        <ele>994.14</ele>
        <time>2025-11-13T08:30:09Z</time>
      </trkpt>
      <trkpt lat="43.7682" lon="6.30892">
        <ele>994.62</ele>
        <time>2025-11-13T08:30:10Z</time>
      </trkpt>
      <trkpt lat="43.76844" lon="6.30868">
        <ele>993.66</ele>
        <time>2025-11-13T08:30:13Z</time>
      </trkpt>
      <trkpt lat="43.76852" lon="6.30864">
        <ele>993.66</ele>
        <time>2025-11-13T08:30:14Z</time>
      </trkpt>
      <trkpt lat="43.76862" lon="6.30863">
        <ele>993.18</ele>
        <time>2025-11-13T08:30:15Z</time>
      </trkpt>
      <trkpt lat="43.76871" lon="6.30867">
        <ele>993.18</ele>
        <time>2025-11-13T08:30:16Z</time>
      </trkpt>
      <trkpt lat="43.76879" lon="6.30871">
        <ele>993.18</ele>
        <time>2025-11-13T08:30:17Z</time>
      </trkpt>
      <trkpt lat="43.76887" lon="6.30876">
        <ele>993.18</ele>
        <time>2025-11-13T08:30:18Z</time>
      </trkpt>
      <trkpt lat="43.76919" lon="6.30895">
        <ele>994.62</ele>
        <time>2025-11-13T08:30:23Z</time>
      </trkpt>
      <trkpt lat="43.76971" lon="6.30932">
        <ele>994.62</ele>
        <time>2025-11-13T08:30:33Z</time>
      </trkpt>
      <trkpt lat="43.76981" lon="6.30934">
        <ele>994.62</ele>
        <time>2025-11-13T08:30:35Z</time>
      </trkpt>
      <trkpt lat="43.76986" lon="6.30934">
        <ele>994.62</ele>
        <time>2025-11-13T08:30:36Z</time>
      </trkpt>
      <trkpt lat="43.76992" lon="6.30933">
        <ele>994.62</ele>
        <time>2025-11-13T08:30:37Z</time>
      </trkpt>
      <trkpt lat="43.76997" lon="6.30931">
        <ele>994.62</ele>
        <time>2025-11-13T08:30:38Z</time>
      </trkpt>
      <trkpt lat="43.77002" lon="6.30928">
        <ele>994.62</ele>
        <time>2025-11-13T08:30:39Z</time>
      </trkpt>
      <trkpt lat="43.77007" lon="6.30924">
        <ele>993.18</ele>
        <time>2025-11-13T08:30:40Z</time>
      </trkpt>
      <trkpt lat="43.77012" lon="6.30919">
        <ele>993.18</ele>
        <time>2025-11-13T08:30:41Z</time>
      </trkpt>
      <trkpt lat="43.77016" lon="6.30912">
        <ele>993.18</ele>
        <time>2025-11-13T08:30:42Z</time>
      </trkpt>
      <trkpt lat="43.7702" lon="6.30899">
        <ele>992.22</ele>
        <time>2025-11-13T08:30:44Z</time>
      </trkpt>
      <trkpt lat="43.77019" lon="6.30885">
        <ele>992.22</ele>
        <time>2025-11-13T08:30:45Z</time>
      </trkpt>
      <trkpt lat="43.77017" lon="6.30875">
        <ele>991.26</ele>
        <time>2025-11-13T08:30:46Z</time>
      </trkpt>
      <trkpt lat="43.77013" lon="6.30816">
        <ele>987.89</ele>
        <time>2025-11-13T08:30:51Z</time>
      </trkpt>
      <trkpt lat="43.77027" lon="6.30739">
        <ele>983.57</ele>
        <time>2025-11-13T08:30:57Z</time>
      </trkpt>
      <trkpt lat="43.77031" lon="6.30727">
        <ele>983.09</ele>
        <time>2025-11-13T08:30:58Z</time>
      </trkpt>
      <trkpt lat="43.77036" lon="6.30715">
        <ele>982.12</ele>
        <time>2025-11-13T08:30:59Z</time>
      </trkpt>
      <trkpt lat="43.77056" lon="6.30669">
        <ele>980.2</ele>
        <time>2025-11-13T08:31:03Z</time>
      </trkpt>
      <trkpt lat="43.77062" lon="6.3066">
        <ele>979.24</ele>
        <time>2025-11-13T08:31:04Z</time>
      </trkpt>
      <trkpt lat="43.77069" lon="6.30652">
        <ele>978.76</ele>
        <time>2025-11-13T08:31:05Z</time>
      </trkpt>
      <trkpt lat="43.77075" lon="6.30644">
        <ele>978.28</ele>
        <time>2025-11-13T08:31:06Z</time>
      </trkpt>
      <trkpt lat="43.7708" lon="6.30635">
        <ele>977.8</ele>
        <time>2025-11-13T08:31:07Z</time>
      </trkpt>
      <trkpt lat="43.77082" lon="6.30624">
        <ele>976.84</ele>
        <time>2025-11-13T08:31:08Z</time>
      </trkpt>
      <trkpt lat="43.77079" lon="6.30612">
        <ele>976.36</ele>
        <time>2025-11-13T08:31:09Z</time>
      </trkpt>
      <trkpt lat="43.77074" lon="6.30602">
        <ele>975.88</ele>
        <time>2025-11-13T08:31:10Z</time>
      </trkpt>
      <trkpt lat="43.77067" lon="6.30594">
        <ele>975.39</ele>
        <time>2025-11-13T08:31:11Z</time>
      </trkpt>
      <trkpt lat="43.77061" lon="6.30586">
        <ele>974.43</ele>
        <time>2025-11-13T08:31:12Z</time>
      </trkpt>
      <trkpt lat="43.77048" lon="6.30571">
        <ele>973.95</ele>
        <time>2025-11-13T08:31:14Z</time>
      </trkpt>
      <trkpt lat="43.7704" lon="6.30563">
        <ele>972.99</ele>
        <time>2025-11-13T08:31:15Z</time>
      </trkpt>
      <trkpt lat="43.77033" lon="6.30558">
        <ele>972.51</ele>
        <time>2025-11-13T08:31:16Z</time>
      </trkpt>
      <trkpt lat="43.77024" lon="6.30552">
        <ele>972.51</ele>
        <time>2025-11-13T08:31:17Z</time>
      </trkpt>
      <trkpt lat="43.77016" lon="6.30546">
        <ele>971.55</ele>
        <time>2025-11-13T08:31:18Z</time>
      </trkpt>
      <trkpt lat="43.77009" lon="6.30539">
        <ele>971.07</ele>
        <time>2025-11-13T08:31:19Z</time>
      </trkpt>
      <trkpt lat="43.77002" lon="6.3053">
        <ele>970.11</ele>
        <time>2025-11-13T08:31:20Z</time>
      </trkpt>
      <trkpt lat="43.76997" lon="6.30519">
        <ele>970.11</ele>
        <time>2025-11-13T08:31:21Z</time>
      </trkpt>
      <trkpt lat="43.76993" lon="6.30508">
        <ele>969.63</ele>
        <time>2025-11-13T08:31:22Z</time>
      </trkpt>
      <trkpt lat="43.76991" lon="6.30497">
        <ele>969.15</ele>
        <time>2025-11-13T08:31:23Z</time>
      </trkpt>
      <trkpt lat="43.76989" lon="6.30485">
        <ele>969.15</ele>
        <time>2025-11-13T08:31:24Z</time>
      </trkpt>
      <trkpt lat="43.76988" lon="6.30473">
        <ele>968.67</ele>
        <time>2025-11-13T08:31:25Z</time>
      </trkpt>
      <trkpt lat="43.76988" lon="6.30462">
        <ele>969.15</ele>
        <time>2025-11-13T08:31:26Z</time>
      </trkpt>
      <trkpt lat="43.76988" lon="6.30451">
        <ele>968.67</ele>
        <time>2025-11-13T08:31:27Z</time>
      </trkpt>
      <trkpt lat="43.76991" lon="6.30395">
        <ele>968.18</ele>
        <time>2025-11-13T08:31:32Z</time>
      </trkpt>
      <trkpt lat="43.76994" lon="6.30385">
        <ele>967.7</ele>
        <time>2025-11-13T08:31:33Z</time>
      </trkpt>
      <trkpt lat="43.76999" lon="6.30376">
        <ele>967.7</ele>
        <time>2025-11-13T08:31:34Z</time>
      </trkpt>
      <trkpt lat="43.77005" lon="6.3037">
        <ele>967.22</ele>
        <time>2025-11-13T08:31:35Z</time>
      </trkpt>
      <trkpt lat="43.77013" lon="6.30366">
        <ele>966.74</ele>
        <time>2025-11-13T08:31:36Z</time>
      </trkpt>
      <trkpt lat="43.77023" lon="6.30365">
        <ele>966.74</ele>
        <time>2025-11-13T08:31:37Z</time>
      </trkpt>
      <trkpt lat="43.77029" lon="6.30365">
        <ele>966.26</ele>
        <time>2025-11-13T08:31:38Z</time>
      </trkpt>
      <trkpt lat="43.77037" lon="6.30366">
        <ele>965.78</ele>
        <time>2025-11-13T08:31:39Z</time>
      </trkpt>
      <trkpt lat="43.77045" lon="6.30367">
        <ele>965.78</ele>
        <time>2025-11-13T08:31:40Z</time>
      </trkpt>
      <trkpt lat="43.77053" lon="6.3037">
        <ele>965.3</ele>
        <time>2025-11-13T08:31:41Z</time>
      </trkpt>
      <trkpt lat="43.77061" lon="6.30373">
        <ele>965.3</ele>
        <time>2025-11-13T08:31:42Z</time>
      </trkpt>
      <trkpt lat="43.77079" lon="6.3038">
        <ele>964.82</ele>
        <time>2025-11-13T08:31:44Z</time>
      </trkpt>
      <trkpt lat="43.77084" lon="6.3038">
        <ele>964.34</ele>
        <time>2025-11-13T08:31:45Z</time>
      </trkpt>
      <trkpt lat="43.77092" lon="6.30378">
        <ele>964.34</ele>
        <time>2025-11-13T08:31:46Z</time>
      </trkpt>
      <trkpt lat="43.77099" lon="6.30373">
        <ele>963.86</ele>
        <time>2025-11-13T08:31:47Z</time>
      </trkpt>
      <trkpt lat="43.77105" lon="6.30365">
        <ele>963.38</ele>
        <time>2025-11-13T08:31:48Z</time>
      </trkpt>
      <trkpt lat="43.7711" lon="6.30356">
        <ele>963.38</ele>
        <time>2025-11-13T08:31:49Z</time>
      </trkpt>
      <trkpt lat="43.77114" lon="6.30346">
        <ele>962.42</ele>
        <time>2025-11-13T08:31:50Z</time>
      </trkpt>
      <trkpt lat="43.77118" lon="6.30335">
        <ele>962.42</ele>
        <time>2025-11-13T08:31:51Z</time>
      </trkpt>
      <trkpt lat="43.7712" lon="6.30322">
        <ele>961.46</ele>
        <time>2025-11-13T08:31:52Z</time>
      </trkpt>
      <trkpt lat="43.7712" lon="6.3031">
        <ele>960.49</ele>
        <time>2025-11-13T08:31:53Z</time>
      </trkpt>
      <trkpt lat="43.7712" lon="6.30296">
        <ele>960.01</ele>
        <time>2025-11-13T08:31:54Z</time>
      </trkpt>
      <trkpt lat="43.7712" lon="6.30283">
        <ele>959.05</ele>
        <time>2025-11-13T08:31:55Z</time>
      </trkpt>
      <trkpt lat="43.7712" lon="6.30271">
        <ele>959.05</ele>
        <time>2025-11-13T08:31:56Z</time>
      </trkpt>
      <trkpt lat="43.77121" lon="6.30257">
        <ele>958.09</ele>
        <time>2025-11-13T08:31:57Z</time>
      </trkpt>
      <trkpt lat="43.77123" lon="6.30245">
        <ele>957.61</ele>
        <time>2025-11-13T08:31:58Z</time>
      </trkpt>
      <trkpt lat="43.77127" lon="6.30231">
        <ele>957.13</ele>
        <time>2025-11-13T08:31:59Z</time>
      </trkpt>
      <trkpt lat="43.77131" lon="6.30221">
        <ele>957.13</ele>
        <time>2025-11-13T08:32:00Z</time>
      </trkpt>
      <trkpt lat="43.77138" lon="6.30209">
        <ele>956.17</ele>
        <time>2025-11-13T08:32:01Z</time>
      </trkpt>
      <trkpt lat="43.77144" lon="6.30201">
        <ele>956.17</ele>
        <time>2025-11-13T08:32:02Z</time>
      </trkpt>
      <trkpt lat="43.77152" lon="6.30191">
        <ele>955.69</ele>
        <time>2025-11-13T08:32:03Z</time>
      </trkpt>
      <trkpt lat="43.77192" lon="6.30133">
        <ele>952.32</ele>
        <time>2025-11-13T08:32:09Z</time>
      </trkpt>
      <trkpt lat="43.77197" lon="6.30121">
        <ele>951.84</ele>
        <time>2025-11-13T08:32:10Z</time>
      </trkpt>
      <trkpt lat="43.77201" lon="6.30109">
        <ele>951.36</ele>
        <time>2025-11-13T08:32:11Z</time>
      </trkpt>
      <trkpt lat="43.77204" lon="6.30095">
        <ele>950.4</ele>
        <time>2025-11-13T08:32:12Z</time>
      </trkpt>
      <trkpt lat="43.77206" lon="6.30081">
        <ele>949.92</ele>
        <time>2025-11-13T08:32:13Z</time>
      </trkpt>
      <trkpt lat="43.77206" lon="6.30067">
        <ele>948.96</ele>
        <time>2025-11-13T08:32:14Z</time>
      </trkpt>
      <trkpt lat="43.77205" lon="6.30052">
        <ele>948</ele>
        <time>2025-11-13T08:32:15Z</time>
      </trkpt>
      <trkpt lat="43.77203" lon="6.30038">
        <ele>947.52</ele>
        <time>2025-11-13T08:32:16Z</time>
      </trkpt>
      <trkpt lat="43.77202" lon="6.30024">
        <ele>947.52</ele>
        <time>2025-11-13T08:32:17Z</time>
      </trkpt>
      <trkpt lat="43.77196" lon="6.29964">
        <ele>944.15</ele>
        <time>2025-11-13T08:32:21Z</time>
      </trkpt>
      <trkpt lat="43.77195" lon="6.29934">
        <ele>942.71</ele>
        <time>2025-11-13T08:32:23Z</time>
      </trkpt>
      <trkpt lat="43.77196" lon="6.2992">
        <ele>942.23</ele>
        <time>2025-11-13T08:32:24Z</time>
      </trkpt>
      <trkpt lat="43.77202" lon="6.29901">
        <ele>940.79</ele>
        <time>2025-11-13T08:32:26Z</time>
      </trkpt>
      <trkpt lat="43.77214" lon="6.29888">
        <ele>940.31</ele>
        <time>2025-11-13T08:32:27Z</time>
      </trkpt>
      <trkpt lat="43.77222" lon="6.29879">
        <ele>938.86</ele>
        <time>2025-11-13T08:32:28Z</time>
      </trkpt>
      <trkpt lat="43.77229" lon="6.2987">
        <ele>938.86</ele>
        <time>2025-11-13T08:32:29Z</time>
      </trkpt>
      <trkpt lat="43.77237" lon="6.29858">
        <ele>937.9</ele>
        <time>2025-11-13T08:32:30Z</time>
      </trkpt>
      <trkpt lat="43.77251" lon="6.29835">
        <ele>935.98</ele>
        <time>2025-11-13T08:32:32Z</time>
      </trkpt>
      <trkpt lat="43.77259" lon="6.29825">
        <ele>935.5</ele>
        <time>2025-11-13T08:32:33Z</time>
      </trkpt>
      <trkpt lat="43.77269" lon="6.29817">
        <ele>935.02</ele>
        <time>2025-11-13T08:32:34Z</time>
      </trkpt>
      <trkpt lat="43.77278" lon="6.2981">
        <ele>934.06</ele>
        <time>2025-11-13T08:32:35Z</time>
      </trkpt>
      <trkpt lat="43.77289" lon="6.29804">
        <ele>933.1</ele>
        <time>2025-11-13T08:32:36Z</time>
      </trkpt>
      <trkpt lat="43.77298" lon="6.29798">
        <ele>932.62</ele>
        <time>2025-11-13T08:32:37Z</time>
      </trkpt>
      <trkpt lat="43.77308" lon="6.29789">
        <ele>931.65</ele>
        <time>2025-11-13T08:32:38Z</time>
      </trkpt>
      <trkpt lat="43.77316" lon="6.29779">
        <ele>931.17</ele>
        <time>2025-11-13T08:32:39Z</time>
      </trkpt>
      <trkpt lat="43.77322" lon="6.29767">
        <ele>930.69</ele>
        <time>2025-11-13T08:32:40Z</time>
      </trkpt>
      <trkpt lat="43.77327" lon="6.29752">
        <ele>929.73</ele>
        <time>2025-11-13T08:32:41Z</time>
      </trkpt>
      <trkpt lat="43.7733" lon="6.29739">
        <ele>928.77</ele>
        <time>2025-11-13T08:32:42Z</time>
      </trkpt>
      <trkpt lat="43.77334" lon="6.29723">
        <ele>928.29</ele>
        <time>2025-11-13T08:32:43Z</time>
      </trkpt>
      <trkpt lat="43.77352" lon="6.29665">
        <ele>924.93</ele>
        <time>2025-11-13T08:32:47Z</time>
      </trkpt>
      <trkpt lat="43.77377" lon="6.2961">
        <ele>921.56</ele>
        <time>2025-11-13T08:32:51Z</time>
      </trkpt>
      <trkpt lat="43.774" lon="6.29553">
        <ele>918.68</ele>
        <time>2025-11-13T08:32:55Z</time>
      </trkpt>
      <trkpt lat="43.77424" lon="6.29497">
        <ele>915.31</ele>
        <time>2025-11-13T08:32:59Z</time>
      </trkpt>
      <trkpt lat="43.77462" lon="6.29441">
        <ele>911.47</ele>
        <time>2025-11-13T08:33:04Z</time>
      </trkpt>
      <trkpt lat="43.77468" lon="6.29428">
        <ele>910.99</ele>
        <time>2025-11-13T08:33:05Z</time>
      </trkpt>
      <trkpt lat="43.77471" lon="6.29414">
        <ele>910.03</ele>
        <time>2025-11-13T08:33:06Z</time>
      </trkpt>
      <trkpt lat="43.77472" lon="6.29399">
        <ele>909.54</ele>
        <time>2025-11-13T08:33:07Z</time>
      </trkpt>
      <trkpt lat="43.7747" lon="6.29384">
        <ele>908.58</ele>
        <time>2025-11-13T08:33:08Z</time>
      </trkpt>
      <trkpt lat="43.77466" lon="6.2937">
        <ele>908.1</ele>
        <time>2025-11-13T08:33:09Z</time>
      </trkpt>
      <trkpt lat="43.77461" lon="6.29357">
        <ele>908.1</ele>
        <time>2025-11-13T08:33:10Z</time>
      </trkpt>
      <trkpt lat="43.77458" lon="6.29342">
        <ele>906.66</ele>
        <time>2025-11-13T08:33:11Z</time>
      </trkpt>
      <trkpt lat="43.77457" lon="6.29328">
        <ele>906.18</ele>
        <time>2025-11-13T08:33:12Z</time>
      </trkpt>
      <trkpt lat="43.7746" lon="6.29313">
        <ele>905.22</ele>
        <time>2025-11-13T08:33:13Z</time>
      </trkpt>
      <trkpt lat="43.77464" lon="6.293">
        <ele>904.26</ele>
        <time>2025-11-13T08:33:14Z</time>
      </trkpt>
      <trkpt lat="43.77472" lon="6.29286">
        <ele>903.3</ele>
        <time>2025-11-13T08:33:15Z</time>
      </trkpt>
      <trkpt lat="43.77478" lon="6.29275">
        <ele>902.82</ele>
        <time>2025-11-13T08:33:16Z</time>
      </trkpt>
      <trkpt lat="43.77508" lon="6.29229">
        <ele>899.45</ele>
        <time>2025-11-13T08:33:20Z</time>
      </trkpt>
      <trkpt lat="43.77516" lon="6.29219">
        <ele>899.45</ele>
        <time>2025-11-13T08:33:21Z</time>
      </trkpt>
      <trkpt lat="43.7755" lon="6.2918">
        <ele>897.05</ele>
        <time>2025-11-13T08:33:25Z</time>
      </trkpt>
      <trkpt lat="43.77566" lon="6.29158">
        <ele>895.12</ele>
        <time>2025-11-13T08:33:27Z</time>
      </trkpt>
      <trkpt lat="43.77572" lon="6.29146">
        <ele>894.64</ele>
        <time>2025-11-13T08:33:28Z</time>
      </trkpt>
      <trkpt lat="43.77577" lon="6.29131">
        <ele>893.2</ele>
        <time>2025-11-13T08:33:29Z</time>
      </trkpt>
      <trkpt lat="43.7758" lon="6.29116">
        <ele>892.24</ele>
        <time>2025-11-13T08:33:30Z</time>
      </trkpt>
      <trkpt lat="43.77582" lon="6.29101">
        <ele>891.28</ele>
        <time>2025-11-13T08:33:31Z</time>
      </trkpt>
      <trkpt lat="43.77589" lon="6.29069">
        <ele>889.84</ele>
        <time>2025-11-13T08:33:33Z</time>
      </trkpt>
      <trkpt lat="43.77593" lon="6.29053">
        <ele>889.36</ele>
        <time>2025-11-13T08:33:34Z</time>
      </trkpt>
      <trkpt lat="43.77596" lon="6.29037">
        <ele>888.4</ele>
        <time>2025-11-13T08:33:35Z</time>
      </trkpt>
      <trkpt lat="43.77597" lon="6.29022">
        <ele>887.43</ele>
        <time>2025-11-13T08:33:36Z</time>
      </trkpt>
      <trkpt lat="43.77597" lon="6.29005">
        <ele>885.99</ele>
        <time>2025-11-13T08:33:37Z</time>
      </trkpt>
      <trkpt lat="43.77597" lon="6.28989">
        <ele>885.51</ele>
        <time>2025-11-13T08:33:38Z</time>
      </trkpt>
      <trkpt lat="43.77598" lon="6.28972">
        <ele>885.03</ele>
        <time>2025-11-13T08:33:39Z</time>
      </trkpt>
      <trkpt lat="43.77601" lon="6.28955">
        <ele>884.07</ele>
        <time>2025-11-13T08:33:40Z</time>
      </trkpt>
      <trkpt lat="43.77603" lon="6.28942">
        <ele>883.59</ele>
        <time>2025-11-13T08:33:41Z</time>
      </trkpt>
      <trkpt lat="43.77609" lon="6.28876">
        <ele>880.71</ele>
        <time>2025-11-13T08:33:45Z</time>
      </trkpt>
      <trkpt lat="43.77609" lon="6.28809">
        <ele>876.38</ele>
        <time>2025-11-13T08:33:49Z</time>
      </trkpt>
      <trkpt lat="43.7761" lon="6.28742">
        <ele>873.5</ele>
        <time>2025-11-13T08:33:53Z</time>
      </trkpt>
      <trkpt lat="43.77608" lon="6.28694">
        <ele>870.61</ele>
        <time>2025-11-13T08:33:56Z</time>
      </trkpt>
      <trkpt lat="43.77605" lon="6.28678">
        <ele>870.13</ele>
        <time>2025-11-13T08:33:57Z</time>
      </trkpt>
      <trkpt lat="43.77601" lon="6.28663">
        <ele>869.65</ele>
        <time>2025-11-13T08:33:58Z</time>
      </trkpt>
      <trkpt lat="43.77595" lon="6.28649">
        <ele>868.69</ele>
        <time>2025-11-13T08:33:59Z</time>
      </trkpt>
      <trkpt lat="43.77589" lon="6.28634">
        <ele>868.21</ele>
        <time>2025-11-13T08:34:00Z</time>
      </trkpt>
      <trkpt lat="43.77584" lon="6.28622">
        <ele>867.73</ele>
        <time>2025-11-13T08:34:01Z</time>
      </trkpt>
      <trkpt lat="43.77581" lon="6.28606">
        <ele>867.25</ele>
        <time>2025-11-13T08:34:02Z</time>
      </trkpt>
      <trkpt lat="43.77579" lon="6.28591">
        <ele>866.29</ele>
        <time>2025-11-13T08:34:03Z</time>
      </trkpt>
      <trkpt lat="43.77579" lon="6.28575">
        <ele>865.32</ele>
        <time>2025-11-13T08:34:04Z</time>
      </trkpt>
      <trkpt lat="43.7758" lon="6.28559">
        <ele>864.84</ele>
        <time>2025-11-13T08:34:05Z</time>
      </trkpt>
      <trkpt lat="43.77583" lon="6.28543">
        <ele>863.88</ele>
        <time>2025-11-13T08:34:06Z</time>
      </trkpt>
      <trkpt lat="43.7759" lon="6.28497">
        <ele>861.96</ele>
        <time>2025-11-13T08:34:09Z</time>
      </trkpt>
      <trkpt lat="43.77595" lon="6.28483">
        <ele>861</ele>
        <time>2025-11-13T08:34:10Z</time>
      </trkpt>
      <trkpt lat="43.77602" lon="6.2847">
        <ele>860.52</ele>
        <time>2025-11-13T08:34:11Z</time>
      </trkpt>
      <trkpt lat="43.77639" lon="6.28408">
        <ele>857.15</ele>
        <time>2025-11-13T08:34:16Z</time>
      </trkpt>
      <trkpt lat="43.77648" lon="6.28396">
        <ele>856.67</ele>
        <time>2025-11-13T08:34:17Z</time>
      </trkpt>
      <trkpt lat="43.77677" lon="6.28369">
        <ele>853.79</ele>
        <time>2025-11-13T08:34:20Z</time>
      </trkpt>
      <trkpt lat="43.77688" lon="6.28364">
        <ele>852.83</ele>
        <time>2025-11-13T08:34:21Z</time>
      </trkpt>
      <trkpt lat="43.77699" lon="6.28362">
        <ele>851.87</ele>
        <time>2025-11-13T08:34:22Z</time>
      </trkpt>
      <trkpt lat="43.77711" lon="6.28362">
        <ele>851.87</ele>
        <time>2025-11-13T08:34:23Z</time>
      </trkpt>
      <trkpt lat="43.77722" lon="6.28363">
        <ele>850.9</ele>
        <time>2025-11-13T08:34:24Z</time>
      </trkpt>
      <trkpt lat="43.77769" lon="6.28362">
        <ele>848.02</ele>
        <time>2025-11-13T08:34:28Z</time>
      </trkpt>
      <trkpt lat="43.77827" lon="6.28346">
        <ele>844.18</ele>
        <time>2025-11-13T08:34:33Z</time>
      </trkpt>
      <trkpt lat="43.77882" lon="6.2832">
        <ele>840.81</ele>
        <time>2025-11-13T08:34:38Z</time>
      </trkpt>
      <trkpt lat="43.77892" lon="6.28311">
        <ele>839.85</ele>
        <time>2025-11-13T08:34:39Z</time>
      </trkpt>
      <trkpt lat="43.77934" lon="6.28281">
        <ele>836.48</ele>
        <time>2025-11-13T08:34:43Z</time>
      </trkpt>
      <trkpt lat="43.77943" lon="6.28277">
        <ele>836.48</ele>
        <time>2025-11-13T08:34:44Z</time>
      </trkpt>
      <trkpt lat="43.77955" lon="6.28274">
        <ele>835.52</ele>
        <time>2025-11-13T08:34:45Z</time>
      </trkpt>
      <trkpt lat="43.77966" lon="6.28271">
        <ele>834.56</ele>
        <time>2025-11-13T08:34:46Z</time>
      </trkpt>
      <trkpt lat="43.77979" lon="6.28269">
        <ele>833.6</ele>
        <time>2025-11-13T08:34:47Z</time>
      </trkpt>
      <trkpt lat="43.7803" lon="6.28259">
        <ele>830.24</ele>
        <time>2025-11-13T08:34:52Z</time>
      </trkpt>
      <trkpt lat="43.78039" lon="6.2826">
        <ele>829.76</ele>
        <time>2025-11-13T08:34:53Z</time>
      </trkpt>
      <trkpt lat="43.78057" lon="6.28263">
        <ele>828.79</ele>
        <time>2025-11-13T08:34:55Z</time>
      </trkpt>
      <trkpt lat="43.78064" lon="6.28259">
        <ele>828.31</ele>
        <time>2025-11-13T08:34:56Z</time>
      </trkpt>
      <trkpt lat="43.7807" lon="6.28251">
        <ele>827.35</ele>
        <time>2025-11-13T08:34:57Z</time>
      </trkpt>
      <trkpt lat="43.78071" lon="6.28242">
        <ele>826.87</ele>
        <time>2025-11-13T08:34:58Z</time>
      </trkpt>
      <trkpt lat="43.78069" lon="6.28233">
        <ele>826.87</ele>
        <time>2025-11-13T08:34:59Z</time>
      </trkpt>
      <trkpt lat="43.78064" lon="6.28227">
        <ele>826.39</ele>
        <time>2025-11-13T08:35:00Z</time>
      </trkpt>
      <trkpt lat="43.78057" lon="6.28226">
        <ele>825.91</ele>
        <time>2025-11-13T08:35:01Z</time>
      </trkpt>
      <trkpt lat="43.7805" lon="6.28227">
        <ele>825.91</ele>
        <time>2025-11-13T08:35:02Z</time>
      </trkpt>
      <trkpt lat="43.78041" lon="6.2823">
        <ele>825.43</ele>
        <time>2025-11-13T08:35:03Z</time>
      </trkpt>
      <trkpt lat="43.78012" lon="6.28238">
        <ele>823.99</ele>
        <time>2025-11-13T08:35:07Z</time>
      </trkpt>
      <trkpt lat="43.78004" lon="6.28238">
        <ele>823.51</ele>
        <time>2025-11-13T08:35:08Z</time>
      </trkpt>
      <trkpt lat="43.77996" lon="6.28238">
        <ele>823.03</ele>
        <time>2025-11-13T08:35:09Z</time>
      </trkpt>
      <trkpt lat="43.77988" lon="6.28236">
        <ele>822.55</ele>
        <time>2025-11-13T08:35:10Z</time>
      </trkpt>
      <trkpt lat="43.77979" lon="6.28233">
        <ele>822.06</ele>
        <time>2025-11-13T08:35:11Z</time>
      </trkpt>
      <trkpt lat="43.77952" lon="6.28229">
        <ele>819.66</ele>
        <time>2025-11-13T08:35:14Z</time>
      </trkpt>
      <trkpt lat="43.77943" lon="6.28229">
        <ele>819.18</ele>
        <time>2025-11-13T08:35:15Z</time>
      </trkpt>
      <trkpt lat="43.77933" lon="6.28231">
        <ele>819.18</ele>
        <time>2025-11-13T08:35:16Z</time>
      </trkpt>
      <trkpt lat="43.77924" lon="6.28233">
        <ele>818.22</ele>
        <time>2025-11-13T08:35:17Z</time>
      </trkpt>
      <trkpt lat="43.77915" lon="6.28236">
        <ele>817.26</ele>
        <time>2025-11-13T08:35:18Z</time>
      </trkpt>
      <trkpt lat="43.77877" lon="6.28256">
        <ele>814.37</ele>
        <time>2025-11-13T08:35:22Z</time>
      </trkpt>
      <trkpt lat="43.77868" lon="6.28261">
        <ele>813.41</ele>
        <time>2025-11-13T08:35:23Z</time>
      </trkpt>
      <trkpt lat="43.77858" lon="6.28264">
        <ele>812.93</ele>
        <time>2025-11-13T08:35:24Z</time>
      </trkpt>
      <trkpt lat="43.77848" lon="6.28265">
        <ele>811.97</ele>
        <time>2025-11-13T08:35:25Z</time>
      </trkpt>
      <trkpt lat="43.77797" lon="6.28267">
        <ele>808.61</ele>
        <time>2025-11-13T08:35:30Z</time>
      </trkpt>
      <trkpt lat="43.77746" lon="6.28259">
        <ele>805.24</ele>
        <time>2025-11-13T08:35:35Z</time>
      </trkpt>
      <trkpt lat="43.77693" lon="6.28245">
        <ele>801.88</ele>
        <time>2025-11-13T08:35:40Z</time>
      </trkpt>
      <trkpt lat="43.77673" lon="6.28239">
        <ele>800.44</ele>
        <time>2025-11-13T08:35:42Z</time>
      </trkpt>
      <trkpt lat="43.77663" lon="6.28238">
        <ele>799.95</ele>
        <time>2025-11-13T08:35:43Z</time>
      </trkpt>
      <trkpt lat="43.77653" lon="6.28238">
        <ele>799.95</ele>
        <time>2025-11-13T08:35:44Z</time>
      </trkpt>
      <trkpt lat="43.77644" lon="6.28239">
        <ele>799.47</ele>
        <time>2025-11-13T08:35:45Z</time>
      </trkpt>
      <trkpt lat="43.77635" lon="6.28241">
        <ele>798.51</ele>
        <time>2025-11-13T08:35:46Z</time>
      </trkpt>
      <trkpt lat="43.77626" lon="6.28245">
        <ele>798.03</ele>
        <time>2025-11-13T08:35:47Z</time>
      </trkpt>
      <trkpt lat="43.77617" lon="6.28248">
        <ele>798.03</ele>
        <time>2025-11-13T08:35:48Z</time>
      </trkpt>
      <trkpt lat="43.7761" lon="6.28247">
        <ele>796.59</ele>
        <time>2025-11-13T08:35:49Z</time>
      </trkpt>
      <trkpt lat="43.77604" lon="6.28242">
        <ele>796.59</ele>
        <time>2025-11-13T08:35:50Z</time>
      </trkpt>
      <trkpt lat="43.77601" lon="6.28236">
        <ele>796.59</ele>
        <time>2025-11-13T08:35:51Z</time>
      </trkpt>
      <trkpt lat="43.77601" lon="6.2823">
        <ele>796.11</ele>
        <time>2025-11-13T08:35:52Z</time>
      </trkpt>
      <trkpt lat="43.77602" lon="6.28224">
        <ele>796.11</ele>
        <time>2025-11-13T08:35:53Z</time>
      </trkpt>
      <trkpt lat="43.77604" lon="6.28221">
        <ele>796.11</ele>
        <time>2025-11-13T08:35:54Z</time>
      </trkpt>
      <trkpt lat="43.77606" lon="6.28219">
        <ele>796.11</ele>
        <time>2025-11-13T08:35:55Z</time>
      </trkpt>
      <trkpt lat="43.77609" lon="6.28219">
        <ele>796.11</ele>
        <time>2025-11-13T08:35:56Z</time>
      </trkpt>
      <trkpt lat="43.77612" lon="6.28219">
        <ele>795.63</ele>
        <time>2025-11-13T08:35:58Z</time>
      </trkpt>
      <trkpt lat="43.77614" lon="6.28219">
        <ele>795.15</ele>
        <time>2025-11-13T08:36:07Z</time>
      </trkpt>
      <trkpt lat="43.77615" lon="6.28218">
        <ele>795.15</ele>
        <time>2025-11-13T08:36:25Z</time>
      </trkpt>
      <trkpt lat="43.77614" lon="6.28217">
        <ele>795.63</ele>
        <time>2025-11-13T08:36:47Z</time>
      </trkpt>
      <trkpt lat="43.77614" lon="6.28217">
        <ele>795.63</ele>
        <time>2025-11-13T08:37:02Z</time>
      </trkpt>
      <trkpt lat="43.77615" lon="6.28216">
        <ele>795.63</ele>
        <time>2025-11-13T08:37:19Z</time>
      </trkpt>
      <trkpt lat="43.77616" lon="6.28217">
        <ele>795.63</ele>
        <time>2025-11-13T08:37:23Z</time>
      </trkpt>
      <trkpt lat="43.77617" lon="6.28216">
        <ele>795.63</ele>
        <time>2025-11-13T08:37:24Z</time>
      </trkpt>
      <trkpt lat="43.77643" lon="6.28213">
        <ele>794.67</ele>
        <time>2025-11-13T08:37:31Z</time>
      </trkpt>
      <trkpt lat="43.77694" lon="6.28211">
        <ele>791.3</ele>
        <time>2025-11-13T08:37:39Z</time>
      </trkpt>
      <trkpt lat="43.77709" lon="6.2821">
        <ele>790.34</ele>
        <time>2025-11-13T08:37:41Z</time>
      </trkpt>
      <trkpt lat="43.7775" lon="6.28207">
        <ele>787.46</ele>
        <time>2025-11-13T08:37:46Z</time>
      </trkpt>
      <trkpt lat="43.77759" lon="6.28205">
        <ele>787.46</ele>
        <time>2025-11-13T08:37:47Z</time>
      </trkpt>
      <trkpt lat="43.77794" lon="6.28195">
        <ele>785.05</ele>
        <time>2025-11-13T08:37:51Z</time>
      </trkpt>
      <trkpt lat="43.77842" lon="6.28171">
        <ele>781.69</ele>
        <time>2025-11-13T08:37:56Z</time>
      </trkpt>
      <trkpt lat="43.7788" lon="6.28144">
        <ele>778.81</ele>
        <time>2025-11-13T08:38:00Z</time>
      </trkpt>
      <trkpt lat="43.77918" lon="6.2811">
        <ele>775.44</ele>
        <time>2025-11-13T08:38:04Z</time>
      </trkpt>
      <trkpt lat="43.77949" lon="6.28089">
        <ele>773.52</ele>
        <time>2025-11-13T08:38:07Z</time>
      </trkpt>
      <trkpt lat="43.7796" lon="6.28084">
        <ele>772.56</ele>
        <time>2025-11-13T08:38:08Z</time>
      </trkpt>
      <trkpt lat="43.78014" lon="6.28061">
        <ele>769.19</ele>
        <time>2025-11-13T08:38:13Z</time>
      </trkpt>
      <trkpt lat="43.78056" lon="6.28036">
        <ele>765.83</ele>
        <time>2025-11-13T08:38:17Z</time>
      </trkpt>
      <trkpt lat="43.78065" lon="6.28028">
        <ele>764.87</ele>
        <time>2025-11-13T08:38:18Z</time>
      </trkpt>
      <trkpt lat="43.78074" lon="6.28019">
        <ele>764.39</ele>
        <time>2025-11-13T08:38:19Z</time>
      </trkpt>
      <trkpt lat="43.78081" lon="6.28008">
        <ele>763.42</ele>
        <time>2025-11-13T08:38:20Z</time>
      </trkpt>
      <trkpt lat="43.78089" lon="6.27992">
        <ele>762.46</ele>
        <time>2025-11-13T08:38:21Z</time>
      </trkpt>
      <trkpt lat="43.78091" lon="6.27979">
        <ele>761.5</ele>
        <time>2025-11-13T08:38:22Z</time>
      </trkpt>
      <trkpt lat="43.78093" lon="6.27966">
        <ele>761.02</ele>
        <time>2025-11-13T08:38:23Z</time>
      </trkpt>
      <trkpt lat="43.78094" lon="6.27951">
        <ele>760.54</ele>
        <time>2025-11-13T08:38:24Z</time>
      </trkpt>
      <trkpt lat="43.78095" lon="6.27937">
        <ele>760.06</ele>
        <time>2025-11-13T08:38:25Z</time>
      </trkpt>
      <trkpt lat="43.78098" lon="6.27923">
        <ele>759.1</ele>
        <time>2025-11-13T08:38:26Z</time>
      </trkpt>
      <trkpt lat="43.78102" lon="6.27909">
        <ele>758.14</ele>
        <time>2025-11-13T08:38:27Z</time>
      </trkpt>
      <trkpt lat="43.78107" lon="6.27897">
        <ele>757.66</ele>
        <time>2025-11-13T08:38:28Z</time>
      </trkpt>
      <trkpt lat="43.78113" lon="6.27885">
        <ele>756.69</ele>
        <time>2025-11-13T08:38:29Z</time>
      </trkpt>
      <trkpt lat="43.7812" lon="6.27874">
        <ele>756.21</ele>
        <time>2025-11-13T08:38:30Z</time>
      </trkpt>
      <trkpt lat="43.78128" lon="6.27864">
        <ele>755.25</ele>
        <time>2025-11-13T08:38:31Z</time>
      </trkpt>
      <trkpt lat="43.78142" lon="6.27842">
        <ele>753.33</ele>
        <time>2025-11-13T08:38:33Z</time>
      </trkpt>
      <trkpt lat="43.78175" lon="6.27781">
        <ele>749.97</ele>
        <time>2025-11-13T08:38:38Z</time>
      </trkpt>
      <trkpt lat="43.78206" lon="6.27727">
        <ele>746.12</ele>
        <time>2025-11-13T08:38:43Z</time>
      </trkpt>
      <trkpt lat="43.78212" lon="6.27718">
        <ele>746.12</ele>
        <time>2025-11-13T08:38:44Z</time>
      </trkpt>
      <trkpt lat="43.78219" lon="6.2771">
        <ele>745.64</ele>
        <time>2025-11-13T08:38:45Z</time>
      </trkpt>
      <trkpt lat="43.78227" lon="6.27704">
        <ele>744.68</ele>
        <time>2025-11-13T08:38:46Z</time>
      </trkpt>
      <trkpt lat="43.78237" lon="6.277">
        <ele>744.2</ele>
        <time>2025-11-13T08:38:47Z</time>
      </trkpt>
      <trkpt lat="43.78246" lon="6.27697">
        <ele>743.24</ele>
        <time>2025-11-13T08:38:48Z</time>
      </trkpt>
      <trkpt lat="43.78255" lon="6.27694">
        <ele>742.76</ele>
        <time>2025-11-13T08:38:49Z</time>
      </trkpt>
      <trkpt lat="43.78263" lon="6.27687">
        <ele>742.76</ele>
        <time>2025-11-13T08:38:50Z</time>
      </trkpt>
      <trkpt lat="43.78268" lon="6.27679">
        <ele>741.79</ele>
        <time>2025-11-13T08:38:51Z</time>
      </trkpt>
      <trkpt lat="43.78273" lon="6.27666">
        <ele>740.83</ele>
        <time>2025-11-13T08:38:52Z</time>
      </trkpt>
      <trkpt lat="43.78276" lon="6.27655">
        <ele>740.35</ele>
        <time>2025-11-13T08:38:53Z</time>
      </trkpt>
      <trkpt lat="43.78278" lon="6.27641">
        <ele>739.39</ele>
        <time>2025-11-13T08:38:54Z</time>
      </trkpt>
      <trkpt lat="43.78294" lon="6.27563">
        <ele>736.03</ele>
        <time>2025-11-13T08:39:00Z</time>
      </trkpt>
      <trkpt lat="43.783" lon="6.27551">
        <ele>735.55</ele>
        <time>2025-11-13T08:39:01Z</time>
      </trkpt>
      <trkpt lat="43.78306" lon="6.27541">
        <ele>734.58</ele>
        <time>2025-11-13T08:39:02Z</time>
      </trkpt>
      <trkpt lat="43.78314" lon="6.27531">
        <ele>734.1</ele>
        <time>2025-11-13T08:39:03Z</time>
      </trkpt>
      <trkpt lat="43.78322" lon="6.27521">
        <ele>732.66</ele>
        <time>2025-11-13T08:39:04Z</time>
      </trkpt>
      <trkpt lat="43.7833" lon="6.27511">
        <ele>732.18</ele>
        <time>2025-11-13T08:39:05Z</time>
      </trkpt>
      <trkpt lat="43.78335" lon="6.27499">
        <ele>731.22</ele>
        <time>2025-11-13T08:39:06Z</time>
      </trkpt>
      <trkpt lat="43.7834" lon="6.27486">
        <ele>731.22</ele>
        <time>2025-11-13T08:39:07Z</time>
      </trkpt>
      <trkpt lat="43.78344" lon="6.27473">
        <ele>729.78</ele>
        <time>2025-11-13T08:39:08Z</time>
      </trkpt>
      <trkpt lat="43.78346" lon="6.27459">
        <ele>729.78</ele>
        <time>2025-11-13T08:39:09Z</time>
      </trkpt>
      <trkpt lat="43.78348" lon="6.27445">
        <ele>728.82</ele>
        <time>2025-11-13T08:39:10Z</time>
      </trkpt>
      <trkpt lat="43.78351" lon="6.27417">
        <ele>727.86</ele>
        <time>2025-11-13T08:39:12Z</time>
      </trkpt>
      <trkpt lat="43.78353" lon="6.27402">
        <ele>726.89</ele>
        <time>2025-11-13T08:39:13Z</time>
      </trkpt>
      <trkpt lat="43.78357" lon="6.27389">
        <ele>725.93</ele>
        <time>2025-11-13T08:39:14Z</time>
      </trkpt>
      <trkpt lat="43.78363" lon="6.27375">
        <ele>724.97</ele>
        <time>2025-11-13T08:39:15Z</time>
      </trkpt>
      <trkpt lat="43.78368" lon="6.27363">
        <ele>724.49</ele>
        <time>2025-11-13T08:39:16Z</time>
      </trkpt>
      <trkpt lat="43.78374" lon="6.27352">
        <ele>723.53</ele>
        <time>2025-11-13T08:39:17Z</time>
      </trkpt>
      <trkpt lat="43.78382" lon="6.2734">
        <ele>723.05</ele>
        <time>2025-11-13T08:39:18Z</time>
      </trkpt>
      <trkpt lat="43.78417" lon="6.27284">
        <ele>719.2</ele>
        <time>2025-11-13T08:39:23Z</time>
      </trkpt>
      <trkpt lat="43.78427" lon="6.27275">
        <ele>718.24</ele>
        <time>2025-11-13T08:39:24Z</time>
      </trkpt>
      <trkpt lat="43.78436" lon="6.27267">
        <ele>718.24</ele>
        <time>2025-11-13T08:39:25Z</time>
      </trkpt>
      <trkpt lat="43.78443" lon="6.27258">
        <ele>717.28</ele>
        <time>2025-11-13T08:39:26Z</time>
      </trkpt>
      <trkpt lat="43.78449" lon="6.27247">
        <ele>717.28</ele>
        <time>2025-11-13T08:39:27Z</time>
      </trkpt>
      <trkpt lat="43.78451" lon="6.27235">
        <ele>717.28</ele>
        <time>2025-11-13T08:39:28Z</time>
      </trkpt>
      <trkpt lat="43.78451" lon="6.27221">
        <ele>717.28</ele>
        <time>2025-11-13T08:39:29Z</time>
      </trkpt>
      <trkpt lat="43.7845" lon="6.27208">
        <ele>716.8</ele>
        <time>2025-11-13T08:39:30Z</time>
      </trkpt>
      <trkpt lat="43.78449" lon="6.27184">
        <ele>716.32</ele>
        <time>2025-11-13T08:39:32Z</time>
      </trkpt>
      <trkpt lat="43.7845" lon="6.27172">
        <ele>716.8</ele>
        <time>2025-11-13T08:39:33Z</time>
      </trkpt>
      <trkpt lat="43.78457" lon="6.27125">
        <ele>714.88</ele>
        <time>2025-11-13T08:39:37Z</time>
      </trkpt>
      <trkpt lat="43.78462" lon="6.27105">
        <ele>714.88</ele>
        <time>2025-11-13T08:39:39Z</time>
      </trkpt>
      <trkpt lat="43.78464" lon="6.27095">
        <ele>714.4</ele>
        <time>2025-11-13T08:39:40Z</time>
      </trkpt>
      <trkpt lat="43.78463" lon="6.27084">
        <ele>713.92</ele>
        <time>2025-11-13T08:39:41Z</time>
      </trkpt>
      <trkpt lat="43.78462" lon="6.27074">
        <ele>713.92</ele>
        <time>2025-11-13T08:39:42Z</time>
      </trkpt>
      <trkpt lat="43.7846" lon="6.27063">
        <ele>713.44</ele>
        <time>2025-11-13T08:39:43Z</time>
      </trkpt>
      <trkpt lat="43.78458" lon="6.27052">
        <ele>713.44</ele>
        <time>2025-11-13T08:39:44Z</time>
      </trkpt>
      <trkpt lat="43.78441" lon="6.26964">
        <ele>710.55</ele>
        <time>2025-11-13T08:39:52Z</time>
      </trkpt>
      <trkpt lat="43.78436" lon="6.26838">
        <ele>708.15</ele>
        <time>2025-11-13T08:40:04Z</time>
      </trkpt>
      <trkpt lat="43.78441" lon="6.26775">
        <ele>706.23</ele>
        <time>2025-11-13T08:40:10Z</time>
      </trkpt>
      <trkpt lat="43.78444" lon="6.26765">
        <ele>705.75</ele>
        <time>2025-11-13T08:40:11Z</time>
      </trkpt>
      <trkpt lat="43.78448" lon="6.26756">
        <ele>705.75</ele>
        <time>2025-11-13T08:40:12Z</time>
      </trkpt>
      <trkpt lat="43.78453" lon="6.2675">
        <ele>705.26</ele>
        <time>2025-11-13T08:40:13Z</time>
      </trkpt>
      <trkpt lat="43.78459" lon="6.26743">
        <ele>704.3</ele>
        <time>2025-11-13T08:40:14Z</time>
      </trkpt>
      <trkpt lat="43.78466" lon="6.26738">
        <ele>704.3</ele>
        <time>2025-11-13T08:40:15Z</time>
      </trkpt>
      <trkpt lat="43.7851" lon="6.26699">
        <ele>701.42</ele>
        <time>2025-11-13T08:40:21Z</time>
      </trkpt>
      <trkpt lat="43.78534" lon="6.2668">
        <ele>699.5</ele>
        <time>2025-11-13T08:40:24Z</time>
      </trkpt>
      <trkpt lat="43.78543" lon="6.26676">
        <ele>699.5</ele>
        <time>2025-11-13T08:40:25Z</time>
      </trkpt>
      <trkpt lat="43.78555" lon="6.26675">
        <ele>699.02</ele>
        <time>2025-11-13T08:40:26Z</time>
      </trkpt>
      <trkpt lat="43.78561" lon="6.26676">
        <ele>699.02</ele>
        <time>2025-11-13T08:40:27Z</time>
      </trkpt>
      <trkpt lat="43.78569" lon="6.26678">
        <ele>699.02</ele>
        <time>2025-11-13T08:40:28Z</time>
      </trkpt>
      <trkpt lat="43.78578" lon="6.26679">
        <ele>699.02</ele>
        <time>2025-11-13T08:40:29Z</time>
      </trkpt>
      <trkpt lat="43.78586" lon="6.26679">
        <ele>699.02</ele>
        <time>2025-11-13T08:40:30Z</time>
      </trkpt>
      <trkpt lat="43.78594" lon="6.26677">
        <ele>699.02</ele>
        <time>2025-11-13T08:40:31Z</time>
      </trkpt>
      <trkpt lat="43.78602" lon="6.26672">
        <ele>698.53</ele>
        <time>2025-11-13T08:40:32Z</time>
      </trkpt>
      <trkpt lat="43.78608" lon="6.26666">
        <ele>699.02</ele>
        <time>2025-11-13T08:40:33Z</time>
      </trkpt>
      <trkpt lat="43.78614" lon="6.26659">
        <ele>699.02</ele>
        <time>2025-11-13T08:40:34Z</time>
      </trkpt>
      <trkpt lat="43.7862" lon="6.26652">
        <ele>698.53</ele>
        <time>2025-11-13T08:40:35Z</time>
      </trkpt>
      <trkpt lat="43.78657" lon="6.26617">
        <ele>695.17</ele>
        <time>2025-11-13T08:40:40Z</time>
      </trkpt>
      <trkpt lat="43.78701" lon="6.26591">
        <ele>691.81</ele>
        <time>2025-11-13T08:40:45Z</time>
      </trkpt>
      <trkpt lat="43.78738" lon="6.26579">
        <ele>689.88</ele>
        <time>2025-11-13T08:40:49Z</time>
      </trkpt>
      <trkpt lat="43.78745" lon="6.26581">
        <ele>688.44</ele>
        <time>2025-11-13T08:40:50Z</time>
      </trkpt>
      <trkpt lat="43.78753" lon="6.26586">
        <ele>687.96</ele>
        <time>2025-11-13T08:40:51Z</time>
      </trkpt>
      <trkpt lat="43.78758" lon="6.26594">
        <ele>687.48</ele>
        <time>2025-11-13T08:40:52Z</time>
      </trkpt>
      <trkpt lat="43.78763" lon="6.26604">
        <ele>687.48</ele>
        <time>2025-11-13T08:40:53Z</time>
      </trkpt>
      <trkpt lat="43.78769" lon="6.26614">
        <ele>687</ele>
        <time>2025-11-13T08:40:54Z</time>
      </trkpt>
      <trkpt lat="43.78776" lon="6.26622">
        <ele>686.04</ele>
        <time>2025-11-13T08:40:55Z</time>
      </trkpt>
      <trkpt lat="43.78784" lon="6.26629">
        <ele>685.08</ele>
        <time>2025-11-13T08:40:56Z</time>
      </trkpt>
      <trkpt lat="43.78792" lon="6.26635">
        <ele>684.6</ele>
        <time>2025-11-13T08:40:57Z</time>
      </trkpt>
      <trkpt lat="43.788" lon="6.26639">
        <ele>684.12</ele>
        <time>2025-11-13T08:40:58Z</time>
      </trkpt>
      <trkpt lat="43.78809" lon="6.26643">
        <ele>683.63</ele>
        <time>2025-11-13T08:40:59Z</time>
      </trkpt>
      <trkpt lat="43.7882" lon="6.26647">
        <ele>682.67</ele>
        <time>2025-11-13T08:41:00Z</time>
      </trkpt>
      <trkpt lat="43.78829" lon="6.2665">
        <ele>682.67</ele>
        <time>2025-11-13T08:41:01Z</time>
      </trkpt>
      <trkpt lat="43.78873" lon="6.26667">
        <ele>680.75</ele>
        <time>2025-11-13T08:41:06Z</time>
      </trkpt>
      <trkpt lat="43.7888" lon="6.26668">
        <ele>680.75</ele>
        <time>2025-11-13T08:41:07Z</time>
      </trkpt>
      <trkpt lat="43.7889" lon="6.26666">
        <ele>679.79</ele>
        <time>2025-11-13T08:41:08Z</time>
      </trkpt>
      <trkpt lat="43.78899" lon="6.26661">
        <ele>679.31</ele>
        <time>2025-11-13T08:41:09Z</time>
      </trkpt>
      <trkpt lat="43.78906" lon="6.26653">
        <ele>678.83</ele>
        <time>2025-11-13T08:41:10Z</time>
      </trkpt>
      <trkpt lat="43.78911" lon="6.26642">
        <ele>677.87</ele>
        <time>2025-11-13T08:41:11Z</time>
      </trkpt>
      <trkpt lat="43.78914" lon="6.26628">
        <ele>676.91</ele>
        <time>2025-11-13T08:41:12Z</time>
      </trkpt>
      <trkpt lat="43.78915" lon="6.26614">
        <ele>675.94</ele>
        <time>2025-11-13T08:41:13Z</time>
      </trkpt>
      <trkpt lat="43.78916" lon="6.266">
        <ele>674.98</ele>
        <time>2025-11-13T08:41:14Z</time>
      </trkpt>
      <trkpt lat="43.78919" lon="6.26586">
        <ele>674.02</ele>
        <time>2025-11-13T08:41:15Z</time>
      </trkpt>
      <trkpt lat="43.78923" lon="6.26573">
        <ele>673.06</ele>
        <time>2025-11-13T08:41:16Z</time>
      </trkpt>
      <trkpt lat="43.78928" lon="6.26561">
        <ele>672.1</ele>
        <time>2025-11-13T08:41:17Z</time>
      </trkpt>
      <trkpt lat="43.78934" lon="6.2655">
        <ele>671.62</ele>
        <time>2025-11-13T08:41:18Z</time>
      </trkpt>
      <trkpt lat="43.78942" lon="6.26541">
        <ele>671.14</ele>
        <time>2025-11-13T08:41:19Z</time>
      </trkpt>
      <trkpt lat="43.78951" lon="6.26535">
        <ele>670.18</ele>
        <time>2025-11-13T08:41:20Z</time>
      </trkpt>
      <trkpt lat="43.7896" lon="6.26532">
        <ele>670.18</ele>
        <time>2025-11-13T08:41:21Z</time>
      </trkpt>
      <trkpt lat="43.7897" lon="6.26532">
        <ele>669.7</ele>
        <time>2025-11-13T08:41:22Z</time>
      </trkpt>
      <trkpt lat="43.7898" lon="6.26532">
        <ele>669.22</ele>
        <time>2025-11-13T08:41:23Z</time>
      </trkpt>
      <trkpt lat="43.7899" lon="6.26533">
        <ele>669.22</ele>
        <time>2025-11-13T08:41:24Z</time>
      </trkpt>
      <trkpt lat="43.78999" lon="6.26533">
        <ele>668.73</ele>
        <time>2025-11-13T08:41:25Z</time>
      </trkpt>
      <trkpt lat="43.79008" lon="6.26532">
        <ele>667.77</ele>
        <time>2025-11-13T08:41:26Z</time>
      </trkpt>
      <trkpt lat="43.79018" lon="6.26529">
        <ele>667.77</ele>
        <time>2025-11-13T08:41:27Z</time>
      </trkpt>
      <trkpt lat="43.79071" lon="6.26503">
        <ele>664.89</ele>
        <time>2025-11-13T08:41:33Z</time>
      </trkpt>
      <trkpt lat="43.7908" lon="6.26502">
        <ele>664.89</ele>
        <time>2025-11-13T08:41:34Z</time>
      </trkpt>
      <trkpt lat="43.79089" lon="6.26503">
        <ele>664.89</ele>
        <time>2025-11-13T08:41:35Z</time>
      </trkpt>
      <trkpt lat="43.79098" lon="6.26505">
        <ele>664.41</ele>
        <time>2025-11-13T08:41:36Z</time>
      </trkpt>
      <trkpt lat="43.79105" lon="6.26507">
        <ele>664.41</ele>
        <time>2025-11-13T08:41:37Z</time>
      </trkpt>
      <trkpt lat="43.79147" lon="6.26524">
        <ele>664.41</ele>
        <time>2025-11-13T08:41:43Z</time>
      </trkpt>
      <trkpt lat="43.79154" lon="6.26525">
        <ele>664.89</ele>
        <time>2025-11-13T08:41:44Z</time>
      </trkpt>
      <trkpt lat="43.7916" lon="6.26525">
        <ele>664.41</ele>
        <time>2025-11-13T08:41:45Z</time>
      </trkpt>
      <trkpt lat="43.79167" lon="6.26523">
        <ele>664.41</ele>
        <time>2025-11-13T08:41:46Z</time>
      </trkpt>
      <trkpt lat="43.79175" lon="6.2652">
        <ele>664.89</ele>
        <time>2025-11-13T08:41:47Z</time>
      </trkpt>
      <trkpt lat="43.7919" lon="6.26517">
        <ele>663.93</ele>
        <time>2025-11-13T08:41:49Z</time>
      </trkpt>
      <trkpt lat="43.79197" lon="6.26517">
        <ele>662.97</ele>
        <time>2025-11-13T08:41:50Z</time>
      </trkpt>
      <trkpt lat="43.79269" lon="6.2652">
        <ele>661.04</ele>
        <time>2025-11-13T08:41:59Z</time>
      </trkpt>
      <trkpt lat="43.79276" lon="6.26517">
        <ele>661.04</ele>
        <time>2025-11-13T08:42:00Z</time>
      </trkpt>
      <trkpt lat="43.79292" lon="6.26512">
        <ele>660.56</ele>
        <time>2025-11-13T08:42:02Z</time>
      </trkpt>
      <trkpt lat="43.793" lon="6.26511">
        <ele>660.08</ele>
        <time>2025-11-13T08:42:03Z</time>
      </trkpt>
      <trkpt lat="43.79307" lon="6.26512">
        <ele>659.12</ele>
        <time>2025-11-13T08:42:04Z</time>
      </trkpt>
      <trkpt lat="43.79316" lon="6.26512">
        <ele>659.12</ele>
        <time>2025-11-13T08:42:05Z</time>
      </trkpt>
      <trkpt lat="43.79323" lon="6.2651">
        <ele>659.12</ele>
        <time>2025-11-13T08:42:06Z</time>
      </trkpt>
      <trkpt lat="43.7933" lon="6.26506">
        <ele>658.64</ele>
        <time>2025-11-13T08:42:07Z</time>
      </trkpt>
      <trkpt lat="43.79337" lon="6.26501">
        <ele>658.16</ele>
        <time>2025-11-13T08:42:08Z</time>
      </trkpt>
      <trkpt lat="43.79345" lon="6.26494">
        <ele>657.68</ele>
        <time>2025-11-13T08:42:09Z</time>
      </trkpt>
      <trkpt lat="43.79374" lon="6.2647">
        <ele>656.24</ele>
        <time>2025-11-13T08:42:13Z</time>
      </trkpt>
      <trkpt lat="43.7938" lon="6.26462">
        <ele>655.76</ele>
        <time>2025-11-13T08:42:14Z</time>
      </trkpt>
      <trkpt lat="43.79385" lon="6.26452">
        <ele>654.8</ele>
        <time>2025-11-13T08:42:15Z</time>
      </trkpt>
      <trkpt lat="43.79389" lon="6.26441">
        <ele>654.8</ele>
        <time>2025-11-13T08:42:16Z</time>
      </trkpt>
      <trkpt lat="43.79392" lon="6.26428">
        <ele>654.31</ele>
        <time>2025-11-13T08:42:17Z</time>
      </trkpt>
      <trkpt lat="43.79395" lon="6.26416">
        <ele>654.31</ele>
        <time>2025-11-13T08:42:18Z</time>
      </trkpt>
      <trkpt lat="43.79397" lon="6.26404">
        <ele>652.87</ele>
        <time>2025-11-13T08:42:19Z</time>
      </trkpt>
      <trkpt lat="43.79402" lon="6.26392">
        <ele>651.91</ele>
        <time>2025-11-13T08:42:20Z</time>
      </trkpt>
      <trkpt lat="43.79407" lon="6.2638">
        <ele>650.47</ele>
        <time>2025-11-13T08:42:21Z</time>
      </trkpt>
      <trkpt lat="43.79413" lon="6.2637">
        <ele>649.99</ele>
        <time>2025-11-13T08:42:22Z</time>
      </trkpt>
      <trkpt lat="43.79419" lon="6.26359">
        <ele>649.51</ele>
        <time>2025-11-13T08:42:23Z</time>
      </trkpt>
      <trkpt lat="43.79452" lon="6.263">
        <ele>648.55</ele>
        <time>2025-11-13T08:42:29Z</time>
      </trkpt>
      <trkpt lat="43.79455" lon="6.26292">
        <ele>648.07</ele>
        <time>2025-11-13T08:42:30Z</time>
      </trkpt>
      <trkpt lat="43.79458" lon="6.2628">
        <ele>648.07</ele>
        <time>2025-11-13T08:42:31Z</time>
      </trkpt>
      <trkpt lat="43.79461" lon="6.2627">
        <ele>648.07</ele>
        <time>2025-11-13T08:42:32Z</time>
      </trkpt>
      <trkpt lat="43.79466" lon="6.26259">
        <ele>647.59</ele>
        <time>2025-11-13T08:42:33Z</time>
      </trkpt>
      <trkpt lat="43.79471" lon="6.26254">
        <ele>647.59</ele>
        <time>2025-11-13T08:42:34Z</time>
      </trkpt>
      <trkpt lat="43.79478" lon="6.26251">
        <ele>647.59</ele>
        <time>2025-11-13T08:42:35Z</time>
      </trkpt>
      <trkpt lat="43.79485" lon="6.26251">
        <ele>647.59</ele>
        <time>2025-11-13T08:42:36Z</time>
      </trkpt>
      <trkpt lat="43.79492" lon="6.26254">
        <ele>647.59</ele>
        <time>2025-11-13T08:42:37Z</time>
      </trkpt>
      <trkpt lat="43.79497" lon="6.26257">
        <ele>647.59</ele>
        <time>2025-11-13T08:42:38Z</time>
      </trkpt>
      <trkpt lat="43.79503" lon="6.26262">
        <ele>647.59</ele>
        <time>2025-11-13T08:42:39Z</time>
      </trkpt>
      <trkpt lat="43.79508" lon="6.26268">
        <ele>647.59</ele>
        <time>2025-11-13T08:42:40Z</time>
      </trkpt>
      <trkpt lat="43.79512" lon="6.26274">
        <ele>647.59</ele>
        <time>2025-11-13T08:42:41Z</time>
      </trkpt>
      <trkpt lat="43.79517" lon="6.26281">
        <ele>647.59</ele>
        <time>2025-11-13T08:42:42Z</time>
      </trkpt>
      <trkpt lat="43.7952" lon="6.26288">
        <ele>647.59</ele>
        <time>2025-11-13T08:42:43Z</time>
      </trkpt>
      <trkpt lat="43.79532" lon="6.26307">
        <ele>648.55</ele>
        <time>2025-11-13T08:42:46Z</time>
      </trkpt>
      <trkpt lat="43.79536" lon="6.26312">
        <ele>648.55</ele>
        <time>2025-11-13T08:42:47Z</time>
      </trkpt>
      <trkpt lat="43.79541" lon="6.26316">
        <ele>649.03</ele>
        <time>2025-11-13T08:42:48Z</time>
      </trkpt>
      <trkpt lat="43.79546" lon="6.2632">
        <ele>649.03</ele>
        <time>2025-11-13T08:42:49Z</time>
      </trkpt>
      <trkpt lat="43.79552" lon="6.26322">
        <ele>649.51</ele>
        <time>2025-11-13T08:42:50Z</time>
      </trkpt>
      <trkpt lat="43.7957" lon="6.26329">
        <ele>649.99</ele>
        <time>2025-11-13T08:42:53Z</time>
      </trkpt>
      <trkpt lat="43.79576" lon="6.2633">
        <ele>649.99</ele>
        <time>2025-11-13T08:42:54Z</time>
      </trkpt>
      <trkpt lat="43.79583" lon="6.2633">
        <ele>649.99</ele>
        <time>2025-11-13T08:42:55Z</time>
      </trkpt>
      <trkpt lat="43.79613" lon="6.26324">
        <ele>649.99</ele>
        <time>2025-11-13T08:43:00Z</time>
      </trkpt>
      <trkpt lat="43.79619" lon="6.26321">
        <ele>649.99</ele>
        <time>2025-11-13T08:43:01Z</time>
      </trkpt>
      <trkpt lat="43.79625" lon="6.26317">
        <ele>649.99</ele>
        <time>2025-11-13T08:43:02Z</time>
      </trkpt>
      <trkpt lat="43.79679" lon="6.26294">
        <ele>649.99</ele>
        <time>2025-11-13T08:43:11Z</time>
      </trkpt>
      <trkpt lat="43.79684" lon="6.2629">
        <ele>649.99</ele>
        <time>2025-11-13T08:43:12Z</time>
      </trkpt>
      <trkpt lat="43.7969" lon="6.26285">
        <ele>649.99</ele>
        <time>2025-11-13T08:43:13Z</time>
      </trkpt>
      <trkpt lat="43.797" lon="6.26274">
        <ele>649.99</ele>
        <time>2025-11-13T08:43:15Z</time>
      </trkpt>
      <trkpt lat="43.79705" lon="6.2627">
        <ele>649.99</ele>
        <time>2025-11-13T08:43:16Z</time>
      </trkpt>
      <trkpt lat="43.79722" lon="6.26258">
        <ele>648.55</ele>
        <time>2025-11-13T08:43:19Z</time>
      </trkpt>
      <trkpt lat="43.7977" lon="6.26209">
        <ele>647.59</ele>
        <time>2025-11-13T08:43:28Z</time>
      </trkpt>
      <trkpt lat="43.79779" lon="6.26198">
        <ele>647.1</ele>
        <time>2025-11-13T08:43:30Z</time>
      </trkpt>
      <trkpt lat="43.79785" lon="6.26194">
        <ele>647.1</ele>
        <time>2025-11-13T08:43:31Z</time>
      </trkpt>
      <trkpt lat="43.7979" lon="6.26191">
        <ele>647.1</ele>
        <time>2025-11-13T08:43:32Z</time>
      </trkpt>
      <trkpt lat="43.79796" lon="6.26187">
        <ele>647.1</ele>
        <time>2025-11-13T08:43:33Z</time>
      </trkpt>
      <trkpt lat="43.79801" lon="6.26183">
        <ele>647.1</ele>
        <time>2025-11-13T08:43:34Z</time>
      </trkpt>
      <trkpt lat="43.79806" lon="6.26179">
        <ele>647.1</ele>
        <time>2025-11-13T08:43:35Z</time>
      </trkpt>
      <trkpt lat="43.7981" lon="6.26174">
        <ele>647.1</ele>
        <time>2025-11-13T08:43:36Z</time>
      </trkpt>
      <trkpt lat="43.79814" lon="6.26167">
        <ele>647.1</ele>
        <time>2025-11-13T08:43:37Z</time>
      </trkpt>
      <trkpt lat="43.79815" lon="6.26158">
        <ele>647.1</ele>
        <time>2025-11-13T08:43:38Z</time>
      </trkpt>
      <trkpt lat="43.79815" lon="6.26151">
        <ele>647.1</ele>
        <time>2025-11-13T08:43:39Z</time>
      </trkpt>
      <trkpt lat="43.79813" lon="6.26143">
        <ele>647.1</ele>
        <time>2025-11-13T08:43:40Z</time>
      </trkpt>
      <trkpt lat="43.7981" lon="6.26136">
        <ele>647.1</ele>
        <time>2025-11-13T08:43:41Z</time>
      </trkpt>
      <trkpt lat="43.79806" lon="6.26129">
        <ele>647.1</ele>
        <time>2025-11-13T08:43:42Z</time>
      </trkpt>
      <trkpt lat="43.79803" lon="6.26123">
        <ele>648.55</ele>
        <time>2025-11-13T08:43:43Z</time>
      </trkpt>
      <trkpt lat="43.798" lon="6.26117">
        <ele>648.55</ele>
        <time>2025-11-13T08:43:44Z</time>
      </trkpt>
      <trkpt lat="43.79793" lon="6.26104">
        <ele>649.03</ele>
        <time>2025-11-13T08:43:46Z</time>
      </trkpt>
      <trkpt lat="43.79788" lon="6.26092">
        <ele>649.51</ele>
        <time>2025-11-13T08:43:48Z</time>
      </trkpt>
      <trkpt lat="43.79787" lon="6.26086">
        <ele>649.51</ele>
        <time>2025-11-13T08:43:49Z</time>
      </trkpt>
      <trkpt lat="43.79786" lon="6.2608">
        <ele>649.99</ele>
        <time>2025-11-13T08:43:50Z</time>
      </trkpt>
      <trkpt lat="43.79786" lon="6.26073">
        <ele>649.99</ele>
        <time>2025-11-13T08:43:51Z</time>
      </trkpt>
      <trkpt lat="43.79788" lon="6.26068">
        <ele>650.95</ele>
        <time>2025-11-13T08:43:52Z</time>
      </trkpt>
      <trkpt lat="43.7979" lon="6.26062">
        <ele>650.95</ele>
        <time>2025-11-13T08:43:53Z</time>
      </trkpt>
      <trkpt lat="43.79792" lon="6.26057">
        <ele>651.91</ele>
        <time>2025-11-13T08:43:54Z</time>
      </trkpt>
      <trkpt lat="43.79795" lon="6.26052">
        <ele>651.91</ele>
        <time>2025-11-13T08:43:55Z</time>
      </trkpt>
      <trkpt lat="43.79799" lon="6.26048">
        <ele>652.39</ele>
        <time>2025-11-13T08:43:56Z</time>
      </trkpt>
      <trkpt lat="43.79808" lon="6.26034">
        <ele>652.87</ele>
        <time>2025-11-13T08:43:59Z</time>
      </trkpt>
      <trkpt lat="43.7981" lon="6.26029">
        <ele>652.87</ele>
        <time>2025-11-13T08:44:00Z</time>
      </trkpt>
      <trkpt lat="43.79823" lon="6.26">
        <ele>654.31</ele>
        <time>2025-11-13T08:44:05Z</time>
      </trkpt>
      <trkpt lat="43.79826" lon="6.25996">
        <ele>654.31</ele>
        <time>2025-11-13T08:44:06Z</time>
      </trkpt>
      <trkpt lat="43.79842" lon="6.25979">
        <ele>655.28</ele>
        <time>2025-11-13T08:44:10Z</time>
      </trkpt>
      <trkpt lat="43.79847" lon="6.25975">
        <ele>655.28</ele>
        <time>2025-11-13T08:44:11Z</time>
      </trkpt>
      <trkpt lat="43.79852" lon="6.25973">
        <ele>655.28</ele>
        <time>2025-11-13T08:44:12Z</time>
      </trkpt>
      <trkpt lat="43.79857" lon="6.25971">
        <ele>654.8</ele>
        <time>2025-11-13T08:44:13Z</time>
      </trkpt>
      <trkpt lat="43.79863" lon="6.25969">
        <ele>655.28</ele>
        <time>2025-11-13T08:44:14Z</time>
      </trkpt>
      <trkpt lat="43.79868" lon="6.25969">
        <ele>655.28</ele>
        <time>2025-11-13T08:44:15Z</time>
      </trkpt>
      <trkpt lat="43.79879" lon="6.25966">
        <ele>655.28</ele>
        <time>2025-11-13T08:44:17Z</time>
      </trkpt>
      <trkpt lat="43.79885" lon="6.25964">
        <ele>655.28</ele>
        <time>2025-11-13T08:44:18Z</time>
      </trkpt>
      <trkpt lat="43.79921" lon="6.25949">
        <ele>655.28</ele>
        <time>2025-11-13T08:44:25Z</time>
      </trkpt>
      <trkpt lat="43.79927" lon="6.25948">
        <ele>655.28</ele>
        <time>2025-11-13T08:44:26Z</time>
      </trkpt>
      <trkpt lat="43.79938" lon="6.25949">
        <ele>655.28</ele>
        <time>2025-11-13T08:44:28Z</time>
      </trkpt>
      <trkpt lat="43.79944" lon="6.2595">
        <ele>655.28</ele>
        <time>2025-11-13T08:44:29Z</time>
      </trkpt>
      <trkpt lat="43.79949" lon="6.25953">
        <ele>655.28</ele>
        <time>2025-11-13T08:44:30Z</time>
      </trkpt>
      <trkpt lat="43.79955" lon="6.25956">
        <ele>655.28</ele>
        <time>2025-11-13T08:44:31Z</time>
      </trkpt>
      <trkpt lat="43.7996" lon="6.25959">
        <ele>655.28</ele>
        <time>2025-11-13T08:44:32Z</time>
      </trkpt>
      <trkpt lat="43.79976" lon="6.25969">
        <ele>655.28</ele>
        <time>2025-11-13T08:44:35Z</time>
      </trkpt>
      <trkpt lat="43.79982" lon="6.25971">
        <ele>655.28</ele>
        <time>2025-11-13T08:44:36Z</time>
      </trkpt>
      <trkpt lat="43.79988" lon="6.25971">
        <ele>655.28</ele>
        <time>2025-11-13T08:44:37Z</time>
      </trkpt>
      <trkpt lat="43.79995" lon="6.2597">
        <ele>655.28</ele>
        <time>2025-11-13T08:44:38Z</time>
      </trkpt>
      <trkpt lat="43.80001" lon="6.25969">
        <ele>655.28</ele>
        <time>2025-11-13T08:44:39Z</time>
      </trkpt>
      <trkpt lat="43.80013" lon="6.25968">
        <ele>655.28</ele>
        <time>2025-11-13T08:44:41Z</time>
      </trkpt>
      <trkpt lat="43.80019" lon="6.25968">
        <ele>655.28</ele>
        <time>2025-11-13T08:44:42Z</time>
      </trkpt>
      <trkpt lat="43.8005" lon="6.25971">
        <ele>655.28</ele>
        <time>2025-11-13T08:44:47Z</time>
      </trkpt>
      <trkpt lat="43.80056" lon="6.25969">
        <ele>655.28</ele>
        <time>2025-11-13T08:44:48Z</time>
      </trkpt>
      <trkpt lat="43.80062" lon="6.25966">
        <ele>655.28</ele>
        <time>2025-11-13T08:44:49Z</time>
      </trkpt>
      <trkpt lat="43.80067" lon="6.25961">
        <ele>655.28</ele>
        <time>2025-11-13T08:44:50Z</time>
      </trkpt>
      <trkpt lat="43.80071" lon="6.25955">
        <ele>655.28</ele>
        <time>2025-11-13T08:44:51Z</time>
      </trkpt>
      <trkpt lat="43.80074" lon="6.25948">
        <ele>655.28</ele>
        <time>2025-11-13T08:44:52Z</time>
      </trkpt>
      <trkpt lat="43.80076" lon="6.2594">
        <ele>655.28</ele>
        <time>2025-11-13T08:44:53Z</time>
      </trkpt>
      <trkpt lat="43.80077" lon="6.25932">
        <ele>655.28</ele>
        <time>2025-11-13T08:44:54Z</time>
      </trkpt>
      <trkpt lat="43.80078" lon="6.25923">
        <ele>655.28</ele>
        <time>2025-11-13T08:44:55Z</time>
      </trkpt>
      <trkpt lat="43.80081" lon="6.25881">
        <ele>655.28</ele>
        <time>2025-11-13T08:45:00Z</time>
      </trkpt>
      <trkpt lat="43.80082" lon="6.25873">
        <ele>655.28</ele>
        <time>2025-11-13T08:45:01Z</time>
      </trkpt>
      <trkpt lat="43.80084" lon="6.25857">
        <ele>655.28</ele>
        <time>2025-11-13T08:45:03Z</time>
      </trkpt>
      <trkpt lat="43.80083" lon="6.25848">
        <ele>655.28</ele>
        <time>2025-11-13T08:45:04Z</time>
      </trkpt>
      <trkpt lat="43.80082" lon="6.25839">
        <ele>655.28</ele>
        <time>2025-11-13T08:45:05Z</time>
      </trkpt>
      <trkpt lat="43.8008" lon="6.25832">
        <ele>655.28</ele>
        <time>2025-11-13T08:45:06Z</time>
      </trkpt>
      <trkpt lat="43.80077" lon="6.25825">
        <ele>655.28</ele>
        <time>2025-11-13T08:45:07Z</time>
      </trkpt>
      <trkpt lat="43.80071" lon="6.2581">
        <ele>653.83</ele>
        <time>2025-11-13T08:45:09Z</time>
      </trkpt>
      <trkpt lat="43.80068" lon="6.25804">
        <ele>653.83</ele>
        <time>2025-11-13T08:45:10Z</time>
      </trkpt>
      <trkpt lat="43.80063" lon="6.25798">
        <ele>653.83</ele>
        <time>2025-11-13T08:45:11Z</time>
      </trkpt>
      <trkpt lat="43.80059" lon="6.25794">
        <ele>653.83</ele>
        <time>2025-11-13T08:45:12Z</time>
      </trkpt>
      <trkpt lat="43.80054" lon="6.2579">
        <ele>653.83</ele>
        <time>2025-11-13T08:45:13Z</time>
      </trkpt>
      <trkpt lat="43.80045" lon="6.2578">
        <ele>653.83</ele>
        <time>2025-11-13T08:45:15Z</time>
      </trkpt>
      <trkpt lat="43.80042" lon="6.25774">
        <ele>653.83</ele>
        <time>2025-11-13T08:45:16Z</time>
      </trkpt>
      <trkpt lat="43.80039" lon="6.25768">
        <ele>653.83</ele>
        <time>2025-11-13T08:45:17Z</time>
      </trkpt>
      <trkpt lat="43.80032" lon="6.25748">
        <ele>655.28</ele>
        <time>2025-11-13T08:45:20Z</time>
      </trkpt>
      <trkpt lat="43.80031" lon="6.2574">
        <ele>655.28</ele>
        <time>2025-11-13T08:45:21Z</time>
      </trkpt>
      <trkpt lat="43.80031" lon="6.25734">
        <ele>655.28</ele>
        <time>2025-11-13T08:45:22Z</time>
      </trkpt>
      <trkpt lat="43.80032" lon="6.25729">
        <ele>655.28</ele>
        <time>2025-11-13T08:45:23Z</time>
      </trkpt>
      <trkpt lat="43.80034" lon="6.25724">
        <ele>655.76</ele>
        <time>2025-11-13T08:45:24Z</time>
      </trkpt>
      <trkpt lat="43.80037" lon="6.2572">
        <ele>655.76</ele>
        <time>2025-11-13T08:45:25Z</time>
      </trkpt>
      <trkpt lat="43.80041" lon="6.25716">
        <ele>655.76</ele>
        <time>2025-11-13T08:45:26Z</time>
      </trkpt>
      <trkpt lat="43.80046" lon="6.25712">
        <ele>655.76</ele>
        <time>2025-11-13T08:45:27Z</time>
      </trkpt>
      <trkpt lat="43.80063" lon="6.25694">
        <ele>655.76</ele>
        <time>2025-11-13T08:45:31Z</time>
      </trkpt>
      <trkpt lat="43.80098" lon="6.25639">
        <ele>655.76</ele>
        <time>2025-11-13T08:45:43Z</time>
      </trkpt>
      <trkpt lat="43.80108" lon="6.25626">
        <ele>655.76</ele>
        <time>2025-11-13T08:45:51Z</time>
      </trkpt>
      <trkpt lat="43.80109" lon="6.25627">
        <ele>655.76</ele>
        <time>2025-11-13T08:46:03Z</time>
      </trkpt>
      <trkpt lat="43.8011" lon="6.25626">
        <ele>656.24</ele>
        <time>2025-11-13T08:46:31Z</time>
      </trkpt>
      <trkpt lat="43.80108" lon="6.25625">
        <ele>656.24</ele>
        <time>2025-11-13T08:46:48Z</time>
      </trkpt>
      <trkpt lat="43.80108" lon="6.25626">
        <ele>656.24</ele>
        <time>2025-11-13T08:47:06Z</time>
      </trkpt>
      <trkpt lat="43.80108" lon="6.25625">
        <ele>656.24</ele>
        <time>2025-11-13T08:47:26Z</time>
      </trkpt>
      <trkpt lat="43.80107" lon="6.25626">
        <ele>657.2</ele>
        <time>2025-11-13T08:47:47Z</time>
      </trkpt>
      <trkpt lat="43.80107" lon="6.25627">
        <ele>657.2</ele>
        <time>2025-11-13T08:48:06Z</time>
      </trkpt>
      <trkpt lat="43.80112" lon="6.25629">
        <ele>657.2</ele>
        <time>2025-11-13T08:48:31Z</time>
      </trkpt>
      <trkpt lat="43.80112" lon="6.2563">
        <ele>657.2</ele>
        <time>2025-11-13T08:48:58Z</time>
      </trkpt>
      <trkpt lat="43.80112" lon="6.25629">
        <ele>657.2</ele>
        <time>2025-11-13T08:49:24Z</time>
      </trkpt>
      <trkpt lat="43.80109" lon="6.25629">
        <ele>657.2</ele>
        <time>2025-11-13T08:49:49Z</time>
      </trkpt>
      <trkpt lat="43.80109" lon="6.2563">
        <ele>657.68</ele>
        <time>2025-11-13T08:50:07Z</time>
      </trkpt>
      <trkpt lat="43.80108" lon="6.2563">
        <ele>657.68</ele>
        <time>2025-11-13T08:50:31Z</time>
      </trkpt>
      <trkpt lat="43.80108" lon="6.25628">
        <ele>658.16</ele>
        <time>2025-11-13T08:50:56Z</time>
      </trkpt>
      <trkpt lat="43.80106" lon="6.25625">
        <ele>658.16</ele>
        <time>2025-11-13T08:51:13Z</time>
      </trkpt>
      <trkpt lat="43.80106" lon="6.25624">
        <ele>658.16</ele>
        <time>2025-11-13T08:51:37Z</time>
      </trkpt>
      <trkpt lat="43.80107" lon="6.25624">
        <ele>658.64</ele>
        <time>2025-11-13T08:51:57Z</time>
      </trkpt>
      <trkpt lat="43.80108" lon="6.25627">
        <ele>658.64</ele>
        <time>2025-11-13T08:52:10Z</time>
      </trkpt>
      <trkpt lat="43.80108" lon="6.25628">
        <ele>658.64</ele>
        <time>2025-11-13T08:52:30Z</time>
      </trkpt>
      <trkpt lat="43.80107" lon="6.25627">
        <ele>659.12</ele>
        <time>2025-11-13T08:52:54Z</time>
      </trkpt>
      <trkpt lat="43.80105" lon="6.25626">
        <ele>659.12</ele>
        <time>2025-11-13T08:53:12Z</time>
      </trkpt>
      <trkpt lat="43.80105" lon="6.25625">
        <ele>659.12</ele>
        <time>2025-11-13T08:53:27Z</time>
      </trkpt>
      <trkpt lat="43.80106" lon="6.25626">
        <ele>659.12</ele>
        <time>2025-11-13T08:53:43Z</time>
      </trkpt>
      <trkpt lat="43.80108" lon="6.25625">
        <ele>659.12</ele>
        <time>2025-11-13T08:53:48Z</time>
      </trkpt>
      <trkpt lat="43.80109" lon="6.25625">
        <ele>659.12</ele>
        <time>2025-11-13T08:53:49Z</time>
      </trkpt>
      <trkpt lat="43.80111" lon="6.25625">
        <ele>659.6</ele>
        <time>2025-11-13T08:53:50Z</time>
      </trkpt>
      <trkpt lat="43.80113" lon="6.25625">
        <ele>659.6</ele>
        <time>2025-11-13T08:53:51Z</time>
      </trkpt>
      <trkpt lat="43.80115" lon="6.25624">
        <ele>659.6</ele>
        <time>2025-11-13T08:53:52Z</time>
      </trkpt>
      <trkpt lat="43.80118" lon="6.25623">
        <ele>659.6</ele>
        <time>2025-11-13T08:53:53Z</time>
      </trkpt>
      <trkpt lat="43.8012" lon="6.25621">
        <ele>659.6</ele>
        <time>2025-11-13T08:53:54Z</time>
      </trkpt>
      <trkpt lat="43.80122" lon="6.25619">
        <ele>659.6</ele>
        <time>2025-11-13T08:53:55Z</time>
      </trkpt>
      <trkpt lat="43.80125" lon="6.25617">
        <ele>659.6</ele>
        <time>2025-11-13T08:53:56Z</time>
      </trkpt>
      <trkpt lat="43.80138" lon="6.25599">
        <ele>658.16</ele>
        <time>2025-11-13T08:54:01Z</time>
      </trkpt>
      <trkpt lat="43.8017" lon="6.25561">
        <ele>658.16</ele>
        <time>2025-11-13T08:54:10Z</time>
      </trkpt>
      <trkpt lat="43.80174" lon="6.25558">
        <ele>658.16</ele>
        <time>2025-11-13T08:54:11Z</time>
      </trkpt>
      <trkpt lat="43.80179" lon="6.25557">
        <ele>658.16</ele>
        <time>2025-11-13T08:54:12Z</time>
      </trkpt>
      <trkpt lat="43.80205" lon="6.25542">
        <ele>658.16</ele>
        <time>2025-11-13T08:54:19Z</time>
      </trkpt>
      <trkpt lat="43.80208" lon="6.25539">
        <ele>658.16</ele>
        <time>2025-11-13T08:54:20Z</time>
      </trkpt>
      <trkpt lat="43.80211" lon="6.25534">
        <ele>658.16</ele>
        <time>2025-11-13T08:54:21Z</time>
      </trkpt>
      <trkpt lat="43.80214" lon="6.2553">
        <ele>658.16</ele>
        <time>2025-11-13T08:54:22Z</time>
      </trkpt>
      <trkpt lat="43.80217" lon="6.25525">
        <ele>658.16</ele>
        <time>2025-11-13T08:54:23Z</time>
      </trkpt>
      <trkpt lat="43.8022" lon="6.25521">
        <ele>658.16</ele>
        <time>2025-11-13T08:54:24Z</time>
      </trkpt>
      <trkpt lat="43.80228" lon="6.25507">
        <ele>658.16</ele>
        <time>2025-11-13T08:54:27Z</time>
      </trkpt>
      <trkpt lat="43.80235" lon="6.25488">
        <ele>658.16</ele>
        <time>2025-11-13T08:54:31Z</time>
      </trkpt>
      <trkpt lat="43.80245" lon="6.25446">
        <ele>661.52</ele>
        <time>2025-11-13T08:54:39Z</time>
      </trkpt>
      <trkpt lat="43.80261" lon="6.2543">
        <ele>661.52</ele>
        <time>2025-11-13T08:54:47Z</time>
      </trkpt>
      <trkpt lat="43.80274" lon="6.25426">
        <ele>660.08</ele>
        <time>2025-11-13T08:54:52Z</time>
      </trkpt>
      <trkpt lat="43.80276" lon="6.25427">
        <ele>660.08</ele>
        <time>2025-11-13T08:55:01Z</time>
      </trkpt>
      <trkpt lat="43.80274" lon="6.25427">
        <ele>661.52</ele>
        <time>2025-11-13T08:55:16Z</time>
      </trkpt>
      <trkpt lat="43.80274" lon="6.25427">
        <ele>661.52</ele>
        <time>2025-11-13T08:55:38Z</time>
      </trkpt>
      <trkpt lat="43.80277" lon="6.25428">
        <ele>661.52</ele>
        <time>2025-11-13T08:55:57Z</time>
      </trkpt>
      <trkpt lat="43.80297" lon="6.25441">
        <ele>660.56</ele>
        <time>2025-11-13T08:56:04Z</time>
      </trkpt>
      <trkpt lat="43.80328" lon="6.25448">
        <ele>660.08</ele>
        <time>2025-11-13T08:56:11Z</time>
      </trkpt>
      <trkpt lat="43.80333" lon="6.25447">
        <ele>660.08</ele>
        <time>2025-11-13T08:56:12Z</time>
      </trkpt>
      <trkpt lat="43.80338" lon="6.25445">
        <ele>660.08</ele>
        <time>2025-11-13T08:56:13Z</time>
      </trkpt>
      <trkpt lat="43.80348" lon="6.2544">
        <ele>660.08</ele>
        <time>2025-11-13T08:56:15Z</time>
      </trkpt>
      <trkpt lat="43.80352" lon="6.25437">
        <ele>660.08</ele>
        <time>2025-11-13T08:56:16Z</time>
      </trkpt>
      <trkpt lat="43.80372" lon="6.25419">
        <ele>660.08</ele>
        <time>2025-11-13T08:56:21Z</time>
      </trkpt>
      <trkpt lat="43.80376" lon="6.25414">
        <ele>660.08</ele>
        <time>2025-11-13T08:56:22Z</time>
      </trkpt>
      <trkpt lat="43.80379" lon="6.25411">
        <ele>659.6</ele>
        <time>2025-11-13T08:56:23Z</time>
      </trkpt>
      <trkpt lat="43.8039" lon="6.25394">
        <ele>659.12</ele>
        <time>2025-11-13T08:56:28Z</time>
      </trkpt>
      <trkpt lat="43.80391" lon="6.25391">
        <ele>660.56</ele>
        <time>2025-11-13T08:56:29Z</time>
      </trkpt>
      <trkpt lat="43.80391" lon="6.25389">
        <ele>660.56</ele>
        <time>2025-11-13T08:56:30Z</time>
      </trkpt>
      <trkpt lat="43.80392" lon="6.25388">
        <ele>661.04</ele>
        <time>2025-11-13T08:56:42Z</time>
      </trkpt>
      <trkpt lat="43.80391" lon="6.2539">
        <ele>661.04</ele>
        <time>2025-11-13T08:56:52Z</time>
      </trkpt>
      <trkpt lat="43.80392" lon="6.25391">
        <ele>659.6</ele>
        <time>2025-11-13T08:57:04Z</time>
      </trkpt>
      <trkpt lat="43.80392" lon="6.25391">
        <ele>659.6</ele>
        <time>2025-11-13T08:57:05Z</time>
      </trkpt>
      <trkpt lat="43.80394" lon="6.25392">
        <ele>659.6</ele>
        <time>2025-11-13T08:57:09Z</time>
      </trkpt>
      <trkpt lat="43.80395" lon="6.25393">
        <ele>659.6</ele>
        <time>2025-11-13T08:57:10Z</time>
      </trkpt>
      <trkpt lat="43.80397" lon="6.25394">
        <ele>659.6</ele>
        <time>2025-11-13T08:57:11Z</time>
      </trkpt>
      <trkpt lat="43.80398" lon="6.25395">
        <ele>659.6</ele>
        <time>2025-11-13T08:57:12Z</time>
      </trkpt>
      <trkpt lat="43.80401" lon="6.25397">
        <ele>659.6</ele>
        <time>2025-11-13T08:57:13Z</time>
      </trkpt>
      <trkpt lat="43.80403" lon="6.25399">
        <ele>659.6</ele>
        <time>2025-11-13T08:57:14Z</time>
      </trkpt>
      <trkpt lat="43.80406" lon="6.25401">
        <ele>660.08</ele>
        <time>2025-11-13T08:57:15Z</time>
      </trkpt>
      <trkpt lat="43.80435" lon="6.2541">
        <ele>659.6</ele>
        <time>2025-11-13T08:57:23Z</time>
      </trkpt>
      <trkpt lat="43.8046" lon="6.25399">
        <ele>659.6</ele>
        <time>2025-11-13T08:57:30Z</time>
      </trkpt>
      <trkpt lat="43.80464" lon="6.25399">
        <ele>659.6</ele>
        <time>2025-11-13T08:57:31Z</time>
      </trkpt>
      <trkpt lat="43.80468" lon="6.25399">
        <ele>659.6</ele>
        <time>2025-11-13T08:57:32Z</time>
      </trkpt>
      <trkpt lat="43.80512" lon="6.25401">
        <ele>659.6</ele>
        <time>2025-11-13T08:57:42Z</time>
      </trkpt>
      <trkpt lat="43.80543" lon="6.25401">
        <ele>659.12</ele>
        <time>2025-11-13T08:57:49Z</time>
      </trkpt>
      <trkpt lat="43.80577" lon="6.25409">
        <ele>659.12</ele>
        <time>2025-11-13T08:57:57Z</time>
      </trkpt>
      <trkpt lat="43.80581" lon="6.25412">
        <ele>659.12</ele>
        <time>2025-11-13T08:57:58Z</time>
      </trkpt>
      <trkpt lat="43.80585" lon="6.25415">
        <ele>659.12</ele>
        <time>2025-11-13T08:57:59Z</time>
      </trkpt>
      <trkpt lat="43.80588" lon="6.2542">
        <ele>659.12</ele>
        <time>2025-11-13T08:58:00Z</time>
      </trkpt>
      <trkpt lat="43.80591" lon="6.25424">
        <ele>659.12</ele>
        <time>2025-11-13T08:58:01Z</time>
      </trkpt>
      <trkpt lat="43.806" lon="6.25437">
        <ele>659.12</ele>
        <time>2025-11-13T08:58:04Z</time>
      </trkpt>
      <trkpt lat="43.80603" lon="6.2544">
        <ele>659.12</ele>
        <time>2025-11-13T08:58:05Z</time>
      </trkpt>
      <trkpt lat="43.8063" lon="6.25461">
        <ele>659.12</ele>
        <time>2025-11-13T08:58:12Z</time>
      </trkpt>
      <trkpt lat="43.80635" lon="6.25461">
        <ele>659.12</ele>
        <time>2025-11-13T08:58:13Z</time>
      </trkpt>
      <trkpt lat="43.8064" lon="6.25461">
        <ele>659.12</ele>
        <time>2025-11-13T08:58:14Z</time>
      </trkpt>
      <trkpt lat="43.80644" lon="6.25459">
        <ele>659.12</ele>
        <time>2025-11-13T08:58:15Z</time>
      </trkpt>
      <trkpt lat="43.80647" lon="6.25457">
        <ele>659.12</ele>
        <time>2025-11-13T08:58:16Z</time>
      </trkpt>
      <trkpt lat="43.80651" lon="6.25454">
        <ele>659.12</ele>
        <time>2025-11-13T08:58:17Z</time>
      </trkpt>
      <trkpt lat="43.80654" lon="6.25451">
        <ele>659.12</ele>
        <time>2025-11-13T08:58:18Z</time>
      </trkpt>
      <trkpt lat="43.80658" lon="6.25443">
        <ele>659.12</ele>
        <time>2025-11-13T08:58:21Z</time>
      </trkpt>
      <trkpt lat="43.80657" lon="6.25441">
        <ele>659.12</ele>
        <time>2025-11-13T08:58:22Z</time>
      </trkpt>
      <trkpt lat="43.80656" lon="6.2544">
        <ele>659.12</ele>
        <time>2025-11-13T08:58:23Z</time>
      </trkpt>
      <trkpt lat="43.80654" lon="6.2544">
        <ele>659.12</ele>
        <time>2025-11-13T08:58:32Z</time>
      </trkpt>
      <trkpt lat="43.80656" lon="6.25439">
        <ele>659.12</ele>
        <time>2025-11-13T08:58:45Z</time>
      </trkpt>
      <trkpt lat="43.80654" lon="6.25441">
        <ele>659.12</ele>
        <time>2025-11-13T08:59:11Z</time>
      </trkpt>
      <trkpt lat="43.80655" lon="6.25441">
        <ele>659.12</ele>
        <time>2025-11-13T08:59:27Z</time>
      </trkpt>
      <trkpt lat="43.80653" lon="6.25442">
        <ele>659.12</ele>
        <time>2025-11-13T08:59:47Z</time>
      </trkpt>
      <trkpt lat="43.80654" lon="6.25441">
        <ele>659.12</ele>
        <time>2025-11-13T09:00:03Z</time>
      </trkpt>
      <trkpt lat="43.80653" lon="6.25439">
        <ele>659.12</ele>
        <time>2025-11-13T09:00:17Z</time>
      </trkpt>
      <trkpt lat="43.80654" lon="6.25443">
        <ele>659.12</ele>
        <time>2025-11-13T09:00:35Z</time>
      </trkpt>
      <trkpt lat="43.80656" lon="6.25441">
        <ele>659.12</ele>
        <time>2025-11-13T09:00:52Z</time>
      </trkpt>
      <trkpt lat="43.80657" lon="6.2544">
        <ele>659.12</ele>
        <time>2025-11-13T09:01:10Z</time>
      </trkpt>
      <trkpt lat="43.80659" lon="6.25439">
        <ele>659.6</ele>
        <time>2025-11-13T09:01:29Z</time>
      </trkpt>
      <trkpt lat="43.8066" lon="6.25442">
        <ele>659.6</ele>
        <time>2025-11-13T09:01:53Z</time>
      </trkpt>
      <trkpt lat="43.80655" lon="6.25439">
        <ele>659.6</ele>
        <time>2025-11-13T09:02:18Z</time>
      </trkpt>
      <trkpt lat="43.80654" lon="6.25441">
        <ele>659.6</ele>
        <time>2025-11-13T09:02:32Z</time>
      </trkpt>
      <trkpt lat="43.80654" lon="6.25441">
        <ele>659.6</ele>
        <time>2025-11-13T09:02:46Z</time>
      </trkpt>
      <trkpt lat="43.80654" lon="6.25441">
        <ele>659.6</ele>
        <time>2025-11-13T09:03:03Z</time>
      </trkpt>
      <trkpt lat="43.80655" lon="6.25441">
        <ele>659.6</ele>
        <time>2025-11-13T09:03:19Z</time>
      </trkpt>
      <trkpt lat="43.80656" lon="6.25442">
        <ele>659.6</ele>
        <time>2025-11-13T09:03:30Z</time>
      </trkpt>
      <trkpt lat="43.80656" lon="6.25443">
        <ele>659.6</ele>
        <time>2025-11-13T09:03:32Z</time>
      </trkpt>
      <trkpt lat="43.80656" lon="6.25445">
        <ele>659.6</ele>
        <time>2025-11-13T09:03:33Z</time>
      </trkpt>
      <trkpt lat="43.80657" lon="6.25446">
        <ele>659.6</ele>
        <time>2025-11-13T09:03:34Z</time>
      </trkpt>
      <trkpt lat="43.80659" lon="6.25445">
        <ele>659.6</ele>
        <time>2025-11-13T09:03:35Z</time>
      </trkpt>
      <trkpt lat="43.80661" lon="6.25444">
        <ele>659.6</ele>
        <time>2025-11-13T09:03:36Z</time>
      </trkpt>
      <trkpt lat="43.80688" lon="6.25447">
        <ele>659.6</ele>
        <time>2025-11-13T09:03:44Z</time>
      </trkpt>
      <trkpt lat="43.80738" lon="6.2547">
        <ele>659.6</ele>
        <time>2025-11-13T09:03:56Z</time>
      </trkpt>
      <trkpt lat="43.80758" lon="6.25478">
        <ele>659.12</ele>
        <time>2025-11-13T09:04:01Z</time>
      </trkpt>
      <trkpt lat="43.80836" lon="6.25487">
        <ele>657.68</ele>
        <time>2025-11-13T09:04:18Z</time>
      </trkpt>
      <trkpt lat="43.80849" lon="6.25487">
        <ele>657.68</ele>
        <time>2025-11-13T09:04:21Z</time>
      </trkpt>
      <trkpt lat="43.80853" lon="6.25485">
        <ele>657.68</ele>
        <time>2025-11-13T09:04:22Z</time>
      </trkpt>
      <trkpt lat="43.80858" lon="6.25484">
        <ele>657.68</ele>
        <time>2025-11-13T09:04:23Z</time>
      </trkpt>
      <trkpt lat="43.80862" lon="6.25481">
        <ele>657.68</ele>
        <time>2025-11-13T09:04:24Z</time>
      </trkpt>
      <trkpt lat="43.80866" lon="6.25477">
        <ele>657.2</ele>
        <time>2025-11-13T09:04:25Z</time>
      </trkpt>
      <trkpt lat="43.8087" lon="6.25473">
        <ele>657.2</ele>
        <time>2025-11-13T09:04:26Z</time>
      </trkpt>
      <trkpt lat="43.80873" lon="6.25468">
        <ele>657.2</ele>
        <time>2025-11-13T09:04:27Z</time>
      </trkpt>
      <trkpt lat="43.80883" lon="6.25454">
        <ele>657.2</ele>
        <time>2025-11-13T09:04:30Z</time>
      </trkpt>
      <trkpt lat="43.80887" lon="6.25451">
        <ele>656.72</ele>
        <time>2025-11-13T09:04:31Z</time>
      </trkpt>
      <trkpt lat="43.80892" lon="6.25448">
        <ele>656.72</ele>
        <time>2025-11-13T09:04:32Z</time>
      </trkpt>
      <trkpt lat="43.80897" lon="6.25446">
        <ele>656.72</ele>
        <time>2025-11-13T09:04:33Z</time>
      </trkpt>
      <trkpt lat="43.80902" lon="6.25446">
        <ele>655.76</ele>
        <time>2025-11-13T09:04:34Z</time>
      </trkpt>
      <trkpt lat="43.80907" lon="6.25446">
        <ele>655.76</ele>
        <time>2025-11-13T09:04:35Z</time>
      </trkpt>
      <trkpt lat="43.80912" lon="6.25447">
        <ele>655.76</ele>
        <time>2025-11-13T09:04:36Z</time>
      </trkpt>
      <trkpt lat="43.80917" lon="6.25449">
        <ele>655.76</ele>
        <time>2025-11-13T09:04:37Z</time>
      </trkpt>
      <trkpt lat="43.80972" lon="6.25481">
        <ele>655.28</ele>
        <time>2025-11-13T09:04:49Z</time>
      </trkpt>
      <trkpt lat="43.8098" lon="6.25489">
        <ele>654.8</ele>
        <time>2025-11-13T09:04:51Z</time>
      </trkpt>
      <trkpt lat="43.80987" lon="6.25499">
        <ele>654.8</ele>
        <time>2025-11-13T09:04:53Z</time>
      </trkpt>
      <trkpt lat="43.8099" lon="6.25505">
        <ele>654.8</ele>
        <time>2025-11-13T09:04:54Z</time>
      </trkpt>
      <trkpt lat="43.81007" lon="6.25539">
        <ele>654.31</ele>
        <time>2025-11-13T09:05:00Z</time>
      </trkpt>
      <trkpt lat="43.8101" lon="6.25544">
        <ele>654.31</ele>
        <time>2025-11-13T09:05:01Z</time>
      </trkpt>
      <trkpt lat="43.81014" lon="6.25548">
        <ele>653.83</ele>
        <time>2025-11-13T09:05:02Z</time>
      </trkpt>
      <trkpt lat="43.81018" lon="6.25552">
        <ele>653.83</ele>
        <time>2025-11-13T09:05:03Z</time>
      </trkpt>
      <trkpt lat="43.81022" lon="6.25555">
        <ele>653.83</ele>
        <time>2025-11-13T09:05:04Z</time>
      </trkpt>
      <trkpt lat="43.81027" lon="6.25558">
        <ele>653.83</ele>
        <time>2025-11-13T09:05:05Z</time>
      </trkpt>
      <trkpt lat="43.81032" lon="6.2556">
        <ele>653.83</ele>
        <time>2025-11-13T09:05:06Z</time>
      </trkpt>
      <trkpt lat="43.81041" lon="6.25564">
        <ele>653.83</ele>
        <time>2025-11-13T09:05:08Z</time>
      </trkpt>
      <trkpt lat="43.81046" lon="6.25565">
        <ele>653.83</ele>
        <time>2025-11-13T09:05:09Z</time>
      </trkpt>
      <trkpt lat="43.81051" lon="6.25565">
        <ele>653.83</ele>
        <time>2025-11-13T09:05:10Z</time>
      </trkpt>
      <trkpt lat="43.81056" lon="6.25563">
        <ele>653.83</ele>
        <time>2025-11-13T09:05:11Z</time>
      </trkpt>
      <trkpt lat="43.8106" lon="6.25561">
        <ele>653.83</ele>
        <time>2025-11-13T09:05:12Z</time>
      </trkpt>
      <trkpt lat="43.81064" lon="6.25558">
        <ele>653.35</ele>
        <time>2025-11-13T09:05:13Z</time>
      </trkpt>
      <trkpt lat="43.81068" lon="6.25553">
        <ele>653.35</ele>
        <time>2025-11-13T09:05:14Z</time>
      </trkpt>
      <trkpt lat="43.81071" lon="6.25547">
        <ele>653.35</ele>
        <time>2025-11-13T09:05:15Z</time>
      </trkpt>
      <trkpt lat="43.81073" lon="6.25541">
        <ele>653.35</ele>
        <time>2025-11-13T09:05:16Z</time>
      </trkpt>
      <trkpt lat="43.8108" lon="6.25528">
        <ele>651.91</ele>
        <time>2025-11-13T09:05:18Z</time>
      </trkpt>
      <trkpt lat="43.81084" lon="6.25523">
        <ele>651.91</ele>
        <time>2025-11-13T09:05:19Z</time>
      </trkpt>
      <trkpt lat="43.81089" lon="6.25519">
        <ele>651.91</ele>
        <time>2025-11-13T09:05:20Z</time>
      </trkpt>
      <trkpt lat="43.81095" lon="6.25517">
        <ele>651.91</ele>
        <time>2025-11-13T09:05:21Z</time>
      </trkpt>
      <trkpt lat="43.811" lon="6.25516">
        <ele>651.91</ele>
        <time>2025-11-13T09:05:22Z</time>
      </trkpt>
      <trkpt lat="43.81105" lon="6.25517">
        <ele>651.91</ele>
        <time>2025-11-13T09:05:23Z</time>
      </trkpt>
      <trkpt lat="43.8111" lon="6.25518">
        <ele>651.43</ele>
        <time>2025-11-13T09:05:24Z</time>
      </trkpt>
      <trkpt lat="43.81115" lon="6.2552">
        <ele>651.43</ele>
        <time>2025-11-13T09:05:25Z</time>
      </trkpt>
      <trkpt lat="43.81149" lon="6.25527">
        <ele>651.43</ele>
        <time>2025-11-13T09:05:32Z</time>
      </trkpt>
      <trkpt lat="43.81155" lon="6.25527">
        <ele>651.43</ele>
        <time>2025-11-13T09:05:33Z</time>
      </trkpt>
      <trkpt lat="43.81209" lon="6.25525">
        <ele>650.95</ele>
        <time>2025-11-13T09:05:44Z</time>
      </trkpt>
      <trkpt lat="43.81213" lon="6.25524">
        <ele>650.95</ele>
        <time>2025-11-13T09:05:45Z</time>
      </trkpt>
      <trkpt lat="43.81217" lon="6.25523">
        <ele>650.47</ele>
        <time>2025-11-13T09:05:46Z</time>
      </trkpt>
      <trkpt lat="43.8122" lon="6.25522">
        <ele>650.47</ele>
        <time>2025-11-13T09:05:47Z</time>
      </trkpt>
      <trkpt lat="43.81222" lon="6.2552">
        <ele>650.47</ele>
        <time>2025-11-13T09:05:48Z</time>
      </trkpt>
      <trkpt lat="43.81225" lon="6.25519">
        <ele>650.47</ele>
        <time>2025-11-13T09:05:49Z</time>
      </trkpt>
      <trkpt lat="43.81227" lon="6.25518">
        <ele>650.47</ele>
        <time>2025-11-13T09:05:50Z</time>
      </trkpt>
      <trkpt lat="43.81229" lon="6.25517">
        <ele>650.47</ele>
        <time>2025-11-13T09:05:57Z</time>
      </trkpt>
      <trkpt lat="43.8123" lon="6.25513">
        <ele>650.47</ele>
        <time>2025-11-13T09:06:02Z</time>
      </trkpt>
      <trkpt lat="43.8123" lon="6.2551">
        <ele>650.47</ele>
        <time>2025-11-13T09:06:03Z</time>
      </trkpt>
      <trkpt lat="43.81231" lon="6.25507">
        <ele>650.47</ele>
        <time>2025-11-13T09:06:04Z</time>
      </trkpt>
      <trkpt lat="43.81231" lon="6.25488">
        <ele>650.47</ele>
        <time>2025-11-13T09:06:08Z</time>
      </trkpt>
      <trkpt lat="43.8123" lon="6.25482">
        <ele>649.99</ele>
        <time>2025-11-13T09:06:09Z</time>
      </trkpt>
      <trkpt lat="43.81229" lon="6.25476">
        <ele>649.99</ele>
        <time>2025-11-13T09:06:10Z</time>
      </trkpt>
      <trkpt lat="43.81227" lon="6.25469">
        <ele>649.51</ele>
        <time>2025-11-13T09:06:11Z</time>
      </trkpt>
      <trkpt lat="43.81226" lon="6.25462">
        <ele>649.03</ele>
        <time>2025-11-13T09:06:12Z</time>
      </trkpt>
      <trkpt lat="43.81225" lon="6.25454">
        <ele>649.03</ele>
        <time>2025-11-13T09:06:13Z</time>
      </trkpt>
      <trkpt lat="43.81226" lon="6.25448">
        <ele>649.03</ele>
        <time>2025-11-13T09:06:14Z</time>
      </trkpt>
      <trkpt lat="43.81227" lon="6.2544">
        <ele>649.03</ele>
        <time>2025-11-13T09:06:15Z</time>
      </trkpt>
      <trkpt lat="43.81229" lon="6.25433">
        <ele>648.55</ele>
        <time>2025-11-13T09:06:16Z</time>
      </trkpt>
      <trkpt lat="43.81245" lon="6.25388">
        <ele>648.07</ele>
        <time>2025-11-13T09:06:23Z</time>
      </trkpt>
      <trkpt lat="43.81249" lon="6.25383">
        <ele>647.59</ele>
        <time>2025-11-13T09:06:24Z</time>
      </trkpt>
      <trkpt lat="43.81253" lon="6.25378">
        <ele>647.59</ele>
        <time>2025-11-13T09:06:25Z</time>
      </trkpt>
      <trkpt lat="43.81257" lon="6.25374">
        <ele>647.59</ele>
        <time>2025-11-13T09:06:26Z</time>
      </trkpt>
      <trkpt lat="43.81261" lon="6.25369">
        <ele>647.59</ele>
        <time>2025-11-13T09:06:27Z</time>
      </trkpt>
      <trkpt lat="43.81282" lon="6.25349">
        <ele>647.1</ele>
        <time>2025-11-13T09:06:32Z</time>
      </trkpt>
      <trkpt lat="43.81286" lon="6.25343">
        <ele>647.1</ele>
        <time>2025-11-13T09:06:33Z</time>
      </trkpt>
      <trkpt lat="43.81289" lon="6.25337">
        <ele>647.1</ele>
        <time>2025-11-13T09:06:34Z</time>
      </trkpt>
      <trkpt lat="43.81292" lon="6.2533">
        <ele>647.1</ele>
        <time>2025-11-13T09:06:35Z</time>
      </trkpt>
      <trkpt lat="43.81294" lon="6.25323">
        <ele>646.62</ele>
        <time>2025-11-13T09:06:36Z</time>
      </trkpt>
      <trkpt lat="43.81295" lon="6.25316">
        <ele>646.62</ele>
        <time>2025-11-13T09:06:37Z</time>
      </trkpt>
      <trkpt lat="43.81296" lon="6.25308">
        <ele>646.62</ele>
        <time>2025-11-13T09:06:38Z</time>
      </trkpt>
      <trkpt lat="43.81296" lon="6.25301">
        <ele>646.62</ele>
        <time>2025-11-13T09:06:39Z</time>
      </trkpt>
      <trkpt lat="43.81296" lon="6.25294">
        <ele>646.62</ele>
        <time>2025-11-13T09:06:40Z</time>
      </trkpt>
      <trkpt lat="43.81291" lon="6.25211">
        <ele>646.62</ele>
        <time>2025-11-13T09:06:52Z</time>
      </trkpt>
      <trkpt lat="43.81284" lon="6.25117">
        <ele>649.51</ele>
        <time>2025-11-13T09:07:07Z</time>
      </trkpt>
      <trkpt lat="43.81284" lon="6.25052">
        <ele>651.43</ele>
        <time>2025-11-13T09:07:19Z</time>
      </trkpt>
      <trkpt lat="43.81294" lon="6.25034">
        <ele>652.39</ele>
        <time>2025-11-13T09:07:24Z</time>
      </trkpt>
      <trkpt lat="43.81297" lon="6.25033">
        <ele>652.87</ele>
        <time>2025-11-13T09:07:25Z</time>
      </trkpt>
      <trkpt lat="43.813" lon="6.25033">
        <ele>652.87</ele>
        <time>2025-11-13T09:07:26Z</time>
      </trkpt>
      <trkpt lat="43.81303" lon="6.25034">
        <ele>653.35</ele>
        <time>2025-11-13T09:07:27Z</time>
      </trkpt>
      <trkpt lat="43.81306" lon="6.25036">
        <ele>653.35</ele>
        <time>2025-11-13T09:07:28Z</time>
      </trkpt>
      <trkpt lat="43.81309" lon="6.25038">
        <ele>653.35</ele>
        <time>2025-11-13T09:07:29Z</time>
      </trkpt>
      <trkpt lat="43.81339" lon="6.25053">
        <ele>656.72</ele>
        <time>2025-11-13T09:07:39Z</time>
      </trkpt>
      <trkpt lat="43.81383" lon="6.25032">
        <ele>659.12</ele>
        <time>2025-11-13T09:07:52Z</time>
      </trkpt>
      <trkpt lat="43.81424" lon="6.25006">
        <ele>662.01</ele>
        <time>2025-11-13T09:08:06Z</time>
      </trkpt>
      <trkpt lat="43.81441" lon="6.24979">
        <ele>662.97</ele>
        <time>2025-11-13T09:08:17Z</time>
      </trkpt>
      <trkpt lat="43.8144" lon="6.24976">
        <ele>662.97</ele>
        <time>2025-11-13T09:08:28Z</time>
      </trkpt>
      <trkpt lat="43.81436" lon="6.2498">
        <ele>662.97</ele>
        <time>2025-11-13T09:08:51Z</time>
      </trkpt>
      <trkpt lat="43.81437" lon="6.24982">
        <ele>662.97</ele>
        <time>2025-11-13T09:09:11Z</time>
      </trkpt>
      <trkpt lat="43.8144" lon="6.24981">
        <ele>663.45</ele>
        <time>2025-11-13T09:09:29Z</time>
      </trkpt>
      <trkpt lat="43.81442" lon="6.24978">
        <ele>663.45</ele>
        <time>2025-11-13T09:09:47Z</time>
      </trkpt>
      <trkpt lat="43.8144" lon="6.24974">
        <ele>663.93</ele>
        <time>2025-11-13T09:09:57Z</time>
      </trkpt>
      <trkpt lat="43.81428" lon="6.24946">
        <ele>663.93</ele>
        <time>2025-11-13T09:10:05Z</time>
      </trkpt>
      <trkpt lat="43.8143" lon="6.24903">
        <ele>666.33</ele>
        <time>2025-11-13T09:10:14Z</time>
      </trkpt>
      <trkpt lat="43.81455" lon="6.24855">
        <ele>668.73</ele>
        <time>2025-11-13T09:10:26Z</time>
      </trkpt>
      <trkpt lat="43.81495" lon="6.2482">
        <ele>671.14</ele>
        <time>2025-11-13T09:10:39Z</time>
      </trkpt>
      <trkpt lat="43.81517" lon="6.24797">
        <ele>672.58</ele>
        <time>2025-11-13T09:10:47Z</time>
      </trkpt>
      <trkpt lat="43.81519" lon="6.24786">
        <ele>672.58</ele>
        <time>2025-11-13T09:10:49Z</time>
      </trkpt>
      <trkpt lat="43.81519" lon="6.24781">
        <ele>672.58</ele>
        <time>2025-11-13T09:10:50Z</time>
      </trkpt>
      <trkpt lat="43.81518" lon="6.24776">
        <ele>672.58</ele>
        <time>2025-11-13T09:10:51Z</time>
      </trkpt>
      <trkpt lat="43.81517" lon="6.2477">
        <ele>672.58</ele>
        <time>2025-11-13T09:10:52Z</time>
      </trkpt>
      <trkpt lat="43.81516" lon="6.24765">
        <ele>672.58</ele>
        <time>2025-11-13T09:10:53Z</time>
      </trkpt>
      <trkpt lat="43.81514" lon="6.24709">
        <ele>674.98</ele>
        <time>2025-11-13T09:11:04Z</time>
      </trkpt>
      <trkpt lat="43.81528" lon="6.24648">
        <ele>676.42</ele>
        <time>2025-11-13T09:11:17Z</time>
      </trkpt>
      <trkpt lat="43.81507" lon="6.24604">
        <ele>677.39</ele>
        <time>2025-11-13T09:11:27Z</time>
      </trkpt>
      <trkpt lat="43.8148" lon="6.24535">
        <ele>676.42</ele>
        <time>2025-11-13T09:11:39Z</time>
      </trkpt>
      <trkpt lat="43.81479" lon="6.24527">
        <ele>676.42</ele>
        <time>2025-11-13T09:11:40Z</time>
      </trkpt>
      <trkpt lat="43.81475" lon="6.24486">
        <ele>673.06</ele>
        <time>2025-11-13T09:11:44Z</time>
      </trkpt>
      <trkpt lat="43.81476" lon="6.24474">
        <ele>673.06</ele>
        <time>2025-11-13T09:11:45Z</time>
      </trkpt>
      <trkpt lat="43.81477" lon="6.24452">
        <ele>672.58</ele>
        <time>2025-11-13T09:11:47Z</time>
      </trkpt>
      <trkpt lat="43.81496" lon="6.24372">
        <ele>668.73</ele>
        <time>2025-11-13T09:11:54Z</time>
      </trkpt>
      <trkpt lat="43.81502" lon="6.24346">
        <ele>668.25</ele>
        <time>2025-11-13T09:11:56Z</time>
      </trkpt>
      <trkpt lat="43.81506" lon="6.24335">
        <ele>668.25</ele>
        <time>2025-11-13T09:11:57Z</time>
      </trkpt>
      <trkpt lat="43.81512" lon="6.24324">
        <ele>667.77</ele>
        <time>2025-11-13T09:11:58Z</time>
      </trkpt>
      <trkpt lat="43.81519" lon="6.24315">
        <ele>667.77</ele>
        <time>2025-11-13T09:11:59Z</time>
      </trkpt>
      <trkpt lat="43.81526" lon="6.24307">
        <ele>666.81</ele>
        <time>2025-11-13T09:12:00Z</time>
      </trkpt>
      <trkpt lat="43.81533" lon="6.243">
        <ele>666.33</ele>
        <time>2025-11-13T09:12:01Z</time>
      </trkpt>
      <trkpt lat="43.81558" lon="6.24281">
        <ele>665.85</ele>
        <time>2025-11-13T09:12:04Z</time>
      </trkpt>
      <trkpt lat="43.81566" lon="6.24276">
        <ele>665.85</ele>
        <time>2025-11-13T09:12:05Z</time>
      </trkpt>
      <trkpt lat="43.81574" lon="6.24273">
        <ele>665.37</ele>
        <time>2025-11-13T09:12:06Z</time>
      </trkpt>
      <trkpt lat="43.81637" lon="6.24254">
        <ele>664.41</ele>
        <time>2025-11-13T09:12:14Z</time>
      </trkpt>
      <trkpt lat="43.81644" lon="6.24253">
        <ele>663.93</ele>
        <time>2025-11-13T09:12:15Z</time>
      </trkpt>
      <trkpt lat="43.81652" lon="6.24253">
        <ele>663.93</ele>
        <time>2025-11-13T09:12:16Z</time>
      </trkpt>
      <trkpt lat="43.8166" lon="6.24254">
        <ele>663.93</ele>
        <time>2025-11-13T09:12:17Z</time>
      </trkpt>
      <trkpt lat="43.81667" lon="6.24256">
        <ele>663.93</ele>
        <time>2025-11-13T09:12:18Z</time>
      </trkpt>
      <trkpt lat="43.81674" lon="6.2426">
        <ele>663.45</ele>
        <time>2025-11-13T09:12:19Z</time>
      </trkpt>
      <trkpt lat="43.81679" lon="6.24263">
        <ele>663.45</ele>
        <time>2025-11-13T09:12:20Z</time>
      </trkpt>
      <trkpt lat="43.81685" lon="6.24269">
        <ele>663.45</ele>
        <time>2025-11-13T09:12:21Z</time>
      </trkpt>
      <trkpt lat="43.81689" lon="6.24274">
        <ele>663.45</ele>
        <time>2025-11-13T09:12:22Z</time>
      </trkpt>
      <trkpt lat="43.81695" lon="6.2428">
        <ele>662.97</ele>
        <time>2025-11-13T09:12:23Z</time>
      </trkpt>
      <trkpt lat="43.817" lon="6.24286">
        <ele>662.97</ele>
        <time>2025-11-13T09:12:24Z</time>
      </trkpt>
      <trkpt lat="43.81731" lon="6.24326">
        <ele>662.49</ele>
        <time>2025-11-13T09:12:31Z</time>
      </trkpt>
      <trkpt lat="43.81735" lon="6.24333">
        <ele>662.49</ele>
        <time>2025-11-13T09:12:32Z</time>
      </trkpt>
      <trkpt lat="43.81746" lon="6.24352">
        <ele>662.01</ele>
        <time>2025-11-13T09:12:35Z</time>
      </trkpt>
      <trkpt lat="43.81751" lon="6.24357">
        <ele>662.01</ele>
        <time>2025-11-13T09:12:36Z</time>
      </trkpt>
      <trkpt lat="43.81756" lon="6.24359">
        <ele>661.52</ele>
        <time>2025-11-13T09:12:37Z</time>
      </trkpt>
      <trkpt lat="43.81761" lon="6.24359">
        <ele>661.52</ele>
        <time>2025-11-13T09:12:38Z</time>
      </trkpt>
      <trkpt lat="43.81767" lon="6.24356">
        <ele>661.52</ele>
        <time>2025-11-13T09:12:39Z</time>
      </trkpt>
      <trkpt lat="43.81771" lon="6.2435">
        <ele>661.04</ele>
        <time>2025-11-13T09:12:40Z</time>
      </trkpt>
      <trkpt lat="43.81775" lon="6.24342">
        <ele>661.04</ele>
        <time>2025-11-13T09:12:41Z</time>
      </trkpt>
      <trkpt lat="43.81777" lon="6.24333">
        <ele>660.56</ele>
        <time>2025-11-13T09:12:42Z</time>
      </trkpt>
      <trkpt lat="43.8178" lon="6.24325">
        <ele>660.56</ele>
        <time>2025-11-13T09:12:43Z</time>
      </trkpt>
      <trkpt lat="43.81808" lon="6.24211">
        <ele>657.68</ele>
        <time>2025-11-13T09:12:55Z</time>
      </trkpt>
      <trkpt lat="43.81809" lon="6.24201">
        <ele>657.68</ele>
        <time>2025-11-13T09:12:56Z</time>
      </trkpt>
      <trkpt lat="43.81809" lon="6.24192">
        <ele>657.2</ele>
        <time>2025-11-13T09:12:57Z</time>
      </trkpt>
      <trkpt lat="43.81809" lon="6.24182">
        <ele>657.2</ele>
        <time>2025-11-13T09:12:58Z</time>
      </trkpt>
      <trkpt lat="43.81802" lon="6.24111">
        <ele>654.8</ele>
        <time>2025-11-13T09:13:05Z</time>
      </trkpt>
      <trkpt lat="43.81803" lon="6.241">
        <ele>654.31</ele>
        <time>2025-11-13T09:13:06Z</time>
      </trkpt>
      <trkpt lat="43.81804" lon="6.2409">
        <ele>654.31</ele>
        <time>2025-11-13T09:13:07Z</time>
      </trkpt>
      <trkpt lat="43.81806" lon="6.24079">
        <ele>653.83</ele>
        <time>2025-11-13T09:13:08Z</time>
      </trkpt>
      <trkpt lat="43.81808" lon="6.24068">
        <ele>653.83</ele>
        <time>2025-11-13T09:13:09Z</time>
      </trkpt>
      <trkpt lat="43.81823" lon="6.2397">
        <ele>652.39</ele>
        <time>2025-11-13T09:13:19Z</time>
      </trkpt>
      <trkpt lat="43.81836" lon="6.23914">
        <ele>653.83</ele>
        <time>2025-11-13T09:13:26Z</time>
      </trkpt>
      <trkpt lat="43.81869" lon="6.23834">
        <ele>655.28</ele>
        <time>2025-11-13T09:13:37Z</time>
      </trkpt>
      <trkpt lat="43.81899" lon="6.23765">
        <ele>656.24</ele>
        <time>2025-11-13T09:13:47Z</time>
      </trkpt>
      <trkpt lat="43.81901" lon="6.23757">
        <ele>656.24</ele>
        <time>2025-11-13T09:13:48Z</time>
      </trkpt>
      <trkpt lat="43.81902" lon="6.23749">
        <ele>656.24</ele>
        <time>2025-11-13T09:13:49Z</time>
      </trkpt>
      <trkpt lat="43.81902" lon="6.2374">
        <ele>656.24</ele>
        <time>2025-11-13T09:13:50Z</time>
      </trkpt>
      <trkpt lat="43.81902" lon="6.23732">
        <ele>656.24</ele>
        <time>2025-11-13T09:13:51Z</time>
      </trkpt>
      <trkpt lat="43.81902" lon="6.23724">
        <ele>656.24</ele>
        <time>2025-11-13T09:13:52Z</time>
      </trkpt>
      <trkpt lat="43.819" lon="6.23706">
        <ele>656.24</ele>
        <time>2025-11-13T09:13:54Z</time>
      </trkpt>
      <trkpt lat="43.81899" lon="6.23696">
        <ele>654.8</ele>
        <time>2025-11-13T09:13:55Z</time>
      </trkpt>
      <trkpt lat="43.81898" lon="6.23686">
        <ele>654.31</ele>
        <time>2025-11-13T09:13:56Z</time>
      </trkpt>
      <trkpt lat="43.81898" lon="6.23676">
        <ele>653.83</ele>
        <time>2025-11-13T09:13:57Z</time>
      </trkpt>
      <trkpt lat="43.81899" lon="6.23665">
        <ele>653.35</ele>
        <time>2025-11-13T09:13:58Z</time>
      </trkpt>
      <trkpt lat="43.81901" lon="6.23654">
        <ele>652.39</ele>
        <time>2025-11-13T09:13:59Z</time>
      </trkpt>
      <trkpt lat="43.81904" lon="6.23644">
        <ele>651.91</ele>
        <time>2025-11-13T09:14:00Z</time>
      </trkpt>
      <trkpt lat="43.81913" lon="6.2361">
        <ele>649.99</ele>
        <time>2025-11-13T09:14:03Z</time>
      </trkpt>
      <trkpt lat="43.81915" lon="6.23599">
        <ele>649.51</ele>
        <time>2025-11-13T09:14:04Z</time>
      </trkpt>
      <trkpt lat="43.81917" lon="6.23586">
        <ele>649.03</ele>
        <time>2025-11-13T09:14:05Z</time>
      </trkpt>
      <trkpt lat="43.81917" lon="6.23573">
        <ele>649.03</ele>
        <time>2025-11-13T09:14:06Z</time>
      </trkpt>
      <trkpt lat="43.81917" lon="6.2356">
        <ele>647.59</ele>
        <time>2025-11-13T09:14:07Z</time>
      </trkpt>
      <trkpt lat="43.81915" lon="6.23521">
        <ele>646.14</ele>
        <time>2025-11-13T09:14:10Z</time>
      </trkpt>
      <trkpt lat="43.81916" lon="6.23508">
        <ele>645.18</ele>
        <time>2025-11-13T09:14:11Z</time>
      </trkpt>
      <trkpt lat="43.81918" lon="6.23495">
        <ele>644.22</ele>
        <time>2025-11-13T09:14:12Z</time>
      </trkpt>
      <trkpt lat="43.81922" lon="6.23483">
        <ele>643.74</ele>
        <time>2025-11-13T09:14:13Z</time>
      </trkpt>
      <trkpt lat="43.81928" lon="6.23471">
        <ele>642.78</ele>
        <time>2025-11-13T09:14:14Z</time>
      </trkpt>
      <trkpt lat="43.81935" lon="6.23461">
        <ele>641.82</ele>
        <time>2025-11-13T09:14:15Z</time>
      </trkpt>
      <trkpt lat="43.81943" lon="6.23452">
        <ele>641.34</ele>
        <time>2025-11-13T09:14:16Z</time>
      </trkpt>
      <trkpt lat="43.81952" lon="6.23448">
        <ele>640.38</ele>
        <time>2025-11-13T09:14:17Z</time>
      </trkpt>
      <trkpt lat="43.81962" lon="6.23445">
        <ele>639.89</ele>
        <time>2025-11-13T09:14:18Z</time>
      </trkpt>
      <trkpt lat="43.81972" lon="6.23444">
        <ele>638.93</ele>
        <time>2025-11-13T09:14:19Z</time>
      </trkpt>
      <trkpt lat="43.81982" lon="6.23443">
        <ele>638.45</ele>
        <time>2025-11-13T09:14:20Z</time>
      </trkpt>
      <trkpt lat="43.81992" lon="6.2344">
        <ele>638.45</ele>
        <time>2025-11-13T09:14:21Z</time>
      </trkpt>
      <trkpt lat="43.82002" lon="6.23432">
        <ele>637.01</ele>
        <time>2025-11-13T09:14:22Z</time>
      </trkpt>
      <trkpt lat="43.82008" lon="6.23423">
        <ele>636.53</ele>
        <time>2025-11-13T09:14:23Z</time>
      </trkpt>
      <trkpt lat="43.82012" lon="6.23411">
        <ele>636.05</ele>
        <time>2025-11-13T09:14:24Z</time>
      </trkpt>
      <trkpt lat="43.82017" lon="6.23397">
        <ele>635.57</ele>
        <time>2025-11-13T09:14:25Z</time>
      </trkpt>
      <trkpt lat="43.82022" lon="6.23386">
        <ele>634.61</ele>
        <time>2025-11-13T09:14:26Z</time>
      </trkpt>
      <trkpt lat="43.8203" lon="6.23376">
        <ele>633.65</ele>
        <time>2025-11-13T09:14:27Z</time>
      </trkpt>
      <trkpt lat="43.82038" lon="6.23369">
        <ele>633.17</ele>
        <time>2025-11-13T09:14:28Z</time>
      </trkpt>
      <trkpt lat="43.82048" lon="6.23364">
        <ele>632.2</ele>
        <time>2025-11-13T09:14:29Z</time>
      </trkpt>
      <trkpt lat="43.82057" lon="6.23361">
        <ele>631.72</ele>
        <time>2025-11-13T09:14:30Z</time>
      </trkpt>
      <trkpt lat="43.82068" lon="6.23357">
        <ele>631.24</ele>
        <time>2025-11-13T09:14:31Z</time>
      </trkpt>
      <trkpt lat="43.82077" lon="6.23352">
        <ele>630.76</ele>
        <time>2025-11-13T09:14:32Z</time>
      </trkpt>
      <trkpt lat="43.82086" lon="6.23344">
        <ele>630.28</ele>
        <time>2025-11-13T09:14:33Z</time>
      </trkpt>
      <trkpt lat="43.82094" lon="6.23333">
        <ele>629.32</ele>
        <time>2025-11-13T09:14:34Z</time>
      </trkpt>
      <trkpt lat="43.82101" lon="6.23323">
        <ele>628.36</ele>
        <time>2025-11-13T09:14:35Z</time>
      </trkpt>
      <trkpt lat="43.82108" lon="6.2331">
        <ele>627.4</ele>
        <time>2025-11-13T09:14:36Z</time>
      </trkpt>
      <trkpt lat="43.8213" lon="6.23276">
        <ele>624.99</ele>
        <time>2025-11-13T09:14:39Z</time>
      </trkpt>
      <trkpt lat="43.82138" lon="6.23267">
        <ele>624.51</ele>
        <time>2025-11-13T09:14:40Z</time>
      </trkpt>
      <trkpt lat="43.82148" lon="6.23258">
        <ele>624.03</ele>
        <time>2025-11-13T09:14:41Z</time>
      </trkpt>
      <trkpt lat="43.82158" lon="6.23251">
        <ele>623.07</ele>
        <time>2025-11-13T09:14:42Z</time>
      </trkpt>
      <trkpt lat="43.82166" lon="6.23245">
        <ele>622.59</ele>
        <time>2025-11-13T09:14:43Z</time>
      </trkpt>
      <trkpt lat="43.8221" lon="6.23223">
        <ele>619.23</ele>
        <time>2025-11-13T09:14:47Z</time>
      </trkpt>
      <trkpt lat="43.8224" lon="6.23214">
        <ele>617.3</ele>
        <time>2025-11-13T09:14:50Z</time>
      </trkpt>
      <trkpt lat="43.82273" lon="6.2321">
        <ele>614.9</ele>
        <time>2025-11-13T09:14:53Z</time>
      </trkpt>
      <trkpt lat="43.82285" lon="6.23213">
        <ele>613.94</ele>
        <time>2025-11-13T09:14:54Z</time>
      </trkpt>
      <trkpt lat="43.82294" lon="6.23217">
        <ele>612.98</ele>
        <time>2025-11-13T09:14:55Z</time>
      </trkpt>
      <trkpt lat="43.82305" lon="6.23225">
        <ele>612.5</ele>
        <time>2025-11-13T09:14:56Z</time>
      </trkpt>
      <trkpt lat="43.82314" lon="6.23234">
        <ele>612.02</ele>
        <time>2025-11-13T09:14:57Z</time>
      </trkpt>
      <trkpt lat="43.82333" lon="6.23249">
        <ele>610.09</ele>
        <time>2025-11-13T09:14:59Z</time>
      </trkpt>
      <trkpt lat="43.82342" lon="6.23253">
        <ele>610.09</ele>
        <time>2025-11-13T09:15:00Z</time>
      </trkpt>
      <trkpt lat="43.82353" lon="6.23257">
        <ele>609.13</ele>
        <time>2025-11-13T09:15:01Z</time>
      </trkpt>
      <trkpt lat="43.82365" lon="6.23257">
        <ele>608.17</ele>
        <time>2025-11-13T09:15:02Z</time>
      </trkpt>
      <trkpt lat="43.82377" lon="6.23253">
        <ele>607.21</ele>
        <time>2025-11-13T09:15:03Z</time>
      </trkpt>
      <trkpt lat="43.82385" lon="6.2325">
        <ele>606.73</ele>
        <time>2025-11-13T09:15:04Z</time>
      </trkpt>
      <trkpt lat="43.82396" lon="6.23244">
        <ele>605.77</ele>
        <time>2025-11-13T09:15:05Z</time>
      </trkpt>
      <trkpt lat="43.82406" lon="6.23237">
        <ele>604.81</ele>
        <time>2025-11-13T09:15:06Z</time>
      </trkpt>
      <trkpt lat="43.82443" lon="6.23207">
        <ele>602.4</ele>
        <time>2025-11-13T09:15:10Z</time>
      </trkpt>
      <trkpt lat="43.82451" lon="6.23197">
        <ele>601.92</ele>
        <time>2025-11-13T09:15:11Z</time>
      </trkpt>
      <trkpt lat="43.82492" lon="6.23145">
        <ele>598.56</ele>
        <time>2025-11-13T09:15:16Z</time>
      </trkpt>
      <trkpt lat="43.82525" lon="6.23104">
        <ele>595.67</ele>
        <time>2025-11-13T09:15:20Z</time>
      </trkpt>
      <trkpt lat="43.82541" lon="6.23081">
        <ele>593.75</ele>
        <time>2025-11-13T09:15:22Z</time>
      </trkpt>
      <trkpt lat="43.82547" lon="6.23067">
        <ele>593.27</ele>
        <time>2025-11-13T09:15:23Z</time>
      </trkpt>
      <trkpt lat="43.82551" lon="6.2305">
        <ele>592.31</ele>
        <time>2025-11-13T09:15:24Z</time>
      </trkpt>
      <trkpt lat="43.82552" lon="6.23038">
        <ele>591.83</ele>
        <time>2025-11-13T09:15:25Z</time>
      </trkpt>
      <trkpt lat="43.82554" lon="6.23023">
        <ele>590.87</ele>
        <time>2025-11-13T09:15:26Z</time>
      </trkpt>
      <trkpt lat="43.82554" lon="6.23008">
        <ele>589.91</ele>
        <time>2025-11-13T09:15:27Z</time>
      </trkpt>
      <trkpt lat="43.82557" lon="6.22965">
        <ele>587.98</ele>
        <time>2025-11-13T09:15:30Z</time>
      </trkpt>
      <trkpt lat="43.82563" lon="6.22951">
        <ele>587.02</ele>
        <time>2025-11-13T09:15:31Z</time>
      </trkpt>
      <trkpt lat="43.82569" lon="6.22941">
        <ele>585.58</ele>
        <time>2025-11-13T09:15:32Z</time>
      </trkpt>
      <trkpt lat="43.82579" lon="6.22933">
        <ele>584.62</ele>
        <time>2025-11-13T09:15:33Z</time>
      </trkpt>
      <trkpt lat="43.82589" lon="6.22927">
        <ele>584.14</ele>
        <time>2025-11-13T09:15:34Z</time>
      </trkpt>
      <trkpt lat="43.82599" lon="6.22923">
        <ele>583.66</ele>
        <time>2025-11-13T09:15:35Z</time>
      </trkpt>
      <trkpt lat="43.82609" lon="6.22919">
        <ele>582.7</ele>
        <time>2025-11-13T09:15:36Z</time>
      </trkpt>
      <trkpt lat="43.8266" lon="6.22898">
        <ele>579.33</ele>
        <time>2025-11-13T09:15:41Z</time>
      </trkpt>
      <trkpt lat="43.82706" lon="6.22862">
        <ele>575.97</ele>
        <time>2025-11-13T09:15:46Z</time>
      </trkpt>
      <trkpt lat="43.82754" lon="6.22821">
        <ele>572.6</ele>
        <time>2025-11-13T09:15:51Z</time>
      </trkpt>
      <trkpt lat="43.82771" lon="6.2281">
        <ele>571.16</ele>
        <time>2025-11-13T09:15:53Z</time>
      </trkpt>
      <trkpt lat="43.82781" lon="6.22806">
        <ele>570.68</ele>
        <time>2025-11-13T09:15:54Z</time>
      </trkpt>
      <trkpt lat="43.8279" lon="6.22803">
        <ele>570.2</ele>
        <time>2025-11-13T09:15:55Z</time>
      </trkpt>
      <trkpt lat="43.82808" lon="6.22798">
        <ele>569.72</ele>
        <time>2025-11-13T09:15:57Z</time>
      </trkpt>
      <trkpt lat="43.82815" lon="6.22791">
        <ele>568.76</ele>
        <time>2025-11-13T09:15:58Z</time>
      </trkpt>
      <trkpt lat="43.82818" lon="6.22781">
        <ele>568.28</ele>
        <time>2025-11-13T09:15:59Z</time>
      </trkpt>
      <trkpt lat="43.82817" lon="6.22771">
        <ele>567.8</ele>
        <time>2025-11-13T09:16:00Z</time>
      </trkpt>
      <trkpt lat="43.82812" lon="6.22763">
        <ele>567.32</ele>
        <time>2025-11-13T09:16:01Z</time>
      </trkpt>
      <trkpt lat="43.82805" lon="6.22757">
        <ele>566.83</ele>
        <time>2025-11-13T09:16:02Z</time>
      </trkpt>
      <trkpt lat="43.82799" lon="6.22754">
        <ele>565.87</ele>
        <time>2025-11-13T09:16:03Z</time>
      </trkpt>
      <trkpt lat="43.8279" lon="6.22753">
        <ele>565.87</ele>
        <time>2025-11-13T09:16:04Z</time>
      </trkpt>
      <trkpt lat="43.8278" lon="6.22753">
        <ele>564.91</ele>
        <time>2025-11-13T09:16:05Z</time>
      </trkpt>
      <trkpt lat="43.82746" lon="6.2275">
        <ele>562.99</ele>
        <time>2025-11-13T09:16:09Z</time>
      </trkpt>
      <trkpt lat="43.82741" lon="6.22744">
        <ele>562.51</ele>
        <time>2025-11-13T09:16:10Z</time>
      </trkpt>
      <trkpt lat="43.8274" lon="6.22736">
        <ele>562.03</ele>
        <time>2025-11-13T09:16:11Z</time>
      </trkpt>
      <trkpt lat="43.82742" lon="6.22728">
        <ele>561.55</ele>
        <time>2025-11-13T09:16:12Z</time>
      </trkpt>
      <trkpt lat="43.82747" lon="6.2272">
        <ele>560.59</ele>
        <time>2025-11-13T09:16:13Z</time>
      </trkpt>
      <trkpt lat="43.82753" lon="6.22715">
        <ele>560.11</ele>
        <time>2025-11-13T09:16:14Z</time>
      </trkpt>
      <trkpt lat="43.8276" lon="6.2271">
        <ele>559.14</ele>
        <time>2025-11-13T09:16:15Z</time>
      </trkpt>
      <trkpt lat="43.82796" lon="6.2268">
        <ele>556.26</ele>
        <time>2025-11-13T09:16:20Z</time>
      </trkpt>
      <trkpt lat="43.82803" lon="6.22672">
        <ele>556.26</ele>
        <time>2025-11-13T09:16:21Z</time>
      </trkpt>
      <trkpt lat="43.82812" lon="6.22665">
        <ele>555.3</ele>
        <time>2025-11-13T09:16:22Z</time>
      </trkpt>
      <trkpt lat="43.8282" lon="6.22661">
        <ele>554.34</ele>
        <time>2025-11-13T09:16:23Z</time>
      </trkpt>
      <trkpt lat="43.82828" lon="6.22658">
        <ele>553.86</ele>
        <time>2025-11-13T09:16:24Z</time>
      </trkpt>
      <trkpt lat="43.82839" lon="6.22658">
        <ele>552.9</ele>
        <time>2025-11-13T09:16:25Z</time>
      </trkpt>
      <trkpt lat="43.82848" lon="6.22661">
        <ele>552.9</ele>
        <time>2025-11-13T09:16:26Z</time>
      </trkpt>
      <trkpt lat="43.82856" lon="6.22669">
        <ele>551.93</ele>
        <time>2025-11-13T09:16:27Z</time>
      </trkpt>
      <trkpt lat="43.82862" lon="6.22677">
        <ele>550.97</ele>
        <time>2025-11-13T09:16:28Z</time>
      </trkpt>
      <trkpt lat="43.82869" lon="6.22688">
        <ele>550.49</ele>
        <time>2025-11-13T09:16:29Z</time>
      </trkpt>
      <trkpt lat="43.82875" lon="6.227">
        <ele>550.01</ele>
        <time>2025-11-13T09:16:30Z</time>
      </trkpt>
      <trkpt lat="43.82892" lon="6.22733">
        <ele>548.57</ele>
        <time>2025-11-13T09:16:33Z</time>
      </trkpt>
      <trkpt lat="43.82896" lon="6.22744">
        <ele>548.09</ele>
        <time>2025-11-13T09:16:34Z</time>
      </trkpt>
      <trkpt lat="43.82909" lon="6.2279">
        <ele>546.65</ele>
        <time>2025-11-13T09:16:38Z</time>
      </trkpt>
      <trkpt lat="43.82913" lon="6.22798">
        <ele>546.65</ele>
        <time>2025-11-13T09:16:39Z</time>
      </trkpt>
      <trkpt lat="43.82918" lon="6.22803">
        <ele>546.17</ele>
        <time>2025-11-13T09:16:40Z</time>
      </trkpt>
      <trkpt lat="43.82925" lon="6.22804">
        <ele>546.17</ele>
        <time>2025-11-13T09:16:41Z</time>
      </trkpt>
      <trkpt lat="43.82931" lon="6.22798">
        <ele>545.2</ele>
        <time>2025-11-13T09:16:42Z</time>
      </trkpt>
      <trkpt lat="43.82934" lon="6.2279">
        <ele>545.2</ele>
        <time>2025-11-13T09:16:43Z</time>
      </trkpt>
      <trkpt lat="43.82933" lon="6.22779">
        <ele>544.24</ele>
        <time>2025-11-13T09:16:44Z</time>
      </trkpt>
      <trkpt lat="43.8293" lon="6.22769">
        <ele>544.24</ele>
        <time>2025-11-13T09:16:45Z</time>
      </trkpt>
      <trkpt lat="43.82926" lon="6.2276">
        <ele>543.28</ele>
        <time>2025-11-13T09:16:46Z</time>
      </trkpt>
      <trkpt lat="43.82921" lon="6.22751">
        <ele>542.8</ele>
        <time>2025-11-13T09:16:47Z</time>
      </trkpt>
      <trkpt lat="43.82911" lon="6.22733">
        <ele>541.84</ele>
        <time>2025-11-13T09:16:49Z</time>
      </trkpt>
      <trkpt lat="43.82898" lon="6.22703">
        <ele>540.4</ele>
        <time>2025-11-13T09:16:52Z</time>
      </trkpt>
      <trkpt lat="43.82878" lon="6.22635">
        <ele>537.51</ele>
        <time>2025-11-13T09:16:58Z</time>
      </trkpt>
      <trkpt lat="43.82873" lon="6.22624">
        <ele>537.03</ele>
        <time>2025-11-13T09:16:59Z</time>
      </trkpt>
      <trkpt lat="43.82867" lon="6.22615">
        <ele>536.55</ele>
        <time>2025-11-13T09:17:00Z</time>
      </trkpt>
      <trkpt lat="43.82843" lon="6.22575">
        <ele>535.11</ele>
        <time>2025-11-13T09:17:05Z</time>
      </trkpt>
      <trkpt lat="43.8283" lon="6.22543">
        <ele>533.67</ele>
        <time>2025-11-13T09:17:12Z</time>
      </trkpt>
      <trkpt lat="43.82829" lon="6.22538">
        <ele>533.67</ele>
        <time>2025-11-13T09:17:20Z</time>
      </trkpt>
      <trkpt lat="43.82829" lon="6.22537">
        <ele>533.67</ele>
        <time>2025-11-13T09:17:42Z</time>
      </trkpt>
      <trkpt lat="43.82829" lon="6.22537">
        <ele>533.67</ele>
        <time>2025-11-13T09:17:57Z</time>
      </trkpt>
      <trkpt lat="43.8283" lon="6.22537">
        <ele>533.19</ele>
        <time>2025-11-13T09:18:20Z</time>
      </trkpt>
      <trkpt lat="43.82832" lon="6.22537">
        <ele>533.19</ele>
        <time>2025-11-13T09:18:41Z</time>
      </trkpt>
      <trkpt lat="43.82829" lon="6.22539">
        <ele>533.67</ele>
        <time>2025-11-13T09:19:04Z</time>
      </trkpt>
      <trkpt lat="43.8283" lon="6.22538">
        <ele>533.67</ele>
        <time>2025-11-13T09:19:27Z</time>
      </trkpt>
      <trkpt lat="43.82828" lon="6.22537">
        <ele>533.67</ele>
        <time>2025-11-13T09:19:40Z</time>
      </trkpt>
      <trkpt lat="43.82828" lon="6.22538">
        <ele>533.67</ele>
        <time>2025-11-13T09:20:05Z</time>
      </trkpt>
      <trkpt lat="43.82828" lon="6.22538">
        <ele>533.67</ele>
        <time>2025-11-13T09:20:31Z</time>
      </trkpt>
      <trkpt lat="43.82828" lon="6.22536">
        <ele>533.67</ele>
        <time>2025-11-13T09:20:46Z</time>
      </trkpt>
      <trkpt lat="43.82828" lon="6.22536">
        <ele>533.67</ele>
        <time>2025-11-13T09:21:03Z</time>
      </trkpt>
      <trkpt lat="43.82828" lon="6.22536">
        <ele>533.67</ele>
        <time>2025-11-13T09:21:23Z</time>
      </trkpt>
      <trkpt lat="43.82827" lon="6.22535">
        <ele>533.67</ele>
        <time>2025-11-13T09:21:38Z</time>
      </trkpt>
      <trkpt lat="43.82825" lon="6.22533">
        <ele>533.67</ele>
        <time>2025-11-13T09:21:51Z</time>
      </trkpt>
      <trkpt lat="43.82824" lon="6.22532">
        <ele>533.67</ele>
        <time>2025-11-13T09:21:52Z</time>
      </trkpt>
      <trkpt lat="43.82823" lon="6.2253">
        <ele>533.67</ele>
        <time>2025-11-13T09:21:53Z</time>
      </trkpt>
      <trkpt lat="43.82814" lon="6.22493">
        <ele>532.71</ele>
        <time>2025-11-13T09:22:06Z</time>
      </trkpt>
      <trkpt lat="43.82815" lon="6.22459">
        <ele>531.75</ele>
        <time>2025-11-13T09:22:15Z</time>
      </trkpt>
      <trkpt lat="43.82803" lon="6.22452">
        <ele>531.75</ele>
        <time>2025-11-13T09:22:23Z</time>
      </trkpt>
      <trkpt lat="43.82803" lon="6.22452">
        <ele>532.23</ele>
        <time>2025-11-13T09:22:33Z</time>
      </trkpt>
      <trkpt lat="43.828" lon="6.22453">
        <ele>532.23</ele>
        <time>2025-11-13T09:22:37Z</time>
      </trkpt>
      <trkpt lat="43.82799" lon="6.22454">
        <ele>532.23</ele>
        <time>2025-11-13T09:22:38Z</time>
      </trkpt>
      <trkpt lat="43.82775" lon="6.22457">
        <ele>532.23</ele>
        <time>2025-11-13T09:22:46Z</time>
      </trkpt>
      <trkpt lat="43.82763" lon="6.22455">
        <ele>532.23</ele>
        <time>2025-11-13T09:22:49Z</time>
      </trkpt>
      <trkpt lat="43.82704" lon="6.2246">
        <ele>532.23</ele>
        <time>2025-11-13T09:23:05Z</time>
      </trkpt>
      <trkpt lat="43.82692" lon="6.22461">
        <ele>532.23</ele>
        <time>2025-11-13T09:23:14Z</time>
      </trkpt>
      <trkpt lat="43.82691" lon="6.22462">
        <ele>532.23</ele>
        <time>2025-11-13T09:23:17Z</time>
      </trkpt>
      <trkpt lat="43.8269" lon="6.22463">
        <ele>532.23</ele>
        <time>2025-11-13T09:23:18Z</time>
      </trkpt>
      <trkpt lat="43.82678" lon="6.22485">
        <ele>533.19</ele>
        <time>2025-11-13T09:23:27Z</time>
      </trkpt>
      <trkpt lat="43.82659" lon="6.22492">
        <ele>533.67</ele>
        <time>2025-11-13T09:23:36Z</time>
      </trkpt>
      <trkpt lat="43.82625" lon="6.22498">
        <ele>534.63</ele>
        <time>2025-11-13T09:23:48Z</time>
      </trkpt>
      <trkpt lat="43.82609" lon="6.22499">
        <ele>535.59</ele>
        <time>2025-11-13T09:23:54Z</time>
      </trkpt>
      <trkpt lat="43.82608" lon="6.22501">
        <ele>535.59</ele>
        <time>2025-11-13T09:23:55Z</time>
      </trkpt>
      <trkpt lat="43.82607" lon="6.22504">
        <ele>535.59</ele>
        <time>2025-11-13T09:23:56Z</time>
      </trkpt>
      <trkpt lat="43.82608" lon="6.22507">
        <ele>535.59</ele>
        <time>2025-11-13T09:23:57Z</time>
      </trkpt>
      <trkpt lat="43.82609" lon="6.22509">
        <ele>536.07</ele>
        <time>2025-11-13T09:23:58Z</time>
      </trkpt>
      <trkpt lat="43.8261" lon="6.2251">
        <ele>536.07</ele>
        <time>2025-11-13T09:23:59Z</time>
      </trkpt>
      <trkpt lat="43.8261" lon="6.22512">
        <ele>536.55</ele>
        <time>2025-11-13T09:24:00Z</time>
      </trkpt>
      <trkpt lat="43.82611" lon="6.22512">
        <ele>536.55</ele>
        <time>2025-11-13T09:24:10Z</time>
      </trkpt>
      <trkpt lat="43.82612" lon="6.22512">
        <ele>536.55</ele>
        <time>2025-11-13T09:24:16Z</time>
      </trkpt>
      <trkpt lat="43.82614" lon="6.22513">
        <ele>536.55</ele>
        <time>2025-11-13T09:24:17Z</time>
      </trkpt>
      <trkpt lat="43.82633" lon="6.22514">
        <ele>537.03</ele>
        <time>2025-11-13T09:24:29Z</time>
      </trkpt>
      <trkpt lat="43.82634" lon="6.22513">
        <ele>537.03</ele>
        <time>2025-11-13T09:24:39Z</time>
      </trkpt>
      <trkpt lat="43.82634" lon="6.22513">
        <ele>537.03</ele>
        <time>2025-11-13T09:25:00Z</time>
      </trkpt>
      <trkpt lat="43.82635" lon="6.22513">
        <ele>537.03</ele>
        <time>2025-11-13T09:25:02Z</time>
      </trkpt>
      <trkpt lat="43.82637" lon="6.22512">
        <ele>537.03</ele>
        <time>2025-11-13T09:25:03Z</time>
      </trkpt>
      <trkpt lat="43.82638" lon="6.22512">
        <ele>537.03</ele>
        <time>2025-11-13T09:25:04Z</time>
      </trkpt>
      <trkpt lat="43.82659" lon="6.22506">
        <ele>536.07</ele>
        <time>2025-11-13T09:25:17Z</time>
      </trkpt>
      <trkpt lat="43.8266" lon="6.22505">
        <ele>536.07</ele>
        <time>2025-11-13T09:25:40Z</time>
      </trkpt>
      <trkpt lat="43.8266" lon="6.22505">
        <ele>536.07</ele>
        <time>2025-11-13T09:25:54Z</time>
      </trkpt>
      <trkpt lat="43.82666" lon="6.22504">
        <ele>536.07</ele>
        <time>2025-11-13T09:26:10Z</time>
      </trkpt>
      <trkpt lat="43.82668" lon="6.22504">
        <ele>536.07</ele>
        <time>2025-11-13T09:26:11Z</time>
      </trkpt>
      <trkpt lat="43.82692" lon="6.22496">
        <ele>535.59</ele>
        <time>2025-11-13T09:26:21Z</time>
      </trkpt>
      <trkpt lat="43.8272" lon="6.22486">
        <ele>535.59</ele>
        <time>2025-11-13T09:26:34Z</time>
      </trkpt>
      <trkpt lat="43.82721" lon="6.22485">
        <ele>535.59</ele>
        <time>2025-11-13T09:26:35Z</time>
      </trkpt>
      <trkpt lat="43.82721" lon="6.22482">
        <ele>535.59</ele>
        <time>2025-11-13T09:26:36Z</time>
      </trkpt>
      <trkpt lat="43.82717" lon="6.2248">
        <ele>535.59</ele>
        <time>2025-11-13T09:26:39Z</time>
      </trkpt>
      <trkpt lat="43.82715" lon="6.2248">
        <ele>535.11</ele>
        <time>2025-11-13T09:26:40Z</time>
      </trkpt>
      <trkpt lat="43.82713" lon="6.2248">
        <ele>535.11</ele>
        <time>2025-11-13T09:26:41Z</time>
      </trkpt>
      <trkpt lat="43.82711" lon="6.22481">
        <ele>535.11</ele>
        <time>2025-11-13T09:26:42Z</time>
      </trkpt>
      <trkpt lat="43.82691" lon="6.22483">
        <ele>534.63</ele>
        <time>2025-11-13T09:26:51Z</time>
      </trkpt>
      <trkpt lat="43.8269" lon="6.22482">
        <ele>534.15</ele>
        <time>2025-11-13T09:26:52Z</time>
      </trkpt>
      <trkpt lat="43.82688" lon="6.22477">
        <ele>534.15</ele>
        <time>2025-11-13T09:26:54Z</time>
      </trkpt>
      <trkpt lat="43.82674" lon="6.22465">
        <ele>533.19</ele>
        <time>2025-11-13T09:27:03Z</time>
      </trkpt>
      <trkpt lat="43.8262" lon="6.22469">
        <ele>531.27</ele>
        <time>2025-11-13T09:27:18Z</time>
      </trkpt>
      <trkpt lat="43.82554" lon="6.22467">
        <ele>527.9</ele>
        <time>2025-11-13T09:27:31Z</time>
      </trkpt>
      <trkpt lat="43.82488" lon="6.22463">
        <ele>524.54</ele>
        <time>2025-11-13T09:27:42Z</time>
      </trkpt>
      <trkpt lat="43.82405" lon="6.22437">
        <ele>521.65</ele>
        <time>2025-11-13T09:27:55Z</time>
      </trkpt>
      <trkpt lat="43.82347" lon="6.22448">
        <ele>518.77</ele>
        <time>2025-11-13T09:28:03Z</time>
      </trkpt>
      <trkpt lat="43.82319" lon="6.22462">
        <ele>517.33</ele>
        <time>2025-11-13T09:28:07Z</time>
      </trkpt>
      <trkpt lat="43.82237" lon="6.22514">
        <ele>514.92</ele>
        <time>2025-11-13T09:28:19Z</time>
      </trkpt>
      <trkpt lat="43.82165" lon="6.22559">
        <ele>513.96</ele>
        <time>2025-11-13T09:28:32Z</time>
      </trkpt>
      <trkpt lat="43.82102" lon="6.22596">
        <ele>513.48</ele>
        <time>2025-11-13T09:28:46Z</time>
      </trkpt>
      <trkpt lat="43.82052" lon="6.22624">
        <ele>513</ele>
        <time>2025-11-13T09:28:59Z</time>
      </trkpt>
      <trkpt lat="43.82013" lon="6.22642">
        <ele>513</ele>
        <time>2025-11-13T09:29:11Z</time>
      </trkpt>
      <trkpt lat="43.81992" lon="6.22642">
        <ele>512.52</ele>
        <time>2025-11-13T09:29:21Z</time>
      </trkpt>
      <trkpt lat="43.81987" lon="6.22641">
        <ele>512.04</ele>
        <time>2025-11-13T09:29:30Z</time>
      </trkpt>
      <trkpt lat="43.81986" lon="6.22641">
        <ele>512.04</ele>
        <time>2025-11-13T09:29:47Z</time>
      </trkpt>
      <trkpt lat="43.81985" lon="6.22643">
        <ele>512.04</ele>
        <time>2025-11-13T09:29:59Z</time>
      </trkpt>
      <trkpt lat="43.81984" lon="6.22643">
        <ele>512.04</ele>
        <time>2025-11-13T09:30:16Z</time>
      </trkpt>
      <trkpt lat="43.81986" lon="6.22649">
        <ele>512.04</ele>
        <time>2025-11-13T09:30:27Z</time>
      </trkpt>
      <trkpt lat="43.81987" lon="6.22649">
        <ele>513.48</ele>
        <time>2025-11-13T09:30:41Z</time>
      </trkpt>
      <trkpt lat="43.81989" lon="6.22649">
        <ele>513.48</ele>
        <time>2025-11-13T09:31:09Z</time>
      </trkpt>
      <trkpt lat="43.81988" lon="6.22648">
        <ele>513.48</ele>
        <time>2025-11-13T09:31:35Z</time>
      </trkpt>
      <trkpt lat="43.81988" lon="6.22646">
        <ele>513.48</ele>
        <time>2025-11-13T09:32:01Z</time>
      </trkpt>
      <trkpt lat="43.81986" lon="6.22649">
        <ele>513.48</ele>
        <time>2025-11-13T09:32:19Z</time>
      </trkpt>
      <trkpt lat="43.81988" lon="6.22649">
        <ele>513.48</ele>
        <time>2025-11-13T09:32:44Z</time>
      </trkpt>
      <trkpt lat="43.81987" lon="6.22648">
        <ele>513</ele>
        <time>2025-11-13T09:33:09Z</time>
      </trkpt>
      <trkpt lat="43.81987" lon="6.22649">
        <ele>513</ele>
        <time>2025-11-13T09:33:38Z</time>
      </trkpt>
      <trkpt lat="43.81987" lon="6.22651">
        <ele>513</ele>
        <time>2025-11-13T09:33:59Z</time>
      </trkpt>
      <trkpt lat="43.81986" lon="6.22652">
        <ele>513</ele>
        <time>2025-11-13T09:34:09Z</time>
      </trkpt>
      <trkpt lat="43.81984" lon="6.22652">
        <ele>513</ele>
        <time>2025-11-13T09:34:11Z</time>
      </trkpt>
      <trkpt lat="43.81981" lon="6.22653">
        <ele>513</ele>
        <time>2025-11-13T09:34:13Z</time>
      </trkpt>
      <trkpt lat="43.81955" lon="6.2266">
        <ele>513</ele>
        <time>2025-11-13T09:34:23Z</time>
      </trkpt>
      <trkpt lat="43.81909" lon="6.22661">
        <ele>513</ele>
        <time>2025-11-13T09:34:34Z</time>
      </trkpt>
      <trkpt lat="43.81895" lon="6.2266">
        <ele>512.04</ele>
        <time>2025-11-13T09:34:37Z</time>
      </trkpt>
      <trkpt lat="43.81837" lon="6.22658">
        <ele>509.64</ele>
        <time>2025-11-13T09:34:47Z</time>
      </trkpt>
      <trkpt lat="43.81774" lon="6.22655">
        <ele>506.27</ele>
        <time>2025-11-13T09:34:56Z</time>
      </trkpt>
      <trkpt lat="43.81693" lon="6.22651">
        <ele>503.39</ele>
        <time>2025-11-13T09:35:06Z</time>
      </trkpt>
      <trkpt lat="43.8163" lon="6.22646">
        <ele>500.5</ele>
        <time>2025-11-13T09:35:13Z</time>
      </trkpt>
      <trkpt lat="43.8152" lon="6.22641">
        <ele>497.14</ele>
        <time>2025-11-13T09:35:26Z</time>
      </trkpt>
      <trkpt lat="43.81423" lon="6.22635">
        <ele>493.77</ele>
        <time>2025-11-13T09:35:38Z</time>
      </trkpt>
      <trkpt lat="43.81321" lon="6.22645">
        <ele>490.89</ele>
        <time>2025-11-13T09:35:51Z</time>
      </trkpt>
      <trkpt lat="43.81254" lon="6.22691">
        <ele>490.41</ele>
        <time>2025-11-13T09:36:02Z</time>
      </trkpt>
      <trkpt lat="43.81207" lon="6.22721">
        <ele>490.89</ele>
        <time>2025-11-13T09:36:11Z</time>
      </trkpt>
      <trkpt lat="43.81142" lon="6.2275">
        <ele>491.85</ele>
        <time>2025-11-13T09:36:24Z</time>
      </trkpt>
      <trkpt lat="43.81058" lon="6.22788">
        <ele>492.81</ele>
        <time>2025-11-13T09:36:41Z</time>
      </trkpt>
      <trkpt lat="43.80965" lon="6.22827">
        <ele>493.77</ele>
        <time>2025-11-13T09:37:00Z</time>
      </trkpt>
      <trkpt lat="43.80926" lon="6.22845">
        <ele>494.26</ele>
        <time>2025-11-13T09:37:10Z</time>
      </trkpt>
      <trkpt lat="43.80895" lon="6.22869">
        <ele>495.22</ele>
        <time>2025-11-13T09:37:20Z</time>
      </trkpt>
      <trkpt lat="43.80866" lon="6.22903">
        <ele>495.22</ele>
        <time>2025-11-13T09:37:31Z</time>
      </trkpt>
      <trkpt lat="43.80839" lon="6.22952">
        <ele>497.14</ele>
        <time>2025-11-13T09:37:43Z</time>
      </trkpt>
      <trkpt lat="43.8082" lon="6.23018">
        <ele>500.02</ele>
        <time>2025-11-13T09:37:57Z</time>
      </trkpt>
      <trkpt lat="43.80815" lon="6.23069">
        <ele>502.91</ele>
        <time>2025-11-13T09:38:08Z</time>
      </trkpt>
      <trkpt lat="43.80819" lon="6.23133">
        <ele>506.27</ele>
        <time>2025-11-13T09:38:22Z</time>
      </trkpt>
      <trkpt lat="43.80836" lon="6.23198">
        <ele>509.16</ele>
        <time>2025-11-13T09:38:37Z</time>
      </trkpt>
      <trkpt lat="43.80852" lon="6.23255">
        <ele>511.56</ele>
        <time>2025-11-13T09:38:50Z</time>
      </trkpt>
      <trkpt lat="43.80863" lon="6.23318">
        <ele>514.92</ele>
        <time>2025-11-13T09:39:04Z</time>
      </trkpt>
      <trkpt lat="43.80856" lon="6.23375">
        <ele>517.33</ele>
        <time>2025-11-13T09:39:18Z</time>
      </trkpt>
      <trkpt lat="43.80839" lon="6.23417">
        <ele>520.69</ele>
        <time>2025-11-13T09:39:30Z</time>
      </trkpt>
      <trkpt lat="43.80802" lon="6.2346">
        <ele>523.58</ele>
        <time>2025-11-13T09:39:47Z</time>
      </trkpt>
      <trkpt lat="43.80764" lon="6.23476">
        <ele>526.46</ele>
        <time>2025-11-13T09:40:00Z</time>
      </trkpt>
      <trkpt lat="43.80722" lon="6.23473">
        <ele>528.38</ele>
        <time>2025-11-13T09:40:14Z</time>
      </trkpt>
      <trkpt lat="43.80676" lon="6.23457">
        <ele>530.3</ele>
        <time>2025-11-13T09:40:28Z</time>
      </trkpt>
      <trkpt lat="43.8062" lon="6.23439">
        <ele>530.3</ele>
        <time>2025-11-13T09:40:43Z</time>
      </trkpt>
      <trkpt lat="43.80556" lon="6.23416">
        <ele>531.27</ele>
        <time>2025-11-13T09:40:59Z</time>
      </trkpt>
      <trkpt lat="43.80481" lon="6.23391">
        <ele>532.71</ele>
        <time>2025-11-13T09:41:17Z</time>
      </trkpt>
      <trkpt lat="43.80413" lon="6.23369">
        <ele>533.67</ele>
        <time>2025-11-13T09:41:34Z</time>
      </trkpt>
      <trkpt lat="43.80387" lon="6.2337">
        <ele>533.67</ele>
        <time>2025-11-13T09:41:40Z</time>
      </trkpt>
      <trkpt lat="43.80351" lon="6.23395">
        <ele>533.67</ele>
        <time>2025-11-13T09:41:49Z</time>
      </trkpt>
      <trkpt lat="43.80345" lon="6.23405">
        <ele>533.67</ele>
        <time>2025-11-13T09:41:51Z</time>
      </trkpt>
      <trkpt lat="43.80337" lon="6.23419">
        <ele>533.67</ele>
        <time>2025-11-13T09:41:54Z</time>
      </trkpt>
      <trkpt lat="43.80335" lon="6.23425">
        <ele>533.67</ele>
        <time>2025-11-13T09:41:55Z</time>
      </trkpt>
      <trkpt lat="43.80329" lon="6.23443">
        <ele>533.67</ele>
        <time>2025-11-13T09:41:58Z</time>
      </trkpt>
      <trkpt lat="43.80327" lon="6.23456">
        <ele>532.23</ele>
        <time>2025-11-13T09:42:00Z</time>
      </trkpt>
      <trkpt lat="43.80326" lon="6.23468">
        <ele>531.75</ele>
        <time>2025-11-13T09:42:02Z</time>
      </trkpt>
      <trkpt lat="43.80328" lon="6.23503">
        <ele>531.27</ele>
        <time>2025-11-13T09:42:07Z</time>
      </trkpt>
      <trkpt lat="43.8033" lon="6.23511">
        <ele>530.79</ele>
        <time>2025-11-13T09:42:08Z</time>
      </trkpt>
      <trkpt lat="43.80361" lon="6.23581">
        <ele>527.9</ele>
        <time>2025-11-13T09:42:18Z</time>
      </trkpt>
      <trkpt lat="43.80409" lon="6.23682">
        <ele>524.54</ele>
        <time>2025-11-13T09:42:33Z</time>
      </trkpt>
      <trkpt lat="43.80428" lon="6.23766">
        <ele>522.13</ele>
        <time>2025-11-13T09:42:43Z</time>
      </trkpt>
      <trkpt lat="43.80418" lon="6.23865">
        <ele>519.73</ele>
        <time>2025-11-13T09:42:54Z</time>
      </trkpt>
      <trkpt lat="43.8041" lon="6.23989">
        <ele>516.37</ele>
        <time>2025-11-13T09:43:08Z</time>
      </trkpt>
      <trkpt lat="43.80424" lon="6.24093">
        <ele>513</ele>
        <time>2025-11-13T09:43:19Z</time>
      </trkpt>
      <trkpt lat="43.80425" lon="6.24103">
        <ele>513</ele>
        <time>2025-11-13T09:43:20Z</time>
      </trkpt>
      <trkpt lat="43.80424" lon="6.24202">
        <ele>509.16</ele>
        <time>2025-11-13T09:43:30Z</time>
      </trkpt>
      <trkpt lat="43.80419" lon="6.24281">
        <ele>505.79</ele>
        <time>2025-11-13T09:43:37Z</time>
      </trkpt>
      <trkpt lat="43.80417" lon="6.24343">
        <ele>502.91</ele>
        <time>2025-11-13T09:43:42Z</time>
      </trkpt>
      <trkpt lat="43.80421" lon="6.24408">
        <ele>499.06</ele>
        <time>2025-11-13T09:43:47Z</time>
      </trkpt>
      <trkpt lat="43.80424" lon="6.24475">
        <ele>495.22</ele>
        <time>2025-11-13T09:43:52Z</time>
      </trkpt>
      <trkpt lat="43.8042" lon="6.24525">
        <ele>493.29</ele>
        <time>2025-11-13T09:43:56Z</time>
      </trkpt>
      <trkpt lat="43.80406" lon="6.24652">
        <ele>491.37</ele>
        <time>2025-11-13T09:44:07Z</time>
      </trkpt>
      <trkpt lat="43.80401" lon="6.24691">
        <ele>492.81</ele>
        <time>2025-11-13T09:44:12Z</time>
      </trkpt>
      <trkpt lat="43.80385" lon="6.24765">
        <ele>493.29</ele>
        <time>2025-11-13T09:44:24Z</time>
      </trkpt>
      <trkpt lat="43.80383" lon="6.2477">
        <ele>494.26</ele>
        <time>2025-11-13T09:44:25Z</time>
      </trkpt>
      <trkpt lat="43.8034" lon="6.2484">
        <ele>496.18</ele>
        <time>2025-11-13T09:44:39Z</time>
      </trkpt>
      <trkpt lat="43.80312" lon="6.24884">
        <ele>497.14</ele>
        <time>2025-11-13T09:44:48Z</time>
      </trkpt>
      <trkpt lat="43.8031" lon="6.2489">
        <ele>497.14</ele>
        <time>2025-11-13T09:44:49Z</time>
      </trkpt>
      <trkpt lat="43.80307" lon="6.24896">
        <ele>497.14</ele>
        <time>2025-11-13T09:44:50Z</time>
      </trkpt>
      <trkpt lat="43.80306" lon="6.24902">
        <ele>497.14</ele>
        <time>2025-11-13T09:44:51Z</time>
      </trkpt>
      <trkpt lat="43.80304" lon="6.24909">
        <ele>497.14</ele>
        <time>2025-11-13T09:44:52Z</time>
      </trkpt>
      <trkpt lat="43.80304" lon="6.24916">
        <ele>497.14</ele>
        <time>2025-11-13T09:44:53Z</time>
      </trkpt>
      <trkpt lat="43.80303" lon="6.24923">
        <ele>497.14</ele>
        <time>2025-11-13T09:44:54Z</time>
      </trkpt>
      <trkpt lat="43.80301" lon="6.24944">
        <ele>497.14</ele>
        <time>2025-11-13T09:44:57Z</time>
      </trkpt>
      <trkpt lat="43.80299" lon="6.24951">
        <ele>497.14</ele>
        <time>2025-11-13T09:44:58Z</time>
      </trkpt>
      <trkpt lat="43.80298" lon="6.24958">
        <ele>496.18</ele>
        <time>2025-11-13T09:44:59Z</time>
      </trkpt>
      <trkpt lat="43.80295" lon="6.24965">
        <ele>496.18</ele>
        <time>2025-11-13T09:45:00Z</time>
      </trkpt>
      <trkpt lat="43.80293" lon="6.2497">
        <ele>496.18</ele>
        <time>2025-11-13T09:45:01Z</time>
      </trkpt>
      <trkpt lat="43.80289" lon="6.24976">
        <ele>496.18</ele>
        <time>2025-11-13T09:45:02Z</time>
      </trkpt>
      <trkpt lat="43.80285" lon="6.24981">
        <ele>496.18</ele>
        <time>2025-11-13T09:45:03Z</time>
      </trkpt>
      <trkpt lat="43.80282" lon="6.24985">
        <ele>496.18</ele>
        <time>2025-11-13T09:45:04Z</time>
      </trkpt>
      <trkpt lat="43.80277" lon="6.24988">
        <ele>496.18</ele>
        <time>2025-11-13T09:45:05Z</time>
      </trkpt>
      <trkpt lat="43.80272" lon="6.24991">
        <ele>496.18</ele>
        <time>2025-11-13T09:45:06Z</time>
      </trkpt>
      <trkpt lat="43.80268" lon="6.24993">
        <ele>496.18</ele>
        <time>2025-11-13T09:45:07Z</time>
      </trkpt>
      <trkpt lat="43.80262" lon="6.24994">
        <ele>496.18</ele>
        <time>2025-11-13T09:45:08Z</time>
      </trkpt>
      <trkpt lat="43.80257" lon="6.24993">
        <ele>496.18</ele>
        <time>2025-11-13T09:45:09Z</time>
      </trkpt>
      <trkpt lat="43.80253" lon="6.2499">
        <ele>496.18</ele>
        <time>2025-11-13T09:45:10Z</time>
      </trkpt>
      <trkpt lat="43.8025" lon="6.24987">
        <ele>496.18</ele>
        <time>2025-11-13T09:45:11Z</time>
      </trkpt>
      <trkpt lat="43.80246" lon="6.24982">
        <ele>496.18</ele>
        <time>2025-11-13T09:45:12Z</time>
      </trkpt>
      <trkpt lat="43.80243" lon="6.24978">
        <ele>496.18</ele>
        <time>2025-11-13T09:45:13Z</time>
      </trkpt>
      <trkpt lat="43.80238" lon="6.24976">
        <ele>496.18</ele>
        <time>2025-11-13T09:45:14Z</time>
      </trkpt>
      <trkpt lat="43.80234" lon="6.24975">
        <ele>496.18</ele>
        <time>2025-11-13T09:45:15Z</time>
      </trkpt>
      <trkpt lat="43.80228" lon="6.24971">
        <ele>496.18</ele>
        <time>2025-11-13T09:45:22Z</time>
      </trkpt>
      <trkpt lat="43.80228" lon="6.24971">
        <ele>496.18</ele>
        <time>2025-11-13T09:45:39Z</time>
      </trkpt>
      <trkpt lat="43.8023" lon="6.24967">
        <ele>496.18</ele>
        <time>2025-11-13T09:45:51Z</time>
      </trkpt>
      <trkpt lat="43.80231" lon="6.24966">
        <ele>496.18</ele>
        <time>2025-11-13T09:46:00Z</time>
      </trkpt>
      <trkpt lat="43.80231" lon="6.24967">
        <ele>496.18</ele>
        <time>2025-11-13T09:46:34Z</time>
      </trkpt>
      <trkpt lat="43.80231" lon="6.24965">
        <ele>496.18</ele>
        <time>2025-11-13T09:47:03Z</time>
      </trkpt>
      <trkpt lat="43.80231" lon="6.24965">
        <ele>496.18</ele>
        <time>2025-11-13T09:47:25Z</time>
      </trkpt>
      <trkpt lat="43.80229" lon="6.24968">
        <ele>496.18</ele>
        <time>2025-11-13T09:47:32Z</time>
      </trkpt>
      <trkpt lat="43.80229" lon="6.24969">
        <ele>496.18</ele>
        <time>2025-11-13T09:47:56Z</time>
      </trkpt>
      <trkpt lat="43.80227" lon="6.24973">
        <ele>496.18</ele>
        <time>2025-11-13T09:48:07Z</time>
      </trkpt>
      <trkpt lat="43.80227" lon="6.24972">
        <ele>496.18</ele>
        <time>2025-11-13T09:48:26Z</time>
      </trkpt>
      <trkpt lat="43.80228" lon="6.24972">
        <ele>497.62</ele>
        <time>2025-11-13T09:48:33Z</time>
      </trkpt>
      <trkpt lat="43.80225" lon="6.24975">
        <ele>497.62</ele>
        <time>2025-11-13T09:48:47Z</time>
      </trkpt>
      <trkpt lat="43.80224" lon="6.24975">
        <ele>497.62</ele>
        <time>2025-11-13T09:49:06Z</time>
      </trkpt>
      <trkpt lat="43.80221" lon="6.24975">
        <ele>496.66</ele>
        <time>2025-11-13T09:49:24Z</time>
      </trkpt>
      <trkpt lat="43.80219" lon="6.24974">
        <ele>496.66</ele>
        <time>2025-11-13T09:49:29Z</time>
      </trkpt>
      <trkpt lat="43.80217" lon="6.24973">
        <ele>496.66</ele>
        <time>2025-11-13T09:49:30Z</time>
      </trkpt>
      <trkpt lat="43.80199" lon="6.2496">
        <ele>496.66</ele>
        <time>2025-11-13T09:49:38Z</time>
      </trkpt>
      <trkpt lat="43.80189" lon="6.24954">
        <ele>496.66</ele>
        <time>2025-11-13T09:49:43Z</time>
      </trkpt>
      <trkpt lat="43.80188" lon="6.24953">
        <ele>496.66</ele>
        <time>2025-11-13T09:49:44Z</time>
      </trkpt>
      <trkpt lat="43.80186" lon="6.24953">
        <ele>496.66</ele>
        <time>2025-11-13T09:49:45Z</time>
      </trkpt>
      <trkpt lat="43.80183" lon="6.24954">
        <ele>496.66</ele>
        <time>2025-11-13T09:49:47Z</time>
      </trkpt>
      <trkpt lat="43.80183" lon="6.24953">
        <ele>498.1</ele>
        <time>2025-11-13T09:49:50Z</time>
      </trkpt>
      <trkpt lat="43.8018" lon="6.24952">
        <ele>498.58</ele>
        <time>2025-11-13T09:50:00Z</time>
      </trkpt>
      <trkpt lat="43.80179" lon="6.24952">
        <ele>499.06</ele>
        <time>2025-11-13T09:50:17Z</time>
      </trkpt>
      <trkpt lat="43.80179" lon="6.24952">
        <ele>498.1</ele>
        <time>2025-11-13T09:50:19Z</time>
      </trkpt>
      <trkpt lat="43.80179" lon="6.24954">
        <ele>497.14</ele>
        <time>2025-11-13T09:50:47Z</time>
      </trkpt>
      <trkpt lat="43.80179" lon="6.24952">
        <ele>498.1</ele>
        <time>2025-11-13T09:50:55Z</time>
      </trkpt>
      <trkpt lat="43.80179" lon="6.24947">
        <ele>498.1</ele>
        <time>2025-11-13T09:50:59Z</time>
      </trkpt>
      <trkpt lat="43.80179" lon="6.24945">
        <ele>497.14</ele>
        <time>2025-11-13T09:51:00Z</time>
      </trkpt>
      <trkpt lat="43.80178" lon="6.24944">
        <ele>497.14</ele>
        <time>2025-11-13T09:51:01Z</time>
      </trkpt>
      <trkpt lat="43.80178" lon="6.24942">
        <ele>497.14</ele>
        <time>2025-11-13T09:51:02Z</time>
      </trkpt>
      <trkpt lat="43.80174" lon="6.2494">
        <ele>497.14</ele>
        <time>2025-11-13T09:51:10Z</time>
      </trkpt>
      <trkpt lat="43.80153" lon="6.24925">
        <ele>497.14</ele>
        <time>2025-11-13T09:51:18Z</time>
      </trkpt>
      <trkpt lat="43.80121" lon="6.24899">
        <ele>497.14</ele>
        <time>2025-11-13T09:51:27Z</time>
      </trkpt>
      <trkpt lat="43.80112" lon="6.24888">
        <ele>497.14</ele>
        <time>2025-11-13T09:51:30Z</time>
      </trkpt>
      <trkpt lat="43.80098" lon="6.24859">
        <ele>498.1</ele>
        <time>2025-11-13T09:51:36Z</time>
      </trkpt>
      <trkpt lat="43.80056" lon="6.24761">
        <ele>499.54</ele>
        <time>2025-11-13T09:51:55Z</time>
      </trkpt>
      <trkpt lat="43.80018" lon="6.24674">
        <ele>500.98</ele>
        <time>2025-11-13T09:52:11Z</time>
      </trkpt>
      <trkpt lat="43.79965" lon="6.24586">
        <ele>502.91</ele>
        <time>2025-11-13T09:52:29Z</time>
      </trkpt>
      <trkpt lat="43.79908" lon="6.24518">
        <ele>506.27</ele>
        <time>2025-11-13T09:52:45Z</time>
      </trkpt>
      <trkpt lat="43.79904" lon="6.24514">
        <ele>506.27</ele>
        <time>2025-11-13T09:52:46Z</time>
      </trkpt>
      <trkpt lat="43.79897" lon="6.24508">
        <ele>504.83</ele>
        <time>2025-11-13T09:52:48Z</time>
      </trkpt>
      <trkpt lat="43.79889" lon="6.24501">
        <ele>508.19</ele>
        <time>2025-11-13T09:52:50Z</time>
      </trkpt>
      <trkpt lat="43.79878" lon="6.24491">
        <ele>504.35</ele>
        <time>2025-11-13T09:52:53Z</time>
      </trkpt>
      <trkpt lat="43.79874" lon="6.24488">
        <ele>507.23</ele>
        <time>2025-11-13T09:52:54Z</time>
      </trkpt>
      <trkpt lat="43.79818" lon="6.24444">
        <ele>507.23</ele>
        <time>2025-11-13T09:53:08Z</time>
      </trkpt>
      <trkpt lat="43.79814" lon="6.24441">
        <ele>507.23</ele>
        <time>2025-11-13T09:53:09Z</time>
      </trkpt>
      <trkpt lat="43.79776" lon="6.24409">
        <ele>506.27</ele>
        <time>2025-11-13T09:53:18Z</time>
      </trkpt>
      <trkpt lat="43.79725" lon="6.2435">
        <ele>504.83</ele>
        <time>2025-11-13T09:53:31Z</time>
      </trkpt>
      <trkpt lat="43.79696" lon="6.24276">
        <ele>503.87</ele>
        <time>2025-11-13T09:53:44Z</time>
      </trkpt>
      <trkpt lat="43.7969" lon="6.24235">
        <ele>503.39</ele>
        <time>2025-11-13T09:53:52Z</time>
      </trkpt>
      <trkpt lat="43.79686" lon="6.24193">
        <ele>502.91</ele>
        <time>2025-11-13T09:54:00Z</time>
      </trkpt>
      <trkpt lat="43.79694" lon="6.24109">
        <ele>501.95</ele>
        <time>2025-11-13T09:54:13Z</time>
      </trkpt>
      <trkpt lat="43.79708" lon="6.23981">
        <ele>500.98</ele>
        <time>2025-11-13T09:54:31Z</time>
      </trkpt>
      <trkpt lat="43.79723" lon="6.23848">
        <ele>499.06</ele>
        <time>2025-11-13T09:54:50Z</time>
      </trkpt>
      <trkpt lat="43.79714" lon="6.23774">
        <ele>498.1</ele>
        <time>2025-11-13T09:55:01Z</time>
      </trkpt>
      <trkpt lat="43.79709" lon="6.23763">
        <ele>498.1</ele>
        <time>2025-11-13T09:55:03Z</time>
      </trkpt>
      <trkpt lat="43.79705" lon="6.23757">
        <ele>498.1</ele>
        <time>2025-11-13T09:55:04Z</time>
      </trkpt>
      <trkpt lat="43.79702" lon="6.23752">
        <ele>498.1</ele>
        <time>2025-11-13T09:55:05Z</time>
      </trkpt>
      <trkpt lat="43.79698" lon="6.23747">
        <ele>498.1</ele>
        <time>2025-11-13T09:55:06Z</time>
      </trkpt>
      <trkpt lat="43.79694" lon="6.23743">
        <ele>497.62</ele>
        <time>2025-11-13T09:55:07Z</time>
      </trkpt>
      <trkpt lat="43.7969" lon="6.23739">
        <ele>497.62</ele>
        <time>2025-11-13T09:55:08Z</time>
      </trkpt>
      <trkpt lat="43.7964" lon="6.23716">
        <ele>496.66</ele>
        <time>2025-11-13T09:55:18Z</time>
      </trkpt>
      <trkpt lat="43.79581" lon="6.23694">
        <ele>496.18</ele>
        <time>2025-11-13T09:55:30Z</time>
      </trkpt>
      <trkpt lat="43.79577" lon="6.2369">
        <ele>495.22</ele>
        <time>2025-11-13T09:55:31Z</time>
      </trkpt>
      <trkpt lat="43.79573" lon="6.23686">
        <ele>495.22</ele>
        <time>2025-11-13T09:55:32Z</time>
      </trkpt>
      <trkpt lat="43.79569" lon="6.23682">
        <ele>495.22</ele>
        <time>2025-11-13T09:55:33Z</time>
      </trkpt>
      <trkpt lat="43.79566" lon="6.23677">
        <ele>495.22</ele>
        <time>2025-11-13T09:55:34Z</time>
      </trkpt>
      <trkpt lat="43.79557" lon="6.23662">
        <ele>495.22</ele>
        <time>2025-11-13T09:55:37Z</time>
      </trkpt>
      <trkpt lat="43.79554" lon="6.23657">
        <ele>495.22</ele>
        <time>2025-11-13T09:55:38Z</time>
      </trkpt>
      <trkpt lat="43.79552" lon="6.23652">
        <ele>495.22</ele>
        <time>2025-11-13T09:55:39Z</time>
      </trkpt>
      <trkpt lat="43.7955" lon="6.23647">
        <ele>495.22</ele>
        <time>2025-11-13T09:55:40Z</time>
      </trkpt>
      <trkpt lat="43.79549" lon="6.23641">
        <ele>495.22</ele>
        <time>2025-11-13T09:55:41Z</time>
      </trkpt>
      <trkpt lat="43.79548" lon="6.23582">
        <ele>496.66</ele>
        <time>2025-11-13T09:55:52Z</time>
      </trkpt>
      <trkpt lat="43.79549" lon="6.23577">
        <ele>496.66</ele>
        <time>2025-11-13T09:55:53Z</time>
      </trkpt>
      <trkpt lat="43.79574" lon="6.23485">
        <ele>497.62</ele>
        <time>2025-11-13T09:56:10Z</time>
      </trkpt>
      <trkpt lat="43.79594" lon="6.23401">
        <ele>498.58</ele>
        <time>2025-11-13T09:56:25Z</time>
      </trkpt>
      <trkpt lat="43.79588" lon="6.23325">
        <ele>499.54</ele>
        <time>2025-11-13T09:56:38Z</time>
      </trkpt>
      <trkpt lat="43.79557" lon="6.23262">
        <ele>499.54</ele>
        <time>2025-11-13T09:56:51Z</time>
      </trkpt>
      <trkpt lat="43.79509" lon="6.23225">
        <ele>500.5</ele>
        <time>2025-11-13T09:57:04Z</time>
      </trkpt>
      <trkpt lat="43.79445" lon="6.23215">
        <ele>500.98</ele>
        <time>2025-11-13T09:57:19Z</time>
      </trkpt>
      <trkpt lat="43.79385" lon="6.23203">
        <ele>501.46</ele>
        <time>2025-11-13T09:57:33Z</time>
      </trkpt>
      <trkpt lat="43.79381" lon="6.23201">
        <ele>501.46</ele>
        <time>2025-11-13T09:57:34Z</time>
      </trkpt>
      <trkpt lat="43.7937" lon="6.23194">
        <ele>501.46</ele>
        <time>2025-11-13T09:57:37Z</time>
      </trkpt>
      <trkpt lat="43.79366" lon="6.23191">
        <ele>501.46</ele>
        <time>2025-11-13T09:57:38Z</time>
      </trkpt>
      <trkpt lat="43.79344" lon="6.23158">
        <ele>501.95</ele>
        <time>2025-11-13T09:57:48Z</time>
      </trkpt>
      <trkpt lat="43.79329" lon="6.23117">
        <ele>502.43</ele>
        <time>2025-11-13T09:57:58Z</time>
      </trkpt>
      <trkpt lat="43.79329" lon="6.23056">
        <ele>505.31</ele>
        <time>2025-11-13T09:58:10Z</time>
      </trkpt>
      <trkpt lat="43.79333" lon="6.22991">
        <ele>508.67</ele>
        <time>2025-11-13T09:58:24Z</time>
      </trkpt>
      <trkpt lat="43.79336" lon="6.22922">
        <ele>511.08</ele>
        <time>2025-11-13T09:58:38Z</time>
      </trkpt>
      <trkpt lat="43.7932" lon="6.22862">
        <ele>513</ele>
        <time>2025-11-13T09:58:51Z</time>
      </trkpt>
      <trkpt lat="43.79285" lon="6.228">
        <ele>513.96</ele>
        <time>2025-11-13T09:59:06Z</time>
      </trkpt>
      <trkpt lat="43.79248" lon="6.22737">
        <ele>514.44</ele>
        <time>2025-11-13T09:59:20Z</time>
      </trkpt>
      <trkpt lat="43.79191" lon="6.2264">
        <ele>513</ele>
        <time>2025-11-13T09:59:38Z</time>
      </trkpt>
      <trkpt lat="43.79132" lon="6.22564">
        <ele>511.08</ele>
        <time>2025-11-13T09:59:53Z</time>
      </trkpt>
      <trkpt lat="43.79063" lon="6.22527">
        <ele>510.12</ele>
        <time>2025-11-13T10:00:06Z</time>
      </trkpt>
      <trkpt lat="43.7898" lon="6.22486">
        <ele>508.19</ele>
        <time>2025-11-13T10:00:21Z</time>
      </trkpt>
      <trkpt lat="43.78921" lon="6.22428">
        <ele>506.75</ele>
        <time>2025-11-13T10:00:34Z</time>
      </trkpt>
      <trkpt lat="43.78879" lon="6.22349">
        <ele>505.79</ele>
        <time>2025-11-13T10:00:46Z</time>
      </trkpt>
      <trkpt lat="43.78855" lon="6.22256">
        <ele>504.83</ele>
        <time>2025-11-13T10:00:58Z</time>
      </trkpt>
      <trkpt lat="43.78824" lon="6.22128">
        <ele>503.39</ele>
        <time>2025-11-13T10:01:14Z</time>
      </trkpt>
      <trkpt lat="43.78777" lon="6.22049">
        <ele>501.95</ele>
        <time>2025-11-13T10:01:26Z</time>
      </trkpt>
      <trkpt lat="43.78701" lon="6.21954">
        <ele>500.02</ele>
        <time>2025-11-13T10:01:42Z</time>
      </trkpt>
      <trkpt lat="43.78645" lon="6.21883">
        <ele>498.1</ele>
        <time>2025-11-13T10:01:54Z</time>
      </trkpt>
      <trkpt lat="43.78572" lon="6.21791">
        <ele>497.14</ele>
        <time>2025-11-13T10:02:10Z</time>
      </trkpt>
      <trkpt lat="43.78488" lon="6.21688">
        <ele>496.18</ele>
        <time>2025-11-13T10:02:28Z</time>
      </trkpt>
      <trkpt lat="43.7842" lon="6.21603">
        <ele>495.7</ele>
        <time>2025-11-13T10:02:43Z</time>
      </trkpt>
      <trkpt lat="43.78347" lon="6.21513">
        <ele>495.22</ele>
        <time>2025-11-13T10:02:59Z</time>
      </trkpt>
      <trkpt lat="43.78285" lon="6.21435">
        <ele>494.26</ele>
        <time>2025-11-13T10:03:13Z</time>
      </trkpt>
      <trkpt lat="43.78212" lon="6.21345">
        <ele>493.77</ele>
        <time>2025-11-13T10:03:29Z</time>
      </trkpt>
      <trkpt lat="43.78148" lon="6.21266">
        <ele>492.81</ele>
        <time>2025-11-13T10:03:43Z</time>
      </trkpt>
      <trkpt lat="43.78074" lon="6.2118">
        <ele>492.81</ele>
        <time>2025-11-13T10:03:59Z</time>
      </trkpt>
      <trkpt lat="43.78005" lon="6.21144">
        <ele>492.81</ele>
        <time>2025-11-13T10:04:12Z</time>
      </trkpt>
      <trkpt lat="43.77942" lon="6.21138">
        <ele>494.26</ele>
        <time>2025-11-13T10:04:25Z</time>
      </trkpt>
      <trkpt lat="43.77889" lon="6.21151">
        <ele>494.26</ele>
        <time>2025-11-13T10:04:36Z</time>
      </trkpt>
      <trkpt lat="43.77824" lon="6.21195">
        <ele>494.74</ele>
        <time>2025-11-13T10:04:51Z</time>
      </trkpt>
      <trkpt lat="43.7778" lon="6.21254">
        <ele>494.74</ele>
        <time>2025-11-13T10:05:04Z</time>
      </trkpt>
      <trkpt lat="43.7774" lon="6.21335">
        <ele>495.22</ele>
        <time>2025-11-13T10:05:19Z</time>
      </trkpt>
      <trkpt lat="43.77707" lon="6.21402">
        <ele>496.18</ele>
        <time>2025-11-13T10:05:32Z</time>
      </trkpt>
      <trkpt lat="43.7767" lon="6.2148">
        <ele>497.62</ele>
        <time>2025-11-13T10:05:47Z</time>
      </trkpt>
      <trkpt lat="43.77636" lon="6.2155">
        <ele>499.54</ele>
        <time>2025-11-13T10:06:02Z</time>
      </trkpt>
      <trkpt lat="43.77611" lon="6.21604">
        <ele>501.46</ele>
        <time>2025-11-13T10:06:14Z</time>
      </trkpt>
      <trkpt lat="43.77568" lon="6.2169">
        <ele>503.87</ele>
        <time>2025-11-13T10:06:33Z</time>
      </trkpt>
      <trkpt lat="43.77533" lon="6.2175">
        <ele>506.27</ele>
        <time>2025-11-13T10:06:48Z</time>
      </trkpt>
      <trkpt lat="43.7752" lon="6.21764">
        <ele>506.75</ele>
        <time>2025-11-13T10:06:58Z</time>
      </trkpt>
      <trkpt lat="43.77521" lon="6.21762">
        <ele>506.75</ele>
        <time>2025-11-13T10:07:11Z</time>
      </trkpt>
      <trkpt lat="43.77521" lon="6.21761">
        <ele>506.75</ele>
        <time>2025-11-13T10:07:21Z</time>
      </trkpt>
      <trkpt lat="43.77519" lon="6.2176">
        <ele>506.75</ele>
        <time>2025-11-13T10:07:24Z</time>
      </trkpt>
      <trkpt lat="43.77515" lon="6.21761">
        <ele>506.75</ele>
        <time>2025-11-13T10:07:33Z</time>
      </trkpt>
      <trkpt lat="43.77512" lon="6.21757">
        <ele>506.75</ele>
        <time>2025-11-13T10:07:39Z</time>
      </trkpt>
      <trkpt lat="43.77512" lon="6.21756">
        <ele>506.75</ele>
        <time>2025-11-13T10:07:40Z</time>
      </trkpt>
      <trkpt lat="43.77502" lon="6.21719">
        <ele>506.75</ele>
        <time>2025-11-13T10:07:50Z</time>
      </trkpt>
      <trkpt lat="43.77519" lon="6.21672">
        <ele>506.75</ele>
        <time>2025-11-13T10:08:00Z</time>
      </trkpt>
      <trkpt lat="43.77544" lon="6.21598">
        <ele>507.71</ele>
        <time>2025-11-13T10:08:15Z</time>
      </trkpt>
      <trkpt lat="43.77567" lon="6.21522">
        <ele>511.08</ele>
        <time>2025-11-13T10:08:31Z</time>
      </trkpt>
      <trkpt lat="43.7758" lon="6.21448">
        <ele>514.44</ele>
        <time>2025-11-13T10:08:47Z</time>
      </trkpt>
      <trkpt lat="43.77589" lon="6.21378">
        <ele>517.81</ele>
        <time>2025-11-13T10:09:02Z</time>
      </trkpt>
      <trkpt lat="43.77603" lon="6.21304">
        <ele>520.21</ele>
        <time>2025-11-13T10:09:18Z</time>
      </trkpt>
      <trkpt lat="43.77592" lon="6.21253">
        <ele>520.69</ele>
        <time>2025-11-13T10:09:29Z</time>
      </trkpt>
      <trkpt lat="43.77565" lon="6.21229">
        <ele>521.65</ele>
        <time>2025-11-13T10:09:40Z</time>
      </trkpt>
      <trkpt lat="43.77543" lon="6.2122">
        <ele>521.65</ele>
        <time>2025-11-13T10:09:49Z</time>
      </trkpt>
      <trkpt lat="43.77516" lon="6.21209">
        <ele>521.65</ele>
        <time>2025-11-13T10:09:59Z</time>
      </trkpt>
      <trkpt lat="43.77486" lon="6.21195">
        <ele>521.65</ele>
        <time>2025-11-13T10:10:10Z</time>
      </trkpt>
      <trkpt lat="43.77466" lon="6.21175">
        <ele>521.65</ele>
        <time>2025-11-13T10:10:19Z</time>
      </trkpt>
      <trkpt lat="43.77453" lon="6.21142">
        <ele>520.69</ele>
        <time>2025-11-13T10:10:31Z</time>
      </trkpt>
      <trkpt lat="43.77452" lon="6.21132">
        <ele>520.69</ele>
        <time>2025-11-13T10:10:41Z</time>
      </trkpt>
      <trkpt lat="43.77451" lon="6.21131">
        <ele>520.69</ele>
        <time>2025-11-13T10:11:04Z</time>
      </trkpt>
      <trkpt lat="43.77451" lon="6.21129">
        <ele>520.21</ele>
        <time>2025-11-13T10:11:27Z</time>
      </trkpt>
      <trkpt lat="43.77453" lon="6.2113">
        <ele>520.21</ele>
        <time>2025-11-13T10:11:46Z</time>
      </trkpt>
      <trkpt lat="43.77454" lon="6.2113">
        <ele>520.21</ele>
        <time>2025-11-13T10:12:04Z</time>
      </trkpt>
      <trkpt lat="43.77452" lon="6.21131">
        <ele>520.21</ele>
        <time>2025-11-13T10:12:28Z</time>
      </trkpt>
      <trkpt lat="43.77449" lon="6.21121">
        <ele>520.21</ele>
        <time>2025-11-13T10:12:48Z</time>
      </trkpt>
      <trkpt lat="43.77438" lon="6.21076">
        <ele>520.21</ele>
        <time>2025-11-13T10:13:03Z</time>
      </trkpt>
      <trkpt lat="43.77418" lon="6.21035">
        <ele>519.73</ele>
        <time>2025-11-13T10:13:15Z</time>
      </trkpt>
      <trkpt lat="43.77385" lon="6.20997">
        <ele>518.77</ele>
        <time>2025-11-13T10:13:28Z</time>
      </trkpt>
      <trkpt lat="43.77379" lon="6.2099">
        <ele>518.77</ele>
        <time>2025-11-13T10:13:32Z</time>
      </trkpt>
      <trkpt lat="43.77378" lon="6.20988">
        <ele>518.77</ele>
        <time>2025-11-13T10:13:33Z</time>
      </trkpt>
      <trkpt lat="43.77379" lon="6.20986">
        <ele>518.29</ele>
        <time>2025-11-13T10:13:34Z</time>
      </trkpt>
      <trkpt lat="43.7738" lon="6.20984">
        <ele>518.77</ele>
        <time>2025-11-13T10:13:35Z</time>
      </trkpt>
      <trkpt lat="43.77381" lon="6.20982">
        <ele>518.77</ele>
        <time>2025-11-13T10:13:36Z</time>
      </trkpt>
      <trkpt lat="43.77393" lon="6.2095">
        <ele>518.77</ele>
        <time>2025-11-13T10:13:47Z</time>
      </trkpt>
      <trkpt lat="43.77408" lon="6.20919">
        <ele>518.77</ele>
        <time>2025-11-13T10:14:01Z</time>
      </trkpt>
      <trkpt lat="43.77403" lon="6.20901">
        <ele>518.77</ele>
        <time>2025-11-13T10:14:11Z</time>
      </trkpt>
      <trkpt lat="43.774" lon="6.20899">
        <ele>518.29</ele>
        <time>2025-11-13T10:14:14Z</time>
      </trkpt>
      <trkpt lat="43.774" lon="6.20898">
        <ele>518.77</ele>
        <time>2025-11-13T10:14:15Z</time>
      </trkpt>
      <trkpt lat="43.77399" lon="6.20897">
        <ele>518.77</ele>
        <time>2025-11-13T10:14:16Z</time>
      </trkpt>
      <trkpt lat="43.77397" lon="6.20897">
        <ele>518.77</ele>
        <time>2025-11-13T10:14:17Z</time>
      </trkpt>
      <trkpt lat="43.77396" lon="6.20898">
        <ele>518.29</ele>
        <time>2025-11-13T10:14:25Z</time>
      </trkpt>
      <trkpt lat="43.77395" lon="6.20897">
        <ele>518.29</ele>
        <time>2025-11-13T10:14:47Z</time>
      </trkpt>
      <trkpt lat="43.77395" lon="6.20899">
        <ele>518.29</ele>
        <time>2025-11-13T10:14:57Z</time>
      </trkpt>
      <trkpt lat="43.77395" lon="6.20899">
        <ele>518.29</ele>
        <time>2025-11-13T10:15:19Z</time>
      </trkpt>
      <trkpt lat="43.77397" lon="6.20898">
        <ele>518.29</ele>
        <time>2025-11-13T10:15:47Z</time>
      </trkpt>
      <trkpt lat="43.77396" lon="6.209">
        <ele>518.29</ele>
        <time>2025-11-13T10:16:13Z</time>
      </trkpt>
      <trkpt lat="43.77396" lon="6.20897">
        <ele>519.25</ele>
        <time>2025-11-13T10:16:30Z</time>
      </trkpt>
      <trkpt lat="43.77397" lon="6.20899">
        <ele>519.25</ele>
        <time>2025-11-13T10:17:01Z</time>
      </trkpt>
      <trkpt lat="43.77398" lon="6.20897">
        <ele>519.25</ele>
        <time>2025-11-13T10:17:28Z</time>
      </trkpt>
      <trkpt lat="43.77397" lon="6.20897">
        <ele>519.25</ele>
        <time>2025-11-13T10:17:51Z</time>
      </trkpt>
      <trkpt lat="43.77398" lon="6.20899">
        <ele>518.77</ele>
        <time>2025-11-13T10:18:14Z</time>
      </trkpt>
      <trkpt lat="43.77396" lon="6.209">
        <ele>519.25</ele>
        <time>2025-11-13T10:18:45Z</time>
      </trkpt>
      <trkpt lat="43.77396" lon="6.209">
        <ele>519.25</ele>
        <time>2025-11-13T10:19:07Z</time>
      </trkpt>
      <trkpt lat="43.77396" lon="6.20898">
        <ele>519.25</ele>
        <time>2025-11-13T10:19:32Z</time>
      </trkpt>
      <trkpt lat="43.77396" lon="6.20897">
        <ele>518.77</ele>
        <time>2025-11-13T10:19:56Z</time>
      </trkpt>
      <trkpt lat="43.77396" lon="6.20897">
        <ele>518.77</ele>
        <time>2025-11-13T10:20:23Z</time>
      </trkpt>
      <trkpt lat="43.77396" lon="6.20898">
        <ele>518.77</ele>
        <time>2025-11-13T10:20:43Z</time>
      </trkpt>
      <trkpt lat="43.77395" lon="6.20898">
        <ele>518.77</ele>
        <time>2025-11-13T10:21:05Z</time>
      </trkpt>
      <trkpt lat="43.77395" lon="6.20899">
        <ele>518.77</ele>
        <time>2025-11-13T10:21:16Z</time>
      </trkpt>
      <trkpt lat="43.77386" lon="6.20899">
        <ele>518.77</ele>
        <time>2025-11-13T10:21:24Z</time>
      </trkpt>
      <trkpt lat="43.77385" lon="6.209">
        <ele>518.29</ele>
        <time>2025-11-13T10:21:25Z</time>
      </trkpt>
      <trkpt lat="43.77384" lon="6.20902">
        <ele>518.29</ele>
        <time>2025-11-13T10:21:26Z</time>
      </trkpt>
      <trkpt lat="43.77384" lon="6.20903">
        <ele>518.29</ele>
        <time>2025-11-13T10:21:27Z</time>
      </trkpt>
      <trkpt lat="43.77383" lon="6.20905">
        <ele>518.29</ele>
        <time>2025-11-13T10:21:28Z</time>
      </trkpt>
      <trkpt lat="43.77383" lon="6.20907">
        <ele>518.29</ele>
        <time>2025-11-13T10:21:29Z</time>
      </trkpt>
      <trkpt lat="43.77382" lon="6.20908">
        <ele>518.29</ele>
        <time>2025-11-13T10:21:30Z</time>
      </trkpt>
      <trkpt lat="43.77381" lon="6.2091">
        <ele>518.29</ele>
        <time>2025-11-13T10:21:31Z</time>
      </trkpt>
      <trkpt lat="43.7738" lon="6.20911">
        <ele>518.29</ele>
        <time>2025-11-13T10:21:32Z</time>
      </trkpt>
      <trkpt lat="43.77379" lon="6.20912">
        <ele>518.29</ele>
        <time>2025-11-13T10:21:33Z</time>
      </trkpt>
      <trkpt lat="43.77378" lon="6.20912">
        <ele>518.29</ele>
        <time>2025-11-13T10:21:34Z</time>
      </trkpt>
      <trkpt lat="43.77377" lon="6.20913">
        <ele>518.29</ele>
        <time>2025-11-13T10:21:35Z</time>
      </trkpt>
      <trkpt lat="43.77376" lon="6.20914">
        <ele>518.29</ele>
        <time>2025-11-13T10:21:36Z</time>
      </trkpt>
      <trkpt lat="43.77376" lon="6.20915">
        <ele>518.29</ele>
        <time>2025-11-13T10:21:37Z</time>
      </trkpt>
      <trkpt lat="43.77375" lon="6.20916">
        <ele>518.29</ele>
        <time>2025-11-13T10:21:38Z</time>
      </trkpt>
      <trkpt lat="43.77374" lon="6.20916">
        <ele>518.29</ele>
        <time>2025-11-13T10:21:39Z</time>
      </trkpt>
      <trkpt lat="43.77371" lon="6.20919">
        <ele>518.29</ele>
        <time>2025-11-13T10:21:42Z</time>
      </trkpt>
      <trkpt lat="43.77368" lon="6.20922">
        <ele>518.29</ele>
        <time>2025-11-13T10:21:53Z</time>
      </trkpt>
      <trkpt lat="43.77369" lon="6.20921">
        <ele>518.29</ele>
        <time>2025-11-13T10:22:12Z</time>
      </trkpt>
      <trkpt lat="43.77367" lon="6.20919">
        <ele>518.77</ele>
        <time>2025-11-13T10:22:23Z</time>
      </trkpt>
      <trkpt lat="43.77366" lon="6.20917">
        <ele>518.77</ele>
        <time>2025-11-13T10:22:26Z</time>
      </trkpt>
      <trkpt lat="43.77349" lon="6.20902">
        <ele>518.77</ele>
        <time>2025-11-13T10:22:39Z</time>
      </trkpt>
      <trkpt lat="43.77334" lon="6.2089">
        <ele>518.77</ele>
        <time>2025-11-13T10:22:50Z</time>
      </trkpt>
      <trkpt lat="43.77324" lon="6.2088">
        <ele>518.77</ele>
        <time>2025-11-13T10:22:58Z</time>
      </trkpt>
      <trkpt lat="43.77323" lon="6.2088">
        <ele>518.77</ele>
        <time>2025-11-13T10:22:59Z</time>
      </trkpt>
      <trkpt lat="43.77322" lon="6.2088">
        <ele>518.77</ele>
        <time>2025-11-13T10:23:00Z</time>
      </trkpt>
      <trkpt lat="43.77322" lon="6.20878">
        <ele>518.77</ele>
        <time>2025-11-13T10:23:01Z</time>
      </trkpt>
      <trkpt lat="43.77322" lon="6.20877">
        <ele>518.77</ele>
        <time>2025-11-13T10:23:02Z</time>
      </trkpt>
      <trkpt lat="43.77323" lon="6.20875">
        <ele>518.77</ele>
        <time>2025-11-13T10:23:03Z</time>
      </trkpt>
      <trkpt lat="43.77323" lon="6.20873">
        <ele>517.33</ele>
        <time>2025-11-13T10:23:04Z</time>
      </trkpt>
      <trkpt lat="43.77324" lon="6.20871">
        <ele>517.33</ele>
        <time>2025-11-13T10:23:05Z</time>
      </trkpt>
      <trkpt lat="43.77327" lon="6.20867">
        <ele>517.33</ele>
        <time>2025-11-13T10:23:08Z</time>
      </trkpt>
      <trkpt lat="43.7733" lon="6.20869">
        <ele>517.33</ele>
        <time>2025-11-13T10:23:11Z</time>
      </trkpt>
      <trkpt lat="43.77332" lon="6.2087">
        <ele>517.33</ele>
        <time>2025-11-13T10:23:12Z</time>
      </trkpt>
      <trkpt lat="43.77332" lon="6.2087">
        <ele>517.33</ele>
        <time>2025-11-13T10:23:13Z</time>
      </trkpt>
      <trkpt lat="43.77334" lon="6.2087">
        <ele>517.33</ele>
        <time>2025-11-13T10:23:14Z</time>
      </trkpt>
      <trkpt lat="43.77335" lon="6.20869">
        <ele>517.33</ele>
        <time>2025-11-13T10:23:15Z</time>
      </trkpt>
      <trkpt lat="43.77335" lon="6.20867">
        <ele>517.33</ele>
        <time>2025-11-13T10:23:16Z</time>
      </trkpt>
      <trkpt lat="43.77335" lon="6.20865">
        <ele>517.33</ele>
        <time>2025-11-13T10:23:17Z</time>
      </trkpt>
      <trkpt lat="43.77335" lon="6.20863">
        <ele>517.33</ele>
        <time>2025-11-13T10:23:18Z</time>
      </trkpt>
      <trkpt lat="43.77334" lon="6.20863">
        <ele>517.33</ele>
        <time>2025-11-13T10:23:19Z</time>
      </trkpt>
      <trkpt lat="43.77333" lon="6.20862">
        <ele>517.33</ele>
        <time>2025-11-13T10:23:20Z</time>
      </trkpt>
      <trkpt lat="43.77329" lon="6.20858">
        <ele>517.33</ele>
        <time>2025-11-13T10:23:24Z</time>
      </trkpt>
      <trkpt lat="43.77328" lon="6.20859">
        <ele>517.33</ele>
        <time>2025-11-13T10:23:25Z</time>
      </trkpt>
      <trkpt lat="43.77327" lon="6.20861">
        <ele>517.33</ele>
        <time>2025-11-13T10:23:26Z</time>
      </trkpt>
      <trkpt lat="43.77325" lon="6.20862">
        <ele>517.33</ele>
        <time>2025-11-13T10:23:27Z</time>
      </trkpt>
      <trkpt lat="43.77324" lon="6.20864">
        <ele>517.33</ele>
        <time>2025-11-13T10:23:28Z</time>
      </trkpt>
      <trkpt lat="43.77323" lon="6.20866">
        <ele>517.33</ele>
        <time>2025-11-13T10:23:29Z</time>
      </trkpt>
      <trkpt lat="43.77313" lon="6.20887">
        <ele>517.33</ele>
        <time>2025-11-13T10:23:40Z</time>
      </trkpt>
      <trkpt lat="43.77296" lon="6.20908">
        <ele>516.85</ele>
        <time>2025-11-13T10:23:51Z</time>
      </trkpt>
      <trkpt lat="43.77272" lon="6.20902">
        <ele>516.37</ele>
        <time>2025-11-13T10:24:01Z</time>
      </trkpt>
      <trkpt lat="43.77242" lon="6.2087">
        <ele>515.4</ele>
        <time>2025-11-13T10:24:14Z</time>
      </trkpt>
      <trkpt lat="43.77239" lon="6.20866">
        <ele>515.4</ele>
        <time>2025-11-13T10:24:16Z</time>
      </trkpt>
      <trkpt lat="43.77236" lon="6.20865">
        <ele>515.4</ele>
        <time>2025-11-13T10:24:21Z</time>
      </trkpt>
      <trkpt lat="43.77235" lon="6.20866">
        <ele>515.4</ele>
        <time>2025-11-13T10:24:22Z</time>
      </trkpt>
      <trkpt lat="43.77234" lon="6.20868">
        <ele>515.4</ele>
        <time>2025-11-13T10:24:23Z</time>
      </trkpt>
      <trkpt lat="43.77233" lon="6.20869">
        <ele>514.92</ele>
        <time>2025-11-13T10:24:24Z</time>
      </trkpt>
      <trkpt lat="43.77227" lon="6.20872">
        <ele>514.44</ele>
        <time>2025-11-13T10:24:33Z</time>
      </trkpt>
      <trkpt lat="43.77225" lon="6.20871">
        <ele>513.96</ele>
        <time>2025-11-13T10:24:53Z</time>
      </trkpt>
      <trkpt lat="43.77225" lon="6.20871">
        <ele>513.96</ele>
        <time>2025-11-13T10:25:02Z</time>
      </trkpt>
      <trkpt lat="43.77228" lon="6.20875">
        <ele>513.96</ele>
        <time>2025-11-13T10:25:21Z</time>
      </trkpt>
      <trkpt lat="43.77227" lon="6.20873">
        <ele>513.96</ele>
        <time>2025-11-13T10:25:44Z</time>
      </trkpt>
      <trkpt lat="43.77226" lon="6.20872">
        <ele>513.96</ele>
        <time>2025-11-13T10:26:13Z</time>
      </trkpt>
      <trkpt lat="43.77227" lon="6.20874">
        <ele>513.48</ele>
        <time>2025-11-13T10:26:40Z</time>
      </trkpt>
      <trkpt lat="43.77228" lon="6.20877">
        <ele>513.48</ele>
        <time>2025-11-13T10:27:08Z</time>
      </trkpt>
      <trkpt lat="43.77227" lon="6.20874">
        <ele>513.48</ele>
        <time>2025-11-13T10:27:30Z</time>
      </trkpt>
      <trkpt lat="43.77227" lon="6.20871">
        <ele>513.48</ele>
        <time>2025-11-13T10:27:37Z</time>
      </trkpt>
      <trkpt lat="43.77236" lon="6.20866">
        <ele>514.92</ele>
        <time>2025-11-13T10:27:49Z</time>
      </trkpt>
      <trkpt lat="43.7724" lon="6.20874">
        <ele>515.4</ele>
        <time>2025-11-13T10:27:59Z</time>
      </trkpt>
      <trkpt lat="43.77238" lon="6.2089">
        <ele>515.4</ele>
        <time>2025-11-13T10:28:14Z</time>
      </trkpt>
      <trkpt lat="43.77238" lon="6.20892">
        <ele>515.4</ele>
        <time>2025-11-13T10:28:25Z</time>
      </trkpt>
      <trkpt lat="43.77238" lon="6.2089">
        <ele>515.88</ele>
        <time>2025-11-13T10:28:44Z</time>
      </trkpt>
      <trkpt lat="43.77238" lon="6.20888">
        <ele>515.88</ele>
        <time>2025-11-13T10:29:03Z</time>
      </trkpt>
      <trkpt lat="43.77238" lon="6.20886">
        <ele>515.88</ele>
        <time>2025-11-13T10:29:19Z</time>
      </trkpt>
      <trkpt lat="43.77239" lon="6.20888">
        <ele>515.4</ele>
        <time>2025-11-13T10:29:35Z</time>
      </trkpt>
      <trkpt lat="43.77238" lon="6.20889">
        <ele>515.4</ele>
        <time>2025-11-13T10:29:51Z</time>
      </trkpt>
      <trkpt lat="43.77237" lon="6.20886">
        <ele>515.4</ele>
        <time>2025-11-13T10:30:08Z</time>
      </trkpt>
      <trkpt lat="43.77238" lon="6.20884">
        <ele>515.4</ele>
        <time>2025-11-13T10:30:27Z</time>
      </trkpt>
      <trkpt lat="43.77238" lon="6.20887">
        <ele>515.4</ele>
        <time>2025-11-13T10:30:47Z</time>
      </trkpt>
      <trkpt lat="43.77239" lon="6.20895">
        <ele>515.4</ele>
        <time>2025-11-13T10:31:11Z</time>
      </trkpt>
      <trkpt lat="43.77238" lon="6.20896">
        <ele>515.4</ele>
        <time>2025-11-13T10:31:42Z</time>
      </trkpt>
      <trkpt lat="43.77237" lon="6.20893">
        <ele>515.4</ele>
        <time>2025-11-13T10:32:11Z</time>
      </trkpt>
      <trkpt lat="43.77236" lon="6.20892">
        <ele>515.4</ele>
        <time>2025-11-13T10:32:29Z</time>
      </trkpt>
      <trkpt lat="43.77237" lon="6.20891">
        <ele>515.4</ele>
        <time>2025-11-13T10:32:46Z</time>
      </trkpt>
      <trkpt lat="43.77237" lon="6.20888">
        <ele>515.4</ele>
        <time>2025-11-13T10:33:11Z</time>
      </trkpt>
      <trkpt lat="43.77237" lon="6.20887">
        <ele>514.92</ele>
        <time>2025-11-13T10:33:30Z</time>
      </trkpt>
      <trkpt lat="43.77238" lon="6.20889">
        <ele>514.92</ele>
        <time>2025-11-13T10:33:56Z</time>
      </trkpt>
      <trkpt lat="43.77238" lon="6.20888">
        <ele>514.92</ele>
        <time>2025-11-13T10:34:23Z</time>
      </trkpt>
      <trkpt lat="43.77239" lon="6.20893">
        <ele>514.92</ele>
        <time>2025-11-13T10:34:45Z</time>
      </trkpt>
      <trkpt lat="43.7724" lon="6.2089">
        <ele>514.92</ele>
        <time>2025-11-13T10:35:09Z</time>
      </trkpt>
      <trkpt lat="43.7724" lon="6.20892">
        <ele>514.92</ele>
        <time>2025-11-13T10:35:28Z</time>
      </trkpt>
      <trkpt lat="43.77239" lon="6.20892">
        <ele>514.92</ele>
        <time>2025-11-13T10:35:50Z</time>
      </trkpt>
      <trkpt lat="43.77238" lon="6.20892">
        <ele>514.92</ele>
        <time>2025-11-13T10:36:20Z</time>
      </trkpt>
      <trkpt lat="43.77238" lon="6.20892">
        <ele>515.4</ele>
        <time>2025-11-13T10:36:39Z</time>
      </trkpt>
      <trkpt lat="43.77238" lon="6.20891">
        <ele>515.4</ele>
        <time>2025-11-13T10:36:55Z</time>
      </trkpt>
      <trkpt lat="43.77239" lon="6.20892">
        <ele>515.4</ele>
        <time>2025-11-13T10:37:23Z</time>
      </trkpt>
      <trkpt lat="43.77238" lon="6.20892">
        <ele>515.4</ele>
        <time>2025-11-13T10:37:48Z</time>
      </trkpt>
      <trkpt lat="43.7724" lon="6.20893">
        <ele>515.4</ele>
        <time>2025-11-13T10:38:09Z</time>
      </trkpt>
      <trkpt lat="43.7724" lon="6.20894">
        <ele>515.4</ele>
        <time>2025-11-13T10:38:28Z</time>
      </trkpt>
      <trkpt lat="43.7724" lon="6.20891">
        <ele>515.4</ele>
        <time>2025-11-13T10:38:52Z</time>
      </trkpt>
      <trkpt lat="43.77239" lon="6.20891">
        <ele>515.4</ele>
        <time>2025-11-13T10:39:12Z</time>
      </trkpt>
      <trkpt lat="43.77238" lon="6.20893">
        <ele>515.4</ele>
        <time>2025-11-13T10:39:31Z</time>
      </trkpt>
      <trkpt lat="43.77239" lon="6.20896">
        <ele>515.4</ele>
        <time>2025-11-13T10:39:48Z</time>
      </trkpt>
      <trkpt lat="43.7724" lon="6.20896">
        <ele>515.4</ele>
        <time>2025-11-13T10:40:07Z</time>
      </trkpt>
      <trkpt lat="43.7724" lon="6.20893">
        <ele>515.4</ele>
        <time>2025-11-13T10:40:28Z</time>
      </trkpt>
      <trkpt lat="43.77239" lon="6.20892">
        <ele>515.4</ele>
        <time>2025-11-13T10:40:48Z</time>
      </trkpt>
      <trkpt lat="43.7724" lon="6.20892">
        <ele>515.88</ele>
        <time>2025-11-13T10:41:04Z</time>
      </trkpt>
      <trkpt lat="43.7724" lon="6.2089">
        <ele>515.88</ele>
        <time>2025-11-13T10:41:22Z</time>
      </trkpt>
      <trkpt lat="43.7724" lon="6.2089">
        <ele>515.88</ele>
        <time>2025-11-13T10:41:47Z</time>
      </trkpt>
      <trkpt lat="43.77241" lon="6.20889">
        <ele>515.88</ele>
        <time>2025-11-13T10:42:08Z</time>
      </trkpt>
      <trkpt lat="43.77241" lon="6.2089">
        <ele>516.37</ele>
        <time>2025-11-13T10:42:23Z</time>
      </trkpt>
      <trkpt lat="43.77242" lon="6.20891">
        <ele>515.88</ele>
        <time>2025-11-13T10:42:40Z</time>
      </trkpt>
      <trkpt lat="43.77242" lon="6.20893">
        <ele>515.88</ele>
        <time>2025-11-13T10:42:56Z</time>
      </trkpt>
      <trkpt lat="43.77241" lon="6.20894">
        <ele>515.88</ele>
        <time>2025-11-13T10:43:15Z</time>
      </trkpt>
      <trkpt lat="43.77239" lon="6.20895">
        <ele>516.37</ele>
        <time>2025-11-13T10:43:34Z</time>
      </trkpt>
      <trkpt lat="43.77237" lon="6.20893">
        <ele>516.37</ele>
        <time>2025-11-13T10:43:58Z</time>
      </trkpt>
      <trkpt lat="43.7724" lon="6.20892">
        <ele>516.37</ele>
        <time>2025-11-13T10:44:22Z</time>
      </trkpt>
      <trkpt lat="43.77241" lon="6.20891">
        <ele>516.37</ele>
        <time>2025-11-13T10:44:42Z</time>
      </trkpt>
      <trkpt lat="43.7724" lon="6.20888">
        <ele>516.37</ele>
        <time>2025-11-13T10:45:04Z</time>
      </trkpt>
      <trkpt lat="43.7724" lon="6.20888">
        <ele>516.85</ele>
        <time>2025-11-13T10:45:23Z</time>
      </trkpt>
      <trkpt lat="43.7724" lon="6.20892">
        <ele>516.85</ele>
        <time>2025-11-13T10:45:43Z</time>
      </trkpt>
      <trkpt lat="43.77241" lon="6.20894">
        <ele>516.85</ele>
        <time>2025-11-13T10:46:09Z</time>
      </trkpt>
      <trkpt lat="43.7724" lon="6.20892">
        <ele>516.85</ele>
        <time>2025-11-13T10:46:30Z</time>
      </trkpt>
      <trkpt lat="43.77239" lon="6.20889">
        <ele>516.85</ele>
        <time>2025-11-13T10:46:53Z</time>
      </trkpt>
      <trkpt lat="43.7724" lon="6.20888">
        <ele>516.85</ele>
        <time>2025-11-13T10:47:13Z</time>
      </trkpt>
      <trkpt lat="43.77236" lon="6.20886">
        <ele>516.85</ele>
        <time>2025-11-13T10:47:35Z</time>
      </trkpt>
      <trkpt lat="43.77237" lon="6.20888">
        <ele>516.85</ele>
        <time>2025-11-13T10:47:59Z</time>
      </trkpt>
      <trkpt lat="43.77238" lon="6.20886">
        <ele>516.85</ele>
        <time>2025-11-13T10:48:24Z</time>
      </trkpt>
      <trkpt lat="43.77237" lon="6.20887">
        <ele>517.81</ele>
        <time>2025-11-13T10:48:46Z</time>
      </trkpt>
      <trkpt lat="43.77235" lon="6.20888">
        <ele>517.81</ele>
        <time>2025-11-13T10:49:10Z</time>
      </trkpt>
      <trkpt lat="43.77237" lon="6.20888">
        <ele>517.81</ele>
        <time>2025-11-13T10:49:26Z</time>
      </trkpt>
      <trkpt lat="43.77237" lon="6.20889">
        <ele>517.81</ele>
        <time>2025-11-13T10:49:48Z</time>
      </trkpt>
      <trkpt lat="43.77236" lon="6.20886">
        <ele>517.81</ele>
        <time>2025-11-13T10:50:10Z</time>
      </trkpt>
      <trkpt lat="43.77237" lon="6.20886">
        <ele>517.81</ele>
        <time>2025-11-13T10:50:26Z</time>
      </trkpt>
      <trkpt lat="43.77238" lon="6.20887">
        <ele>517.81</ele>
        <time>2025-11-13T10:50:56Z</time>
      </trkpt>
      <trkpt lat="43.77238" lon="6.20887">
        <ele>518.77</ele>
        <time>2025-11-13T10:51:16Z</time>
      </trkpt>
      <trkpt lat="43.77236" lon="6.20886">
        <ele>518.77</ele>
        <time>2025-11-13T10:51:36Z</time>
      </trkpt>
      <trkpt lat="43.77238" lon="6.20888">
        <ele>518.77</ele>
        <time>2025-11-13T10:52:04Z</time>
      </trkpt>
      <trkpt lat="43.77239" lon="6.20889">
        <ele>518.77</ele>
        <time>2025-11-13T10:52:26Z</time>
      </trkpt>
      <trkpt lat="43.77237" lon="6.2089">
        <ele>518.77</ele>
        <time>2025-11-13T10:52:46Z</time>
      </trkpt>
      <trkpt lat="43.77236" lon="6.20887">
        <ele>518.77</ele>
        <time>2025-11-13T10:53:08Z</time>
      </trkpt>
      <trkpt lat="43.77238" lon="6.20888">
        <ele>518.77</ele>
        <time>2025-11-13T10:53:27Z</time>
      </trkpt>
      <trkpt lat="43.7724" lon="6.2089">
        <ele>518.77</ele>
        <time>2025-11-13T10:53:48Z</time>
      </trkpt>
      <trkpt lat="43.77239" lon="6.20888">
        <ele>518.29</ele>
        <time>2025-11-13T10:54:13Z</time>
      </trkpt>
      <trkpt lat="43.77237" lon="6.20889">
        <ele>518.29</ele>
        <time>2025-11-13T10:54:31Z</time>
      </trkpt>
      <trkpt lat="43.77236" lon="6.2089">
        <ele>518.29</ele>
        <time>2025-11-13T10:54:48Z</time>
      </trkpt>
      <trkpt lat="43.77237" lon="6.2089">
        <ele>518.29</ele>
        <time>2025-11-13T10:55:14Z</time>
      </trkpt>
      <trkpt lat="43.77239" lon="6.20892">
        <ele>518.29</ele>
        <time>2025-11-13T10:55:30Z</time>
      </trkpt>
      <trkpt lat="43.77239" lon="6.20891">
        <ele>518.29</ele>
        <time>2025-11-13T10:55:56Z</time>
      </trkpt>
      <trkpt lat="43.77239" lon="6.20891">
        <ele>518.29</ele>
        <time>2025-11-13T10:56:24Z</time>
      </trkpt>
      <trkpt lat="43.77239" lon="6.20891">
        <ele>518.29</ele>
        <time>2025-11-13T10:56:49Z</time>
      </trkpt>
      <trkpt lat="43.77238" lon="6.20893">
        <ele>518.29</ele>
        <time>2025-11-13T10:57:12Z</time>
      </trkpt>
      <trkpt lat="43.77238" lon="6.20894">
        <ele>518.29</ele>
        <time>2025-11-13T10:57:37Z</time>
      </trkpt>
      <trkpt lat="43.77238" lon="6.20892">
        <ele>517.81</ele>
        <time>2025-11-13T10:58:03Z</time>
      </trkpt>
      <trkpt lat="43.77237" lon="6.20892">
        <ele>517.81</ele>
        <time>2025-11-13T10:58:26Z</time>
      </trkpt>
      <trkpt lat="43.77241" lon="6.20888">
        <ele>517.81</ele>
        <time>2025-11-13T10:58:56Z</time>
      </trkpt>
      <trkpt lat="43.77239" lon="6.2089">
        <ele>518.29</ele>
        <time>2025-11-13T10:59:21Z</time>
      </trkpt>
      <trkpt lat="43.77236" lon="6.20893">
        <ele>518.29</ele>
        <time>2025-11-13T10:59:37Z</time>
      </trkpt>
      <trkpt lat="43.77237" lon="6.20893">
        <ele>518.29</ele>
        <time>2025-11-13T11:00:03Z</time>
      </trkpt>
      <trkpt lat="43.77239" lon="6.20891">
        <ele>517.81</ele>
        <time>2025-11-13T11:00:22Z</time>
      </trkpt>
      <trkpt lat="43.77239" lon="6.2089">
        <ele>517.81</ele>
        <time>2025-11-13T11:00:49Z</time>
      </trkpt>
      <trkpt lat="43.77238" lon="6.20894">
        <ele>517.81</ele>
        <time>2025-11-13T11:01:04Z</time>
      </trkpt>
      <trkpt lat="43.77237" lon="6.20895">
        <ele>517.81</ele>
        <time>2025-11-13T11:01:22Z</time>
      </trkpt>
      <trkpt lat="43.77238" lon="6.20894">
        <ele>517.81</ele>
        <time>2025-11-13T11:01:45Z</time>
      </trkpt>
      <trkpt lat="43.77239" lon="6.20887">
        <ele>517.81</ele>
        <time>2025-11-13T11:02:13Z</time>
      </trkpt>
      <trkpt lat="43.77238" lon="6.20886">
        <ele>517.81</ele>
        <time>2025-11-13T11:02:40Z</time>
      </trkpt>
      <trkpt lat="43.77236" lon="6.20886">
        <ele>517.81</ele>
        <time>2025-11-13T11:03:03Z</time>
      </trkpt>
      <trkpt lat="43.77235" lon="6.20887">
        <ele>517.81</ele>
        <time>2025-11-13T11:03:26Z</time>
      </trkpt>
      <trkpt lat="43.77237" lon="6.20884">
        <ele>517.81</ele>
        <time>2025-11-13T11:03:57Z</time>
      </trkpt>
      <trkpt lat="43.77236" lon="6.20884">
        <ele>517.81</ele>
        <time>2025-11-13T11:04:24Z</time>
      </trkpt>
      <trkpt lat="43.77236" lon="6.20885">
        <ele>517.81</ele>
        <time>2025-11-13T11:04:42Z</time>
      </trkpt>
      <trkpt lat="43.77237" lon="6.20886">
        <ele>517.81</ele>
        <time>2025-11-13T11:05:02Z</time>
      </trkpt>
      <trkpt lat="43.77235" lon="6.20886">
        <ele>518.29</ele>
        <time>2025-11-13T11:05:27Z</time>
      </trkpt>
      <trkpt lat="43.77237" lon="6.20887">
        <ele>518.29</ele>
        <time>2025-11-13T11:05:43Z</time>
      </trkpt>
      <trkpt lat="43.77237" lon="6.20889">
        <ele>518.29</ele>
        <time>2025-11-13T11:06:11Z</time>
      </trkpt>
      <trkpt lat="43.77237" lon="6.20891">
        <ele>518.29</ele>
        <time>2025-11-13T11:06:32Z</time>
      </trkpt>
      <trkpt lat="43.77238" lon="6.20888">
        <ele>518.29</ele>
        <time>2025-11-13T11:06:54Z</time>
      </trkpt>
      <trkpt lat="43.77238" lon="6.20887">
        <ele>518.29</ele>
        <time>2025-11-13T11:07:18Z</time>
      </trkpt>
      <trkpt lat="43.77239" lon="6.20886">
        <ele>518.29</ele>
        <time>2025-11-13T11:07:39Z</time>
      </trkpt>
      <trkpt lat="43.77238" lon="6.20886">
        <ele>518.29</ele>
        <time>2025-11-13T11:08:03Z</time>
      </trkpt>
      <trkpt lat="43.77235" lon="6.20886">
        <ele>518.29</ele>
        <time>2025-11-13T11:08:30Z</time>
      </trkpt>
      <trkpt lat="43.77238" lon="6.20886">
        <ele>518.29</ele>
        <time>2025-11-13T11:08:49Z</time>
      </trkpt>
      <trkpt lat="43.7724" lon="6.20887">
        <ele>518.29</ele>
        <time>2025-11-13T11:09:03Z</time>
      </trkpt>
      <trkpt lat="43.77239" lon="6.20888">
        <ele>518.29</ele>
        <time>2025-11-13T11:09:21Z</time>
      </trkpt>
      <trkpt lat="43.77239" lon="6.20886">
        <ele>518.29</ele>
        <time>2025-11-13T11:09:46Z</time>
      </trkpt>
      <trkpt lat="43.77241" lon="6.20887">
        <ele>518.29</ele>
        <time>2025-11-13T11:10:05Z</time>
      </trkpt>
      <trkpt lat="43.7724" lon="6.20889">
        <ele>518.29</ele>
        <time>2025-11-13T11:10:22Z</time>
      </trkpt>
      <trkpt lat="43.77239" lon="6.20892">
        <ele>517.81</ele>
        <time>2025-11-13T11:10:48Z</time>
      </trkpt>
      <trkpt lat="43.7724" lon="6.20895">
        <ele>517.81</ele>
        <time>2025-11-13T11:11:06Z</time>
      </trkpt>
      <trkpt lat="43.7724" lon="6.20892">
        <ele>517.81</ele>
        <time>2025-11-13T11:11:19Z</time>
      </trkpt>
      <trkpt lat="43.7724" lon="6.20891">
        <ele>518.29</ele>
        <time>2025-11-13T11:11:45Z</time>
      </trkpt>
      <trkpt lat="43.77242" lon="6.20896">
        <ele>518.29</ele>
        <time>2025-11-13T11:12:15Z</time>
      </trkpt>
      <trkpt lat="43.77242" lon="6.20894">
        <ele>518.29</ele>
        <time>2025-11-13T11:12:44Z</time>
      </trkpt>
      <trkpt lat="43.77242" lon="6.20892">
        <ele>515.4</ele>
        <time>2025-11-13T11:13:05Z</time>
      </trkpt>
      <trkpt lat="43.77288" lon="6.20914">
        <ele>519.25</ele>
        <time>2025-11-13T11:30:41Z</time>
      </trkpt>
      <trkpt lat="43.77291" lon="6.20914">
        <ele>519.25</ele>
        <time>2025-11-13T11:30:42Z</time>
      </trkpt>
      <trkpt lat="43.77312" lon="6.20929">
        <ele>516.85</ele>
        <time>2025-11-13T11:30:55Z</time>
      </trkpt>
      <trkpt lat="43.77318" lon="6.20937">
        <ele>516.37</ele>
        <time>2025-11-13T11:30:59Z</time>
      </trkpt>
      <trkpt lat="43.77318" lon="6.20939">
        <ele>516.37</ele>
        <time>2025-11-13T11:31:00Z</time>
      </trkpt>
      <trkpt lat="43.77317" lon="6.2094">
        <ele>514.92</ele>
        <time>2025-11-13T11:31:01Z</time>
      </trkpt>
      <trkpt lat="43.77315" lon="6.20941">
        <ele>514.92</ele>
        <time>2025-11-13T11:31:02Z</time>
      </trkpt>
      <trkpt lat="43.77314" lon="6.20941">
        <ele>514.44</ele>
        <time>2025-11-13T11:31:03Z</time>
      </trkpt>
      <trkpt lat="43.77312" lon="6.2094">
        <ele>514.44</ele>
        <time>2025-11-13T11:31:04Z</time>
      </trkpt>
      <trkpt lat="43.77308" lon="6.20937">
        <ele>513.96</ele>
        <time>2025-11-13T11:31:05Z</time>
      </trkpt>
      <trkpt lat="43.7728" lon="6.20931">
        <ele>511.08</ele>
        <time>2025-11-13T11:31:14Z</time>
      </trkpt>
      <trkpt lat="43.77273" lon="6.20933">
        <ele>509.64</ele>
        <time>2025-11-13T11:31:22Z</time>
      </trkpt>
      <trkpt lat="43.77274" lon="6.20933">
        <ele>508.67</ele>
        <time>2025-11-13T11:31:38Z</time>
      </trkpt>
      <trkpt lat="43.77274" lon="6.20934">
        <ele>507.71</ele>
        <time>2025-11-13T11:32:04Z</time>
      </trkpt>
      <trkpt lat="43.77274" lon="6.20934">
        <ele>507.71</ele>
        <time>2025-11-13T11:32:25Z</time>
      </trkpt>
      <trkpt lat="43.77271" lon="6.20934">
        <ele>508.19</ele>
        <time>2025-11-13T11:32:34Z</time>
      </trkpt>
      <trkpt lat="43.7727" lon="6.20935">
        <ele>507.23</ele>
        <time>2025-11-13T11:32:35Z</time>
      </trkpt>
      <trkpt lat="43.77269" lon="6.20936">
        <ele>507.23</ele>
        <time>2025-11-13T11:32:36Z</time>
      </trkpt>
      <trkpt lat="43.77248" lon="6.20954">
        <ele>504.83</ele>
        <time>2025-11-13T11:32:47Z</time>
      </trkpt>
      <trkpt lat="43.77223" lon="6.2099">
        <ele>501.95</ele>
        <time>2025-11-13T11:32:55Z</time>
      </trkpt>
      <trkpt lat="43.77195" lon="6.21066">
        <ele>499.06</ele>
        <time>2025-11-13T11:33:04Z</time>
      </trkpt>
      <trkpt lat="43.77182" lon="6.21157">
        <ele>498.58</ele>
        <time>2025-11-13T11:33:15Z</time>
      </trkpt>
      <trkpt lat="43.77174" lon="6.21201">
        <ele>499.06</ele>
        <time>2025-11-13T11:33:21Z</time>
      </trkpt>
      <trkpt lat="43.77171" lon="6.21208">
        <ele>499.06</ele>
        <time>2025-11-13T11:33:22Z</time>
      </trkpt>
      <trkpt lat="43.77157" lon="6.21241">
        <ele>497.62</ele>
        <time>2025-11-13T11:33:27Z</time>
      </trkpt>
      <trkpt lat="43.77153" lon="6.21246">
        <ele>497.62</ele>
        <time>2025-11-13T11:33:28Z</time>
      </trkpt>
      <trkpt lat="43.77149" lon="6.21249">
        <ele>497.62</ele>
        <time>2025-11-13T11:33:29Z</time>
      </trkpt>
      <trkpt lat="43.77143" lon="6.2125">
        <ele>497.14</ele>
        <time>2025-11-13T11:33:30Z</time>
      </trkpt>
      <trkpt lat="43.77137" lon="6.2125">
        <ele>497.14</ele>
        <time>2025-11-13T11:33:31Z</time>
      </trkpt>
      <trkpt lat="43.77133" lon="6.21249">
        <ele>497.14</ele>
        <time>2025-11-13T11:33:32Z</time>
      </trkpt>
      <trkpt lat="43.77128" lon="6.21246">
        <ele>496.18</ele>
        <time>2025-11-13T11:33:33Z</time>
      </trkpt>
      <trkpt lat="43.77124" lon="6.21242">
        <ele>496.18</ele>
        <time>2025-11-13T11:33:34Z</time>
      </trkpt>
      <trkpt lat="43.77121" lon="6.21235">
        <ele>496.18</ele>
        <time>2025-11-13T11:33:35Z</time>
      </trkpt>
      <trkpt lat="43.77118" lon="6.21228">
        <ele>496.18</ele>
        <time>2025-11-13T11:33:36Z</time>
      </trkpt>
      <trkpt lat="43.77117" lon="6.21222">
        <ele>496.18</ele>
        <time>2025-11-13T11:33:37Z</time>
      </trkpt>
      <trkpt lat="43.77117" lon="6.21214">
        <ele>495.7</ele>
        <time>2025-11-13T11:33:38Z</time>
      </trkpt>
      <trkpt lat="43.77118" lon="6.21207">
        <ele>495.7</ele>
        <time>2025-11-13T11:33:39Z</time>
      </trkpt>
      <trkpt lat="43.7712" lon="6.2116">
        <ele>495.22</ele>
        <time>2025-11-13T11:33:46Z</time>
      </trkpt>
      <trkpt lat="43.77121" lon="6.21153">
        <ele>495.22</ele>
        <time>2025-11-13T11:33:47Z</time>
      </trkpt>
      <trkpt lat="43.77124" lon="6.21124">
        <ele>494.74</ele>
        <time>2025-11-13T11:33:51Z</time>
      </trkpt>
      <trkpt lat="43.77126" lon="6.21066">
        <ele>493.29</ele>
        <time>2025-11-13T11:33:59Z</time>
      </trkpt>
      <trkpt lat="43.77125" lon="6.21058">
        <ele>492.81</ele>
        <time>2025-11-13T11:34:00Z</time>
      </trkpt>
      <trkpt lat="43.77116" lon="6.20997">
        <ele>489.45</ele>
        <time>2025-11-13T11:34:07Z</time>
      </trkpt>
      <trkpt lat="43.77115" lon="6.20988">
        <ele>489.45</ele>
        <time>2025-11-13T11:34:08Z</time>
      </trkpt>
      <trkpt lat="43.77102" lon="6.20933">
        <ele>486.56</ele>
        <time>2025-11-13T11:34:16Z</time>
      </trkpt>
      <trkpt lat="43.7709" lon="6.20907">
        <ele>485.12</ele>
        <time>2025-11-13T11:34:24Z</time>
      </trkpt>
      <trkpt lat="43.77089" lon="6.209">
        <ele>484.64</ele>
        <time>2025-11-13T11:34:31Z</time>
      </trkpt>
      <trkpt lat="43.77078" lon="6.2087">
        <ele>481.76</ele>
        <time>2025-11-13T11:34:39Z</time>
      </trkpt>
      <trkpt lat="43.77067" lon="6.20841">
        <ele>479.35</ele>
        <time>2025-11-13T11:34:48Z</time>
      </trkpt>
      <trkpt lat="43.77067" lon="6.20841">
        <ele>479.35</ele>
        <time>2025-11-13T11:34:57Z</time>
      </trkpt>
      <trkpt lat="43.77066" lon="6.20842">
        <ele>479.35</ele>
        <time>2025-11-13T11:35:15Z</time>
      </trkpt>
      <trkpt lat="43.77066" lon="6.20841">
        <ele>479.35</ele>
        <time>2025-11-13T11:35:29Z</time>
      </trkpt>
      <trkpt lat="43.77067" lon="6.20841">
        <ele>479.35</ele>
        <time>2025-11-13T11:35:46Z</time>
      </trkpt>
      <trkpt lat="43.77068" lon="6.20841">
        <ele>479.35</ele>
        <time>2025-11-13T11:36:04Z</time>
      </trkpt>
      <trkpt lat="43.77069" lon="6.20842">
        <ele>478.87</ele>
        <time>2025-11-13T11:36:24Z</time>
      </trkpt>
      <trkpt lat="43.77069" lon="6.20842">
        <ele>478.87</ele>
        <time>2025-11-13T11:36:44Z</time>
      </trkpt>
      <trkpt lat="43.77068" lon="6.20841">
        <ele>478.87</ele>
        <time>2025-11-13T11:37:03Z</time>
      </trkpt>
      <trkpt lat="43.7707" lon="6.20841">
        <ele>478.87</ele>
        <time>2025-11-13T11:37:27Z</time>
      </trkpt>
      <trkpt lat="43.77071" lon="6.20842">
        <ele>478.87</ele>
        <time>2025-11-13T11:37:50Z</time>
      </trkpt>
      <trkpt lat="43.7707" lon="6.20842">
        <ele>478.87</ele>
        <time>2025-11-13T11:38:10Z</time>
      </trkpt>
      <trkpt lat="43.77069" lon="6.20841">
        <ele>478.87</ele>
        <time>2025-11-13T11:38:27Z</time>
      </trkpt>
      <trkpt lat="43.77068" lon="6.20841">
        <ele>478.87</ele>
        <time>2025-11-13T11:38:48Z</time>
      </trkpt>
      <trkpt lat="43.77068" lon="6.2084">
        <ele>478.87</ele>
        <time>2025-11-13T11:39:08Z</time>
      </trkpt>
      <trkpt lat="43.77069" lon="6.20841">
        <ele>478.87</ele>
        <time>2025-11-13T11:39:31Z</time>
      </trkpt>
      <trkpt lat="43.77069" lon="6.20841">
        <ele>478.87</ele>
        <time>2025-11-13T11:39:51Z</time>
      </trkpt>
      <trkpt lat="43.77069" lon="6.20841">
        <ele>478.87</ele>
        <time>2025-11-13T11:40:07Z</time>
      </trkpt>
      <trkpt lat="43.77068" lon="6.20839">
        <ele>478.87</ele>
        <time>2025-11-13T11:40:27Z</time>
      </trkpt>
      <trkpt lat="43.77069" lon="6.2084">
        <ele>478.87</ele>
        <time>2025-11-13T11:40:47Z</time>
      </trkpt>
      <trkpt lat="43.77069" lon="6.20841">
        <ele>478.87</ele>
        <time>2025-11-13T11:41:07Z</time>
      </trkpt>
      <trkpt lat="43.7707" lon="6.20841">
        <ele>478.87</ele>
        <time>2025-11-13T11:41:20Z</time>
      </trkpt>
      <trkpt lat="43.77069" lon="6.20846">
        <ele>478.87</ele>
        <time>2025-11-13T11:41:28Z</time>
      </trkpt>
      <trkpt lat="43.77069" lon="6.20846">
        <ele>480.32</ele>
        <time>2025-11-13T11:41:40Z</time>
      </trkpt>
      <trkpt lat="43.77069" lon="6.20846">
        <ele>480.32</ele>
        <time>2025-11-13T11:41:41Z</time>
      </trkpt>
      <trkpt lat="43.77068" lon="6.20846">
        <ele>478.39</ele>
        <time>2025-11-13T11:41:52Z</time>
      </trkpt>
      <trkpt lat="43.77068" lon="6.20846">
        <ele>478.87</ele>
        <time>2025-11-13T11:41:53Z</time>
      </trkpt>
      <trkpt lat="43.7707" lon="6.2085">
        <ele>478.39</ele>
        <time>2025-11-13T11:42:14Z</time>
      </trkpt>
      <trkpt lat="43.7707" lon="6.20852">
        <ele>478.39</ele>
        <time>2025-11-13T11:42:15Z</time>
      </trkpt>
      <trkpt lat="43.77072" lon="6.20855">
        <ele>478.39</ele>
        <time>2025-11-13T11:42:16Z</time>
      </trkpt>
      <trkpt lat="43.77074" lon="6.20862">
        <ele>479.84</ele>
        <time>2025-11-13T11:42:19Z</time>
      </trkpt>
      <trkpt lat="43.77086" lon="6.20893">
        <ele>482.72</ele>
        <time>2025-11-13T11:42:29Z</time>
      </trkpt>
      <trkpt lat="43.77099" lon="6.20943">
        <ele>485.6</ele>
        <time>2025-11-13T11:42:42Z</time>
      </trkpt>
      <trkpt lat="43.77107" lon="6.20997">
        <ele>488.49</ele>
        <time>2025-11-13T11:42:55Z</time>
      </trkpt>
      <trkpt lat="43.77113" lon="6.21047">
        <ele>491.85</ele>
        <time>2025-11-13T11:43:07Z</time>
      </trkpt>
      <trkpt lat="43.77118" lon="6.21093">
        <ele>493.29</ele>
        <time>2025-11-13T11:43:18Z</time>
      </trkpt>
      <trkpt lat="43.77118" lon="6.21144">
        <ele>494.26</ele>
        <time>2025-11-13T11:43:29Z</time>
      </trkpt>
      <trkpt lat="43.77117" lon="6.21197">
        <ele>495.22</ele>
        <time>2025-11-13T11:43:41Z</time>
      </trkpt>
      <trkpt lat="43.77121" lon="6.21233">
        <ele>495.7</ele>
        <time>2025-11-13T11:43:51Z</time>
      </trkpt>
      <trkpt lat="43.77142" lon="6.21254">
        <ele>496.18</ele>
        <time>2025-11-13T11:44:01Z</time>
      </trkpt>
      <trkpt lat="43.77147" lon="6.21257">
        <ele>496.18</ele>
        <time>2025-11-13T11:44:03Z</time>
      </trkpt>
      <trkpt lat="43.77148" lon="6.21259">
        <ele>496.18</ele>
        <time>2025-11-13T11:44:04Z</time>
      </trkpt>
      <trkpt lat="43.77147" lon="6.21262">
        <ele>496.66</ele>
        <time>2025-11-13T11:44:05Z</time>
      </trkpt>
      <trkpt lat="43.77147" lon="6.21263">
        <ele>496.66</ele>
        <time>2025-11-13T11:44:06Z</time>
      </trkpt>
      <trkpt lat="43.77146" lon="6.21265">
        <ele>496.66</ele>
        <time>2025-11-13T11:44:07Z</time>
      </trkpt>
      <trkpt lat="43.77145" lon="6.21267">
        <ele>496.66</ele>
        <time>2025-11-13T11:44:08Z</time>
      </trkpt>
      <trkpt lat="43.77144" lon="6.21269">
        <ele>496.66</ele>
        <time>2025-11-13T11:44:09Z</time>
      </trkpt>
      <trkpt lat="43.77143" lon="6.2127">
        <ele>496.66</ele>
        <time>2025-11-13T11:44:10Z</time>
      </trkpt>
      <trkpt lat="43.77141" lon="6.21272">
        <ele>496.66</ele>
        <time>2025-11-13T11:44:19Z</time>
      </trkpt>
      <trkpt lat="43.7714" lon="6.21274">
        <ele>496.66</ele>
        <time>2025-11-13T11:44:36Z</time>
      </trkpt>
      <trkpt lat="43.7714" lon="6.21275">
        <ele>496.66</ele>
        <time>2025-11-13T11:44:37Z</time>
      </trkpt>
      <trkpt lat="43.77139" lon="6.21277">
        <ele>496.66</ele>
        <time>2025-11-13T11:44:38Z</time>
      </trkpt>
      <trkpt lat="43.77138" lon="6.21281">
        <ele>496.66</ele>
        <time>2025-11-13T11:44:39Z</time>
      </trkpt>
      <trkpt lat="43.77136" lon="6.21286">
        <ele>496.66</ele>
        <time>2025-11-13T11:44:40Z</time>
      </trkpt>
      <trkpt lat="43.77135" lon="6.21291">
        <ele>496.66</ele>
        <time>2025-11-13T11:44:41Z</time>
      </trkpt>
      <trkpt lat="43.77134" lon="6.21295">
        <ele>496.66</ele>
        <time>2025-11-13T11:44:42Z</time>
      </trkpt>
      <trkpt lat="43.77133" lon="6.213">
        <ele>496.66</ele>
        <time>2025-11-13T11:44:43Z</time>
      </trkpt>
      <trkpt lat="43.77132" lon="6.21306">
        <ele>496.66</ele>
        <time>2025-11-13T11:44:44Z</time>
      </trkpt>
      <trkpt lat="43.77132" lon="6.21311">
        <ele>496.66</ele>
        <time>2025-11-13T11:44:45Z</time>
      </trkpt>
      <trkpt lat="43.77132" lon="6.21317">
        <ele>496.66</ele>
        <time>2025-11-13T11:44:46Z</time>
      </trkpt>
      <trkpt lat="43.77133" lon="6.21322">
        <ele>496.66</ele>
        <time>2025-11-13T11:44:47Z</time>
      </trkpt>
      <trkpt lat="43.77145" lon="6.21373">
        <ele>496.66</ele>
        <time>2025-11-13T11:44:58Z</time>
      </trkpt>
      <trkpt lat="43.77159" lon="6.21424">
        <ele>497.14</ele>
        <time>2025-11-13T11:45:10Z</time>
      </trkpt>
      <trkpt lat="43.77175" lon="6.21469">
        <ele>497.62</ele>
        <time>2025-11-13T11:45:23Z</time>
      </trkpt>
      <trkpt lat="43.77197" lon="6.21529">
        <ele>497.62</ele>
        <time>2025-11-13T11:45:37Z</time>
      </trkpt>
      <trkpt lat="43.77226" lon="6.21584">
        <ele>498.1</ele>
        <time>2025-11-13T11:45:51Z</time>
      </trkpt>
      <trkpt lat="43.77251" lon="6.21634">
        <ele>499.54</ele>
        <time>2025-11-13T11:46:03Z</time>
      </trkpt>
      <trkpt lat="43.77286" lon="6.21687">
        <ele>501.95</ele>
        <time>2025-11-13T11:46:18Z</time>
      </trkpt>
      <trkpt lat="43.77308" lon="6.21721">
        <ele>503.39</ele>
        <time>2025-11-13T11:46:30Z</time>
      </trkpt>
      <trkpt lat="43.77309" lon="6.21721">
        <ele>503.87</ele>
        <time>2025-11-13T11:46:31Z</time>
      </trkpt>
      <trkpt lat="43.7731" lon="6.21722">
        <ele>503.87</ele>
        <time>2025-11-13T11:46:32Z</time>
      </trkpt>
      <trkpt lat="43.77312" lon="6.21723">
        <ele>503.87</ele>
        <time>2025-11-13T11:46:33Z</time>
      </trkpt>
      <trkpt lat="43.77313" lon="6.21724">
        <ele>503.87</ele>
        <time>2025-11-13T11:46:34Z</time>
      </trkpt>
      <trkpt lat="43.77315" lon="6.21725">
        <ele>503.87</ele>
        <time>2025-11-13T11:46:35Z</time>
      </trkpt>
      <trkpt lat="43.77317" lon="6.21727">
        <ele>503.87</ele>
        <time>2025-11-13T11:46:36Z</time>
      </trkpt>
      <trkpt lat="43.77346" lon="6.2175">
        <ele>503.87</ele>
        <time>2025-11-13T11:46:45Z</time>
      </trkpt>
      <trkpt lat="43.77349" lon="6.21753">
        <ele>503.87</ele>
        <time>2025-11-13T11:46:46Z</time>
      </trkpt>
      <trkpt lat="43.77353" lon="6.21758">
        <ele>502.91</ele>
        <time>2025-11-13T11:46:47Z</time>
      </trkpt>
      <trkpt lat="43.77377" lon="6.21801">
        <ele>502.91</ele>
        <time>2025-11-13T11:46:58Z</time>
      </trkpt>
      <trkpt lat="43.77381" lon="6.21833">
        <ele>502.91</ele>
        <time>2025-11-13T11:47:08Z</time>
      </trkpt>
      <trkpt lat="43.77382" lon="6.21834">
        <ele>502.91</ele>
        <time>2025-11-13T11:47:09Z</time>
      </trkpt>
      <trkpt lat="43.77382" lon="6.21836">
        <ele>502.91</ele>
        <time>2025-11-13T11:47:10Z</time>
      </trkpt>
      <trkpt lat="43.77382" lon="6.21839">
        <ele>502.91</ele>
        <time>2025-11-13T11:47:11Z</time>
      </trkpt>
      <trkpt lat="43.77396" lon="6.21884">
        <ele>503.87</ele>
        <time>2025-11-13T11:47:23Z</time>
      </trkpt>
      <trkpt lat="43.77417" lon="6.21946">
        <ele>506.75</ele>
        <time>2025-11-13T11:47:37Z</time>
      </trkpt>
      <trkpt lat="43.77469" lon="6.21978">
        <ele>509.64</ele>
        <time>2025-11-13T11:47:52Z</time>
      </trkpt>
      <trkpt lat="43.7751" lon="6.21984">
        <ele>511.56</ele>
        <time>2025-11-13T11:48:04Z</time>
      </trkpt>
      <trkpt lat="43.77541" lon="6.21964">
        <ele>513</ele>
        <time>2025-11-13T11:48:14Z</time>
      </trkpt>
      <trkpt lat="43.77563" lon="6.21919">
        <ele>514.92</ele>
        <time>2025-11-13T11:48:25Z</time>
      </trkpt>
      <trkpt lat="43.77588" lon="6.21893">
        <ele>516.37</ele>
        <time>2025-11-13T11:48:35Z</time>
      </trkpt>
      <trkpt lat="43.77628" lon="6.21907">
        <ele>518.29</ele>
        <time>2025-11-13T11:48:47Z</time>
      </trkpt>
      <trkpt lat="43.77662" lon="6.21907">
        <ele>520.21</ele>
        <time>2025-11-13T11:48:57Z</time>
      </trkpt>
      <trkpt lat="43.77696" lon="6.21884">
        <ele>522.13</ele>
        <time>2025-11-13T11:49:08Z</time>
      </trkpt>
      <trkpt lat="43.77713" lon="6.21842">
        <ele>523.58</ele>
        <time>2025-11-13T11:49:18Z</time>
      </trkpt>
      <trkpt lat="43.77724" lon="6.21812">
        <ele>525.5</ele>
        <time>2025-11-13T11:49:25Z</time>
      </trkpt>
      <trkpt lat="43.7775" lon="6.21801">
        <ele>526.46</ele>
        <time>2025-11-13T11:49:33Z</time>
      </trkpt>
      <trkpt lat="43.77794" lon="6.21804">
        <ele>527.9</ele>
        <time>2025-11-13T11:49:45Z</time>
      </trkpt>
      <trkpt lat="43.77827" lon="6.21803">
        <ele>529.82</ele>
        <time>2025-11-13T11:49:55Z</time>
      </trkpt>
      <trkpt lat="43.77861" lon="6.2178">
        <ele>531.27</ele>
        <time>2025-11-13T11:50:06Z</time>
      </trkpt>
      <trkpt lat="43.77886" lon="6.21782">
        <ele>532.23</ele>
        <time>2025-11-13T11:50:14Z</time>
      </trkpt>
      <trkpt lat="43.77884" lon="6.21812">
        <ele>533.67</ele>
        <time>2025-11-13T11:50:21Z</time>
      </trkpt>
      <trkpt lat="43.77861" lon="6.21822">
        <ele>535.11</ele>
        <time>2025-11-13T11:50:29Z</time>
      </trkpt>
      <trkpt lat="43.7783" lon="6.21831">
        <ele>537.03</ele>
        <time>2025-11-13T11:50:39Z</time>
      </trkpt>
      <trkpt lat="43.77801" lon="6.21877">
        <ele>540.4</ele>
        <time>2025-11-13T11:50:52Z</time>
      </trkpt>
      <trkpt lat="43.77773" lon="6.21912">
        <ele>542.8</ele>
        <time>2025-11-13T11:51:03Z</time>
      </trkpt>
      <trkpt lat="43.7775" lon="6.21959">
        <ele>545.2</ele>
        <time>2025-11-13T11:51:15Z</time>
      </trkpt>
      <trkpt lat="43.77732" lon="6.22008">
        <ele>548.09</ele>
        <time>2025-11-13T11:51:28Z</time>
      </trkpt>
      <trkpt lat="43.77707" lon="6.22054">
        <ele>550.97</ele>
        <time>2025-11-13T11:51:41Z</time>
      </trkpt>
      <trkpt lat="43.77675" lon="6.22091">
        <ele>553.86</ele>
        <time>2025-11-13T11:51:54Z</time>
      </trkpt>
      <trkpt lat="43.77655" lon="6.22121">
        <ele>555.78</ele>
        <time>2025-11-13T11:52:04Z</time>
      </trkpt>
      <trkpt lat="43.77656" lon="6.22163">
        <ele>558.18</ele>
        <time>2025-11-13T11:52:14Z</time>
      </trkpt>
      <trkpt lat="43.77678" lon="6.22197">
        <ele>560.11</ele>
        <time>2025-11-13T11:52:25Z</time>
      </trkpt>
      <trkpt lat="43.77705" lon="6.22228">
        <ele>562.51</ele>
        <time>2025-11-13T11:52:37Z</time>
      </trkpt>
      <trkpt lat="43.77733" lon="6.22272">
        <ele>564.91</ele>
        <time>2025-11-13T11:52:51Z</time>
      </trkpt>
      <trkpt lat="43.77846" lon="6.22496">
        <ele>576.45</ele>
        <time>2025-11-13T11:53:58Z</time>
      </trkpt>
      <trkpt lat="43.77848" lon="6.22499">
        <ele>576.45</ele>
        <time>2025-11-13T11:53:59Z</time>
      </trkpt>
      <trkpt lat="43.7786" lon="6.22535">
        <ele>578.85</ele>
        <time>2025-11-13T11:54:09Z</time>
      </trkpt>
      <trkpt lat="43.77861" lon="6.22563">
        <ele>581.25</ele>
        <time>2025-11-13T11:54:16Z</time>
      </trkpt>
      <trkpt lat="43.77865" lon="6.22613">
        <ele>582.7</ele>
        <time>2025-11-13T11:54:28Z</time>
      </trkpt>
      <trkpt lat="43.77878" lon="6.22659">
        <ele>585.1</ele>
        <time>2025-11-13T11:54:40Z</time>
      </trkpt>
      <trkpt lat="43.77878" lon="6.22709">
        <ele>587.5</ele>
        <time>2025-11-13T11:54:52Z</time>
      </trkpt>
      <trkpt lat="43.77888" lon="6.22753">
        <ele>588.95</ele>
        <time>2025-11-13T11:55:03Z</time>
      </trkpt>
      <trkpt lat="43.77922" lon="6.22797">
        <ele>590.87</ele>
        <time>2025-11-13T11:55:18Z</time>
      </trkpt>
      <trkpt lat="43.77933" lon="6.22835">
        <ele>591.83</ele>
        <time>2025-11-13T11:55:28Z</time>
      </trkpt>
      <trkpt lat="43.77948" lon="6.2288">
        <ele>593.27</ele>
        <time>2025-11-13T11:55:40Z</time>
      </trkpt>
      <trkpt lat="43.77981" lon="6.22901">
        <ele>594.23</ele>
        <time>2025-11-13T11:55:51Z</time>
      </trkpt>
      <trkpt lat="43.78018" lon="6.22911">
        <ele>595.67</ele>
        <time>2025-11-13T11:56:03Z</time>
      </trkpt>
      <trkpt lat="43.7806" lon="6.2291">
        <ele>596.15</ele>
        <time>2025-11-13T11:56:16Z</time>
      </trkpt>
      <trkpt lat="43.78091" lon="6.22925">
        <ele>596.64</ele>
        <time>2025-11-13T11:56:26Z</time>
      </trkpt>
      <trkpt lat="43.78127" lon="6.22932">
        <ele>598.08</ele>
        <time>2025-11-13T11:56:38Z</time>
      </trkpt>
      <trkpt lat="43.78159" lon="6.22924">
        <ele>600</ele>
        <time>2025-11-13T11:56:49Z</time>
      </trkpt>
      <trkpt lat="43.78176" lon="6.22937">
        <ele>600.48</ele>
        <time>2025-11-13T11:56:56Z</time>
      </trkpt>
      <trkpt lat="43.78168" lon="6.22973">
        <ele>602.4</ele>
        <time>2025-11-13T11:57:05Z</time>
      </trkpt>
      <trkpt lat="43.78134" lon="6.23019">
        <ele>604.81</ele>
        <time>2025-11-13T11:57:21Z</time>
      </trkpt>
      <trkpt lat="43.78106" lon="6.23059">
        <ele>606.73</ele>
        <time>2025-11-13T11:57:34Z</time>
      </trkpt>
      <trkpt lat="43.78079" lon="6.23084">
        <ele>608.17</ele>
        <time>2025-11-13T11:57:45Z</time>
      </trkpt>
      <trkpt lat="43.78054" lon="6.2311">
        <ele>609.61</ele>
        <time>2025-11-13T11:57:56Z</time>
      </trkpt>
      <trkpt lat="43.78052" lon="6.23139">
        <ele>610.09</ele>
        <time>2025-11-13T11:58:05Z</time>
      </trkpt>
      <trkpt lat="43.78056" lon="6.23145">
        <ele>610.57</ele>
        <time>2025-11-13T11:58:15Z</time>
      </trkpt>
      <trkpt lat="43.78057" lon="6.23145">
        <ele>610.57</ele>
        <time>2025-11-13T11:58:30Z</time>
      </trkpt>
      <trkpt lat="43.78055" lon="6.23144">
        <ele>610.57</ele>
        <time>2025-11-13T11:58:58Z</time>
      </trkpt>
      <trkpt lat="43.78054" lon="6.23145">
        <ele>610.57</ele>
        <time>2025-11-13T11:59:21Z</time>
      </trkpt>
      <trkpt lat="43.78057" lon="6.23145">
        <ele>611.06</ele>
        <time>2025-11-13T11:59:49Z</time>
      </trkpt>
      <trkpt lat="43.78058" lon="6.23145">
        <ele>611.06</ele>
        <time>2025-11-13T12:00:21Z</time>
      </trkpt>
      <trkpt lat="43.78058" lon="6.23147">
        <ele>611.06</ele>
        <time>2025-11-13T12:00:35Z</time>
      </trkpt>
      <trkpt lat="43.78058" lon="6.23146">
        <ele>611.06</ele>
        <time>2025-11-13T12:00:46Z</time>
      </trkpt>
      <trkpt lat="43.7806" lon="6.23147">
        <ele>611.06</ele>
        <time>2025-11-13T12:00:47Z</time>
      </trkpt>
      <trkpt lat="43.78061" lon="6.23147">
        <ele>611.06</ele>
        <time>2025-11-13T12:00:48Z</time>
      </trkpt>
      <trkpt lat="43.78063" lon="6.23148">
        <ele>611.06</ele>
        <time>2025-11-13T12:00:49Z</time>
      </trkpt>
      <trkpt lat="43.78066" lon="6.23149">
        <ele>611.06</ele>
        <time>2025-11-13T12:00:50Z</time>
      </trkpt>
      <trkpt lat="43.78068" lon="6.23149">
        <ele>611.06</ele>
        <time>2025-11-13T12:00:51Z</time>
      </trkpt>
      <trkpt lat="43.78071" lon="6.23149">
        <ele>611.06</ele>
        <time>2025-11-13T12:00:52Z</time>
      </trkpt>
      <trkpt lat="43.78074" lon="6.23149">
        <ele>611.06</ele>
        <time>2025-11-13T12:00:53Z</time>
      </trkpt>
      <trkpt lat="43.78077" lon="6.23149">
        <ele>611.06</ele>
        <time>2025-11-13T12:00:54Z</time>
      </trkpt>
      <trkpt lat="43.78104" lon="6.23168">
        <ele>612.5</ele>
        <time>2025-11-13T12:01:04Z</time>
      </trkpt>
      <trkpt lat="43.78119" lon="6.23196">
        <ele>612.98</ele>
        <time>2025-11-13T12:01:16Z</time>
      </trkpt>
      <trkpt lat="43.78119" lon="6.23196">
        <ele>612.98</ele>
        <time>2025-11-13T12:01:28Z</time>
      </trkpt>
      <trkpt lat="43.78121" lon="6.23194">
        <ele>612.98</ele>
        <time>2025-11-13T12:01:55Z</time>
      </trkpt>
      <trkpt lat="43.78119" lon="6.23195">
        <ele>612.98</ele>
        <time>2025-11-13T12:02:16Z</time>
      </trkpt>
      <trkpt lat="43.78119" lon="6.23196">
        <ele>612.98</ele>
        <time>2025-11-13T12:02:39Z</time>
      </trkpt>
      <trkpt lat="43.78117" lon="6.23195">
        <ele>613.46</ele>
        <time>2025-11-13T12:03:04Z</time>
      </trkpt>
      <trkpt lat="43.78118" lon="6.23196">
        <ele>613.46</ele>
        <time>2025-11-13T12:03:30Z</time>
      </trkpt>
      <trkpt lat="43.78119" lon="6.23197">
        <ele>613.46</ele>
        <time>2025-11-13T12:04:04Z</time>
      </trkpt>
      <trkpt lat="43.78118" lon="6.23198">
        <ele>613.46</ele>
        <time>2025-11-13T12:04:31Z</time>
      </trkpt>
      <trkpt lat="43.7812" lon="6.23196">
        <ele>613.46</ele>
        <time>2025-11-13T12:04:55Z</time>
      </trkpt>
      <trkpt lat="43.7812" lon="6.23197">
        <ele>613.46</ele>
        <time>2025-11-13T12:05:20Z</time>
      </trkpt>
      <trkpt lat="43.78118" lon="6.23198">
        <ele>613.94</ele>
        <time>2025-11-13T12:05:48Z</time>
      </trkpt>
      <trkpt lat="43.78117" lon="6.23197">
        <ele>613.94</ele>
        <time>2025-11-13T12:06:13Z</time>
      </trkpt>
      <trkpt lat="43.78119" lon="6.23195">
        <ele>613.94</ele>
        <time>2025-11-13T12:06:32Z</time>
      </trkpt>
      <trkpt lat="43.7812" lon="6.23196">
        <ele>613.94</ele>
        <time>2025-11-13T12:06:58Z</time>
      </trkpt>
      <trkpt lat="43.78119" lon="6.23196">
        <ele>613.94</ele>
        <time>2025-11-13T12:07:19Z</time>
      </trkpt>
      <trkpt lat="43.78118" lon="6.23197">
        <ele>613.94</ele>
        <time>2025-11-13T12:07:46Z</time>
      </trkpt>
      <trkpt lat="43.78119" lon="6.23197">
        <ele>613.94</ele>
        <time>2025-11-13T12:08:07Z</time>
      </trkpt>
      <trkpt lat="43.78119" lon="6.23197">
        <ele>613.94</ele>
        <time>2025-11-13T12:08:26Z</time>
      </trkpt>
      <trkpt lat="43.78119" lon="6.23197">
        <ele>613.94</ele>
        <time>2025-11-13T12:08:49Z</time>
      </trkpt>
      <trkpt lat="43.7812" lon="6.23196">
        <ele>613.94</ele>
        <time>2025-11-13T12:09:13Z</time>
      </trkpt>
      <trkpt lat="43.78119" lon="6.23195">
        <ele>614.42</ele>
        <time>2025-11-13T12:09:38Z</time>
      </trkpt>
      <trkpt lat="43.7812" lon="6.23196">
        <ele>614.42</ele>
        <time>2025-11-13T12:09:59Z</time>
      </trkpt>
      <trkpt lat="43.78119" lon="6.23198">
        <ele>614.42</ele>
        <time>2025-11-13T12:10:27Z</time>
      </trkpt>
      <trkpt lat="43.7812" lon="6.23197">
        <ele>614.42</ele>
        <time>2025-11-13T12:11:00Z</time>
      </trkpt>
      <trkpt lat="43.78119" lon="6.23199">
        <ele>614.42</ele>
        <time>2025-11-13T12:11:28Z</time>
      </trkpt>
      <trkpt lat="43.78119" lon="6.23196">
        <ele>614.42</ele>
        <time>2025-11-13T12:11:56Z</time>
      </trkpt>
      <trkpt lat="43.78121" lon="6.23197">
        <ele>614.42</ele>
        <time>2025-11-13T12:12:18Z</time>
      </trkpt>
      <trkpt lat="43.78122" lon="6.23196">
        <ele>613.94</ele>
        <time>2025-11-13T12:12:44Z</time>
      </trkpt>
      <trkpt lat="43.78121" lon="6.23197">
        <ele>613.94</ele>
        <time>2025-11-13T12:13:06Z</time>
      </trkpt>
      <trkpt lat="43.78121" lon="6.23197">
        <ele>612.98</ele>
        <time>2025-11-13T12:13:26Z</time>
      </trkpt>
      <trkpt lat="43.78127" lon="6.23205">
        <ele>612.98</ele>
        <time>2025-11-13T12:13:38Z</time>
      </trkpt>
      <trkpt lat="43.78136" lon="6.2323">
        <ele>613.94</ele>
        <time>2025-11-13T12:13:46Z</time>
      </trkpt>
      <trkpt lat="43.7814" lon="6.23276">
        <ele>614.9</ele>
        <time>2025-11-13T12:13:58Z</time>
      </trkpt>
      <trkpt lat="43.78135" lon="6.23283">
        <ele>615.38</ele>
        <time>2025-11-13T12:14:01Z</time>
      </trkpt>
      <trkpt lat="43.78131" lon="6.23285">
        <ele>615.38</ele>
        <time>2025-11-13T12:14:02Z</time>
      </trkpt>
      <trkpt lat="43.78105" lon="6.23273">
        <ele>617.78</ele>
        <time>2025-11-13T12:14:12Z</time>
      </trkpt>
      <trkpt lat="43.78095" lon="6.23227">
        <ele>619.23</ele>
        <time>2025-11-13T12:14:23Z</time>
      </trkpt>
      <trkpt lat="43.78074" lon="6.23192">
        <ele>621.63</ele>
        <time>2025-11-13T12:14:34Z</time>
      </trkpt>
      <trkpt lat="43.78048" lon="6.23206">
        <ele>623.07</ele>
        <time>2025-11-13T12:14:43Z</time>
      </trkpt>
      <trkpt lat="43.78026" lon="6.23244">
        <ele>624.03</ele>
        <time>2025-11-13T12:14:53Z</time>
      </trkpt>
      <trkpt lat="43.78019" lon="6.23245">
        <ele>624.99</ele>
        <time>2025-11-13T12:14:55Z</time>
      </trkpt>
      <trkpt lat="43.77977" lon="6.23239">
        <ele>627.88</ele>
        <time>2025-11-13T12:15:07Z</time>
      </trkpt>
      <trkpt lat="43.77956" lon="6.23265">
        <ele>628.84</ele>
        <time>2025-11-13T12:15:15Z</time>
      </trkpt>
      <trkpt lat="43.77916" lon="6.23326">
        <ele>631.72</ele>
        <time>2025-11-13T12:15:31Z</time>
      </trkpt>
      <trkpt lat="43.77894" lon="6.23318">
        <ele>633.17</ele>
        <time>2025-11-13T12:15:38Z</time>
      </trkpt>
      <trkpt lat="43.77888" lon="6.23281">
        <ele>635.09</ele>
        <time>2025-11-13T12:15:46Z</time>
      </trkpt>
      <trkpt lat="43.77871" lon="6.23256">
        <ele>637.01</ele>
        <time>2025-11-13T12:15:54Z</time>
      </trkpt>
      <trkpt lat="43.77835" lon="6.23255">
        <ele>638.45</ele>
        <time>2025-11-13T12:16:06Z</time>
      </trkpt>
      <trkpt lat="43.77806" lon="6.23252">
        <ele>639.89</ele>
        <time>2025-11-13T12:16:18Z</time>
      </trkpt>
      <trkpt lat="43.77773" lon="6.2325">
        <ele>641.34</ele>
        <time>2025-11-13T12:16:32Z</time>
      </trkpt>
      <trkpt lat="43.77754" lon="6.23274">
        <ele>643.26</ele>
        <time>2025-11-13T12:16:43Z</time>
      </trkpt>
      <trkpt lat="43.77748" lon="6.2332">
        <ele>645.18</ele>
        <time>2025-11-13T12:16:56Z</time>
      </trkpt>
      <trkpt lat="43.77728" lon="6.23338">
        <ele>645.66</ele>
        <time>2025-11-13T12:17:06Z</time>
      </trkpt>
      <trkpt lat="43.7771" lon="6.23322">
        <ele>647.59</ele>
        <time>2025-11-13T12:17:15Z</time>
      </trkpt>
      <trkpt lat="43.77685" lon="6.23285">
        <ele>650.95</ele>
        <time>2025-11-13T12:17:28Z</time>
      </trkpt>
      <trkpt lat="43.77683" lon="6.23282">
        <ele>650.95</ele>
        <time>2025-11-13T12:17:29Z</time>
      </trkpt>
      <trkpt lat="43.77654" lon="6.23263">
        <ele>651.91</ele>
        <time>2025-11-13T12:17:41Z</time>
      </trkpt>
      <trkpt lat="43.77614" lon="6.23274">
        <ele>654.31</ele>
        <time>2025-11-13T12:17:55Z</time>
      </trkpt>
      <trkpt lat="43.77582" lon="6.23286">
        <ele>656.24</ele>
        <time>2025-11-13T12:18:07Z</time>
      </trkpt>
      <trkpt lat="43.77543" lon="6.23304">
        <ele>658.64</ele>
        <time>2025-11-13T12:18:21Z</time>
      </trkpt>
      <trkpt lat="43.77508" lon="6.23335">
        <ele>660.56</ele>
        <time>2025-11-13T12:18:36Z</time>
      </trkpt>
      <trkpt lat="43.77477" lon="6.23348">
        <ele>662.49</ele>
        <time>2025-11-13T12:18:48Z</time>
      </trkpt>
      <trkpt lat="43.77445" lon="6.23345">
        <ele>663.93</ele>
        <time>2025-11-13T12:19:00Z</time>
      </trkpt>
      <trkpt lat="43.77411" lon="6.23327">
        <ele>665.85</ele>
        <time>2025-11-13T12:19:14Z</time>
      </trkpt>
      <trkpt lat="43.77382" lon="6.23309">
        <ele>667.77</ele>
        <time>2025-11-13T12:19:27Z</time>
      </trkpt>
      <trkpt lat="43.77356" lon="6.23283">
        <ele>669.22</ele>
        <time>2025-11-13T12:19:40Z</time>
      </trkpt>
      <trkpt lat="43.7734" lon="6.23237">
        <ele>671.62</ele>
        <time>2025-11-13T12:19:55Z</time>
      </trkpt>
      <trkpt lat="43.77321" lon="6.2321">
        <ele>673.06</ele>
        <time>2025-11-13T12:20:06Z</time>
      </trkpt>
      <trkpt lat="43.77299" lon="6.23215">
        <ele>674.98</ele>
        <time>2025-11-13T12:20:16Z</time>
      </trkpt>
      <trkpt lat="43.77293" lon="6.23244">
        <ele>675.94</ele>
        <time>2025-11-13T12:20:25Z</time>
      </trkpt>
      <trkpt lat="43.77304" lon="6.23282">
        <ele>677.39</ele>
        <time>2025-11-13T12:20:36Z</time>
      </trkpt>
      <trkpt lat="43.77309" lon="6.2333">
        <ele>679.31</ele>
        <time>2025-11-13T12:20:50Z</time>
      </trkpt>
      <trkpt lat="43.77323" lon="6.23368">
        <ele>681.23</ele>
        <time>2025-11-13T12:21:01Z</time>
      </trkpt>
      <trkpt lat="43.77343" lon="6.23408">
        <ele>683.15</ele>
        <time>2025-11-13T12:21:14Z</time>
      </trkpt>
      <trkpt lat="43.77365" lon="6.23451">
        <ele>685.08</ele>
        <time>2025-11-13T12:21:28Z</time>
      </trkpt>
      <trkpt lat="43.77383" lon="6.23503">
        <ele>687.96</ele>
        <time>2025-11-13T12:21:43Z</time>
      </trkpt>
      <trkpt lat="43.77403" lon="6.2355">
        <ele>689.88</ele>
        <time>2025-11-13T12:21:57Z</time>
      </trkpt>
      <trkpt lat="43.77429" lon="6.23594">
        <ele>692.29</ele>
        <time>2025-11-13T12:22:11Z</time>
      </trkpt>
      <trkpt lat="43.7745" lon="6.23631">
        <ele>693.73</ele>
        <time>2025-11-13T12:22:23Z</time>
      </trkpt>
      <trkpt lat="43.77468" lon="6.23656">
        <ele>695.65</ele>
        <time>2025-11-13T12:22:33Z</time>
      </trkpt>
      <trkpt lat="43.77493" lon="6.23652">
        <ele>697.57</ele>
        <time>2025-11-13T12:22:42Z</time>
      </trkpt>
      <trkpt lat="43.77524" lon="6.23627">
        <ele>698.53</ele>
        <time>2025-11-13T12:22:53Z</time>
      </trkpt>
      <trkpt lat="43.77539" lon="6.23644">
        <ele>699.98</ele>
        <time>2025-11-13T12:23:00Z</time>
      </trkpt>
      <trkpt lat="43.7753" lon="6.23668">
        <ele>700.46</ele>
        <time>2025-11-13T12:23:07Z</time>
      </trkpt>
      <trkpt lat="43.77496" lon="6.23687">
        <ele>702.86</ele>
        <time>2025-11-13T12:23:19Z</time>
      </trkpt>
      <trkpt lat="43.77462" lon="6.23697">
        <ele>704.3</ele>
        <time>2025-11-13T12:23:30Z</time>
      </trkpt>
      <trkpt lat="43.77439" lon="6.23675">
        <ele>705.26</ele>
        <time>2025-11-13T12:23:39Z</time>
      </trkpt>
      <trkpt lat="43.7741" lon="6.23649">
        <ele>707.67</ele>
        <time>2025-11-13T12:23:50Z</time>
      </trkpt>
      <trkpt lat="43.77376" lon="6.2361">
        <ele>709.59</ele>
        <time>2025-11-13T12:24:04Z</time>
      </trkpt>
      <trkpt lat="43.7736" lon="6.2356">
        <ele>711.51</ele>
        <time>2025-11-13T12:24:17Z</time>
      </trkpt>
      <trkpt lat="43.77336" lon="6.2353">
        <ele>714.4</ele>
        <time>2025-11-13T12:24:28Z</time>
      </trkpt>
      <trkpt lat="43.77311" lon="6.2355">
        <ele>715.36</ele>
        <time>2025-11-13T12:24:37Z</time>
      </trkpt>
      <trkpt lat="43.77277" lon="6.2359">
        <ele>717.76</ele>
        <time>2025-11-13T12:24:51Z</time>
      </trkpt>
      <trkpt lat="43.77238" lon="6.23604">
        <ele>720.16</ele>
        <time>2025-11-13T12:25:04Z</time>
      </trkpt>
      <trkpt lat="43.77203" lon="6.23622">
        <ele>722.09</ele>
        <time>2025-11-13T12:25:18Z</time>
      </trkpt>
      <trkpt lat="43.77171" lon="6.23657">
        <ele>724.97</ele>
        <time>2025-11-13T12:25:33Z</time>
      </trkpt>
      <trkpt lat="43.77145" lon="6.23694">
        <ele>727.86</ele>
        <time>2025-11-13T12:25:47Z</time>
      </trkpt>
      <trkpt lat="43.77143" lon="6.23736">
        <ele>729.78</ele>
        <time>2025-11-13T12:25:58Z</time>
      </trkpt>
      <trkpt lat="43.77148" lon="6.23803">
        <ele>732.66</ele>
        <time>2025-11-13T12:26:15Z</time>
      </trkpt>
      <trkpt lat="43.77168" lon="6.23838">
        <ele>734.58</ele>
        <time>2025-11-13T12:26:26Z</time>
      </trkpt>
      <trkpt lat="43.77196" lon="6.23856">
        <ele>736.51</ele>
        <time>2025-11-13T12:26:36Z</time>
      </trkpt>
      <trkpt lat="43.77235" lon="6.23879">
        <ele>738.43</ele>
        <time>2025-11-13T12:26:50Z</time>
      </trkpt>
      <trkpt lat="43.77271" lon="6.23888">
        <ele>740.35</ele>
        <time>2025-11-13T12:27:02Z</time>
      </trkpt>
      <trkpt lat="43.77309" lon="6.23893">
        <ele>742.28</ele>
        <time>2025-11-13T12:27:15Z</time>
      </trkpt>
      <trkpt lat="43.77342" lon="6.23888">
        <ele>743.72</ele>
        <time>2025-11-13T12:27:26Z</time>
      </trkpt>
      <trkpt lat="43.77369" lon="6.23862">
        <ele>745.64</ele>
        <time>2025-11-13T12:27:37Z</time>
      </trkpt>
      <trkpt lat="43.77374" lon="6.23827">
        <ele>747.08</ele>
        <time>2025-11-13T12:27:46Z</time>
      </trkpt>
      <trkpt lat="43.77372" lon="6.23778">
        <ele>747.56</ele>
        <time>2025-11-13T12:27:58Z</time>
      </trkpt>
      <trkpt lat="43.7739" lon="6.23772">
        <ele>749</ele>
        <time>2025-11-13T12:28:05Z</time>
      </trkpt>
      <trkpt lat="43.77392" lon="6.23774">
        <ele>749</ele>
        <time>2025-11-13T12:28:06Z</time>
      </trkpt>
      <trkpt lat="43.77394" lon="6.23778">
        <ele>749</ele>
        <time>2025-11-13T12:28:07Z</time>
      </trkpt>
      <trkpt lat="43.77403" lon="6.2382">
        <ele>750.93</ele>
        <time>2025-11-13T12:28:18Z</time>
      </trkpt>
      <trkpt lat="43.77421" lon="6.23867">
        <ele>753.33</ele>
        <time>2025-11-13T12:28:31Z</time>
      </trkpt>
      <trkpt lat="43.77438" lon="6.23907">
        <ele>755.73</ele>
        <time>2025-11-13T12:28:44Z</time>
      </trkpt>
      <trkpt lat="43.77453" lon="6.23942">
        <ele>759.1</ele>
        <time>2025-11-13T12:28:56Z</time>
      </trkpt>
      <trkpt lat="43.77478" lon="6.23966">
        <ele>761.5</ele>
        <time>2025-11-13T12:29:08Z</time>
      </trkpt>
      <trkpt lat="43.77496" lon="6.2398">
        <ele>763.42</ele>
        <time>2025-11-13T12:29:18Z</time>
      </trkpt>
      <trkpt lat="43.775" lon="6.2398">
        <ele>763.9</ele>
        <time>2025-11-13T12:29:21Z</time>
      </trkpt>
      <trkpt lat="43.77502" lon="6.2398">
        <ele>763.9</ele>
        <time>2025-11-13T12:29:22Z</time>
      </trkpt>
      <trkpt lat="43.77503" lon="6.23978">
        <ele>763.9</ele>
        <time>2025-11-13T12:29:23Z</time>
      </trkpt>
      <trkpt lat="43.77505" lon="6.23977">
        <ele>763.9</ele>
        <time>2025-11-13T12:29:24Z</time>
      </trkpt>
      <trkpt lat="43.77505" lon="6.23974">
        <ele>763.9</ele>
        <time>2025-11-13T12:29:26Z</time>
      </trkpt>
      <trkpt lat="43.77506" lon="6.23972">
        <ele>763.9</ele>
        <time>2025-11-13T12:29:27Z</time>
      </trkpt>
      <trkpt lat="43.77507" lon="6.23963">
        <ele>763.9</ele>
        <time>2025-11-13T12:29:36Z</time>
      </trkpt>
      <trkpt lat="43.77506" lon="6.2396">
        <ele>763.9</ele>
        <time>2025-11-13T12:30:03Z</time>
      </trkpt>
      <trkpt lat="43.77508" lon="6.23963">
        <ele>763.9</ele>
        <time>2025-11-13T12:30:22Z</time>
      </trkpt>
      <trkpt lat="43.77509" lon="6.23963">
        <ele>763.9</ele>
        <time>2025-11-13T12:30:36Z</time>
      </trkpt>
      <trkpt lat="43.7751" lon="6.23964">
        <ele>763.9</ele>
        <time>2025-11-13T12:30:59Z</time>
      </trkpt>
      <trkpt lat="43.77509" lon="6.23963">
        <ele>763.9</ele>
        <time>2025-11-13T12:31:21Z</time>
      </trkpt>
      <trkpt lat="43.77508" lon="6.23964">
        <ele>763.9</ele>
        <time>2025-11-13T12:31:40Z</time>
      </trkpt>
      <trkpt lat="43.77506" lon="6.23964">
        <ele>763.9</ele>
        <time>2025-11-13T12:32:05Z</time>
      </trkpt>
      <trkpt lat="43.77507" lon="6.23964">
        <ele>763.9</ele>
        <time>2025-11-13T12:32:26Z</time>
      </trkpt>
      <trkpt lat="43.77506" lon="6.23967">
        <ele>763.9</ele>
        <time>2025-11-13T12:32:35Z</time>
      </trkpt>
      <trkpt lat="43.77503" lon="6.23989">
        <ele>764.87</ele>
        <time>2025-11-13T12:32:44Z</time>
      </trkpt>
      <trkpt lat="43.77497" lon="6.24032">
        <ele>767.27</ele>
        <time>2025-11-13T12:32:56Z</time>
      </trkpt>
      <trkpt lat="43.77501" lon="6.24072">
        <ele>768.71</ele>
        <time>2025-11-13T12:33:07Z</time>
      </trkpt>
      <trkpt lat="43.77508" lon="6.24101">
        <ele>769.19</ele>
        <time>2025-11-13T12:33:17Z</time>
      </trkpt>
      <trkpt lat="43.77508" lon="6.24103">
        <ele>769.67</ele>
        <time>2025-11-13T12:33:26Z</time>
      </trkpt>
      <trkpt lat="43.77505" lon="6.24111">
        <ele>770.15</ele>
        <time>2025-11-13T12:33:45Z</time>
      </trkpt>
      <trkpt lat="43.77507" lon="6.24107">
        <ele>770.15</ele>
        <time>2025-11-13T12:34:05Z</time>
      </trkpt>
      <trkpt lat="43.77509" lon="6.24108">
        <ele>769.67</ele>
        <time>2025-11-13T12:34:22Z</time>
      </trkpt>
      <trkpt lat="43.7751" lon="6.24109">
        <ele>769.67</ele>
        <time>2025-11-13T12:34:23Z</time>
      </trkpt>
      <trkpt lat="43.77511" lon="6.24111">
        <ele>769.67</ele>
        <time>2025-11-13T12:34:24Z</time>
      </trkpt>
      <trkpt lat="43.77508" lon="6.24138">
        <ele>771.6</ele>
        <time>2025-11-13T12:34:32Z</time>
      </trkpt>
      <trkpt lat="43.77492" lon="6.24188">
        <ele>773.52</ele>
        <time>2025-11-13T12:34:46Z</time>
      </trkpt>
      <trkpt lat="43.77492" lon="6.24246">
        <ele>776.4</ele>
        <time>2025-11-13T12:35:01Z</time>
      </trkpt>
      <trkpt lat="43.77509" lon="6.24271">
        <ele>777.36</ele>
        <time>2025-11-13T12:35:10Z</time>
      </trkpt>
      <trkpt lat="43.77538" lon="6.24274">
        <ele>779.29</ele>
        <time>2025-11-13T12:35:20Z</time>
      </trkpt>
      <trkpt lat="43.77573" lon="6.24271">
        <ele>780.73</ele>
        <time>2025-11-13T12:35:32Z</time>
      </trkpt>
      <trkpt lat="43.77613" lon="6.2425">
        <ele>782.65</ele>
        <time>2025-11-13T12:35:46Z</time>
      </trkpt>
      <trkpt lat="43.77625" lon="6.24244">
        <ele>783.13</ele>
        <time>2025-11-13T12:35:51Z</time>
      </trkpt>
      <trkpt lat="43.77626" lon="6.24242">
        <ele>783.13</ele>
        <time>2025-11-13T12:35:52Z</time>
      </trkpt>
      <trkpt lat="43.77628" lon="6.2424">
        <ele>783.13</ele>
        <time>2025-11-13T12:35:53Z</time>
      </trkpt>
      <trkpt lat="43.7763" lon="6.24239">
        <ele>783.61</ele>
        <time>2025-11-13T12:35:54Z</time>
      </trkpt>
      <trkpt lat="43.77632" lon="6.24239">
        <ele>783.61</ele>
        <time>2025-11-13T12:35:55Z</time>
      </trkpt>
      <trkpt lat="43.77634" lon="6.2424">
        <ele>783.61</ele>
        <time>2025-11-13T12:35:56Z</time>
      </trkpt>
      <trkpt lat="43.77642" lon="6.24242">
        <ele>784.09</ele>
        <time>2025-11-13T12:36:06Z</time>
      </trkpt>
      <trkpt lat="43.77643" lon="6.24241">
        <ele>784.09</ele>
        <time>2025-11-13T12:36:21Z</time>
      </trkpt>
      <trkpt lat="43.77642" lon="6.24243">
        <ele>785.05</ele>
        <time>2025-11-13T12:36:41Z</time>
      </trkpt>
      <trkpt lat="43.77643" lon="6.24242">
        <ele>777.84</ele>
        <time>2025-11-13T12:36:45Z</time>
      </trkpt>
      <trkpt lat="43.77643" lon="6.24242">
        <ele>779.77</ele>
        <time>2025-11-13T12:36:46Z</time>
      </trkpt>
      <trkpt lat="43.77643" lon="6.24242">
        <ele>786.02</ele>
        <time>2025-11-13T12:36:47Z</time>
      </trkpt>
      <trkpt lat="43.77643" lon="6.24242">
        <ele>781.69</ele>
        <time>2025-11-13T12:36:48Z</time>
      </trkpt>
      <trkpt lat="43.77643" lon="6.24242">
        <ele>793.71</ele>
        <time>2025-11-13T12:36:49Z</time>
      </trkpt>
      <trkpt lat="43.77643" lon="6.24242">
        <ele>785.53</ele>
        <time>2025-11-13T12:36:50Z</time>
      </trkpt>
      <trkpt lat="43.77643" lon="6.24241">
        <ele>784.09</ele>
        <time>2025-11-13T12:37:11Z</time>
      </trkpt>
      <trkpt lat="43.77642" lon="6.2424">
        <ele>784.09</ele>
        <time>2025-11-13T12:37:34Z</time>
      </trkpt>
      <trkpt lat="43.77642" lon="6.24243">
        <ele>784.09</ele>
        <time>2025-11-13T12:37:45Z</time>
      </trkpt>
      <trkpt lat="43.77643" lon="6.24244">
        <ele>784.09</ele>
        <time>2025-11-13T12:37:54Z</time>
      </trkpt>
      <trkpt lat="43.77644" lon="6.24245">
        <ele>784.09</ele>
        <time>2025-11-13T12:37:55Z</time>
      </trkpt>
      <trkpt lat="43.77644" lon="6.24246">
        <ele>784.09</ele>
        <time>2025-11-13T12:37:56Z</time>
      </trkpt>
      <trkpt lat="43.77645" lon="6.24248">
        <ele>784.09</ele>
        <time>2025-11-13T12:37:57Z</time>
      </trkpt>
      <trkpt lat="43.77646" lon="6.24249">
        <ele>784.09</ele>
        <time>2025-11-13T12:37:58Z</time>
      </trkpt>
      <trkpt lat="43.77647" lon="6.24252">
        <ele>784.09</ele>
        <time>2025-11-13T12:37:59Z</time>
      </trkpt>
      <trkpt lat="43.77647" lon="6.24254">
        <ele>784.09</ele>
        <time>2025-11-13T12:38:00Z</time>
      </trkpt>
      <trkpt lat="43.77648" lon="6.24257">
        <ele>784.09</ele>
        <time>2025-11-13T12:38:01Z</time>
      </trkpt>
      <trkpt lat="43.77648" lon="6.2426">
        <ele>784.09</ele>
        <time>2025-11-13T12:38:02Z</time>
      </trkpt>
      <trkpt lat="43.7764" lon="6.24281">
        <ele>785.05</ele>
        <time>2025-11-13T12:38:12Z</time>
      </trkpt>
      <trkpt lat="43.77638" lon="6.24283">
        <ele>785.05</ele>
        <time>2025-11-13T12:38:14Z</time>
      </trkpt>
      <trkpt lat="43.77637" lon="6.24283">
        <ele>785.53</ele>
        <time>2025-11-13T12:38:24Z</time>
      </trkpt>
      <trkpt lat="43.77636" lon="6.24286">
        <ele>785.53</ele>
        <time>2025-11-13T12:38:41Z</time>
      </trkpt>
      <trkpt lat="43.77635" lon="6.24287">
        <ele>785.53</ele>
        <time>2025-11-13T12:38:42Z</time>
      </trkpt>
      <trkpt lat="43.77614" lon="6.24298">
        <ele>786.02</ele>
        <time>2025-11-13T12:38:51Z</time>
      </trkpt>
      <trkpt lat="43.77587" lon="6.24311">
        <ele>787.46</ele>
        <time>2025-11-13T12:39:02Z</time>
      </trkpt>
      <trkpt lat="43.77565" lon="6.24317">
        <ele>787.94</ele>
        <time>2025-11-13T12:39:12Z</time>
      </trkpt>
      <trkpt lat="43.77554" lon="6.24322">
        <ele>788.42</ele>
        <time>2025-11-13T12:39:19Z</time>
      </trkpt>
      <trkpt lat="43.77553" lon="6.24323">
        <ele>788.42</ele>
        <time>2025-11-13T12:39:20Z</time>
      </trkpt>
      <trkpt lat="43.77555" lon="6.24331">
        <ele>788.9</ele>
        <time>2025-11-13T12:39:25Z</time>
      </trkpt>
      <trkpt lat="43.77557" lon="6.24335">
        <ele>789.38</ele>
        <time>2025-11-13T12:39:28Z</time>
      </trkpt>
      <trkpt lat="43.77558" lon="6.24333">
        <ele>789.38</ele>
        <time>2025-11-13T12:39:30Z</time>
      </trkpt>
      <trkpt lat="43.77553" lon="6.24327">
        <ele>789.38</ele>
        <time>2025-11-13T12:39:39Z</time>
      </trkpt>
      <trkpt lat="43.77529" lon="6.24328">
        <ele>788.42</ele>
        <time>2025-11-13T12:39:51Z</time>
      </trkpt>
      <trkpt lat="43.77505" lon="6.24322">
        <ele>787.94</ele>
        <time>2025-11-13T12:40:03Z</time>
      </trkpt>
      <trkpt lat="43.77477" lon="6.24313">
        <ele>786.02</ele>
        <time>2025-11-13T12:40:14Z</time>
      </trkpt>
      <trkpt lat="43.77438" lon="6.24303">
        <ele>785.53</ele>
        <time>2025-11-13T12:40:26Z</time>
      </trkpt>
      <trkpt lat="43.77411" lon="6.24297">
        <ele>785.53</ele>
        <time>2025-11-13T12:40:36Z</time>
      </trkpt>
      <trkpt lat="43.77386" lon="6.24294">
        <ele>785.53</ele>
        <time>2025-11-13T12:40:46Z</time>
      </trkpt>
      <trkpt lat="43.77363" lon="6.24289">
        <ele>787.46</ele>
        <time>2025-11-13T12:40:58Z</time>
      </trkpt>
      <trkpt lat="43.77337" lon="6.24288">
        <ele>788.42</ele>
        <time>2025-11-13T12:41:08Z</time>
      </trkpt>
      <trkpt lat="43.77311" lon="6.24293">
        <ele>789.38</ele>
        <time>2025-11-13T12:41:17Z</time>
      </trkpt>
      <trkpt lat="43.77273" lon="6.24302">
        <ele>790.34</ele>
        <time>2025-11-13T12:41:29Z</time>
      </trkpt>
      <trkpt lat="43.77238" lon="6.24323">
        <ele>792.26</ele>
        <time>2025-11-13T12:41:41Z</time>
      </trkpt>
      <trkpt lat="43.77205" lon="6.2435">
        <ele>795.63</ele>
        <time>2025-11-13T12:41:54Z</time>
      </trkpt>
      <trkpt lat="43.77204" lon="6.24353">
        <ele>795.63</ele>
        <time>2025-11-13T12:41:55Z</time>
      </trkpt>
      <trkpt lat="43.77204" lon="6.24357">
        <ele>795.63</ele>
        <time>2025-11-13T12:41:56Z</time>
      </trkpt>
      <trkpt lat="43.77204" lon="6.2436">
        <ele>795.63</ele>
        <time>2025-11-13T12:41:57Z</time>
      </trkpt>
      <trkpt lat="43.77205" lon="6.24364">
        <ele>796.11</ele>
        <time>2025-11-13T12:41:58Z</time>
      </trkpt>
      <trkpt lat="43.77207" lon="6.24367">
        <ele>796.11</ele>
        <time>2025-11-13T12:41:59Z</time>
      </trkpt>
      <trkpt lat="43.7721" lon="6.24369">
        <ele>796.11</ele>
        <time>2025-11-13T12:42:00Z</time>
      </trkpt>
      <trkpt lat="43.77213" lon="6.2437">
        <ele>796.59</ele>
        <time>2025-11-13T12:42:01Z</time>
      </trkpt>
      <trkpt lat="43.77218" lon="6.24369">
        <ele>797.55</ele>
        <time>2025-11-13T12:42:03Z</time>
      </trkpt>
      <trkpt lat="43.7722" lon="6.24368">
        <ele>797.55</ele>
        <time>2025-11-13T12:42:04Z</time>
      </trkpt>
      <trkpt lat="43.77223" lon="6.24368">
        <ele>798.03</ele>
        <time>2025-11-13T12:42:05Z</time>
      </trkpt>
      <trkpt lat="43.77225" lon="6.24368">
        <ele>798.03</ele>
        <time>2025-11-13T12:42:06Z</time>
      </trkpt>
      <trkpt lat="43.77228" lon="6.24368">
        <ele>798.03</ele>
        <time>2025-11-13T12:42:07Z</time>
      </trkpt>
      <trkpt lat="43.77258" lon="6.24365">
        <ele>799.47</ele>
        <time>2025-11-13T12:42:18Z</time>
      </trkpt>
      <trkpt lat="43.77288" lon="6.24385">
        <ele>802.36</ele>
        <time>2025-11-13T12:42:30Z</time>
      </trkpt>
      <trkpt lat="43.77313" lon="6.24383">
        <ele>804.76</ele>
        <time>2025-11-13T12:42:39Z</time>
      </trkpt>
      <trkpt lat="43.77347" lon="6.24393">
        <ele>807.16</ele>
        <time>2025-11-13T12:42:53Z</time>
      </trkpt>
      <trkpt lat="43.77377" lon="6.24409">
        <ele>810.53</ele>
        <time>2025-11-13T12:43:07Z</time>
      </trkpt>
      <trkpt lat="43.77403" lon="6.24418">
        <ele>812.45</ele>
        <time>2025-11-13T12:43:18Z</time>
      </trkpt>
      <trkpt lat="43.77431" lon="6.24427">
        <ele>815.82</ele>
        <time>2025-11-13T12:43:29Z</time>
      </trkpt>
      <trkpt lat="43.77467" lon="6.24439">
        <ele>819.66</ele>
        <time>2025-11-13T12:43:43Z</time>
      </trkpt>
      <trkpt lat="43.77498" lon="6.24447">
        <ele>822.06</ele>
        <time>2025-11-13T12:43:55Z</time>
      </trkpt>
      <trkpt lat="43.7753" lon="6.24448">
        <ele>825.43</ele>
        <time>2025-11-13T12:44:07Z</time>
      </trkpt>
      <trkpt lat="43.7756" lon="6.24446">
        <ele>827.83</ele>
        <time>2025-11-13T12:44:18Z</time>
      </trkpt>
      <trkpt lat="43.77593" lon="6.24448">
        <ele>830.72</ele>
        <time>2025-11-13T12:44:31Z</time>
      </trkpt>
      <trkpt lat="43.77599" lon="6.24472">
        <ele>833.12</ele>
        <time>2025-11-13T12:44:39Z</time>
      </trkpt>
      <trkpt lat="43.77597" lon="6.24484">
        <ele>833.6</ele>
        <time>2025-11-13T12:44:48Z</time>
      </trkpt>
      <trkpt lat="43.77597" lon="6.24487">
        <ele>833.6</ele>
        <time>2025-11-13T12:45:08Z</time>
      </trkpt>
      <trkpt lat="43.77596" lon="6.24487">
        <ele>833.6</ele>
        <time>2025-11-13T12:45:24Z</time>
      </trkpt>
      <trkpt lat="43.77597" lon="6.24484">
        <ele>834.08</ele>
        <time>2025-11-13T12:45:27Z</time>
      </trkpt>
      <trkpt lat="43.77598" lon="6.24482">
        <ele>834.08</ele>
        <time>2025-11-13T12:45:28Z</time>
      </trkpt>
      <trkpt lat="43.77606" lon="6.24457">
        <ele>833.12</ele>
        <time>2025-11-13T12:45:37Z</time>
      </trkpt>
      <trkpt lat="43.77593" lon="6.24441">
        <ele>831.2</ele>
        <time>2025-11-13T12:45:45Z</time>
      </trkpt>
      <trkpt lat="43.77591" lon="6.2444">
        <ele>830.72</ele>
        <time>2025-11-13T12:45:53Z</time>
      </trkpt>
      <trkpt lat="43.77592" lon="6.24438">
        <ele>830.72</ele>
        <time>2025-11-13T12:46:15Z</time>
      </trkpt>
      <trkpt lat="43.77591" lon="6.24438">
        <ele>830.72</ele>
        <time>2025-11-13T12:46:35Z</time>
      </trkpt>
      <trkpt lat="43.77592" lon="6.24438">
        <ele>830.72</ele>
        <time>2025-11-13T12:46:57Z</time>
      </trkpt>
      <trkpt lat="43.77591" lon="6.2444">
        <ele>830.72</ele>
        <time>2025-11-13T12:47:02Z</time>
      </trkpt>
      <trkpt lat="43.7759" lon="6.24441">
        <ele>830.72</ele>
        <time>2025-11-13T12:47:03Z</time>
      </trkpt>
      <trkpt lat="43.7759" lon="6.24443">
        <ele>830.72</ele>
        <time>2025-11-13T12:47:04Z</time>
      </trkpt>
      <trkpt lat="43.77594" lon="6.24446">
        <ele>830.72</ele>
        <time>2025-11-13T12:47:06Z</time>
      </trkpt>
      <trkpt lat="43.77596" lon="6.24448">
        <ele>830.72</ele>
        <time>2025-11-13T12:47:07Z</time>
      </trkpt>
      <trkpt lat="43.77598" lon="6.2445">
        <ele>830.72</ele>
        <time>2025-11-13T12:47:08Z</time>
      </trkpt>
      <trkpt lat="43.77599" lon="6.24453">
        <ele>830.72</ele>
        <time>2025-11-13T12:47:09Z</time>
      </trkpt>
      <trkpt lat="43.776" lon="6.24457">
        <ele>832.16</ele>
        <time>2025-11-13T12:47:10Z</time>
      </trkpt>
      <trkpt lat="43.776" lon="6.2446">
        <ele>833.12</ele>
        <time>2025-11-13T12:47:11Z</time>
      </trkpt>
      <trkpt lat="43.776" lon="6.24464">
        <ele>833.12</ele>
        <time>2025-11-13T12:47:12Z</time>
      </trkpt>
      <trkpt lat="43.77599" lon="6.24468">
        <ele>833.12</ele>
        <time>2025-11-13T12:47:13Z</time>
      </trkpt>
      <trkpt lat="43.77598" lon="6.24472">
        <ele>833.12</ele>
        <time>2025-11-13T12:47:14Z</time>
      </trkpt>
      <trkpt lat="43.77596" lon="6.24477">
        <ele>833.6</ele>
        <time>2025-11-13T12:47:16Z</time>
      </trkpt>
      <trkpt lat="43.77588" lon="6.24527">
        <ele>836</ele>
        <time>2025-11-13T12:47:27Z</time>
      </trkpt>
      <trkpt lat="43.77586" lon="6.24594">
        <ele>839.37</ele>
        <time>2025-11-13T12:47:43Z</time>
      </trkpt>
      <trkpt lat="43.7759" lon="6.24648">
        <ele>842.25</ele>
        <time>2025-11-13T12:47:56Z</time>
      </trkpt>
      <trkpt lat="43.77612" lon="6.24678">
        <ele>844.66</ele>
        <time>2025-11-13T12:48:07Z</time>
      </trkpt>
      <trkpt lat="43.77635" lon="6.24707">
        <ele>847.54</ele>
        <time>2025-11-13T12:48:18Z</time>
      </trkpt>
      <trkpt lat="43.77661" lon="6.24742">
        <ele>850.9</ele>
        <time>2025-11-13T12:48:30Z</time>
      </trkpt>
      <trkpt lat="43.7769" lon="6.24775">
        <ele>853.79</ele>
        <time>2025-11-13T12:48:43Z</time>
      </trkpt>
      <trkpt lat="43.77713" lon="6.24821">
        <ele>857.15</ele>
        <time>2025-11-13T12:48:57Z</time>
      </trkpt>
      <trkpt lat="43.77716" lon="6.24869">
        <ele>860.04</ele>
        <time>2025-11-13T12:49:09Z</time>
      </trkpt>
      <trkpt lat="43.77706" lon="6.24911">
        <ele>863.4</ele>
        <time>2025-11-13T12:49:20Z</time>
      </trkpt>
      <trkpt lat="43.77687" lon="6.24955">
        <ele>865.8</ele>
        <time>2025-11-13T12:49:33Z</time>
      </trkpt>
      <trkpt lat="43.7767" lon="6.24995">
        <ele>869.17</ele>
        <time>2025-11-13T12:49:45Z</time>
      </trkpt>
      <trkpt lat="43.77654" lon="6.25028">
        <ele>872.05</ele>
        <time>2025-11-13T12:49:55Z</time>
      </trkpt>
      <trkpt lat="43.77645" lon="6.25072">
        <ele>874.94</ele>
        <time>2025-11-13T12:50:07Z</time>
      </trkpt>
      <trkpt lat="43.7764" lon="6.25122">
        <ele>877.82</ele>
        <time>2025-11-13T12:50:20Z</time>
      </trkpt>
      <trkpt lat="43.77638" lon="6.25167">
        <ele>880.22</ele>
        <time>2025-11-13T12:50:34Z</time>
      </trkpt>
      <trkpt lat="43.77633" lon="6.25209">
        <ele>883.11</ele>
        <time>2025-11-13T12:50:48Z</time>
      </trkpt>
      <trkpt lat="43.77621" lon="6.25249">
        <ele>885.03</ele>
        <time>2025-11-13T12:51:02Z</time>
      </trkpt>
      <trkpt lat="43.77612" lon="6.25276">
        <ele>886.95</ele>
        <time>2025-11-13T12:51:12Z</time>
      </trkpt>
      <trkpt lat="43.77597" lon="6.2531">
        <ele>889.36</ele>
        <time>2025-11-13T12:51:25Z</time>
      </trkpt>
      <trkpt lat="43.77585" lon="6.25338">
        <ele>890.8</ele>
        <time>2025-11-13T12:51:35Z</time>
      </trkpt>
      <trkpt lat="43.77572" lon="6.25366">
        <ele>893.68</ele>
        <time>2025-11-13T12:51:45Z</time>
      </trkpt>
      <trkpt lat="43.77553" lon="6.25401">
        <ele>896.57</ele>
        <time>2025-11-13T12:51:59Z</time>
      </trkpt>
      <trkpt lat="43.77543" lon="6.25437">
        <ele>899.45</ele>
        <time>2025-11-13T12:52:11Z</time>
      </trkpt>
      <trkpt lat="43.7754" lon="6.25462">
        <ele>901.85</ele>
        <time>2025-11-13T12:52:19Z</time>
      </trkpt>
      <trkpt lat="43.77535" lon="6.25482">
        <ele>903.3</ele>
        <time>2025-11-13T12:52:26Z</time>
      </trkpt>
      <trkpt lat="43.77516" lon="6.25524">
        <ele>905.7</ele>
        <time>2025-11-13T12:52:41Z</time>
      </trkpt>
      <trkpt lat="43.77514" lon="6.25558">
        <ele>908.1</ele>
        <time>2025-11-13T12:52:52Z</time>
      </trkpt>
      <trkpt lat="43.7752" lon="6.25595">
        <ele>910.99</ele>
        <time>2025-11-13T12:53:04Z</time>
      </trkpt>
      <trkpt lat="43.77524" lon="6.25626">
        <ele>912.91</ele>
        <time>2025-11-13T12:53:15Z</time>
      </trkpt>
      <trkpt lat="43.77532" lon="6.25711">
        <ele>918.68</ele>
        <time>2025-11-13T12:53:47Z</time>
      </trkpt>
      <trkpt lat="43.77533" lon="6.25715">
        <ele>919.64</ele>
        <time>2025-11-13T12:53:48Z</time>
      </trkpt>
      <trkpt lat="43.77534" lon="6.25717">
        <ele>919.64</ele>
        <time>2025-11-13T12:53:49Z</time>
      </trkpt>
      <trkpt lat="43.77537" lon="6.25722">
        <ele>918.2</ele>
        <time>2025-11-13T12:53:51Z</time>
      </trkpt>
      <trkpt lat="43.77552" lon="6.25741">
        <ele>921.56</ele>
        <time>2025-11-13T12:54:00Z</time>
      </trkpt>
      <trkpt lat="43.77553" lon="6.25743">
        <ele>921.56</ele>
        <time>2025-11-13T12:54:01Z</time>
      </trkpt>
      <trkpt lat="43.77566" lon="6.25775">
        <ele>923.96</ele>
        <time>2025-11-13T12:54:14Z</time>
      </trkpt>
      <trkpt lat="43.7758" lon="6.25793">
        <ele>924.93</ele>
        <time>2025-11-13T12:54:25Z</time>
      </trkpt>
      <trkpt lat="43.77594" lon="6.2579">
        <ele>926.37</ele>
        <time>2025-11-13T12:54:31Z</time>
      </trkpt>
      <trkpt lat="43.77615" lon="6.25778">
        <ele>926.85</ele>
        <time>2025-11-13T12:54:41Z</time>
      </trkpt>
      <trkpt lat="43.77649" lon="6.25755">
        <ele>928.77</ele>
        <time>2025-11-13T12:54:57Z</time>
      </trkpt>
      <trkpt lat="43.77682" lon="6.25742">
        <ele>931.65</ele>
        <time>2025-11-13T12:55:12Z</time>
      </trkpt>
      <trkpt lat="43.7769" lon="6.25737">
        <ele>929.25</ele>
        <time>2025-11-13T12:55:16Z</time>
      </trkpt>
      <trkpt lat="43.77692" lon="6.25736">
        <ele>932.62</ele>
        <time>2025-11-13T12:55:17Z</time>
      </trkpt>
      <trkpt lat="43.77695" lon="6.25736">
        <ele>938.86</ele>
        <time>2025-11-13T12:55:18Z</time>
      </trkpt>
      <trkpt lat="43.77698" lon="6.25735">
        <ele>933.58</ele>
        <time>2025-11-13T12:55:19Z</time>
      </trkpt>
      <trkpt lat="43.77702" lon="6.25732">
        <ele>933.1</ele>
        <time>2025-11-13T12:55:21Z</time>
      </trkpt>
      <trkpt lat="43.77729" lon="6.2572">
        <ele>935.5</ele>
        <time>2025-11-13T12:55:33Z</time>
      </trkpt>
      <trkpt lat="43.7775" lon="6.25704">
        <ele>936.94</ele>
        <time>2025-11-13T12:55:44Z</time>
      </trkpt>
      <trkpt lat="43.77764" lon="6.25681">
        <ele>937.42</ele>
        <time>2025-11-13T12:55:54Z</time>
      </trkpt>
      <trkpt lat="43.77768" lon="6.25676">
        <ele>938.38</ele>
        <time>2025-11-13T12:56:03Z</time>
      </trkpt>
      <trkpt lat="43.7777" lon="6.25678">
        <ele>939.35</ele>
        <time>2025-11-13T12:56:09Z</time>
      </trkpt>
      <trkpt lat="43.7777" lon="6.25679">
        <ele>939.35</ele>
        <time>2025-11-13T12:56:10Z</time>
      </trkpt>
      <trkpt lat="43.77771" lon="6.25681">
        <ele>939.35</ele>
        <time>2025-11-13T12:56:11Z</time>
      </trkpt>
      <trkpt lat="43.77771" lon="6.25684">
        <ele>939.35</ele>
        <time>2025-11-13T12:56:12Z</time>
      </trkpt>
      <trkpt lat="43.77771" lon="6.25687">
        <ele>939.35</ele>
        <time>2025-11-13T12:56:13Z</time>
      </trkpt>
      <trkpt lat="43.77772" lon="6.25691">
        <ele>939.35</ele>
        <time>2025-11-13T12:56:14Z</time>
      </trkpt>
      <trkpt lat="43.77771" lon="6.25694">
        <ele>939.35</ele>
        <time>2025-11-13T12:56:15Z</time>
      </trkpt>
      <trkpt lat="43.7777" lon="6.25696">
        <ele>939.83</ele>
        <time>2025-11-13T12:56:16Z</time>
      </trkpt>
      <trkpt lat="43.77769" lon="6.25698">
        <ele>939.83</ele>
        <time>2025-11-13T12:56:17Z</time>
      </trkpt>
      <trkpt lat="43.77766" lon="6.25701">
        <ele>940.31</ele>
        <time>2025-11-13T12:56:18Z</time>
      </trkpt>
      <trkpt lat="43.77741" lon="6.25721">
        <ele>941.75</ele>
        <time>2025-11-13T12:56:29Z</time>
      </trkpt>
      <trkpt lat="43.77708" lon="6.25751">
        <ele>944.63</ele>
        <time>2025-11-13T12:56:44Z</time>
      </trkpt>
      <trkpt lat="43.77676" lon="6.25778">
        <ele>947.52</ele>
        <time>2025-11-13T12:56:58Z</time>
      </trkpt>
      <trkpt lat="43.77655" lon="6.25796">
        <ele>950.88</ele>
        <time>2025-11-13T12:57:08Z</time>
      </trkpt>
      <trkpt lat="43.77654" lon="6.25797">
        <ele>950.88</ele>
        <time>2025-11-13T12:57:09Z</time>
      </trkpt>
      <trkpt lat="43.77636" lon="6.25829">
        <ele>951.84</ele>
        <time>2025-11-13T12:57:22Z</time>
      </trkpt>
      <trkpt lat="43.77617" lon="6.25866">
        <ele>954.73</ele>
        <time>2025-11-13T12:57:35Z</time>
      </trkpt>
      <trkpt lat="43.77588" lon="6.25894">
        <ele>957.61</ele>
        <time>2025-11-13T12:57:49Z</time>
      </trkpt>
      <trkpt lat="43.77558" lon="6.25925">
        <ele>960.49</ele>
        <time>2025-11-13T12:58:04Z</time>
      </trkpt>
      <trkpt lat="43.77541" lon="6.25955">
        <ele>962.9</ele>
        <time>2025-11-13T12:58:16Z</time>
      </trkpt>
      <trkpt lat="43.77545" lon="6.26001">
        <ele>965.3</ele>
        <time>2025-11-13T12:58:30Z</time>
      </trkpt>
      <trkpt lat="43.77549" lon="6.26031">
        <ele>966.26</ele>
        <time>2025-11-13T12:58:41Z</time>
      </trkpt>
      <trkpt lat="43.77548" lon="6.2604">
        <ele>967.22</ele>
        <time>2025-11-13T12:58:49Z</time>
      </trkpt>
      <trkpt lat="43.77547" lon="6.26041">
        <ele>967.22</ele>
        <time>2025-11-13T12:59:07Z</time>
      </trkpt>
      <trkpt lat="43.77546" lon="6.26041">
        <ele>967.7</ele>
        <time>2025-11-13T12:59:23Z</time>
      </trkpt>
      <trkpt lat="43.77546" lon="6.26042">
        <ele>967.7</ele>
        <time>2025-11-13T12:59:33Z</time>
      </trkpt>
      <trkpt lat="43.77545" lon="6.26043">
        <ele>967.7</ele>
        <time>2025-11-13T12:59:59Z</time>
      </trkpt>
      <trkpt lat="43.77546" lon="6.26041">
        <ele>967.7</ele>
        <time>2025-11-13T13:00:30Z</time>
      </trkpt>
      <trkpt lat="43.77546" lon="6.26042">
        <ele>967.22</ele>
        <time>2025-11-13T13:00:58Z</time>
      </trkpt>
      <trkpt lat="43.77547" lon="6.2604">
        <ele>967.22</ele>
        <time>2025-11-13T13:01:28Z</time>
      </trkpt>
      <trkpt lat="43.77547" lon="6.26041">
        <ele>967.22</ele>
        <time>2025-11-13T13:01:55Z</time>
      </trkpt>
      <trkpt lat="43.77545" lon="6.26041">
        <ele>967.22</ele>
        <time>2025-11-13T13:02:22Z</time>
      </trkpt>
      <trkpt lat="43.77545" lon="6.26042">
        <ele>967.22</ele>
        <time>2025-11-13T13:02:54Z</time>
      </trkpt>
      <trkpt lat="43.77546" lon="6.26041">
        <ele>967.22</ele>
        <time>2025-11-13T13:03:22Z</time>
      </trkpt>
      <trkpt lat="43.77545" lon="6.26041">
        <ele>967.22</ele>
        <time>2025-11-13T13:03:26Z</time>
      </trkpt>
      <trkpt lat="43.77544" lon="6.26042">
        <ele>967.22</ele>
        <time>2025-11-13T13:03:27Z</time>
      </trkpt>
      <trkpt lat="43.77542" lon="6.26042">
        <ele>967.22</ele>
        <time>2025-11-13T13:03:28Z</time>
      </trkpt>
      <trkpt lat="43.7754" lon="6.26042">
        <ele>967.22</ele>
        <time>2025-11-13T13:03:29Z</time>
      </trkpt>
      <trkpt lat="43.77537" lon="6.2604">
        <ele>967.22</ele>
        <time>2025-11-13T13:03:30Z</time>
      </trkpt>
      <trkpt lat="43.77536" lon="6.26038">
        <ele>967.22</ele>
        <time>2025-11-13T13:03:31Z</time>
      </trkpt>
      <trkpt lat="43.77534" lon="6.26036">
        <ele>967.22</ele>
        <time>2025-11-13T13:03:32Z</time>
      </trkpt>
      <trkpt lat="43.77532" lon="6.26033">
        <ele>967.22</ele>
        <time>2025-11-13T13:03:33Z</time>
      </trkpt>
      <trkpt lat="43.7753" lon="6.26029">
        <ele>967.22</ele>
        <time>2025-11-13T13:03:34Z</time>
      </trkpt>
      <trkpt lat="43.77528" lon="6.26025">
        <ele>967.22</ele>
        <time>2025-11-13T13:03:35Z</time>
      </trkpt>
      <trkpt lat="43.77528" lon="6.26021">
        <ele>967.22</ele>
        <time>2025-11-13T13:03:36Z</time>
      </trkpt>
      <trkpt lat="43.77527" lon="6.26017">
        <ele>967.22</ele>
        <time>2025-11-13T13:03:37Z</time>
      </trkpt>
      <trkpt lat="43.77528" lon="6.25968">
        <ele>969.63</ele>
        <time>2025-11-13T13:03:49Z</time>
      </trkpt>
      <trkpt lat="43.77516" lon="6.25922">
        <ele>972.51</ele>
        <time>2025-11-13T13:04:01Z</time>
      </trkpt>
      <trkpt lat="43.77496" lon="6.25889">
        <ele>975.88</ele>
        <time>2025-11-13T13:04:12Z</time>
      </trkpt>
      <trkpt lat="43.77474" lon="6.25852">
        <ele>978.76</ele>
        <time>2025-11-13T13:04:24Z</time>
      </trkpt>
      <trkpt lat="43.77453" lon="6.25817">
        <ele>981.64</ele>
        <time>2025-11-13T13:04:35Z</time>
      </trkpt>
      <trkpt lat="43.77434" lon="6.25776">
        <ele>985.01</ele>
        <time>2025-11-13T13:04:48Z</time>
      </trkpt>
      <trkpt lat="43.77428" lon="6.25741">
        <ele>986.93</ele>
        <time>2025-11-13T13:04:58Z</time>
      </trkpt>
      <trkpt lat="43.77424" lon="6.25696">
        <ele>989.81</ele>
        <time>2025-11-13T13:05:10Z</time>
      </trkpt>
      <trkpt lat="43.77423" lon="6.25651">
        <ele>992.7</ele>
        <time>2025-11-13T13:05:23Z</time>
      </trkpt>
      <trkpt lat="43.77407" lon="6.2562">
        <ele>995.58</ele>
        <time>2025-11-13T13:05:34Z</time>
      </trkpt>
      <trkpt lat="43.7738" lon="6.25624">
        <ele>997.51</ele>
        <time>2025-11-13T13:05:44Z</time>
      </trkpt>
      <trkpt lat="43.77348" lon="6.25647">
        <ele>1000.39</ele>
        <time>2025-11-13T13:05:57Z</time>
      </trkpt>
      <trkpt lat="43.77317" lon="6.25665">
        <ele>1003.27</ele>
        <time>2025-11-13T13:06:10Z</time>
      </trkpt>
      <trkpt lat="43.7728" lon="6.2567">
        <ele>1006.16</ele>
        <time>2025-11-13T13:06:24Z</time>
      </trkpt>
      <trkpt lat="43.77255" lon="6.2568">
        <ele>1008.08</ele>
        <time>2025-11-13T13:06:35Z</time>
      </trkpt>
      <trkpt lat="43.77262" lon="6.25696">
        <ele>1009.04</ele>
        <time>2025-11-13T13:06:41Z</time>
      </trkpt>
      <trkpt lat="43.7729" lon="6.25698">
        <ele>1010</ele>
        <time>2025-11-13T13:06:51Z</time>
      </trkpt>
      <trkpt lat="43.77329" lon="6.2571">
        <ele>1013.85</ele>
        <time>2025-11-13T13:07:06Z</time>
      </trkpt>
      <trkpt lat="43.77374" lon="6.25719">
        <ele>1016.25</ele>
        <time>2025-11-13T13:07:22Z</time>
      </trkpt>
      <trkpt lat="43.77383" lon="6.25725">
        <ele>1016.73</ele>
        <time>2025-11-13T13:07:26Z</time>
      </trkpt>
      <trkpt lat="43.77384" lon="6.25728">
        <ele>1016.73</ele>
        <time>2025-11-13T13:07:27Z</time>
      </trkpt>
      <trkpt lat="43.77384" lon="6.25732">
        <ele>1017.69</ele>
        <time>2025-11-13T13:07:28Z</time>
      </trkpt>
      <trkpt lat="43.77383" lon="6.25735">
        <ele>1017.69</ele>
        <time>2025-11-13T13:07:29Z</time>
      </trkpt>
      <trkpt lat="43.77381" lon="6.25737">
        <ele>1017.69</ele>
        <time>2025-11-13T13:07:30Z</time>
      </trkpt>
      <trkpt lat="43.77379" lon="6.25738">
        <ele>1018.17</ele>
        <time>2025-11-13T13:07:31Z</time>
      </trkpt>
      <trkpt lat="43.77376" lon="6.25738">
        <ele>1019.13</ele>
        <time>2025-11-13T13:07:32Z</time>
      </trkpt>
      <trkpt lat="43.77373" lon="6.25738">
        <ele>1019.13</ele>
        <time>2025-11-13T13:07:33Z</time>
      </trkpt>
      <trkpt lat="43.7737" lon="6.25737">
        <ele>1019.13</ele>
        <time>2025-11-13T13:07:34Z</time>
      </trkpt>
      <trkpt lat="43.77336" lon="6.25743">
        <ele>1021.54</ele>
        <time>2025-11-13T13:07:47Z</time>
      </trkpt>
      <trkpt lat="43.7731" lon="6.25757">
        <ele>1024.42</ele>
        <time>2025-11-13T13:07:58Z</time>
      </trkpt>
      <trkpt lat="43.77283" lon="6.25762">
        <ele>1027.31</ele>
        <time>2025-11-13T13:08:10Z</time>
      </trkpt>
      <trkpt lat="43.77254" lon="6.25756">
        <ele>1030.19</ele>
        <time>2025-11-13T13:08:24Z</time>
      </trkpt>
      <trkpt lat="43.77228" lon="6.25752">
        <ele>1032.11</ele>
        <time>2025-11-13T13:08:37Z</time>
      </trkpt>
      <trkpt lat="43.77206" lon="6.2574">
        <ele>1034.52</ele>
        <time>2025-11-13T13:08:49Z</time>
      </trkpt>
      <trkpt lat="43.77177" lon="6.2573">
        <ele>1036.44</ele>
        <time>2025-11-13T13:09:03Z</time>
      </trkpt>
      <trkpt lat="43.77148" lon="6.25721">
        <ele>1038.84</ele>
        <time>2025-11-13T13:09:16Z</time>
      </trkpt>
      <trkpt lat="43.7712" lon="6.25699">
        <ele>1041.73</ele>
        <time>2025-11-13T13:09:31Z</time>
      </trkpt>
      <trkpt lat="43.77116" lon="6.25659">
        <ele>1044.61</ele>
        <time>2025-11-13T13:09:44Z</time>
      </trkpt>
      <trkpt lat="43.77113" lon="6.2561">
        <ele>1047.49</ele>
        <time>2025-11-13T13:10:00Z</time>
      </trkpt>
      <trkpt lat="43.77098" lon="6.25593">
        <ele>1049.42</ele>
        <time>2025-11-13T13:10:09Z</time>
      </trkpt>
      <trkpt lat="43.77083" lon="6.25613">
        <ele>1051.34</ele>
        <time>2025-11-13T13:10:19Z</time>
      </trkpt>
      <trkpt lat="43.77079" lon="6.25653">
        <ele>1053.26</ele>
        <time>2025-11-13T13:10:32Z</time>
      </trkpt>
      <trkpt lat="43.77077" lon="6.25693">
        <ele>1056.15</ele>
        <time>2025-11-13T13:10:45Z</time>
      </trkpt>
      <trkpt lat="43.77088" lon="6.25737">
        <ele>1059.03</ele>
        <time>2025-11-13T13:10:59Z</time>
      </trkpt>
      <trkpt lat="43.77104" lon="6.25766">
        <ele>1060.95</ele>
        <time>2025-11-13T13:11:11Z</time>
      </trkpt>
      <trkpt lat="43.7713" lon="6.25791">
        <ele>1063.36</ele>
        <time>2025-11-13T13:11:25Z</time>
      </trkpt>
      <trkpt lat="43.77151" lon="6.25826">
        <ele>1065.76</ele>
        <time>2025-11-13T13:11:39Z</time>
      </trkpt>
      <trkpt lat="43.77165" lon="6.25855">
        <ele>1069.12</ele>
        <time>2025-11-13T13:11:50Z</time>
      </trkpt>
      <trkpt lat="43.77174" lon="6.25892">
        <ele>1071.53</ele>
        <time>2025-11-13T13:12:02Z</time>
      </trkpt>
      <trkpt lat="43.77169" lon="6.25928">
        <ele>1073.45</ele>
        <time>2025-11-13T13:12:14Z</time>
      </trkpt>
      <trkpt lat="43.77145" lon="6.2595">
        <ele>1076.81</ele>
        <time>2025-11-13T13:12:26Z</time>
      </trkpt>
      <trkpt lat="43.77121" lon="6.25986">
        <ele>1079.22</ele>
        <time>2025-11-13T13:12:41Z</time>
      </trkpt>
      <trkpt lat="43.77101" lon="6.26025">
        <ele>1081.62</ele>
        <time>2025-11-13T13:12:55Z</time>
      </trkpt>
      <trkpt lat="43.77079" lon="6.26041">
        <ele>1083.54</ele>
        <time>2025-11-13T13:13:06Z</time>
      </trkpt>
      <trkpt lat="43.77052" lon="6.26059">
        <ele>1085.95</ele>
        <time>2025-11-13T13:13:19Z</time>
      </trkpt>
      <trkpt lat="43.77028" lon="6.26082">
        <ele>1089.31</ele>
        <time>2025-11-13T13:13:32Z</time>
      </trkpt>
      <trkpt lat="43.77002" lon="6.26071">
        <ele>1092.2</ele>
        <time>2025-11-13T13:13:44Z</time>
      </trkpt>
      <trkpt lat="43.76974" lon="6.26072">
        <ele>1094.6</ele>
        <time>2025-11-13T13:13:56Z</time>
      </trkpt>
      <trkpt lat="43.76948" lon="6.26094">
        <ele>1096.52</ele>
        <time>2025-11-13T13:14:09Z</time>
      </trkpt>
      <trkpt lat="43.7692" lon="6.26103">
        <ele>1099.4</ele>
        <time>2025-11-13T13:14:21Z</time>
      </trkpt>
      <trkpt lat="43.76891" lon="6.26122">
        <ele>1102.77</ele>
        <time>2025-11-13T13:14:35Z</time>
      </trkpt>
      <trkpt lat="43.76861" lon="6.26133">
        <ele>1104.69</ele>
        <time>2025-11-13T13:14:48Z</time>
      </trkpt>
      <trkpt lat="43.76829" lon="6.26139">
        <ele>1107.58</ele>
        <time>2025-11-13T13:15:02Z</time>
      </trkpt>
      <trkpt lat="43.768" lon="6.26142">
        <ele>1110.46</ele>
        <time>2025-11-13T13:15:14Z</time>
      </trkpt>
      <trkpt lat="43.76769" lon="6.26156">
        <ele>1112.86</ele>
        <time>2025-11-13T13:15:28Z</time>
      </trkpt>
      <trkpt lat="43.76744" lon="6.2618">
        <ele>1114.79</ele>
        <time>2025-11-13T13:15:41Z</time>
      </trkpt>
      <trkpt lat="43.7673" lon="6.26222">
        <ele>1117.67</ele>
        <time>2025-11-13T13:15:55Z</time>
      </trkpt>
      <trkpt lat="43.76724" lon="6.26263">
        <ele>1120.07</ele>
        <time>2025-11-13T13:16:07Z</time>
      </trkpt>
      <trkpt lat="43.76716" lon="6.26293">
        <ele>1122</ele>
        <time>2025-11-13T13:16:17Z</time>
      </trkpt>
      <trkpt lat="43.76702" lon="6.26327">
        <ele>1124.4</ele>
        <time>2025-11-13T13:16:29Z</time>
      </trkpt>
      <trkpt lat="43.76704" lon="6.26363">
        <ele>1126.32</ele>
        <time>2025-11-13T13:16:40Z</time>
      </trkpt>
      <trkpt lat="43.76709" lon="6.26387">
        <ele>1127.28</ele>
        <time>2025-11-13T13:16:48Z</time>
      </trkpt>
      <trkpt lat="43.76717" lon="6.26405">
        <ele>1128.24</ele>
        <time>2025-11-13T13:16:59Z</time>
      </trkpt>
      <trkpt lat="43.76718" lon="6.26405">
        <ele>1128.73</ele>
        <time>2025-11-13T13:17:09Z</time>
      </trkpt>
      <trkpt lat="43.76719" lon="6.26407">
        <ele>1128.73</ele>
        <time>2025-11-13T13:17:37Z</time>
      </trkpt>
      <trkpt lat="43.76718" lon="6.26403">
        <ele>1129.21</ele>
        <time>2025-11-13T13:18:04Z</time>
      </trkpt>
      <trkpt lat="43.76719" lon="6.26405">
        <ele>1129.21</ele>
        <time>2025-11-13T13:18:27Z</time>
      </trkpt>
      <trkpt lat="43.76719" lon="6.26406">
        <ele>1129.21</ele>
        <time>2025-11-13T13:18:50Z</time>
      </trkpt>
      <trkpt lat="43.76718" lon="6.26408">
        <ele>1129.21</ele>
        <time>2025-11-13T13:19:15Z</time>
      </trkpt>
      <trkpt lat="43.76717" lon="6.26407">
        <ele>1129.21</ele>
        <time>2025-11-13T13:19:40Z</time>
      </trkpt>
      <trkpt lat="43.76717" lon="6.26404">
        <ele>1129.21</ele>
        <time>2025-11-13T13:20:02Z</time>
      </trkpt>
      <trkpt lat="43.76717" lon="6.26404">
        <ele>1129.21</ele>
        <time>2025-11-13T13:20:29Z</time>
      </trkpt>
      <trkpt lat="43.76718" lon="6.26403">
        <ele>1129.21</ele>
        <time>2025-11-13T13:20:53Z</time>
      </trkpt>
      <trkpt lat="43.76718" lon="6.26404">
        <ele>1129.21</ele>
        <time>2025-11-13T13:21:19Z</time>
      </trkpt>
      <trkpt lat="43.76718" lon="6.26405">
        <ele>1129.21</ele>
        <time>2025-11-13T13:21:40Z</time>
      </trkpt>
      <trkpt lat="43.76718" lon="6.26404">
        <ele>1129.21</ele>
        <time>2025-11-13T13:22:10Z</time>
      </trkpt>
      <trkpt lat="43.76718" lon="6.26406">
        <ele>1129.21</ele>
        <time>2025-11-13T13:22:38Z</time>
      </trkpt>
      <trkpt lat="43.76717" lon="6.26407">
        <ele>1129.21</ele>
        <time>2025-11-13T13:22:47Z</time>
      </trkpt>
      <trkpt lat="43.76716" lon="6.26407">
        <ele>1129.21</ele>
        <time>2025-11-13T13:22:49Z</time>
      </trkpt>
      <trkpt lat="43.76715" lon="6.26407">
        <ele>1129.21</ele>
        <time>2025-11-13T13:22:50Z</time>
      </trkpt>
      <trkpt lat="43.76702" lon="6.26418">
        <ele>1129.21</ele>
        <time>2025-11-13T13:22:56Z</time>
      </trkpt>
      <trkpt lat="43.76684" lon="6.26443">
        <ele>1129.69</ele>
        <time>2025-11-13T13:23:04Z</time>
      </trkpt>
      <trkpt lat="43.76659" lon="6.26475">
        <ele>1131.13</ele>
        <time>2025-11-13T13:23:15Z</time>
      </trkpt>
      <trkpt lat="43.7663" lon="6.26481">
        <ele>1132.09</ele>
        <time>2025-11-13T13:23:25Z</time>
      </trkpt>
      <trkpt lat="43.76598" lon="6.26489">
        <ele>1134.97</ele>
        <time>2025-11-13T13:23:37Z</time>
      </trkpt>
      <trkpt lat="43.76573" lon="6.26506">
        <ele>1138.34</ele>
        <time>2025-11-13T13:23:47Z</time>
      </trkpt>
      <trkpt lat="43.76548" lon="6.26522">
        <ele>1141.22</ele>
        <time>2025-11-13T13:23:58Z</time>
      </trkpt>
      <trkpt lat="43.76521" lon="6.26549">
        <ele>1144.59</ele>
        <time>2025-11-13T13:24:11Z</time>
      </trkpt>
      <trkpt lat="43.76502" lon="6.26583">
        <ele>1147.47</ele>
        <time>2025-11-13T13:24:23Z</time>
      </trkpt>
      <trkpt lat="43.76486" lon="6.26611">
        <ele>1150.84</ele>
        <time>2025-11-13T13:24:34Z</time>
      </trkpt>
      <trkpt lat="43.76472" lon="6.26638">
        <ele>1152.76</ele>
        <time>2025-11-13T13:24:45Z</time>
      </trkpt>
      <trkpt lat="43.76466" lon="6.26676">
        <ele>1155.16</ele>
        <time>2025-11-13T13:24:56Z</time>
      </trkpt>
      <trkpt lat="43.76463" lon="6.26704">
        <ele>1156.6</ele>
        <time>2025-11-13T13:25:05Z</time>
      </trkpt>
      <trkpt lat="43.76452" lon="6.26734">
        <ele>1159.01</ele>
        <time>2025-11-13T13:25:16Z</time>
      </trkpt>
      <trkpt lat="43.76436" lon="6.26751">
        <ele>1160.93</ele>
        <time>2025-11-13T13:25:25Z</time>
      </trkpt>
      <trkpt lat="43.76417" lon="6.26775">
        <ele>1163.81</ele>
        <time>2025-11-13T13:25:36Z</time>
      </trkpt>
      <trkpt lat="43.76403" lon="6.26807">
        <ele>1165.74</ele>
        <time>2025-11-13T13:25:46Z</time>
      </trkpt>
      <trkpt lat="43.764" lon="6.26813">
        <ele>1166.22</ele>
        <time>2025-11-13T13:25:48Z</time>
      </trkpt>
      <trkpt lat="43.7638" lon="6.26834">
        <ele>1167.66</ele>
        <time>2025-11-13T13:25:59Z</time>
      </trkpt>
      <trkpt lat="43.76377" lon="6.26845">
        <ele>1168.62</ele>
        <time>2025-11-13T13:26:03Z</time>
      </trkpt>
      <trkpt lat="43.76376" lon="6.26851">
        <ele>1168.62</ele>
        <time>2025-11-13T13:26:05Z</time>
      </trkpt>
      <trkpt lat="43.76395" lon="6.26874">
        <ele>1170.54</ele>
        <time>2025-11-13T13:26:15Z</time>
      </trkpt>
      <trkpt lat="43.76414" lon="6.26902">
        <ele>1172.47</ele>
        <time>2025-11-13T13:26:26Z</time>
      </trkpt>
      <trkpt lat="43.76409" lon="6.2693">
        <ele>1174.39</ele>
        <time>2025-11-13T13:26:35Z</time>
      </trkpt>
      <trkpt lat="43.76401" lon="6.26964">
        <ele>1176.31</ele>
        <time>2025-11-13T13:26:47Z</time>
      </trkpt>
      <trkpt lat="43.76408" lon="6.27007">
        <ele>1178.71</ele>
        <time>2025-11-13T13:26:59Z</time>
      </trkpt>
      <trkpt lat="43.76417" lon="6.2704">
        <ele>1181.6</ele>
        <time>2025-11-13T13:27:10Z</time>
      </trkpt>
      <trkpt lat="43.7644" lon="6.27066">
        <ele>1184.48</ele>
        <time>2025-11-13T13:27:22Z</time>
      </trkpt>
      <trkpt lat="43.76469" lon="6.27081">
        <ele>1186.88</ele>
        <time>2025-11-13T13:27:35Z</time>
      </trkpt>
      <trkpt lat="43.76492" lon="6.27091">
        <ele>1189.29</ele>
        <time>2025-11-13T13:27:45Z</time>
      </trkpt>
      <trkpt lat="43.76517" lon="6.27104">
        <ele>1191.21</ele>
        <time>2025-11-13T13:27:58Z</time>
      </trkpt>
      <trkpt lat="43.76531" lon="6.27115">
        <ele>1193.13</ele>
        <time>2025-11-13T13:28:09Z</time>
      </trkpt>
      <trkpt lat="43.76533" lon="6.27115">
        <ele>1193.61</ele>
        <time>2025-11-13T13:28:21Z</time>
      </trkpt>
      <trkpt lat="43.76532" lon="6.27116">
        <ele>1194.09</ele>
        <time>2025-11-13T13:28:46Z</time>
      </trkpt>
      <trkpt lat="43.76537" lon="6.27126">
        <ele>1194.09</ele>
        <time>2025-11-13T13:28:54Z</time>
      </trkpt>
      <trkpt lat="43.76534" lon="6.27154">
        <ele>1196.02</ele>
        <time>2025-11-13T13:29:03Z</time>
      </trkpt>
      <trkpt lat="43.76532" lon="6.27156">
        <ele>1196.02</ele>
        <time>2025-11-13T13:29:04Z</time>
      </trkpt>
      <trkpt lat="43.76531" lon="6.27158">
        <ele>1196.02</ele>
        <time>2025-11-13T13:29:05Z</time>
      </trkpt>
      <trkpt lat="43.7653" lon="6.27161">
        <ele>1196.02</ele>
        <time>2025-11-13T13:29:06Z</time>
      </trkpt>
      <trkpt lat="43.76529" lon="6.27165">
        <ele>1196.98</ele>
        <time>2025-11-13T13:29:07Z</time>
      </trkpt>
      <trkpt lat="43.76529" lon="6.27167">
        <ele>1196.98</ele>
        <time>2025-11-13T13:29:08Z</time>
      </trkpt>
      <trkpt lat="43.76528" lon="6.2717">
        <ele>1196.98</ele>
        <time>2025-11-13T13:29:09Z</time>
      </trkpt>
      <trkpt lat="43.76528" lon="6.27173">
        <ele>1197.46</ele>
        <time>2025-11-13T13:29:10Z</time>
      </trkpt>
      <trkpt lat="43.76532" lon="6.27204">
        <ele>1196.5</ele>
        <time>2025-11-13T13:29:19Z</time>
      </trkpt>
      <trkpt lat="43.76533" lon="6.2721">
        <ele>1196.5</ele>
        <time>2025-11-13T13:29:20Z</time>
      </trkpt>
      <trkpt lat="43.76542" lon="6.27252">
        <ele>1193.61</ele>
        <time>2025-11-13T13:29:26Z</time>
      </trkpt>
      <trkpt lat="43.76544" lon="6.2726">
        <ele>1193.61</ele>
        <time>2025-11-13T13:29:27Z</time>
      </trkpt>
      <trkpt lat="43.76559" lon="6.27304">
        <ele>1189.77</ele>
        <time>2025-11-13T13:29:32Z</time>
      </trkpt>
      <trkpt lat="43.76585" lon="6.27355">
        <ele>1186.4</ele>
        <time>2025-11-13T13:29:38Z</time>
      </trkpt>
      <trkpt lat="43.76607" lon="6.27383">
        <ele>1184</ele>
        <time>2025-11-13T13:29:45Z</time>
      </trkpt>
      <trkpt lat="43.76623" lon="6.27388">
        <ele>1183.04</ele>
        <time>2025-11-13T13:29:54Z</time>
      </trkpt>
      <trkpt lat="43.76622" lon="6.27388">
        <ele>1182.56</ele>
        <time>2025-11-13T13:30:05Z</time>
      </trkpt>
      <trkpt lat="43.76623" lon="6.27387">
        <ele>1182.56</ele>
        <time>2025-11-13T13:30:26Z</time>
      </trkpt>
      <trkpt lat="43.76622" lon="6.27387">
        <ele>1183.04</ele>
        <time>2025-11-13T13:30:51Z</time>
      </trkpt>
      <trkpt lat="43.76623" lon="6.27387">
        <ele>1184</ele>
        <time>2025-11-13T13:31:13Z</time>
      </trkpt>
      <trkpt lat="43.76623" lon="6.27387">
        <ele>1184</ele>
        <time>2025-11-13T13:31:29Z</time>
      </trkpt>
      <trkpt lat="43.76622" lon="6.27388">
        <ele>1184</ele>
        <time>2025-11-13T13:31:49Z</time>
      </trkpt>
      <trkpt lat="43.76622" lon="6.27389">
        <ele>1184</ele>
        <time>2025-11-13T13:32:06Z</time>
      </trkpt>
      <trkpt lat="43.76622" lon="6.2739">
        <ele>1184</ele>
        <time>2025-11-13T13:32:28Z</time>
      </trkpt>
      <trkpt lat="43.76623" lon="6.27389">
        <ele>1184.48</ele>
        <time>2025-11-13T13:32:47Z</time>
      </trkpt>
      <trkpt lat="43.76623" lon="6.27388">
        <ele>1184.48</ele>
        <time>2025-11-13T13:33:08Z</time>
      </trkpt>
      <trkpt lat="43.76623" lon="6.27389">
        <ele>1184.96</ele>
        <time>2025-11-13T13:33:17Z</time>
      </trkpt>
      <trkpt lat="43.76624" lon="6.27391">
        <ele>1184.96</ele>
        <time>2025-11-13T13:33:18Z</time>
      </trkpt>
      <trkpt lat="43.76625" lon="6.27392">
        <ele>1184.96</ele>
        <time>2025-11-13T13:33:19Z</time>
      </trkpt>
      <trkpt lat="43.76626" lon="6.27394">
        <ele>1184.96</ele>
        <time>2025-11-13T13:33:20Z</time>
      </trkpt>
      <trkpt lat="43.76629" lon="6.27396">
        <ele>1184.96</ele>
        <time>2025-11-13T13:33:21Z</time>
      </trkpt>
      <trkpt lat="43.76632" lon="6.27399">
        <ele>1183.52</ele>
        <time>2025-11-13T13:33:22Z</time>
      </trkpt>
      <trkpt lat="43.76634" lon="6.274">
        <ele>1183.52</ele>
        <time>2025-11-13T13:33:23Z</time>
      </trkpt>
      <trkpt lat="43.76674" lon="6.27415">
        <ele>1180.64</ele>
        <time>2025-11-13T13:33:31Z</time>
      </trkpt>
      <trkpt lat="43.76703" lon="6.27421">
        <ele>1177.75</ele>
        <time>2025-11-13T13:33:36Z</time>
      </trkpt>
      <trkpt lat="43.76741" lon="6.27428">
        <ele>1174.39</ele>
        <time>2025-11-13T13:33:43Z</time>
      </trkpt>
      <trkpt lat="43.7676" lon="6.27428">
        <ele>1171.98</ele>
        <time>2025-11-13T13:33:51Z</time>
      </trkpt>
      <trkpt lat="43.76761" lon="6.27428">
        <ele>1171.98</ele>
        <time>2025-11-13T13:33:52Z</time>
      </trkpt>
      <trkpt lat="43.76762" lon="6.27429">
        <ele>1171.98</ele>
        <time>2025-11-13T13:33:53Z</time>
      </trkpt>
      <trkpt lat="43.76763" lon="6.2743">
        <ele>1171.5</ele>
        <time>2025-11-13T13:33:54Z</time>
      </trkpt>
      <trkpt lat="43.76764" lon="6.27432">
        <ele>1171.5</ele>
        <time>2025-11-13T13:33:55Z</time>
      </trkpt>
      <trkpt lat="43.76765" lon="6.27433">
        <ele>1171.5</ele>
        <time>2025-11-13T13:33:56Z</time>
      </trkpt>
      <trkpt lat="43.76768" lon="6.27436">
        <ele>1171.02</ele>
        <time>2025-11-13T13:34:08Z</time>
      </trkpt>
      <trkpt lat="43.76768" lon="6.27437">
        <ele>1170.54</ele>
        <time>2025-11-13T13:34:11Z</time>
      </trkpt>
      <trkpt lat="43.76768" lon="6.27438">
        <ele>1170.54</ele>
        <time>2025-11-13T13:34:12Z</time>
      </trkpt>
      <trkpt lat="43.76769" lon="6.2744">
        <ele>1170.54</ele>
        <time>2025-11-13T13:34:13Z</time>
      </trkpt>
      <trkpt lat="43.76771" lon="6.27443">
        <ele>1170.54</ele>
        <time>2025-11-13T13:34:15Z</time>
      </trkpt>
      <trkpt lat="43.76773" lon="6.27445">
        <ele>1170.54</ele>
        <time>2025-11-13T13:34:16Z</time>
      </trkpt>
      <trkpt lat="43.76774" lon="6.27446">
        <ele>1170.54</ele>
        <time>2025-11-13T13:34:17Z</time>
      </trkpt>
      <trkpt lat="43.76774" lon="6.27448">
        <ele>1170.06</ele>
        <time>2025-11-13T13:34:18Z</time>
      </trkpt>
      <trkpt lat="43.76776" lon="6.27449">
        <ele>1171.5</ele>
        <time>2025-11-13T13:34:28Z</time>
      </trkpt>
      <trkpt lat="43.76776" lon="6.27449">
        <ele>1171.5</ele>
        <time>2025-11-13T13:34:49Z</time>
      </trkpt>
      <trkpt lat="43.76776" lon="6.27449">
        <ele>1171.5</ele>
        <time>2025-11-13T13:35:12Z</time>
      </trkpt>
      <trkpt lat="43.76775" lon="6.27449">
        <ele>1170.54</ele>
        <time>2025-11-13T13:35:20Z</time>
      </trkpt>
      <trkpt lat="43.76774" lon="6.2745">
        <ele>1169.58</ele>
        <time>2025-11-13T13:35:34Z</time>
      </trkpt>
      <trkpt lat="43.76774" lon="6.27451">
        <ele>1169.58</ele>
        <time>2025-11-13T13:35:40Z</time>
      </trkpt>
      <trkpt lat="43.76773" lon="6.27453">
        <ele>1169.58</ele>
        <time>2025-11-13T13:35:41Z</time>
      </trkpt>
      <trkpt lat="43.76773" lon="6.27455">
        <ele>1169.58</ele>
        <time>2025-11-13T13:35:42Z</time>
      </trkpt>
      <trkpt lat="43.76772" lon="6.27457">
        <ele>1169.58</ele>
        <time>2025-11-13T13:35:43Z</time>
      </trkpt>
      <trkpt lat="43.76771" lon="6.27459">
        <ele>1169.58</ele>
        <time>2025-11-13T13:35:44Z</time>
      </trkpt>
      <trkpt lat="43.76771" lon="6.27461">
        <ele>1169.58</ele>
        <time>2025-11-13T13:35:45Z</time>
      </trkpt>
      <trkpt lat="43.76769" lon="6.27462">
        <ele>1169.58</ele>
        <time>2025-11-13T13:35:46Z</time>
      </trkpt>
      <trkpt lat="43.76751" lon="6.27482">
        <ele>1169.1</ele>
        <time>2025-11-13T13:35:54Z</time>
      </trkpt>
      <trkpt lat="43.76748" lon="6.27487">
        <ele>1168.14</ele>
        <time>2025-11-13T13:35:55Z</time>
      </trkpt>
      <trkpt lat="43.76742" lon="6.27497">
        <ele>1167.66</ele>
        <time>2025-11-13T13:35:57Z</time>
      </trkpt>
      <trkpt lat="43.76718" lon="6.27539">
        <ele>1164.29</ele>
        <time>2025-11-13T13:36:04Z</time>
      </trkpt>
      <trkpt lat="43.76706" lon="6.27567">
        <ele>1162.85</ele>
        <time>2025-11-13T13:36:08Z</time>
      </trkpt>
      <trkpt lat="43.76694" lon="6.27619">
        <ele>1159.49</ele>
        <time>2025-11-13T13:36:14Z</time>
      </trkpt>
      <trkpt lat="43.76686" lon="6.27654">
        <ele>1157.08</ele>
        <time>2025-11-13T13:36:18Z</time>
      </trkpt>
      <trkpt lat="43.76684" lon="6.27663">
        <ele>1156.6</ele>
        <time>2025-11-13T13:36:19Z</time>
      </trkpt>
      <trkpt lat="43.76681" lon="6.2767">
        <ele>1156.12</ele>
        <time>2025-11-13T13:36:20Z</time>
      </trkpt>
      <trkpt lat="43.76678" lon="6.27678">
        <ele>1155.16</ele>
        <time>2025-11-13T13:36:21Z</time>
      </trkpt>
      <trkpt lat="43.76674" lon="6.27684">
        <ele>1154.68</ele>
        <time>2025-11-13T13:36:22Z</time>
      </trkpt>
      <trkpt lat="43.7667" lon="6.2769">
        <ele>1153.72</ele>
        <time>2025-11-13T13:36:23Z</time>
      </trkpt>
      <trkpt lat="43.76655" lon="6.27713">
        <ele>1151.32</ele>
        <time>2025-11-13T13:36:27Z</time>
      </trkpt>
      <trkpt lat="43.76651" lon="6.27717">
        <ele>1150.84</ele>
        <time>2025-11-13T13:36:28Z</time>
      </trkpt>
      <trkpt lat="43.76618" lon="6.27749">
        <ele>1147.47</ele>
        <time>2025-11-13T13:36:35Z</time>
      </trkpt>
      <trkpt lat="43.76583" lon="6.27774">
        <ele>1144.11</ele>
        <time>2025-11-13T13:36:42Z</time>
      </trkpt>
      <trkpt lat="43.76562" lon="6.27784">
        <ele>1142.18</ele>
        <time>2025-11-13T13:36:46Z</time>
      </trkpt>
      <trkpt lat="43.76558" lon="6.27788">
        <ele>1141.7</ele>
        <time>2025-11-13T13:36:47Z</time>
      </trkpt>
      <trkpt lat="43.76554" lon="6.27795">
        <ele>1141.22</ele>
        <time>2025-11-13T13:36:48Z</time>
      </trkpt>
      <trkpt lat="43.76552" lon="6.27802">
        <ele>1141.22</ele>
        <time>2025-11-13T13:36:49Z</time>
      </trkpt>
      <trkpt lat="43.76551" lon="6.27811">
        <ele>1140.26</ele>
        <time>2025-11-13T13:36:50Z</time>
      </trkpt>
      <trkpt lat="43.7655" lon="6.27819">
        <ele>1139.78</ele>
        <time>2025-11-13T13:36:51Z</time>
      </trkpt>
      <trkpt lat="43.7655" lon="6.27827">
        <ele>1140.26</ele>
        <time>2025-11-13T13:36:52Z</time>
      </trkpt>
      <trkpt lat="43.76549" lon="6.27851">
        <ele>1138.82</ele>
        <time>2025-11-13T13:36:55Z</time>
      </trkpt>
      <trkpt lat="43.76548" lon="6.27859">
        <ele>1138.34</ele>
        <time>2025-11-13T13:36:56Z</time>
      </trkpt>
      <trkpt lat="43.76546" lon="6.27866">
        <ele>1137.86</ele>
        <time>2025-11-13T13:36:57Z</time>
      </trkpt>
      <trkpt lat="43.7653" lon="6.27909">
        <ele>1134.49</ele>
        <time>2025-11-13T13:37:03Z</time>
      </trkpt>
      <trkpt lat="43.76504" lon="6.27957">
        <ele>1131.13</ele>
        <time>2025-11-13T13:37:11Z</time>
      </trkpt>
      <trkpt lat="43.76478" lon="6.27997">
        <ele>1127.28</ele>
        <time>2025-11-13T13:37:18Z</time>
      </trkpt>
      <trkpt lat="43.76467" lon="6.28015">
        <ele>1125.84</ele>
        <time>2025-11-13T13:37:21Z</time>
      </trkpt>
      <trkpt lat="43.76448" lon="6.28047">
        <ele>1122.96</ele>
        <time>2025-11-13T13:37:27Z</time>
      </trkpt>
      <trkpt lat="43.76421" lon="6.28089">
        <ele>1119.11</ele>
        <time>2025-11-13T13:37:35Z</time>
      </trkpt>
      <trkpt lat="43.76396" lon="6.28124">
        <ele>1116.23</ele>
        <time>2025-11-13T13:37:42Z</time>
      </trkpt>
      <trkpt lat="43.76374" lon="6.28155">
        <ele>1112.86</ele>
        <time>2025-11-13T13:37:48Z</time>
      </trkpt>
      <trkpt lat="43.76372" lon="6.28158">
        <ele>1112.38</ele>
        <time>2025-11-13T13:37:49Z</time>
      </trkpt>
      <trkpt lat="43.76368" lon="6.28162">
        <ele>1112.38</ele>
        <time>2025-11-13T13:37:50Z</time>
      </trkpt>
      <trkpt lat="43.76364" lon="6.28165">
        <ele>1111.42</ele>
        <time>2025-11-13T13:37:51Z</time>
      </trkpt>
      <trkpt lat="43.76355" lon="6.28171">
        <ele>1110.94</ele>
        <time>2025-11-13T13:37:53Z</time>
      </trkpt>
      <trkpt lat="43.76351" lon="6.28174">
        <ele>1110.46</ele>
        <time>2025-11-13T13:37:54Z</time>
      </trkpt>
      <trkpt lat="43.76346" lon="6.28177">
        <ele>1109.5</ele>
        <time>2025-11-13T13:37:55Z</time>
      </trkpt>
      <trkpt lat="43.76342" lon="6.28178">
        <ele>1109.5</ele>
        <time>2025-11-13T13:37:56Z</time>
      </trkpt>
      <trkpt lat="43.76337" lon="6.28178">
        <ele>1108.54</ele>
        <time>2025-11-13T13:37:57Z</time>
      </trkpt>
      <trkpt lat="43.76334" lon="6.28178">
        <ele>1109.02</ele>
        <time>2025-11-13T13:37:58Z</time>
      </trkpt>
      <trkpt lat="43.7632" lon="6.28175">
        <ele>1107.1</ele>
        <time>2025-11-13T13:38:02Z</time>
      </trkpt>
      <trkpt lat="43.76307" lon="6.28173">
        <ele>1105.17</ele>
        <time>2025-11-13T13:38:10Z</time>
      </trkpt>
      <trkpt lat="43.76306" lon="6.28173">
        <ele>1105.65</ele>
        <time>2025-11-13T13:38:24Z</time>
      </trkpt>
      <trkpt lat="43.76308" lon="6.28174">
        <ele>1105.65</ele>
        <time>2025-11-13T13:38:38Z</time>
      </trkpt>
      <trkpt lat="43.76309" lon="6.28171">
        <ele>1105.17</ele>
        <time>2025-11-13T13:39:03Z</time>
      </trkpt>
      <trkpt lat="43.76311" lon="6.28169">
        <ele>1105.17</ele>
        <time>2025-11-13T13:39:30Z</time>
      </trkpt>
      <trkpt lat="43.7631" lon="6.28171">
        <ele>1105.17</ele>
        <time>2025-11-13T13:40:01Z</time>
      </trkpt>
      <trkpt lat="43.76309" lon="6.28174">
        <ele>1105.17</ele>
        <time>2025-11-13T13:40:23Z</time>
      </trkpt>
      <trkpt lat="43.76309" lon="6.28173">
        <ele>1105.17</ele>
        <time>2025-11-13T13:40:48Z</time>
      </trkpt>
      <trkpt lat="43.76307" lon="6.28173">
        <ele>1105.17</ele>
        <time>2025-11-13T13:41:16Z</time>
      </trkpt>
      <trkpt lat="43.76309" lon="6.28173">
        <ele>1105.17</ele>
        <time>2025-11-13T13:41:39Z</time>
      </trkpt>
      <trkpt lat="43.76309" lon="6.28171">
        <ele>1105.17</ele>
        <time>2025-11-13T13:42:09Z</time>
      </trkpt>
      <trkpt lat="43.76311" lon="6.28171">
        <ele>1105.17</ele>
        <time>2025-11-13T13:42:32Z</time>
      </trkpt>
      <trkpt lat="43.76308" lon="6.28174">
        <ele>1105.17</ele>
        <time>2025-11-13T13:42:47Z</time>
      </trkpt>
      <trkpt lat="43.76306" lon="6.28175">
        <ele>1105.17</ele>
        <time>2025-11-13T13:43:02Z</time>
      </trkpt>
      <trkpt lat="43.76304" lon="6.28178">
        <ele>1105.17</ele>
        <time>2025-11-13T13:43:22Z</time>
      </trkpt>
      <trkpt lat="43.76287" lon="6.28202">
        <ele>1103.73</ele>
        <time>2025-11-13T13:43:30Z</time>
      </trkpt>
      <trkpt lat="43.76264" lon="6.28228">
        <ele>1101.33</ele>
        <time>2025-11-13T13:43:40Z</time>
      </trkpt>
      <trkpt lat="43.76234" lon="6.28255">
        <ele>1097.96</ele>
        <time>2025-11-13T13:43:46Z</time>
      </trkpt>
      <trkpt lat="43.76225" lon="6.28264">
        <ele>1097</ele>
        <time>2025-11-13T13:43:48Z</time>
      </trkpt>
      <trkpt lat="43.76221" lon="6.2827">
        <ele>1096.04</ele>
        <time>2025-11-13T13:43:49Z</time>
      </trkpt>
      <trkpt lat="43.76203" lon="6.28296">
        <ele>1094.6</ele>
        <time>2025-11-13T13:43:53Z</time>
      </trkpt>
      <trkpt lat="43.76197" lon="6.28301">
        <ele>1094.6</ele>
        <time>2025-11-13T13:43:54Z</time>
      </trkpt>
      <trkpt lat="43.7619" lon="6.28306">
        <ele>1094.12</ele>
        <time>2025-11-13T13:43:55Z</time>
      </trkpt>
      <trkpt lat="43.76185" lon="6.28309">
        <ele>1093.64</ele>
        <time>2025-11-13T13:43:56Z</time>
      </trkpt>
      <trkpt lat="43.76179" lon="6.28312">
        <ele>1092.68</ele>
        <time>2025-11-13T13:43:57Z</time>
      </trkpt>
      <trkpt lat="43.76156" lon="6.28317">
        <ele>1090.75</ele>
        <time>2025-11-13T13:44:00Z</time>
      </trkpt>
      <trkpt lat="43.76149" lon="6.28317">
        <ele>1090.27</ele>
        <time>2025-11-13T13:44:01Z</time>
      </trkpt>
      <trkpt lat="43.76134" lon="6.28316">
        <ele>1089.31</ele>
        <time>2025-11-13T13:44:03Z</time>
      </trkpt>
      <trkpt lat="43.76126" lon="6.2832">
        <ele>1089.79</ele>
        <time>2025-11-13T13:44:04Z</time>
      </trkpt>
      <trkpt lat="43.76123" lon="6.28324">
        <ele>1089.31</ele>
        <time>2025-11-13T13:44:05Z</time>
      </trkpt>
      <trkpt lat="43.76119" lon="6.28332">
        <ele>1088.35</ele>
        <time>2025-11-13T13:44:06Z</time>
      </trkpt>
      <trkpt lat="43.76118" lon="6.28341">
        <ele>1088.83</ele>
        <time>2025-11-13T13:44:07Z</time>
      </trkpt>
      <trkpt lat="43.76117" lon="6.28351">
        <ele>1088.35</ele>
        <time>2025-11-13T13:44:08Z</time>
      </trkpt>
      <trkpt lat="43.76118" lon="6.2836">
        <ele>1088.83</ele>
        <time>2025-11-13T13:44:09Z</time>
      </trkpt>
      <trkpt lat="43.76119" lon="6.28369">
        <ele>1088.83</ele>
        <time>2025-11-13T13:44:10Z</time>
      </trkpt>
      <trkpt lat="43.76125" lon="6.28426">
        <ele>1085.95</ele>
        <time>2025-11-13T13:44:16Z</time>
      </trkpt>
      <trkpt lat="43.76126" lon="6.28435">
        <ele>1084.99</ele>
        <time>2025-11-13T13:44:17Z</time>
      </trkpt>
      <trkpt lat="43.76125" lon="6.28444">
        <ele>1084.5</ele>
        <time>2025-11-13T13:44:18Z</time>
      </trkpt>
      <trkpt lat="43.76122" lon="6.28453">
        <ele>1084.02</ele>
        <time>2025-11-13T13:44:19Z</time>
      </trkpt>
      <trkpt lat="43.76118" lon="6.28461">
        <ele>1083.54</ele>
        <time>2025-11-13T13:44:20Z</time>
      </trkpt>
      <trkpt lat="43.76113" lon="6.28468">
        <ele>1083.06</ele>
        <time>2025-11-13T13:44:21Z</time>
      </trkpt>
      <trkpt lat="43.76107" lon="6.28478">
        <ele>1082.58</ele>
        <time>2025-11-13T13:44:22Z</time>
      </trkpt>
      <trkpt lat="43.76072" lon="6.28512">
        <ele>1078.74</ele>
        <time>2025-11-13T13:44:28Z</time>
      </trkpt>
      <trkpt lat="43.76029" lon="6.28536">
        <ele>1076.33</ele>
        <time>2025-11-13T13:44:35Z</time>
      </trkpt>
      <trkpt lat="43.76024" lon="6.28542">
        <ele>1075.85</ele>
        <time>2025-11-13T13:44:36Z</time>
      </trkpt>
      <trkpt lat="43.76019" lon="6.28548">
        <ele>1075.37</ele>
        <time>2025-11-13T13:44:37Z</time>
      </trkpt>
      <trkpt lat="43.76017" lon="6.28556">
        <ele>1075.37</ele>
        <time>2025-11-13T13:44:38Z</time>
      </trkpt>
      <trkpt lat="43.76014" lon="6.28565">
        <ele>1074.41</ele>
        <time>2025-11-13T13:44:39Z</time>
      </trkpt>
      <trkpt lat="43.76012" lon="6.28575">
        <ele>1074.41</ele>
        <time>2025-11-13T13:44:40Z</time>
      </trkpt>
      <trkpt lat="43.76011" lon="6.28581">
        <ele>1073.45</ele>
        <time>2025-11-13T13:44:41Z</time>
      </trkpt>
      <trkpt lat="43.76008" lon="6.28589">
        <ele>1073.45</ele>
        <time>2025-11-13T13:44:42Z</time>
      </trkpt>
      <trkpt lat="43.76005" lon="6.28596">
        <ele>1072.49</ele>
        <time>2025-11-13T13:44:43Z</time>
      </trkpt>
      <trkpt lat="43.76001" lon="6.28603">
        <ele>1072.01</ele>
        <time>2025-11-13T13:44:44Z</time>
      </trkpt>
      <trkpt lat="43.75997" lon="6.2861">
        <ele>1071.53</ele>
        <time>2025-11-13T13:44:45Z</time>
      </trkpt>
      <trkpt lat="43.75965" lon="6.28659">
        <ele>1068.16</ele>
        <time>2025-11-13T13:44:52Z</time>
      </trkpt>
      <trkpt lat="43.75953" lon="6.2867">
        <ele>1067.68</ele>
        <time>2025-11-13T13:44:54Z</time>
      </trkpt>
      <trkpt lat="43.75934" lon="6.28686">
        <ele>1065.28</ele>
        <time>2025-11-13T13:44:57Z</time>
      </trkpt>
      <trkpt lat="43.75928" lon="6.28694">
        <ele>1064.8</ele>
        <time>2025-11-13T13:44:58Z</time>
      </trkpt>
      <trkpt lat="43.75925" lon="6.28699">
        <ele>1064.32</ele>
        <time>2025-11-13T13:44:59Z</time>
      </trkpt>
      <trkpt lat="43.75923" lon="6.28708">
        <ele>1063.84</ele>
        <time>2025-11-13T13:45:00Z</time>
      </trkpt>
      <trkpt lat="43.75923" lon="6.28717">
        <ele>1062.87</ele>
        <time>2025-11-13T13:45:01Z</time>
      </trkpt>
      <trkpt lat="43.75925" lon="6.28726">
        <ele>1062.87</ele>
        <time>2025-11-13T13:45:02Z</time>
      </trkpt>
      <trkpt lat="43.75927" lon="6.28735">
        <ele>1062.39</ele>
        <time>2025-11-13T13:45:03Z</time>
      </trkpt>
      <trkpt lat="43.7593" lon="6.28743">
        <ele>1061.91</ele>
        <time>2025-11-13T13:45:04Z</time>
      </trkpt>
      <trkpt lat="43.75948" lon="6.28803">
        <ele>1059.51</ele>
        <time>2025-11-13T13:45:11Z</time>
      </trkpt>
      <trkpt lat="43.75949" lon="6.28812">
        <ele>1059.51</ele>
        <time>2025-11-13T13:45:12Z</time>
      </trkpt>
      <trkpt lat="43.75948" lon="6.28821">
        <ele>1058.55</ele>
        <time>2025-11-13T13:45:13Z</time>
      </trkpt>
      <trkpt lat="43.75947" lon="6.28831">
        <ele>1058.07</ele>
        <time>2025-11-13T13:45:14Z</time>
      </trkpt>
      <trkpt lat="43.75945" lon="6.28841">
        <ele>1057.11</ele>
        <time>2025-11-13T13:45:15Z</time>
      </trkpt>
      <trkpt lat="43.75941" lon="6.28852">
        <ele>1056.63</ele>
        <time>2025-11-13T13:45:16Z</time>
      </trkpt>
      <trkpt lat="43.75936" lon="6.2886">
        <ele>1056.63</ele>
        <time>2025-11-13T13:45:17Z</time>
      </trkpt>
      <trkpt lat="43.75933" lon="6.28865">
        <ele>1055.67</ele>
        <time>2025-11-13T13:45:18Z</time>
      </trkpt>
      <trkpt lat="43.75927" lon="6.28871">
        <ele>1055.67</ele>
        <time>2025-11-13T13:45:19Z</time>
      </trkpt>
      <trkpt lat="43.75922" lon="6.28876">
        <ele>1055.67</ele>
        <time>2025-11-13T13:45:20Z</time>
      </trkpt>
      <trkpt lat="43.75916" lon="6.28882">
        <ele>1055.67</ele>
        <time>2025-11-13T13:45:21Z</time>
      </trkpt>
      <trkpt lat="43.75905" lon="6.28893">
        <ele>1054.22</ele>
        <time>2025-11-13T13:45:23Z</time>
      </trkpt>
      <trkpt lat="43.759" lon="6.28899">
        <ele>1053.26</ele>
        <time>2025-11-13T13:45:24Z</time>
      </trkpt>
      <trkpt lat="43.75896" lon="6.28908">
        <ele>1053.26</ele>
        <time>2025-11-13T13:45:25Z</time>
      </trkpt>
      <trkpt lat="43.75893" lon="6.28917">
        <ele>1052.3</ele>
        <time>2025-11-13T13:45:26Z</time>
      </trkpt>
      <trkpt lat="43.75892" lon="6.28927">
        <ele>1052.3</ele>
        <time>2025-11-13T13:45:27Z</time>
      </trkpt>
      <trkpt lat="43.75893" lon="6.28933">
        <ele>1051.82</ele>
        <time>2025-11-13T13:45:28Z</time>
      </trkpt>
      <trkpt lat="43.75893" lon="6.28941">
        <ele>1051.34</ele>
        <time>2025-11-13T13:45:29Z</time>
      </trkpt>
      <trkpt lat="43.75895" lon="6.28949">
        <ele>1051.34</ele>
        <time>2025-11-13T13:45:30Z</time>
      </trkpt>
      <trkpt lat="43.75897" lon="6.28966">
        <ele>1050.86</ele>
        <time>2025-11-13T13:45:32Z</time>
      </trkpt>
      <trkpt lat="43.75897" lon="6.28974">
        <ele>1050.86</ele>
        <time>2025-11-13T13:45:33Z</time>
      </trkpt>
      <trkpt lat="43.75896" lon="6.28983">
        <ele>1049.9</ele>
        <time>2025-11-13T13:45:34Z</time>
      </trkpt>
      <trkpt lat="43.75895" lon="6.28992">
        <ele>1049.42</ele>
        <time>2025-11-13T13:45:35Z</time>
      </trkpt>
      <trkpt lat="43.75893" lon="6.29">
        <ele>1048.94</ele>
        <time>2025-11-13T13:45:36Z</time>
      </trkpt>
      <trkpt lat="43.7589" lon="6.29007">
        <ele>1048.45</ele>
        <time>2025-11-13T13:45:37Z</time>
      </trkpt>
      <trkpt lat="43.75888" lon="6.29012">
        <ele>1048.45</ele>
        <time>2025-11-13T13:45:38Z</time>
      </trkpt>
      <trkpt lat="43.75884" lon="6.29018">
        <ele>1048.45</ele>
        <time>2025-11-13T13:45:39Z</time>
      </trkpt>
      <trkpt lat="43.7588" lon="6.29025">
        <ele>1048.45</ele>
        <time>2025-11-13T13:45:40Z</time>
      </trkpt>
      <trkpt lat="43.7585" lon="6.29067">
        <ele>1045.09</ele>
        <time>2025-11-13T13:45:46Z</time>
      </trkpt>
      <trkpt lat="43.75845" lon="6.29075">
        <ele>1045.09</ele>
        <time>2025-11-13T13:45:47Z</time>
      </trkpt>
      <trkpt lat="43.75805" lon="6.29126">
        <ele>1042.69</ele>
        <time>2025-11-13T13:45:55Z</time>
      </trkpt>
      <trkpt lat="43.75799" lon="6.2913">
        <ele>1042.69</ele>
        <time>2025-11-13T13:45:56Z</time>
      </trkpt>
      <trkpt lat="43.7579" lon="6.29137">
        <ele>1042.21</ele>
        <time>2025-11-13T13:45:58Z</time>
      </trkpt>
      <trkpt lat="43.75786" lon="6.29142">
        <ele>1042.21</ele>
        <time>2025-11-13T13:45:59Z</time>
      </trkpt>
      <trkpt lat="43.75783" lon="6.29148">
        <ele>1042.21</ele>
        <time>2025-11-13T13:46:00Z</time>
      </trkpt>
      <trkpt lat="43.75782" lon="6.29155">
        <ele>1042.21</ele>
        <time>2025-11-13T13:46:01Z</time>
      </trkpt>
      <trkpt lat="43.75783" lon="6.29162">
        <ele>1042.21</ele>
        <time>2025-11-13T13:46:02Z</time>
      </trkpt>
      <trkpt lat="43.75784" lon="6.29169">
        <ele>1041.73</ele>
        <time>2025-11-13T13:46:03Z</time>
      </trkpt>
      <trkpt lat="43.75788" lon="6.29177">
        <ele>1041.73</ele>
        <time>2025-11-13T13:46:04Z</time>
      </trkpt>
      <trkpt lat="43.75791" lon="6.29184">
        <ele>1041.25</ele>
        <time>2025-11-13T13:46:05Z</time>
      </trkpt>
      <trkpt lat="43.75811" lon="6.29228">
        <ele>1039.32</ele>
        <time>2025-11-13T13:46:11Z</time>
      </trkpt>
      <trkpt lat="43.75816" lon="6.29234">
        <ele>1038.36</ele>
        <time>2025-11-13T13:46:12Z</time>
      </trkpt>
      <trkpt lat="43.75823" lon="6.29241">
        <ele>1038.36</ele>
        <time>2025-11-13T13:46:13Z</time>
      </trkpt>
      <trkpt lat="43.75828" lon="6.29245">
        <ele>1037.88</ele>
        <time>2025-11-13T13:46:14Z</time>
      </trkpt>
      <trkpt lat="43.75835" lon="6.2925">
        <ele>1036.92</ele>
        <time>2025-11-13T13:46:15Z</time>
      </trkpt>
      <trkpt lat="43.75872" lon="6.29279">
        <ele>1033.55</ele>
        <time>2025-11-13T13:46:21Z</time>
      </trkpt>
      <trkpt lat="43.75884" lon="6.29293">
        <ele>1032.11</ele>
        <time>2025-11-13T13:46:23Z</time>
      </trkpt>
      <trkpt lat="43.75888" lon="6.29301">
        <ele>1032.11</ele>
        <time>2025-11-13T13:46:24Z</time>
      </trkpt>
      <trkpt lat="43.75891" lon="6.29307">
        <ele>1031.63</ele>
        <time>2025-11-13T13:46:25Z</time>
      </trkpt>
      <trkpt lat="43.75893" lon="6.29318">
        <ele>1030.67</ele>
        <time>2025-11-13T13:46:26Z</time>
      </trkpt>
      <trkpt lat="43.75894" lon="6.29327">
        <ele>1029.71</ele>
        <time>2025-11-13T13:46:27Z</time>
      </trkpt>
      <trkpt lat="43.75893" lon="6.29337">
        <ele>1029.23</ele>
        <time>2025-11-13T13:46:28Z</time>
      </trkpt>
      <trkpt lat="43.75892" lon="6.29346">
        <ele>1028.75</ele>
        <time>2025-11-13T13:46:29Z</time>
      </trkpt>
      <trkpt lat="43.7589" lon="6.29355">
        <ele>1028.27</ele>
        <time>2025-11-13T13:46:30Z</time>
      </trkpt>
      <trkpt lat="43.75887" lon="6.29362">
        <ele>1027.79</ele>
        <time>2025-11-13T13:46:31Z</time>
      </trkpt>
      <trkpt lat="43.75882" lon="6.29372">
        <ele>1026.83</ele>
        <time>2025-11-13T13:46:32Z</time>
      </trkpt>
      <trkpt lat="43.75856" lon="6.29419">
        <ele>1023.46</ele>
        <time>2025-11-13T13:46:38Z</time>
      </trkpt>
      <trkpt lat="43.75821" lon="6.29458">
        <ele>1020.58</ele>
        <time>2025-11-13T13:46:44Z</time>
      </trkpt>
      <trkpt lat="43.75802" lon="6.29476">
        <ele>1019.13</ele>
        <time>2025-11-13T13:46:47Z</time>
      </trkpt>
      <trkpt lat="43.75789" lon="6.29487">
        <ele>1017.69</ele>
        <time>2025-11-13T13:46:49Z</time>
      </trkpt>
      <trkpt lat="43.75769" lon="6.29501">
        <ele>1015.77</ele>
        <time>2025-11-13T13:46:52Z</time>
      </trkpt>
      <trkpt lat="43.75761" lon="6.29504">
        <ele>1015.29</ele>
        <time>2025-11-13T13:46:53Z</time>
      </trkpt>
      <trkpt lat="43.75754" lon="6.29504">
        <ele>1014.33</ele>
        <time>2025-11-13T13:46:54Z</time>
      </trkpt>
      <trkpt lat="43.75747" lon="6.29502">
        <ele>1014.33</ele>
        <time>2025-11-13T13:46:55Z</time>
      </trkpt>
      <trkpt lat="43.7574" lon="6.295">
        <ele>1013.85</ele>
        <time>2025-11-13T13:46:56Z</time>
      </trkpt>
      <trkpt lat="43.75732" lon="6.29499">
        <ele>1012.89</ele>
        <time>2025-11-13T13:46:57Z</time>
      </trkpt>
      <trkpt lat="43.75725" lon="6.29499">
        <ele>1012.89</ele>
        <time>2025-11-13T13:46:58Z</time>
      </trkpt>
      <trkpt lat="43.75717" lon="6.29502">
        <ele>1012.41</ele>
        <time>2025-11-13T13:46:59Z</time>
      </trkpt>
      <trkpt lat="43.7571" lon="6.29507">
        <ele>1011.44</ele>
        <time>2025-11-13T13:47:00Z</time>
      </trkpt>
      <trkpt lat="43.75705" lon="6.29512">
        <ele>1010.96</ele>
        <time>2025-11-13T13:47:01Z</time>
      </trkpt>
      <trkpt lat="43.757" lon="6.29519">
        <ele>1010.48</ele>
        <time>2025-11-13T13:47:02Z</time>
      </trkpt>
      <trkpt lat="43.75695" lon="6.29528">
        <ele>1010.48</ele>
        <time>2025-11-13T13:47:03Z</time>
      </trkpt>
      <trkpt lat="43.75691" lon="6.29535">
        <ele>1009.52</ele>
        <time>2025-11-13T13:47:04Z</time>
      </trkpt>
      <trkpt lat="43.75661" lon="6.29587">
        <ele>1006.64</ele>
        <time>2025-11-13T13:47:12Z</time>
      </trkpt>
      <trkpt lat="43.75632" lon="6.2964">
        <ele>1003.27</ele>
        <time>2025-11-13T13:47:23Z</time>
      </trkpt>
      <trkpt lat="43.75605" lon="6.29681">
        <ele>1000.39</ele>
        <time>2025-11-13T13:47:30Z</time>
      </trkpt>
      <trkpt lat="43.7558" lon="6.29708">
        <ele>997.51</ele>
        <time>2025-11-13T13:47:35Z</time>
      </trkpt>
      <trkpt lat="43.75577" lon="6.29714">
        <ele>997.51</ele>
        <time>2025-11-13T13:47:36Z</time>
      </trkpt>
      <trkpt lat="43.75575" lon="6.29722">
        <ele>997.02</ele>
        <time>2025-11-13T13:47:37Z</time>
      </trkpt>
      <trkpt lat="43.75575" lon="6.29731">
        <ele>996.54</ele>
        <time>2025-11-13T13:47:38Z</time>
      </trkpt>
      <trkpt lat="43.75577" lon="6.29736">
        <ele>996.54</ele>
        <time>2025-11-13T13:47:39Z</time>
      </trkpt>
      <trkpt lat="43.7558" lon="6.29744">
        <ele>995.58</ele>
        <time>2025-11-13T13:47:40Z</time>
      </trkpt>
      <trkpt lat="43.75583" lon="6.2975">
        <ele>995.1</ele>
        <time>2025-11-13T13:47:41Z</time>
      </trkpt>
      <trkpt lat="43.75588" lon="6.29758">
        <ele>994.62</ele>
        <time>2025-11-13T13:47:42Z</time>
      </trkpt>
      <trkpt lat="43.75599" lon="6.29778">
        <ele>993.66</ele>
        <time>2025-11-13T13:47:45Z</time>
      </trkpt>
      <trkpt lat="43.75602" lon="6.29786">
        <ele>992.7</ele>
        <time>2025-11-13T13:47:46Z</time>
      </trkpt>
      <trkpt lat="43.75605" lon="6.29795">
        <ele>992.22</ele>
        <time>2025-11-13T13:47:47Z</time>
      </trkpt>
      <trkpt lat="43.75606" lon="6.29803">
        <ele>991.74</ele>
        <time>2025-11-13T13:47:48Z</time>
      </trkpt>
      <trkpt lat="43.7561" lon="6.29861">
        <ele>988.37</ele>
        <time>2025-11-13T13:47:54Z</time>
      </trkpt>
      <trkpt lat="43.75609" lon="6.29872">
        <ele>988.37</ele>
        <time>2025-11-13T13:47:55Z</time>
      </trkpt>
      <trkpt lat="43.75604" lon="6.29899">
        <ele>986.93</ele>
        <time>2025-11-13T13:47:58Z</time>
      </trkpt>
      <trkpt lat="43.75585" lon="6.29951">
        <ele>983.57</ele>
        <time>2025-11-13T13:48:04Z</time>
      </trkpt>
      <trkpt lat="43.75563" lon="6.29999">
        <ele>979.72</ele>
        <time>2025-11-13T13:48:10Z</time>
      </trkpt>
      <trkpt lat="43.75559" lon="6.30007">
        <ele>979.72</ele>
        <time>2025-11-13T13:48:11Z</time>
      </trkpt>
      <trkpt lat="43.75546" lon="6.30028">
        <ele>978.28</ele>
        <time>2025-11-13T13:48:14Z</time>
      </trkpt>
      <trkpt lat="43.75521" lon="6.30064">
        <ele>974.91</ele>
        <time>2025-11-13T13:48:19Z</time>
      </trkpt>
      <trkpt lat="43.75492" lon="6.30099">
        <ele>971.07</ele>
        <time>2025-11-13T13:48:24Z</time>
      </trkpt>
      <trkpt lat="43.75489" lon="6.30105">
        <ele>970.59</ele>
        <time>2025-11-13T13:48:25Z</time>
      </trkpt>
      <trkpt lat="43.75484" lon="6.30113">
        <ele>970.11</ele>
        <time>2025-11-13T13:48:26Z</time>
      </trkpt>
      <trkpt lat="43.75481" lon="6.30122">
        <ele>969.63</ele>
        <time>2025-11-13T13:48:27Z</time>
      </trkpt>
      <trkpt lat="43.75462" lon="6.30168">
        <ele>966.26</ele>
        <time>2025-11-13T13:48:32Z</time>
      </trkpt>
      <trkpt lat="43.75453" lon="6.30185">
        <ele>965.78</ele>
        <time>2025-11-13T13:48:34Z</time>
      </trkpt>
      <trkpt lat="43.75439" lon="6.30209">
        <ele>963.86</ele>
        <time>2025-11-13T13:48:37Z</time>
      </trkpt>
      <trkpt lat="43.7542" lon="6.30237">
        <ele>960.49</ele>
        <time>2025-11-13T13:48:41Z</time>
      </trkpt>
      <trkpt lat="43.75413" lon="6.30244">
        <ele>960.49</ele>
        <time>2025-11-13T13:48:42Z</time>
      </trkpt>
      <trkpt lat="43.75409" lon="6.30248">
        <ele>959.53</ele>
        <time>2025-11-13T13:48:43Z</time>
      </trkpt>
      <trkpt lat="43.75397" lon="6.30258">
        <ele>959.05</ele>
        <time>2025-11-13T13:48:45Z</time>
      </trkpt>
      <trkpt lat="43.75393" lon="6.30263">
        <ele>959.05</ele>
        <time>2025-11-13T13:48:46Z</time>
      </trkpt>
      <trkpt lat="43.7539" lon="6.30269">
        <ele>959.53</ele>
        <time>2025-11-13T13:48:47Z</time>
      </trkpt>
      <trkpt lat="43.75388" lon="6.30277">
        <ele>958.57</ele>
        <time>2025-11-13T13:48:48Z</time>
      </trkpt>
      <trkpt lat="43.75387" lon="6.30285">
        <ele>958.09</ele>
        <time>2025-11-13T13:48:49Z</time>
      </trkpt>
      <trkpt lat="43.75389" lon="6.30293">
        <ele>958.09</ele>
        <time>2025-11-13T13:48:50Z</time>
      </trkpt>
      <trkpt lat="43.75393" lon="6.303">
        <ele>957.61</ele>
        <time>2025-11-13T13:48:51Z</time>
      </trkpt>
      <trkpt lat="43.75397" lon="6.30304">
        <ele>957.61</ele>
        <time>2025-11-13T13:48:52Z</time>
      </trkpt>
      <trkpt lat="43.75402" lon="6.30306">
        <ele>956.65</ele>
        <time>2025-11-13T13:48:53Z</time>
      </trkpt>
      <trkpt lat="43.75408" lon="6.30306">
        <ele>956.65</ele>
        <time>2025-11-13T13:48:54Z</time>
      </trkpt>
      <trkpt lat="43.75412" lon="6.30303">
        <ele>956.17</ele>
        <time>2025-11-13T13:48:55Z</time>
      </trkpt>
      <trkpt lat="43.75417" lon="6.30298">
        <ele>956.17</ele>
        <time>2025-11-13T13:48:56Z</time>
      </trkpt>
      <trkpt lat="43.7542" lon="6.30293">
        <ele>955.69</ele>
        <time>2025-11-13T13:48:57Z</time>
      </trkpt>
      <trkpt lat="43.75434" lon="6.30269">
        <ele>954.73</ele>
        <time>2025-11-13T13:49:02Z</time>
      </trkpt>
      <trkpt lat="43.75437" lon="6.30264">
        <ele>955.21</ele>
        <time>2025-11-13T13:49:03Z</time>
      </trkpt>
      <trkpt lat="43.7544" lon="6.30259">
        <ele>954.73</ele>
        <time>2025-11-13T13:49:04Z</time>
      </trkpt>
      <trkpt lat="43.75444" lon="6.30255">
        <ele>954.73</ele>
        <time>2025-11-13T13:49:05Z</time>
      </trkpt>
      <trkpt lat="43.75448" lon="6.30251">
        <ele>954.25</ele>
        <time>2025-11-13T13:49:06Z</time>
      </trkpt>
      <trkpt lat="43.75452" lon="6.30247">
        <ele>954.25</ele>
        <time>2025-11-13T13:49:07Z</time>
      </trkpt>
      <trkpt lat="43.75463" lon="6.3024">
        <ele>954.25</ele>
        <time>2025-11-13T13:49:09Z</time>
      </trkpt>
      <trkpt lat="43.75529" lon="6.30202">
        <ele>951.84</ele>
        <time>2025-11-13T13:49:21Z</time>
      </trkpt>
      <trkpt lat="43.75534" lon="6.30198">
        <ele>951.84</ele>
        <time>2025-11-13T13:49:22Z</time>
      </trkpt>
      <trkpt lat="43.7554" lon="6.30192">
        <ele>951.36</ele>
        <time>2025-11-13T13:49:23Z</time>
      </trkpt>
      <trkpt lat="43.75567" lon="6.30151">
        <ele>949.44</ele>
        <time>2025-11-13T13:49:29Z</time>
      </trkpt>
      <trkpt lat="43.7557" lon="6.30143">
        <ele>949.44</ele>
        <time>2025-11-13T13:49:30Z</time>
      </trkpt>
      <trkpt lat="43.75572" lon="6.30135">
        <ele>949.44</ele>
        <time>2025-11-13T13:49:31Z</time>
      </trkpt>
      <trkpt lat="43.75574" lon="6.30126">
        <ele>949.44</ele>
        <time>2025-11-13T13:49:32Z</time>
      </trkpt>
      <trkpt lat="43.75575" lon="6.30118">
        <ele>948.96</ele>
        <time>2025-11-13T13:49:33Z</time>
      </trkpt>
      <trkpt lat="43.75577" lon="6.30109">
        <ele>948.96</ele>
        <time>2025-11-13T13:49:34Z</time>
      </trkpt>
      <trkpt lat="43.75579" lon="6.30102">
        <ele>948</ele>
        <time>2025-11-13T13:49:35Z</time>
      </trkpt>
      <trkpt lat="43.75585" lon="6.30095">
        <ele>947.52</ele>
        <time>2025-11-13T13:49:36Z</time>
      </trkpt>
      <trkpt lat="43.75589" lon="6.30094">
        <ele>947.52</ele>
        <time>2025-11-13T13:49:37Z</time>
      </trkpt>
      <trkpt lat="43.75595" lon="6.30094">
        <ele>947.04</ele>
        <time>2025-11-13T13:49:38Z</time>
      </trkpt>
      <trkpt lat="43.75599" lon="6.30098">
        <ele>947.04</ele>
        <time>2025-11-13T13:49:39Z</time>
      </trkpt>
      <trkpt lat="43.75603" lon="6.30103">
        <ele>946.07</ele>
        <time>2025-11-13T13:49:40Z</time>
      </trkpt>
      <trkpt lat="43.75606" lon="6.30111">
        <ele>945.59</ele>
        <time>2025-11-13T13:49:41Z</time>
      </trkpt>
      <trkpt lat="43.75606" lon="6.30119">
        <ele>945.59</ele>
        <time>2025-11-13T13:49:42Z</time>
      </trkpt>
      <trkpt lat="43.75604" lon="6.30127">
        <ele>945.11</ele>
        <time>2025-11-13T13:49:43Z</time>
      </trkpt>
      <trkpt lat="43.75601" lon="6.30134">
        <ele>945.11</ele>
        <time>2025-11-13T13:49:44Z</time>
      </trkpt>
      <trkpt lat="43.75596" lon="6.30142">
        <ele>945.11</ele>
        <time>2025-11-13T13:49:45Z</time>
      </trkpt>
      <trkpt lat="43.75593" lon="6.30146">
        <ele>944.63</ele>
        <time>2025-11-13T13:49:46Z</time>
      </trkpt>
      <trkpt lat="43.75582" lon="6.30166">
        <ele>944.63</ele>
        <time>2025-11-13T13:49:49Z</time>
      </trkpt>
      <trkpt lat="43.75579" lon="6.30173">
        <ele>944.63</ele>
        <time>2025-11-13T13:49:50Z</time>
      </trkpt>
      <trkpt lat="43.75561" lon="6.30232">
        <ele>941.75</ele>
        <time>2025-11-13T13:49:57Z</time>
      </trkpt>
      <trkpt lat="43.75552" lon="6.3026">
        <ele>940.31</ele>
        <time>2025-11-13T13:50:00Z</time>
      </trkpt>
      <trkpt lat="43.75547" lon="6.30268">
        <ele>939.35</ele>
        <time>2025-11-13T13:50:01Z</time>
      </trkpt>
      <trkpt lat="43.75541" lon="6.30276">
        <ele>939.35</ele>
        <time>2025-11-13T13:50:02Z</time>
      </trkpt>
      <trkpt lat="43.75511" lon="6.30311">
        <ele>935.98</ele>
        <time>2025-11-13T13:50:07Z</time>
      </trkpt>
      <trkpt lat="43.75494" lon="6.30335">
        <ele>934.54</ele>
        <time>2025-11-13T13:50:10Z</time>
      </trkpt>
      <trkpt lat="43.7549" lon="6.30344">
        <ele>934.06</ele>
        <time>2025-11-13T13:50:11Z</time>
      </trkpt>
      <trkpt lat="43.75486" lon="6.30356">
        <ele>934.06</ele>
        <time>2025-11-13T13:50:12Z</time>
      </trkpt>
      <trkpt lat="43.75484" lon="6.30364">
        <ele>933.1</ele>
        <time>2025-11-13T13:50:13Z</time>
      </trkpt>
      <trkpt lat="43.75482" lon="6.30375">
        <ele>932.14</ele>
        <time>2025-11-13T13:50:14Z</time>
      </trkpt>
      <trkpt lat="43.75481" lon="6.30386">
        <ele>931.65</ele>
        <time>2025-11-13T13:50:15Z</time>
      </trkpt>
      <trkpt lat="43.75475" lon="6.30428">
        <ele>927.81</ele>
        <time>2025-11-13T13:50:19Z</time>
      </trkpt>
      <trkpt lat="43.75473" lon="6.30442">
        <ele>928.29</ele>
        <time>2025-11-13T13:50:20Z</time>
      </trkpt>
      <trkpt lat="43.7547" lon="6.30463">
        <ele>925.89</ele>
        <time>2025-11-13T13:50:22Z</time>
      </trkpt>
      <trkpt lat="43.75468" lon="6.30474">
        <ele>929.25</ele>
        <time>2025-11-13T13:50:23Z</time>
      </trkpt>
      <trkpt lat="43.75464" lon="6.30485">
        <ele>926.85</ele>
        <time>2025-11-13T13:50:24Z</time>
      </trkpt>
      <trkpt lat="43.7546" lon="6.30496">
        <ele>926.85</ele>
        <time>2025-11-13T13:50:25Z</time>
      </trkpt>
      <trkpt lat="43.75455" lon="6.30507">
        <ele>924.93</ele>
        <time>2025-11-13T13:50:26Z</time>
      </trkpt>
      <trkpt lat="43.75451" lon="6.30517">
        <ele>924.45</ele>
        <time>2025-11-13T13:50:27Z</time>
      </trkpt>
      <trkpt lat="43.75433" lon="6.3056">
        <ele>922.04</ele>
        <time>2025-11-13T13:50:31Z</time>
      </trkpt>
      <trkpt lat="43.7543" lon="6.30572">
        <ele>921.56</ele>
        <time>2025-11-13T13:50:32Z</time>
      </trkpt>
      <trkpt lat="43.75429" lon="6.30584">
        <ele>920.6</ele>
        <time>2025-11-13T13:50:33Z</time>
      </trkpt>
      <trkpt lat="43.75423" lon="6.30652">
        <ele>917.24</ele>
        <time>2025-11-13T13:50:38Z</time>
      </trkpt>
      <trkpt lat="43.75419" lon="6.30715">
        <ele>913.87</ele>
        <time>2025-11-13T13:50:43Z</time>
      </trkpt>
      <trkpt lat="43.75413" lon="6.30781">
        <ele>910.03</ele>
        <time>2025-11-13T13:50:48Z</time>
      </trkpt>
      <trkpt lat="43.7541" lon="6.30791">
        <ele>909.54</ele>
        <time>2025-11-13T13:50:49Z</time>
      </trkpt>
      <trkpt lat="43.75405" lon="6.30802">
        <ele>909.06</ele>
        <time>2025-11-13T13:50:50Z</time>
      </trkpt>
      <trkpt lat="43.75384" lon="6.30856">
        <ele>907.14</ele>
        <time>2025-11-13T13:50:55Z</time>
      </trkpt>
      <trkpt lat="43.75382" lon="6.30867">
        <ele>906.66</ele>
        <time>2025-11-13T13:50:56Z</time>
      </trkpt>
      <trkpt lat="43.75381" lon="6.30882">
        <ele>905.7</ele>
        <time>2025-11-13T13:50:57Z</time>
      </trkpt>
      <trkpt lat="43.75383" lon="6.30894">
        <ele>905.22</ele>
        <time>2025-11-13T13:50:58Z</time>
      </trkpt>
      <trkpt lat="43.75385" lon="6.30904">
        <ele>904.74</ele>
        <time>2025-11-13T13:50:59Z</time>
      </trkpt>
      <trkpt lat="43.75388" lon="6.30916">
        <ele>903.78</ele>
        <time>2025-11-13T13:51:00Z</time>
      </trkpt>
      <trkpt lat="43.75392" lon="6.30928">
        <ele>903.3</ele>
        <time>2025-11-13T13:51:01Z</time>
      </trkpt>
      <trkpt lat="43.75397" lon="6.30954">
        <ele>901.37</ele>
        <time>2025-11-13T13:51:03Z</time>
      </trkpt>
      <trkpt lat="43.75399" lon="6.30967">
        <ele>900.89</ele>
        <time>2025-11-13T13:51:04Z</time>
      </trkpt>
      <trkpt lat="43.75404" lon="6.31049">
        <ele>897.53</ele>
        <time>2025-11-13T13:51:10Z</time>
      </trkpt>
      <trkpt lat="43.75404" lon="6.31116">
        <ele>894.16</ele>
        <time>2025-11-13T13:51:15Z</time>
      </trkpt>
      <trkpt lat="43.75403" lon="6.31132">
        <ele>894.16</ele>
        <time>2025-11-13T13:51:16Z</time>
      </trkpt>
      <trkpt lat="43.75401" lon="6.31156">
        <ele>892.72</ele>
        <time>2025-11-13T13:51:18Z</time>
      </trkpt>
      <trkpt lat="43.75398" lon="6.31169">
        <ele>891.76</ele>
        <time>2025-11-13T13:51:19Z</time>
      </trkpt>
      <trkpt lat="43.75385" lon="6.31221">
        <ele>889.36</ele>
        <time>2025-11-13T13:51:23Z</time>
      </trkpt>
      <trkpt lat="43.75376" lon="6.31247">
        <ele>887.43</ele>
        <time>2025-11-13T13:51:25Z</time>
      </trkpt>
      <trkpt lat="43.75371" lon="6.31257">
        <ele>886.95</ele>
        <time>2025-11-13T13:51:26Z</time>
      </trkpt>
      <trkpt lat="43.75366" lon="6.31263">
        <ele>886.95</ele>
        <time>2025-11-13T13:51:27Z</time>
      </trkpt>
      <trkpt lat="43.75358" lon="6.3127">
        <ele>886.95</ele>
        <time>2025-11-13T13:51:28Z</time>
      </trkpt>
      <trkpt lat="43.7535" lon="6.31274">
        <ele>886.47</ele>
        <time>2025-11-13T13:51:29Z</time>
      </trkpt>
      <trkpt lat="43.75342" lon="6.31276">
        <ele>886.95</ele>
        <time>2025-11-13T13:51:30Z</time>
      </trkpt>
      <trkpt lat="43.75335" lon="6.31278">
        <ele>886.95</ele>
        <time>2025-11-13T13:51:31Z</time>
      </trkpt>
      <trkpt lat="43.75327" lon="6.31279">
        <ele>885.99</ele>
        <time>2025-11-13T13:51:32Z</time>
      </trkpt>
      <trkpt lat="43.7532" lon="6.31281">
        <ele>885.99</ele>
        <time>2025-11-13T13:51:33Z</time>
      </trkpt>
      <trkpt lat="43.75288" lon="6.31294">
        <ele>882.63</ele>
        <time>2025-11-13T13:51:38Z</time>
      </trkpt>
      <trkpt lat="43.75253" lon="6.31309">
        <ele>879.26</ele>
        <time>2025-11-13T13:51:43Z</time>
      </trkpt>
      <trkpt lat="43.75247" lon="6.31313">
        <ele>879.26</ele>
        <time>2025-11-13T13:51:44Z</time>
      </trkpt>
      <trkpt lat="43.75243" lon="6.3132">
        <ele>878.3</ele>
        <time>2025-11-13T13:51:45Z</time>
      </trkpt>
      <trkpt lat="43.75242" lon="6.31326">
        <ele>878.3</ele>
        <time>2025-11-13T13:51:46Z</time>
      </trkpt>
      <trkpt lat="43.75242" lon="6.31333">
        <ele>877.82</ele>
        <time>2025-11-13T13:51:47Z</time>
      </trkpt>
      <trkpt lat="43.75244" lon="6.31342">
        <ele>877.82</ele>
        <time>2025-11-13T13:51:48Z</time>
      </trkpt>
      <trkpt lat="43.75247" lon="6.31349">
        <ele>876.86</ele>
        <time>2025-11-13T13:51:49Z</time>
      </trkpt>
      <trkpt lat="43.75251" lon="6.31355">
        <ele>876.86</ele>
        <time>2025-11-13T13:51:50Z</time>
      </trkpt>
      <trkpt lat="43.75255" lon="6.31361">
        <ele>875.9</ele>
        <time>2025-11-13T13:51:51Z</time>
      </trkpt>
      <trkpt lat="43.75261" lon="6.31371">
        <ele>875.42</ele>
        <time>2025-11-13T13:51:53Z</time>
      </trkpt>
      <trkpt lat="43.75272" lon="6.31389">
        <ele>873.98</ele>
        <time>2025-11-13T13:51:59Z</time>
      </trkpt>
      <trkpt lat="43.75272" lon="6.3139">
        <ele>873.98</ele>
        <time>2025-11-13T13:52:00Z</time>
      </trkpt>
      <trkpt lat="43.75272" lon="6.31391">
        <ele>874.46</ele>
        <time>2025-11-13T13:52:11Z</time>
      </trkpt>
      <trkpt lat="43.75272" lon="6.31391">
        <ele>874.46</ele>
        <time>2025-11-13T13:52:30Z</time>
      </trkpt>
      <trkpt lat="43.75271" lon="6.3139">
        <ele>874.46</ele>
        <time>2025-11-13T13:52:49Z</time>
      </trkpt>
      <trkpt lat="43.75271" lon="6.31392">
        <ele>874.46</ele>
        <time>2025-11-13T13:53:09Z</time>
      </trkpt>
      <trkpt lat="43.7527" lon="6.31393">
        <ele>874.46</ele>
        <time>2025-11-13T13:53:10Z</time>
      </trkpt>
      <trkpt lat="43.75268" lon="6.31394">
        <ele>873.98</ele>
        <time>2025-11-13T13:53:11Z</time>
      </trkpt>
      <trkpt lat="43.7526" lon="6.31405">
        <ele>873.01</ele>
        <time>2025-11-13T13:53:15Z</time>
      </trkpt>
      <trkpt lat="43.75233" lon="6.31443">
        <ele>870.13</ele>
        <time>2025-11-13T13:53:22Z</time>
      </trkpt>
      <trkpt lat="43.75229" lon="6.3145">
        <ele>870.13</ele>
        <time>2025-11-13T13:53:23Z</time>
      </trkpt>
      <trkpt lat="43.75208" lon="6.31491">
        <ele>867.25</ele>
        <time>2025-11-13T13:53:28Z</time>
      </trkpt>
      <trkpt lat="43.7519" lon="6.31536">
        <ele>864.36</ele>
        <time>2025-11-13T13:53:33Z</time>
      </trkpt>
      <trkpt lat="43.75172" lon="6.31572">
        <ele>861</ele>
        <time>2025-11-13T13:53:37Z</time>
      </trkpt>
      <trkpt lat="43.75156" lon="6.31597">
        <ele>859.56</ele>
        <time>2025-11-13T13:53:40Z</time>
      </trkpt>
      <trkpt lat="43.75151" lon="6.31604">
        <ele>858.11</ele>
        <time>2025-11-13T13:53:41Z</time>
      </trkpt>
      <trkpt lat="43.75139" lon="6.31618">
        <ele>857.15</ele>
        <time>2025-11-13T13:53:43Z</time>
      </trkpt>
      <trkpt lat="43.75134" lon="6.31626">
        <ele>856.67</ele>
        <time>2025-11-13T13:53:44Z</time>
      </trkpt>
      <trkpt lat="43.75131" lon="6.31635">
        <ele>856.19</ele>
        <time>2025-11-13T13:53:45Z</time>
      </trkpt>
      <trkpt lat="43.75129" lon="6.31646">
        <ele>856.19</ele>
        <time>2025-11-13T13:53:46Z</time>
      </trkpt>
      <trkpt lat="43.75127" lon="6.31658">
        <ele>855.23</ele>
        <time>2025-11-13T13:53:47Z</time>
      </trkpt>
      <trkpt lat="43.75124" lon="6.31712">
        <ele>851.87</ele>
        <time>2025-11-13T13:53:52Z</time>
      </trkpt>
      <trkpt lat="43.75125" lon="6.3176">
        <ele>848.5</ele>
        <time>2025-11-13T13:53:56Z</time>
      </trkpt>
      <trkpt lat="43.75128" lon="6.31817">
        <ele>845.14</ele>
        <time>2025-11-13T13:54:01Z</time>
      </trkpt>
      <trkpt lat="43.75133" lon="6.31879">
        <ele>841.29</ele>
        <time>2025-11-13T13:54:06Z</time>
      </trkpt>
      <trkpt lat="43.75132" lon="6.31945">
        <ele>837.93</ele>
        <time>2025-11-13T13:54:11Z</time>
      </trkpt>
      <trkpt lat="43.75127" lon="6.32014">
        <ele>834.56</ele>
        <time>2025-11-13T13:54:16Z</time>
      </trkpt>
      <trkpt lat="43.75119" lon="6.32099">
        <ele>831.2</ele>
        <time>2025-11-13T13:54:22Z</time>
      </trkpt>
      <trkpt lat="43.75116" lon="6.32111">
        <ele>831.68</ele>
        <time>2025-11-13T13:54:23Z</time>
      </trkpt>
      <trkpt lat="43.75113" lon="6.32118">
        <ele>831.2</ele>
        <time>2025-11-13T13:54:24Z</time>
      </trkpt>
      <trkpt lat="43.75108" lon="6.32127">
        <ele>832.64</ele>
        <time>2025-11-13T13:54:25Z</time>
      </trkpt>
      <trkpt lat="43.75104" lon="6.32132">
        <ele>833.6</ele>
        <time>2025-11-13T13:54:26Z</time>
      </trkpt>
      <trkpt lat="43.75099" lon="6.32136">
        <ele>834.08</ele>
        <time>2025-11-13T13:54:27Z</time>
      </trkpt>
      <trkpt lat="43.75095" lon="6.32139">
        <ele>834.56</ele>
        <time>2025-11-13T13:54:28Z</time>
      </trkpt>
      <trkpt lat="43.75091" lon="6.3214">
        <ele>836</ele>
        <time>2025-11-13T13:54:29Z</time>
      </trkpt>
      <trkpt lat="43.75088" lon="6.3214">
        <ele>836</ele>
        <time>2025-11-13T13:54:30Z</time>
      </trkpt>
      <trkpt lat="43.75085" lon="6.32141">
        <ele>836.48</ele>
        <time>2025-11-13T13:54:31Z</time>
      </trkpt>
      <trkpt lat="43.75083" lon="6.32141">
        <ele>836.48</ele>
        <time>2025-11-13T13:54:32Z</time>
      </trkpt>
      <trkpt lat="43.7508" lon="6.32141">
        <ele>836.96</ele>
        <time>2025-11-13T13:54:33Z</time>
      </trkpt>
      <trkpt lat="43.7506" lon="6.3214">
        <ele>837.93</ele>
        <time>2025-11-13T13:54:43Z</time>
      </trkpt>
      <trkpt lat="43.75057" lon="6.3214">
        <ele>838.89</ele>
        <time>2025-11-13T13:54:52Z</time>
      </trkpt>
      <trkpt lat="43.75057" lon="6.3214">
        <ele>837.93</ele>
        <time>2025-11-13T13:55:11Z</time>
      </trkpt>
      <trkpt lat="43.75056" lon="6.3214">
        <ele>837.93</ele>
        <time>2025-11-13T13:55:35Z</time>
      </trkpt>
      <trkpt lat="43.75056" lon="6.32142">
        <ele>834.56</ele>
        <time>2025-11-13T13:55:45Z</time>
      </trkpt>
      <trkpt lat="43.75056" lon="6.32142">
        <ele>841.29</ele>
        <time>2025-11-13T13:55:46Z</time>
      </trkpt>
      <trkpt lat="43.75056" lon="6.32142">
        <ele>837.93</ele>
        <time>2025-11-13T13:55:47Z</time>
      </trkpt>
      <trkpt lat="43.75055" lon="6.32142">
        <ele>838.41</ele>
        <time>2025-11-13T13:56:04Z</time>
      </trkpt>
      <trkpt lat="43.75054" lon="6.32142">
        <ele>838.41</ele>
        <time>2025-11-13T13:56:25Z</time>
      </trkpt>
      <trkpt lat="43.75054" lon="6.32142">
        <ele>832.64</ele>
        <time>2025-11-13T13:56:36Z</time>
      </trkpt>
      <trkpt lat="43.75054" lon="6.32142">
        <ele>841.29</ele>
        <time>2025-11-13T13:56:37Z</time>
      </trkpt>
      <trkpt lat="43.75054" lon="6.32142">
        <ele>839.85</ele>
        <time>2025-11-13T13:56:38Z</time>
      </trkpt>
      <trkpt lat="43.75054" lon="6.32142">
        <ele>838.41</ele>
        <time>2025-11-13T13:56:40Z</time>
      </trkpt>
      <trkpt lat="43.75053" lon="6.3214">
        <ele>838.41</ele>
        <time>2025-11-13T13:56:47Z</time>
      </trkpt>
      <trkpt lat="43.75035" lon="6.32117">
        <ele>836.48</ele>
        <time>2025-11-13T13:56:55Z</time>
      </trkpt>
      <trkpt lat="43.75026" lon="6.32108">
        <ele>835.52</ele>
        <time>2025-11-13T13:56:57Z</time>
      </trkpt>
      <trkpt lat="43.7502" lon="6.32105">
        <ele>835.52</ele>
        <time>2025-11-13T13:56:58Z</time>
      </trkpt>
      <trkpt lat="43.74991" lon="6.32094">
        <ele>832.16</ele>
        <time>2025-11-13T13:57:03Z</time>
      </trkpt>
      <trkpt lat="43.74985" lon="6.32093">
        <ele>831.68</ele>
        <time>2025-11-13T13:57:04Z</time>
      </trkpt>
      <trkpt lat="43.74979" lon="6.32094">
        <ele>831.68</ele>
        <time>2025-11-13T13:57:05Z</time>
      </trkpt>
      <trkpt lat="43.74973" lon="6.32097">
        <ele>830.24</ele>
        <time>2025-11-13T13:57:06Z</time>
      </trkpt>
      <trkpt lat="43.74968" lon="6.32104">
        <ele>829.76</ele>
        <time>2025-11-13T13:57:07Z</time>
      </trkpt>
      <trkpt lat="43.74965" lon="6.3211">
        <ele>829.27</ele>
        <time>2025-11-13T13:57:08Z</time>
      </trkpt>
      <trkpt lat="43.74963" lon="6.32123">
        <ele>829.27</ele>
        <time>2025-11-13T13:57:09Z</time>
      </trkpt>
      <trkpt lat="43.74959" lon="6.32151">
        <ele>828.79</ele>
        <time>2025-11-13T13:57:12Z</time>
      </trkpt>
      <trkpt lat="43.74958" lon="6.32156">
        <ele>829.27</ele>
        <time>2025-11-13T13:57:13Z</time>
      </trkpt>
      <trkpt lat="43.74955" lon="6.3216">
        <ele>830.24</ele>
        <time>2025-11-13T13:57:14Z</time>
      </trkpt>
      <trkpt lat="43.74951" lon="6.32163">
        <ele>830.24</ele>
        <time>2025-11-13T13:57:15Z</time>
      </trkpt>
      <trkpt lat="43.74947" lon="6.32165">
        <ele>830.72</ele>
        <time>2025-11-13T13:57:16Z</time>
      </trkpt>
      <trkpt lat="43.74944" lon="6.32166">
        <ele>830.72</ele>
        <time>2025-11-13T13:57:17Z</time>
      </trkpt>
      <trkpt lat="43.74921" lon="6.32174">
        <ele>832.16</ele>
        <time>2025-11-13T13:57:26Z</time>
      </trkpt>
      <trkpt lat="43.74887" lon="6.32179">
        <ele>833.12</ele>
        <time>2025-11-13T13:57:36Z</time>
      </trkpt>
      <trkpt lat="43.74857" lon="6.32202">
        <ele>834.56</ele>
        <time>2025-11-13T13:57:47Z</time>
      </trkpt>
      <trkpt lat="43.74854" lon="6.32204">
        <ele>834.56</ele>
        <time>2025-11-13T13:57:49Z</time>
      </trkpt>
      <trkpt lat="43.74854" lon="6.32206">
        <ele>835.04</ele>
        <time>2025-11-13T13:57:58Z</time>
      </trkpt>
      <trkpt lat="43.74852" lon="6.32207">
        <ele>835.04</ele>
        <time>2025-11-13T13:58:18Z</time>
      </trkpt>
      <trkpt lat="43.74849" lon="6.32208">
        <ele>835.04</ele>
        <time>2025-11-13T13:58:33Z</time>
      </trkpt>
      <trkpt lat="43.74848" lon="6.32207">
        <ele>835.04</ele>
        <time>2025-11-13T13:58:34Z</time>
      </trkpt>
      <trkpt lat="43.74847" lon="6.32207">
        <ele>835.04</ele>
        <time>2025-11-13T13:58:35Z</time>
      </trkpt>
      <trkpt lat="43.74845" lon="6.32207">
        <ele>835.04</ele>
        <time>2025-11-13T13:58:36Z</time>
      </trkpt>
      <trkpt lat="43.74842" lon="6.32208">
        <ele>836</ele>
        <time>2025-11-13T13:58:37Z</time>
      </trkpt>
      <trkpt lat="43.74839" lon="6.32209">
        <ele>836</ele>
        <time>2025-11-13T13:58:38Z</time>
      </trkpt>
      <trkpt lat="43.74836" lon="6.3221">
        <ele>836</ele>
        <time>2025-11-13T13:58:39Z</time>
      </trkpt>
      <trkpt lat="43.74809" lon="6.32237">
        <ele>838.89</ele>
        <time>2025-11-13T13:58:48Z</time>
      </trkpt>
      <trkpt lat="43.74806" lon="6.32241">
        <ele>838.89</ele>
        <time>2025-11-13T13:58:49Z</time>
      </trkpt>
      <trkpt lat="43.74782" lon="6.32257">
        <ele>839.85</ele>
        <time>2025-11-13T13:58:57Z</time>
      </trkpt>
      <trkpt lat="43.74751" lon="6.32283">
        <ele>842.25</ele>
        <time>2025-11-13T13:59:07Z</time>
      </trkpt>
      <trkpt lat="43.74725" lon="6.32268">
        <ele>845.14</ele>
        <time>2025-11-13T13:59:16Z</time>
      </trkpt>
      <trkpt lat="43.74684" lon="6.32267">
        <ele>847.54</ele>
        <time>2025-11-13T13:59:29Z</time>
      </trkpt>
      <trkpt lat="43.74677" lon="6.3228">
        <ele>847.54</ele>
        <time>2025-11-13T13:59:32Z</time>
      </trkpt>
      <trkpt lat="43.74676" lon="6.32285">
        <ele>847.54</ele>
        <time>2025-11-13T13:59:33Z</time>
      </trkpt>
      <trkpt lat="43.74675" lon="6.3229">
        <ele>847.54</ele>
        <time>2025-11-13T13:59:34Z</time>
      </trkpt>
      <trkpt lat="43.74672" lon="6.32313">
        <ele>847.54</ele>
        <time>2025-11-13T13:59:38Z</time>
      </trkpt>
      <trkpt lat="43.7466" lon="6.32344">
        <ele>846.1</ele>
        <time>2025-11-13T13:59:46Z</time>
      </trkpt>
      <trkpt lat="43.74634" lon="6.32347">
        <ele>844.66</ele>
        <time>2025-11-13T13:59:57Z</time>
      </trkpt>
      <trkpt lat="43.7462" lon="6.32352">
        <ele>844.66</ele>
        <time>2025-11-13T14:00:06Z</time>
      </trkpt>
      <trkpt lat="43.7462" lon="6.32351">
        <ele>844.66</ele>
        <time>2025-11-13T14:00:23Z</time>
      </trkpt>
      <trkpt lat="43.74619" lon="6.32353">
        <ele>844.66</ele>
        <time>2025-11-13T14:00:40Z</time>
      </trkpt>
      <trkpt lat="43.74612" lon="6.32352">
        <ele>844.66</ele>
        <time>2025-11-13T14:00:49Z</time>
      </trkpt>
      <trkpt lat="43.74575" lon="6.32356">
        <ele>843.69</ele>
        <time>2025-11-13T14:00:58Z</time>
      </trkpt>
      <trkpt lat="43.74569" lon="6.32355">
        <ele>843.69</ele>
        <time>2025-11-13T14:00:59Z</time>
      </trkpt>
      <trkpt lat="43.74528" lon="6.32347">
        <ele>844.66</ele>
        <time>2025-11-13T14:01:08Z</time>
      </trkpt>
      <trkpt lat="43.74486" lon="6.32349">
        <ele>846.58</ele>
        <time>2025-11-13T14:01:18Z</time>
      </trkpt>
      <trkpt lat="43.74477" lon="6.32358">
        <ele>846.58</ele>
        <time>2025-11-13T14:01:21Z</time>
      </trkpt>
      <trkpt lat="43.74475" lon="6.32363">
        <ele>846.58</ele>
        <time>2025-11-13T14:01:22Z</time>
      </trkpt>
      <trkpt lat="43.74452" lon="6.32423">
        <ele>847.06</ele>
        <time>2025-11-13T14:01:32Z</time>
      </trkpt>
      <trkpt lat="43.7445" lon="6.32429">
        <ele>847.06</ele>
        <time>2025-11-13T14:01:33Z</time>
      </trkpt>
      <trkpt lat="43.7445" lon="6.32435">
        <ele>847.54</ele>
        <time>2025-11-13T14:01:34Z</time>
      </trkpt>
      <trkpt lat="43.74451" lon="6.32441">
        <ele>847.54</ele>
        <time>2025-11-13T14:01:35Z</time>
      </trkpt>
      <trkpt lat="43.74452" lon="6.32447">
        <ele>847.54</ele>
        <time>2025-11-13T14:01:36Z</time>
      </trkpt>
      <trkpt lat="43.74454" lon="6.32454">
        <ele>847.54</ele>
        <time>2025-11-13T14:01:37Z</time>
      </trkpt>
      <trkpt lat="43.74476" lon="6.32511">
        <ele>847.54</ele>
        <time>2025-11-13T14:01:47Z</time>
      </trkpt>
      <trkpt lat="43.74476" lon="6.32517">
        <ele>847.54</ele>
        <time>2025-11-13T14:01:48Z</time>
      </trkpt>
      <trkpt lat="43.74476" lon="6.32523">
        <ele>846.58</ele>
        <time>2025-11-13T14:01:49Z</time>
      </trkpt>
      <trkpt lat="43.74475" lon="6.3253">
        <ele>846.58</ele>
        <time>2025-11-13T14:01:50Z</time>
      </trkpt>
      <trkpt lat="43.74473" lon="6.32536">
        <ele>846.58</ele>
        <time>2025-11-13T14:01:51Z</time>
      </trkpt>
      <trkpt lat="43.74471" lon="6.32541">
        <ele>846.58</ele>
        <time>2025-11-13T14:01:52Z</time>
      </trkpt>
      <trkpt lat="43.74445" lon="6.32625">
        <ele>845.62</ele>
        <time>2025-11-13T14:02:05Z</time>
      </trkpt>
      <trkpt lat="43.74441" lon="6.32631">
        <ele>845.62</ele>
        <time>2025-11-13T14:02:06Z</time>
      </trkpt>
      <trkpt lat="43.74418" lon="6.32657">
        <ele>845.62</ele>
        <time>2025-11-13T14:02:13Z</time>
      </trkpt>
      <trkpt lat="43.74416" lon="6.32662">
        <ele>845.62</ele>
        <time>2025-11-13T14:02:14Z</time>
      </trkpt>
      <trkpt lat="43.74415" lon="6.32669">
        <ele>845.62</ele>
        <time>2025-11-13T14:02:15Z</time>
      </trkpt>
      <trkpt lat="43.74414" lon="6.32677">
        <ele>845.62</ele>
        <time>2025-11-13T14:02:16Z</time>
      </trkpt>
      <trkpt lat="43.74415" lon="6.32684">
        <ele>845.62</ele>
        <time>2025-11-13T14:02:17Z</time>
      </trkpt>
      <trkpt lat="43.74415" lon="6.32689">
        <ele>845.62</ele>
        <time>2025-11-13T14:02:18Z</time>
      </trkpt>
      <trkpt lat="43.74416" lon="6.32718">
        <ele>845.62</ele>
        <time>2025-11-13T14:02:22Z</time>
      </trkpt>
      <trkpt lat="43.74416" lon="6.32733">
        <ele>845.14</ele>
        <time>2025-11-13T14:02:24Z</time>
      </trkpt>
      <trkpt lat="43.74416" lon="6.32741">
        <ele>845.14</ele>
        <time>2025-11-13T14:02:25Z</time>
      </trkpt>
      <trkpt lat="43.74416" lon="6.32746">
        <ele>844.66</ele>
        <time>2025-11-13T14:02:26Z</time>
      </trkpt>
      <trkpt lat="43.74418" lon="6.32754">
        <ele>844.66</ele>
        <time>2025-11-13T14:02:27Z</time>
      </trkpt>
      <trkpt lat="43.7442" lon="6.32761">
        <ele>844.18</ele>
        <time>2025-11-13T14:02:28Z</time>
      </trkpt>
      <trkpt lat="43.7443" lon="6.32788">
        <ele>843.21</ele>
        <time>2025-11-13T14:02:35Z</time>
      </trkpt>
      <trkpt lat="43.74429" lon="6.3279">
        <ele>843.21</ele>
        <time>2025-11-13T14:02:45Z</time>
      </trkpt>
      <trkpt lat="43.74429" lon="6.32789">
        <ele>843.21</ele>
        <time>2025-11-13T14:03:06Z</time>
      </trkpt>
      <trkpt lat="43.74428" lon="6.32788">
        <ele>843.21</ele>
        <time>2025-11-13T14:03:31Z</time>
      </trkpt>
      <trkpt lat="43.74429" lon="6.32794">
        <ele>842.73</ele>
        <time>2025-11-13T14:03:46Z</time>
      </trkpt>
      <trkpt lat="43.74429" lon="6.32797">
        <ele>842.73</ele>
        <time>2025-11-13T14:03:47Z</time>
      </trkpt>
      <trkpt lat="43.74417" lon="6.32839">
        <ele>841.29</ele>
        <time>2025-11-13T14:03:56Z</time>
      </trkpt>
      <trkpt lat="43.74413" lon="6.32844">
        <ele>840.81</ele>
        <time>2025-11-13T14:03:57Z</time>
      </trkpt>
      <trkpt lat="43.74411" lon="6.32848">
        <ele>840.81</ele>
        <time>2025-11-13T14:03:58Z</time>
      </trkpt>
      <trkpt lat="43.74408" lon="6.32854">
        <ele>840.81</ele>
        <time>2025-11-13T14:03:59Z</time>
      </trkpt>
      <trkpt lat="43.74406" lon="6.3286">
        <ele>840.81</ele>
        <time>2025-11-13T14:04:00Z</time>
      </trkpt>
      <trkpt lat="43.74405" lon="6.32868">
        <ele>839.85</ele>
        <time>2025-11-13T14:04:01Z</time>
      </trkpt>
      <trkpt lat="43.74405" lon="6.32876">
        <ele>839.85</ele>
        <time>2025-11-13T14:04:02Z</time>
      </trkpt>
      <trkpt lat="43.74405" lon="6.32883">
        <ele>840.33</ele>
        <time>2025-11-13T14:04:03Z</time>
      </trkpt>
      <trkpt lat="43.74407" lon="6.3289">
        <ele>839.85</ele>
        <time>2025-11-13T14:04:04Z</time>
      </trkpt>
      <trkpt lat="43.7441" lon="6.32896">
        <ele>839.85</ele>
        <time>2025-11-13T14:04:05Z</time>
      </trkpt>
      <trkpt lat="43.74412" lon="6.32903">
        <ele>839.85</ele>
        <time>2025-11-13T14:04:06Z</time>
      </trkpt>
      <trkpt lat="43.74419" lon="6.32945">
        <ele>839.85</ele>
        <time>2025-11-13T14:04:14Z</time>
      </trkpt>
      <trkpt lat="43.7441" lon="6.32992">
        <ele>841.29</ele>
        <time>2025-11-13T14:04:22Z</time>
      </trkpt>
      <trkpt lat="43.74409" lon="6.32998">
        <ele>841.29</ele>
        <time>2025-11-13T14:04:23Z</time>
      </trkpt>
      <trkpt lat="43.74407" lon="6.33004">
        <ele>841.77</ele>
        <time>2025-11-13T14:04:24Z</time>
      </trkpt>
      <trkpt lat="43.74405" lon="6.33007">
        <ele>841.77</ele>
        <time>2025-11-13T14:04:25Z</time>
      </trkpt>
      <trkpt lat="43.74402" lon="6.33012">
        <ele>842.73</ele>
        <time>2025-11-13T14:04:26Z</time>
      </trkpt>
      <trkpt lat="43.74399" lon="6.33016">
        <ele>842.73</ele>
        <time>2025-11-13T14:04:27Z</time>
      </trkpt>
      <trkpt lat="43.74395" lon="6.3302">
        <ele>842.73</ele>
        <time>2025-11-13T14:04:28Z</time>
      </trkpt>
      <trkpt lat="43.74392" lon="6.33024">
        <ele>843.21</ele>
        <time>2025-11-13T14:04:29Z</time>
      </trkpt>
      <trkpt lat="43.7439" lon="6.33028">
        <ele>843.69</ele>
        <time>2025-11-13T14:04:30Z</time>
      </trkpt>
      <trkpt lat="43.74388" lon="6.33033">
        <ele>843.69</ele>
        <time>2025-11-13T14:04:31Z</time>
      </trkpt>
      <trkpt lat="43.74386" lon="6.33038">
        <ele>844.18</ele>
        <time>2025-11-13T14:04:32Z</time>
      </trkpt>
      <trkpt lat="43.74386" lon="6.33045">
        <ele>844.18</ele>
        <time>2025-11-13T14:04:33Z</time>
      </trkpt>
      <trkpt lat="43.74386" lon="6.33049">
        <ele>844.18</ele>
        <time>2025-11-13T14:04:34Z</time>
      </trkpt>
      <trkpt lat="43.74387" lon="6.33055">
        <ele>844.18</ele>
        <time>2025-11-13T14:04:35Z</time>
      </trkpt>
      <trkpt lat="43.74388" lon="6.3306">
        <ele>844.18</ele>
        <time>2025-11-13T14:04:36Z</time>
      </trkpt>
      <trkpt lat="43.74388" lon="6.33066">
        <ele>844.18</ele>
        <time>2025-11-13T14:04:37Z</time>
      </trkpt>
      <trkpt lat="43.74388" lon="6.33072">
        <ele>844.18</ele>
        <time>2025-11-13T14:04:38Z</time>
      </trkpt>
      <trkpt lat="43.74387" lon="6.33078">
        <ele>844.18</ele>
        <time>2025-11-13T14:04:39Z</time>
      </trkpt>
      <trkpt lat="43.74385" lon="6.33085">
        <ele>844.18</ele>
        <time>2025-11-13T14:04:40Z</time>
      </trkpt>
      <trkpt lat="43.74382" lon="6.33091">
        <ele>844.18</ele>
        <time>2025-11-13T14:04:41Z</time>
      </trkpt>
      <trkpt lat="43.74378" lon="6.33097">
        <ele>844.18</ele>
        <time>2025-11-13T14:04:42Z</time>
      </trkpt>
      <trkpt lat="43.74375" lon="6.33101">
        <ele>842.73</ele>
        <time>2025-11-13T14:04:43Z</time>
      </trkpt>
      <trkpt lat="43.74372" lon="6.33106">
        <ele>842.73</ele>
        <time>2025-11-13T14:04:44Z</time>
      </trkpt>
      <trkpt lat="43.74365" lon="6.33116">
        <ele>842.73</ele>
        <time>2025-11-13T14:04:46Z</time>
      </trkpt>
      <trkpt lat="43.74363" lon="6.33122">
        <ele>842.73</ele>
        <time>2025-11-13T14:04:47Z</time>
      </trkpt>
      <trkpt lat="43.74361" lon="6.33128">
        <ele>842.73</ele>
        <time>2025-11-13T14:04:48Z</time>
      </trkpt>
      <trkpt lat="43.7436" lon="6.33135">
        <ele>842.73</ele>
        <time>2025-11-13T14:04:49Z</time>
      </trkpt>
      <trkpt lat="43.74359" lon="6.33142">
        <ele>842.25</ele>
        <time>2025-11-13T14:04:50Z</time>
      </trkpt>
      <trkpt lat="43.74342" lon="6.33202">
        <ele>839.85</ele>
        <time>2025-11-13T14:04:59Z</time>
      </trkpt>
      <trkpt lat="43.74319" lon="6.33266">
        <ele>836.96</ele>
        <time>2025-11-13T14:05:09Z</time>
      </trkpt>
      <trkpt lat="43.74313" lon="6.33284">
        <ele>836</ele>
        <time>2025-11-13T14:05:12Z</time>
      </trkpt>
      <trkpt lat="43.74312" lon="6.33291">
        <ele>836</ele>
        <time>2025-11-13T14:05:13Z</time>
      </trkpt>
      <trkpt lat="43.74304" lon="6.3335">
        <ele>833.6</ele>
        <time>2025-11-13T14:05:21Z</time>
      </trkpt>
      <trkpt lat="43.74302" lon="6.33357">
        <ele>833.12</ele>
        <time>2025-11-13T14:05:22Z</time>
      </trkpt>
      <trkpt lat="43.74282" lon="6.33419">
        <ele>830.72</ele>
        <time>2025-11-13T14:05:30Z</time>
      </trkpt>
      <trkpt lat="43.74262" lon="6.33476">
        <ele>827.35</ele>
        <time>2025-11-13T14:05:36Z</time>
      </trkpt>
      <trkpt lat="43.74241" lon="6.33533">
        <ele>824.95</ele>
        <time>2025-11-13T14:05:42Z</time>
      </trkpt>
      <trkpt lat="43.74221" lon="6.3361">
        <ele>821.1</ele>
        <time>2025-11-13T14:05:49Z</time>
      </trkpt>
      <trkpt lat="43.74212" lon="6.33672">
        <ele>817.74</ele>
        <time>2025-11-13T14:05:54Z</time>
      </trkpt>
      <trkpt lat="43.74193" lon="6.33735">
        <ele>814.37</ele>
        <time>2025-11-13T14:06:00Z</time>
      </trkpt>
      <trkpt lat="43.74158" lon="6.33801">
        <ele>810.53</ele>
        <time>2025-11-13T14:06:07Z</time>
      </trkpt>
      <trkpt lat="43.74147" lon="6.33819">
        <ele>809.57</ele>
        <time>2025-11-13T14:06:09Z</time>
      </trkpt>
      <trkpt lat="43.74136" lon="6.33841">
        <ele>808.61</ele>
        <time>2025-11-13T14:06:11Z</time>
      </trkpt>
      <trkpt lat="43.74132" lon="6.33853">
        <ele>807.64</ele>
        <time>2025-11-13T14:06:12Z</time>
      </trkpt>
      <trkpt lat="43.74131" lon="6.33862">
        <ele>807.16</ele>
        <time>2025-11-13T14:06:13Z</time>
      </trkpt>
      <trkpt lat="43.7413" lon="6.33875">
        <ele>806.68</ele>
        <time>2025-11-13T14:06:14Z</time>
      </trkpt>
      <trkpt lat="43.7413" lon="6.33887">
        <ele>806.2</ele>
        <time>2025-11-13T14:06:15Z</time>
      </trkpt>
      <trkpt lat="43.74131" lon="6.33899">
        <ele>805.72</ele>
        <time>2025-11-13T14:06:16Z</time>
      </trkpt>
      <trkpt lat="43.74134" lon="6.33911">
        <ele>804.76</ele>
        <time>2025-11-13T14:06:17Z</time>
      </trkpt>
      <trkpt lat="43.74138" lon="6.33923">
        <ele>803.8</ele>
        <time>2025-11-13T14:06:18Z</time>
      </trkpt>
      <trkpt lat="43.74143" lon="6.33935">
        <ele>803.32</ele>
        <time>2025-11-13T14:06:19Z</time>
      </trkpt>
      <trkpt lat="43.74148" lon="6.33945">
        <ele>802.84</ele>
        <time>2025-11-13T14:06:20Z</time>
      </trkpt>
      <trkpt lat="43.74177" lon="6.34012">
        <ele>799.95</ele>
        <time>2025-11-13T14:06:26Z</time>
      </trkpt>
      <trkpt lat="43.74179" lon="6.34024">
        <ele>799.47</ele>
        <time>2025-11-13T14:06:27Z</time>
      </trkpt>
      <trkpt lat="43.7418" lon="6.34035">
        <ele>799.47</ele>
        <time>2025-11-13T14:06:28Z</time>
      </trkpt>
      <trkpt lat="43.74179" lon="6.34045">
        <ele>799.95</ele>
        <time>2025-11-13T14:06:29Z</time>
      </trkpt>
      <trkpt lat="43.74176" lon="6.34056">
        <ele>801.4</ele>
        <time>2025-11-13T14:06:30Z</time>
      </trkpt>
      <trkpt lat="43.74174" lon="6.34062">
        <ele>801.88</ele>
        <time>2025-11-13T14:06:31Z</time>
      </trkpt>
      <trkpt lat="43.7417" lon="6.34067">
        <ele>801.88</ele>
        <time>2025-11-13T14:06:32Z</time>
      </trkpt>
      <trkpt lat="43.74166" lon="6.34071">
        <ele>802.36</ele>
        <time>2025-11-13T14:06:33Z</time>
      </trkpt>
      <trkpt lat="43.74162" lon="6.34075">
        <ele>802.36</ele>
        <time>2025-11-13T14:06:34Z</time>
      </trkpt>
      <trkpt lat="43.74158" lon="6.34078">
        <ele>803.32</ele>
        <time>2025-11-13T14:06:35Z</time>
      </trkpt>
      <trkpt lat="43.74153" lon="6.34081">
        <ele>803.32</ele>
        <time>2025-11-13T14:06:36Z</time>
      </trkpt>
      <trkpt lat="43.74144" lon="6.34086">
        <ele>803.8</ele>
        <time>2025-11-13T14:06:38Z</time>
      </trkpt>
      <trkpt lat="43.74103" lon="6.34093">
        <ele>806.68</ele>
        <time>2025-11-13T14:06:48Z</time>
      </trkpt>
      <trkpt lat="43.74057" lon="6.34089">
        <ele>805.24</ele>
        <time>2025-11-13T14:06:58Z</time>
      </trkpt>
      <trkpt lat="43.74052" lon="6.34088">
        <ele>809.09</ele>
        <time>2025-11-13T14:06:59Z</time>
      </trkpt>
      <trkpt lat="43.74037" lon="6.34087">
        <ele>807.64</ele>
        <time>2025-11-13T14:07:02Z</time>
      </trkpt>
      <trkpt lat="43.73957" lon="6.34084">
        <ele>805.72</ele>
        <time>2025-11-13T14:07:16Z</time>
      </trkpt>
      <trkpt lat="43.73945" lon="6.34086">
        <ele>805.72</ele>
        <time>2025-11-13T14:07:18Z</time>
      </trkpt>
      <trkpt lat="43.7394" lon="6.34089">
        <ele>805.72</ele>
        <time>2025-11-13T14:07:19Z</time>
      </trkpt>
      <trkpt lat="43.73934" lon="6.34093">
        <ele>805.72</ele>
        <time>2025-11-13T14:07:20Z</time>
      </trkpt>
      <trkpt lat="43.7393" lon="6.34098">
        <ele>805.24</ele>
        <time>2025-11-13T14:07:21Z</time>
      </trkpt>
      <trkpt lat="43.73926" lon="6.34103">
        <ele>805.24</ele>
        <time>2025-11-13T14:07:22Z</time>
      </trkpt>
      <trkpt lat="43.73922" lon="6.34109">
        <ele>805.24</ele>
        <time>2025-11-13T14:07:23Z</time>
      </trkpt>
      <trkpt lat="43.73892" lon="6.34173">
        <ele>801.4</ele>
        <time>2025-11-13T14:07:31Z</time>
      </trkpt>
      <trkpt lat="43.73888" lon="6.34182">
        <ele>801.4</ele>
        <time>2025-11-13T14:07:32Z</time>
      </trkpt>
      <trkpt lat="43.7388" lon="6.34201">
        <ele>800.92</ele>
        <time>2025-11-13T14:07:34Z</time>
      </trkpt>
      <trkpt lat="43.73877" lon="6.34211">
        <ele>799.95</ele>
        <time>2025-11-13T14:07:35Z</time>
      </trkpt>
      <trkpt lat="43.73875" lon="6.34221">
        <ele>799.95</ele>
        <time>2025-11-13T14:07:36Z</time>
      </trkpt>
      <trkpt lat="43.73858" lon="6.34285">
        <ele>796.11</ele>
        <time>2025-11-13T14:07:42Z</time>
      </trkpt>
      <trkpt lat="43.73826" lon="6.34346">
        <ele>792.26</ele>
        <time>2025-11-13T14:07:48Z</time>
      </trkpt>
      <trkpt lat="43.73802" lon="6.34389">
        <ele>790.34</ele>
        <time>2025-11-13T14:07:52Z</time>
      </trkpt>
      <trkpt lat="43.73792" lon="6.34412">
        <ele>789.38</ele>
        <time>2025-11-13T14:07:54Z</time>
      </trkpt>
      <trkpt lat="43.73789" lon="6.34424">
        <ele>788.42</ele>
        <time>2025-11-13T14:07:55Z</time>
      </trkpt>
      <trkpt lat="43.73783" lon="6.34449">
        <ele>788.42</ele>
        <time>2025-11-13T14:07:57Z</time>
      </trkpt>
      <trkpt lat="43.73779" lon="6.34458">
        <ele>788.42</ele>
        <time>2025-11-13T14:07:58Z</time>
      </trkpt>
      <trkpt lat="43.73774" lon="6.34466">
        <ele>788.42</ele>
        <time>2025-11-13T14:07:59Z</time>
      </trkpt>
      <trkpt lat="43.7377" lon="6.34472">
        <ele>788.42</ele>
        <time>2025-11-13T14:08:00Z</time>
      </trkpt>
      <trkpt lat="43.73765" lon="6.34476">
        <ele>789.86</ele>
        <time>2025-11-13T14:08:01Z</time>
      </trkpt>
      <trkpt lat="43.73748" lon="6.34492">
        <ele>792.74</ele>
        <time>2025-11-13T14:08:05Z</time>
      </trkpt>
      <trkpt lat="43.73737" lon="6.34504">
        <ele>794.19</ele>
        <time>2025-11-13T14:08:08Z</time>
      </trkpt>
      <trkpt lat="43.73717" lon="6.34527">
        <ele>797.55</ele>
        <time>2025-11-13T14:08:15Z</time>
      </trkpt>
      <trkpt lat="43.73712" lon="6.34564">
        <ele>798.99</ele>
        <time>2025-11-13T14:08:23Z</time>
      </trkpt>
      <trkpt lat="43.73721" lon="6.34594">
        <ele>801.88</ele>
        <time>2025-11-13T14:08:33Z</time>
      </trkpt>
      <trkpt lat="43.73722" lon="6.34603">
        <ele>802.36</ele>
        <time>2025-11-13T14:08:41Z</time>
      </trkpt>
      <trkpt lat="43.73722" lon="6.34602">
        <ele>802.36</ele>
        <time>2025-11-13T14:08:59Z</time>
      </trkpt>
      <trkpt lat="43.73721" lon="6.34603">
        <ele>801.4</ele>
        <time>2025-11-13T14:09:16Z</time>
      </trkpt>
      <trkpt lat="43.73721" lon="6.34604">
        <ele>801.4</ele>
        <time>2025-11-13T14:09:30Z</time>
      </trkpt>
      <trkpt lat="43.73722" lon="6.34604">
        <ele>801.4</ele>
        <time>2025-11-13T14:09:41Z</time>
      </trkpt>
      <trkpt lat="43.7372" lon="6.34606">
        <ele>801.4</ele>
        <time>2025-11-13T14:10:00Z</time>
      </trkpt>
      <trkpt lat="43.73718" lon="6.34609">
        <ele>801.4</ele>
        <time>2025-11-13T14:10:06Z</time>
      </trkpt>
      <trkpt lat="43.73718" lon="6.34611">
        <ele>801.4</ele>
        <time>2025-11-13T14:10:07Z</time>
      </trkpt>
      <trkpt lat="43.73715" lon="6.34619">
        <ele>801.4</ele>
        <time>2025-11-13T14:10:10Z</time>
      </trkpt>
      <trkpt lat="43.73716" lon="6.34621">
        <ele>801.4</ele>
        <time>2025-11-13T14:10:11Z</time>
      </trkpt>
      <trkpt lat="43.73718" lon="6.34624">
        <ele>801.4</ele>
        <time>2025-11-13T14:10:12Z</time>
      </trkpt>
      <trkpt lat="43.7372" lon="6.34629">
        <ele>802.84</ele>
        <time>2025-11-13T14:10:14Z</time>
      </trkpt>
      <trkpt lat="43.73721" lon="6.34636">
        <ele>803.8</ele>
        <time>2025-11-13T14:10:17Z</time>
      </trkpt>
      <trkpt lat="43.7372" lon="6.34644">
        <ele>804.28</ele>
        <time>2025-11-13T14:10:21Z</time>
      </trkpt>
      <trkpt lat="43.73718" lon="6.34647">
        <ele>804.28</ele>
        <time>2025-11-13T14:10:33Z</time>
      </trkpt>
      <trkpt lat="43.73715" lon="6.34643">
        <ele>804.28</ele>
        <time>2025-11-13T14:10:41Z</time>
      </trkpt>
      <trkpt lat="43.73716" lon="6.34632">
        <ele>804.28</ele>
        <time>2025-11-13T14:10:46Z</time>
      </trkpt>
      <trkpt lat="43.73717" lon="6.34628">
        <ele>804.28</ele>
        <time>2025-11-13T14:10:48Z</time>
      </trkpt>
      <trkpt lat="43.73721" lon="6.34606">
        <ele>802.36</ele>
        <time>2025-11-13T14:10:55Z</time>
      </trkpt>
      <trkpt lat="43.73723" lon="6.34603">
        <ele>802.36</ele>
        <time>2025-11-13T14:11:05Z</time>
      </trkpt>
      <trkpt lat="43.73724" lon="6.34601">
        <ele>802.36</ele>
        <time>2025-11-13T14:11:14Z</time>
      </trkpt>
      <trkpt lat="43.73725" lon="6.34599">
        <ele>801.88</ele>
        <time>2025-11-13T14:11:24Z</time>
      </trkpt>
      <trkpt lat="43.73727" lon="6.34598">
        <ele>801.88</ele>
        <time>2025-11-13T14:11:39Z</time>
      </trkpt>
      <trkpt lat="43.7373" lon="6.34596">
        <ele>801.88</ele>
        <time>2025-11-13T14:11:45Z</time>
      </trkpt>
      <trkpt lat="43.73733" lon="6.34594">
        <ele>801.88</ele>
        <time>2025-11-13T14:11:48Z</time>
      </trkpt>
      <trkpt lat="43.73753" lon="6.34581">
        <ele>801.88</ele>
        <time>2025-11-13T14:11:59Z</time>
      </trkpt>
      <trkpt lat="43.73773" lon="6.34567">
        <ele>801.88</ele>
        <time>2025-11-13T14:12:10Z</time>
      </trkpt>
      <trkpt lat="43.73784" lon="6.34543">
        <ele>801.4</ele>
        <time>2025-11-13T14:12:20Z</time>
      </trkpt>
      <trkpt lat="43.73803" lon="6.34519">
        <ele>800.44</ele>
        <time>2025-11-13T14:12:32Z</time>
      </trkpt>
      <trkpt lat="43.7381" lon="6.3452">
        <ele>799.95</ele>
        <time>2025-11-13T14:12:36Z</time>
      </trkpt>
      <trkpt lat="43.73816" lon="6.34522">
        <ele>799.95</ele>
        <time>2025-11-13T14:12:40Z</time>
      </trkpt>
      <trkpt lat="43.73815" lon="6.34517">
        <ele>799.95</ele>
        <time>2025-11-13T14:12:47Z</time>
      </trkpt>
      <trkpt lat="43.73812" lon="6.34517">
        <ele>799.95</ele>
        <time>2025-11-13T14:12:50Z</time>
      </trkpt>
      <trkpt lat="43.73807" lon="6.34517">
        <ele>799.95</ele>
        <time>2025-11-13T14:12:54Z</time>
      </trkpt>
      <trkpt lat="43.73798" lon="6.34526">
        <ele>799.95</ele>
        <time>2025-11-13T14:13:01Z</time>
      </trkpt>
      <trkpt lat="43.7379" lon="6.34536">
        <ele>799.95</ele>
        <time>2025-11-13T14:13:08Z</time>
      </trkpt>
      <trkpt lat="43.73789" lon="6.34547">
        <ele>801.4</ele>
        <time>2025-11-13T14:13:14Z</time>
      </trkpt>
      <trkpt lat="43.73779" lon="6.34565">
        <ele>801.88</ele>
        <time>2025-11-13T14:13:24Z</time>
      </trkpt>
      <trkpt lat="43.73761" lon="6.34576">
        <ele>801.88</ele>
        <time>2025-11-13T14:13:35Z</time>
      </trkpt>
      <trkpt lat="43.73743" lon="6.34589">
        <ele>801.88</ele>
        <time>2025-11-13T14:13:47Z</time>
      </trkpt>
      <trkpt lat="43.73727" lon="6.34598">
        <ele>801.88</ele>
        <time>2025-11-13T14:13:58Z</time>
      </trkpt>
      <trkpt lat="43.73718" lon="6.34614">
        <ele>801.88</ele>
        <time>2025-11-13T14:14:07Z</time>
      </trkpt>
      <trkpt lat="43.73719" lon="6.3462">
        <ele>801.88</ele>
        <time>2025-11-13T14:14:09Z</time>
      </trkpt>
      <trkpt lat="43.73723" lon="6.34636">
        <ele>803.8</ele>
        <time>2025-11-13T14:14:16Z</time>
      </trkpt>
      <trkpt lat="43.73722" lon="6.34648">
        <ele>804.28</ele>
        <time>2025-11-13T14:14:26Z</time>
      </trkpt>
      <trkpt lat="43.73722" lon="6.34648">
        <ele>804.28</ele>
        <time>2025-11-13T14:14:40Z</time>
      </trkpt>
      <trkpt lat="43.7372" lon="6.34647">
        <ele>804.28</ele>
        <time>2025-11-13T14:15:08Z</time>
      </trkpt>
      <trkpt lat="43.73721" lon="6.34649">
        <ele>804.28</ele>
        <time>2025-11-13T14:15:29Z</time>
      </trkpt>
      <trkpt lat="43.73717" lon="6.34647">
        <ele>804.28</ele>
        <time>2025-11-13T14:15:52Z</time>
      </trkpt>
      <trkpt lat="43.73718" lon="6.34647">
        <ele>804.76</ele>
        <time>2025-11-13T14:16:11Z</time>
      </trkpt>
      <trkpt lat="43.73721" lon="6.34645">
        <ele>804.76</ele>
        <time>2025-11-13T14:16:38Z</time>
      </trkpt>
      <trkpt lat="43.73723" lon="6.34648">
        <ele>804.76</ele>
        <time>2025-11-13T14:17:01Z</time>
      </trkpt>
      <trkpt lat="43.73724" lon="6.34649">
        <ele>804.76</ele>
        <time>2025-11-13T14:17:22Z</time>
      </trkpt>
      <trkpt lat="43.73721" lon="6.34649">
        <ele>804.76</ele>
        <time>2025-11-13T14:17:39Z</time>
      </trkpt>
      <trkpt lat="43.7372" lon="6.34647">
        <ele>804.76</ele>
        <time>2025-11-13T14:17:54Z</time>
      </trkpt>
      <trkpt lat="43.7372" lon="6.34645">
        <ele>804.76</ele>
        <time>2025-11-13T14:18:18Z</time>
      </trkpt>
      <trkpt lat="43.73723" lon="6.34647">
        <ele>804.76</ele>
        <time>2025-11-13T14:18:42Z</time>
      </trkpt>
      <trkpt lat="43.73724" lon="6.34649">
        <ele>804.76</ele>
        <time>2025-11-13T14:19:13Z</time>
      </trkpt>
      <trkpt lat="43.73725" lon="6.34648">
        <ele>804.76</ele>
        <time>2025-11-13T14:19:40Z</time>
      </trkpt>
      <trkpt lat="43.73724" lon="6.34645">
        <ele>804.76</ele>
        <time>2025-11-13T14:20:12Z</time>
      </trkpt>
      <trkpt lat="43.73721" lon="6.34647">
        <ele>804.76</ele>
        <time>2025-11-13T14:20:44Z</time>
      </trkpt>
      <trkpt lat="43.73721" lon="6.34648">
        <ele>804.76</ele>
        <time>2025-11-13T14:20:59Z</time>
      </trkpt>
      <trkpt lat="43.73721" lon="6.34647">
        <ele>804.76</ele>
        <time>2025-11-13T14:21:17Z</time>
      </trkpt>
      <trkpt lat="43.73722" lon="6.34648">
        <ele>804.76</ele>
        <time>2025-11-13T14:21:37Z</time>
      </trkpt>
      <trkpt lat="43.7372" lon="6.34646">
        <ele>803.32</ele>
        <time>2025-11-13T14:21:55Z</time>
      </trkpt>
      <trkpt lat="43.73721" lon="6.34646">
        <ele>803.32</ele>
        <time>2025-11-13T14:22:11Z</time>
      </trkpt>
      <trkpt lat="43.73719" lon="6.34647">
        <ele>803.32</ele>
        <time>2025-11-13T14:22:23Z</time>
      </trkpt>
      <trkpt lat="43.73718" lon="6.34646">
        <ele>803.32</ele>
        <time>2025-11-13T14:22:37Z</time>
      </trkpt>
      <trkpt lat="43.73724" lon="6.34647">
        <ele>803.32</ele>
        <time>2025-11-13T14:23:04Z</time>
      </trkpt>
      <trkpt lat="43.73724" lon="6.34647">
        <ele>803.32</ele>
        <time>2025-11-13T14:23:22Z</time>
      </trkpt>
      <trkpt lat="43.73725" lon="6.34647">
        <ele>803.32</ele>
        <time>2025-11-13T14:23:45Z</time>
      </trkpt>
      <trkpt lat="43.73725" lon="6.34647">
        <ele>803.32</ele>
        <time>2025-11-13T14:24:10Z</time>
      </trkpt>
      <trkpt lat="43.73726" lon="6.34648">
        <ele>803.32</ele>
        <time>2025-11-13T14:24:33Z</time>
      </trkpt>
      <trkpt lat="43.73725" lon="6.34649">
        <ele>803.32</ele>
        <time>2025-11-13T14:24:52Z</time>
      </trkpt>
      <trkpt lat="43.73723" lon="6.34649">
        <ele>803.32</ele>
        <time>2025-11-13T14:25:12Z</time>
      </trkpt>
      <trkpt lat="43.73724" lon="6.34649">
        <ele>803.32</ele>
        <time>2025-11-13T14:25:30Z</time>
      </trkpt>
      <trkpt lat="43.73724" lon="6.34647">
        <ele>803.32</ele>
        <time>2025-11-13T14:25:58Z</time>
      </trkpt>
      <trkpt lat="43.73723" lon="6.3465">
        <ele>803.32</ele>
        <time>2025-11-13T14:26:25Z</time>
      </trkpt>
      <trkpt lat="43.73721" lon="6.34647">
        <ele>803.32</ele>
        <time>2025-11-13T14:26:48Z</time>
      </trkpt>
      <trkpt lat="43.7372" lon="6.34645">
        <ele>803.32</ele>
        <time>2025-11-13T14:27:08Z</time>
      </trkpt>
      <trkpt lat="43.7372" lon="6.34648">
        <ele>802.84</ele>
        <time>2025-11-13T14:27:27Z</time>
      </trkpt>
      <trkpt lat="43.73721" lon="6.34648">
        <ele>803.32</ele>
        <time>2025-11-13T14:27:50Z</time>
      </trkpt>
      <trkpt lat="43.73722" lon="6.34648">
        <ele>803.32</ele>
        <time>2025-11-13T14:28:14Z</time>
      </trkpt>
      <trkpt lat="43.73723" lon="6.34647">
        <ele>803.32</ele>
        <time>2025-11-13T14:28:31Z</time>
      </trkpt>
      <trkpt lat="43.73724" lon="6.34647">
        <ele>803.32</ele>
        <time>2025-11-13T14:28:56Z</time>
      </trkpt>
      <trkpt lat="43.73722" lon="6.34649">
        <ele>803.32</ele>
        <time>2025-11-13T14:29:25Z</time>
      </trkpt>
      <trkpt lat="43.7372" lon="6.34649">
        <ele>803.32</ele>
        <time>2025-11-13T14:29:52Z</time>
      </trkpt>
      <trkpt lat="43.7372" lon="6.34651">
        <ele>803.32</ele>
        <time>2025-11-13T14:30:13Z</time>
      </trkpt>
      <trkpt lat="43.7372" lon="6.34649">
        <ele>803.32</ele>
        <time>2025-11-13T14:30:33Z</time>
      </trkpt>
      <trkpt lat="43.7372" lon="6.34648">
        <ele>802.36</ele>
        <time>2025-11-13T14:30:57Z</time>
      </trkpt>
      <trkpt lat="43.7372" lon="6.34648">
        <ele>802.36</ele>
        <time>2025-11-13T14:31:27Z</time>
      </trkpt>
      <trkpt lat="43.7372" lon="6.34647">
        <ele>803.32</ele>
        <time>2025-11-13T14:31:48Z</time>
      </trkpt>
      <trkpt lat="43.73718" lon="6.34648">
        <ele>802.36</ele>
        <time>2025-11-13T14:32:04Z</time>
      </trkpt>
      <trkpt lat="43.73718" lon="6.34646">
        <ele>802.36</ele>
        <time>2025-11-13T14:32:14Z</time>
      </trkpt>
      <trkpt lat="43.73718" lon="6.34648">
        <ele>802.84</ele>
        <time>2025-11-13T14:32:22Z</time>
      </trkpt>
      <trkpt lat="43.73722" lon="6.34649">
        <ele>802.84</ele>
        <time>2025-11-13T14:32:39Z</time>
      </trkpt>
      <trkpt lat="43.73719" lon="6.34648">
        <ele>802.84</ele>
        <time>2025-11-13T14:32:52Z</time>
      </trkpt>
      <trkpt lat="43.73717" lon="6.34648">
        <ele>802.84</ele>
        <time>2025-11-13T14:33:10Z</time>
      </trkpt>
      <trkpt lat="43.73716" lon="6.34648">
        <ele>802.84</ele>
        <time>2025-11-13T14:33:24Z</time>
      </trkpt>
      <trkpt lat="43.73716" lon="6.34645">
        <ele>802.84</ele>
        <time>2025-11-13T14:33:29Z</time>
      </trkpt>
      <trkpt lat="43.73712" lon="6.34641">
        <ele>801.88</ele>
        <time>2025-11-13T14:33:33Z</time>
      </trkpt>
      <trkpt lat="43.73709" lon="6.34642">
        <ele>801.88</ele>
        <time>2025-11-13T14:33:34Z</time>
      </trkpt>
      <trkpt lat="43.73708" lon="6.34642">
        <ele>801.88</ele>
        <time>2025-11-13T14:33:35Z</time>
      </trkpt>
      <trkpt lat="43.73706" lon="6.34642">
        <ele>801.88</ele>
        <time>2025-11-13T14:33:36Z</time>
      </trkpt>
      <trkpt lat="43.73704" lon="6.34642">
        <ele>801.4</ele>
        <time>2025-11-13T14:33:37Z</time>
      </trkpt>
      <trkpt lat="43.73702" lon="6.34641">
        <ele>800.92</ele>
        <time>2025-11-13T14:33:38Z</time>
      </trkpt>
      <trkpt lat="43.73701" lon="6.34641">
        <ele>800.92</ele>
        <time>2025-11-13T14:33:39Z</time>
      </trkpt>
      <trkpt lat="43.73699" lon="6.34642">
        <ele>800.92</ele>
        <time>2025-11-13T14:33:40Z</time>
      </trkpt>
      <trkpt lat="43.73697" lon="6.34644">
        <ele>800.92</ele>
        <time>2025-11-13T14:33:41Z</time>
      </trkpt>
      <trkpt lat="43.73696" lon="6.34646">
        <ele>801.4</ele>
        <time>2025-11-13T14:33:42Z</time>
      </trkpt>
      <trkpt lat="43.73685" lon="6.34673">
        <ele>802.84</ele>
        <time>2025-11-13T14:33:51Z</time>
      </trkpt>
      <trkpt lat="43.73678" lon="6.34711">
        <ele>804.76</ele>
        <time>2025-11-13T14:34:02Z</time>
      </trkpt>
      <trkpt lat="43.73664" lon="6.3476">
        <ele>808.13</ele>
        <time>2025-11-13T14:34:15Z</time>
      </trkpt>
      <trkpt lat="43.73645" lon="6.34805">
        <ele>811.49</ele>
        <time>2025-11-13T14:34:28Z</time>
      </trkpt>
      <trkpt lat="43.73635" lon="6.34855">
        <ele>814.37</ele>
        <time>2025-11-13T14:34:41Z</time>
      </trkpt>
      <trkpt lat="43.73618" lon="6.349">
        <ele>816.78</ele>
        <time>2025-11-13T14:34:53Z</time>
      </trkpt>
      <trkpt lat="43.73596" lon="6.34937">
        <ele>817.74</ele>
        <time>2025-11-13T14:35:04Z</time>
      </trkpt>
      <trkpt lat="43.73568" lon="6.34993">
        <ele>819.66</ele>
        <time>2025-11-13T14:35:20Z</time>
      </trkpt>
      <trkpt lat="43.73546" lon="6.35038">
        <ele>822.06</ele>
        <time>2025-11-13T14:35:33Z</time>
      </trkpt>
      <trkpt lat="43.73517" lon="6.35082">
        <ele>823.99</ele>
        <time>2025-11-13T14:35:47Z</time>
      </trkpt>
      <trkpt lat="43.73485" lon="6.35108">
        <ele>825.43</ele>
        <time>2025-11-13T14:35:59Z</time>
      </trkpt>
      <trkpt lat="43.73444" lon="6.35135">
        <ele>826.87</ele>
        <time>2025-11-13T14:36:13Z</time>
      </trkpt>
      <trkpt lat="43.73412" lon="6.35158">
        <ele>828.31</ele>
        <time>2025-11-13T14:36:24Z</time>
      </trkpt>
      <trkpt lat="43.7337" lon="6.35191">
        <ele>829.76</ele>
        <time>2025-11-13T14:36:39Z</time>
      </trkpt>
      <trkpt lat="43.73331" lon="6.35223">
        <ele>830.72</ele>
        <time>2025-11-13T14:36:53Z</time>
      </trkpt>
      <trkpt lat="43.733" lon="6.35247">
        <ele>832.16</ele>
        <time>2025-11-13T14:37:04Z</time>
      </trkpt>
      <trkpt lat="43.73257" lon="6.35268">
        <ele>833.12</ele>
        <time>2025-11-13T14:37:18Z</time>
      </trkpt>
      <trkpt lat="43.73213" lon="6.35301">
        <ele>835.52</ele>
        <time>2025-11-13T14:37:34Z</time>
      </trkpt>
      <trkpt lat="43.73179" lon="6.35339">
        <ele>837.45</ele>
        <time>2025-11-13T14:37:48Z</time>
      </trkpt>
      <trkpt lat="43.73144" lon="6.35391">
        <ele>839.85</ele>
        <time>2025-11-13T14:38:04Z</time>
      </trkpt>
      <trkpt lat="43.73116" lon="6.35437">
        <ele>841.77</ele>
        <time>2025-11-13T14:38:18Z</time>
      </trkpt>
      <trkpt lat="43.73091" lon="6.35496">
        <ele>844.66</ele>
        <time>2025-11-13T14:38:34Z</time>
      </trkpt>
      <trkpt lat="43.73067" lon="6.35549">
        <ele>846.58</ele>
        <time>2025-11-13T14:38:48Z</time>
      </trkpt>
      <trkpt lat="43.73045" lon="6.356">
        <ele>849.46</ele>
        <time>2025-11-13T14:39:02Z</time>
      </trkpt>
      <trkpt lat="43.73027" lon="6.35663">
        <ele>851.38</ele>
        <time>2025-11-13T14:39:18Z</time>
      </trkpt>
      <trkpt lat="43.73021" lon="6.35703">
        <ele>853.79</ele>
        <time>2025-11-13T14:39:29Z</time>
      </trkpt>
      <trkpt lat="43.73019" lon="6.35717">
        <ele>853.79</ele>
        <time>2025-11-13T14:39:39Z</time>
      </trkpt>
      <trkpt lat="43.73019" lon="6.35717">
        <ele>853.79</ele>
        <time>2025-11-13T14:39:52Z</time>
      </trkpt>
      <trkpt lat="43.73019" lon="6.35717">
        <ele>855.23</ele>
        <time>2025-11-13T14:39:55Z</time>
      </trkpt>
      <trkpt lat="43.73019" lon="6.35717">
        <ele>854.75</ele>
        <time>2025-11-13T14:40:14Z</time>
      </trkpt>
      <trkpt lat="43.73017" lon="6.35716">
        <ele>854.75</ele>
        <time>2025-11-13T14:40:29Z</time>
      </trkpt>
      <trkpt lat="43.73018" lon="6.35717">
        <ele>853.31</ele>
        <time>2025-11-13T14:40:45Z</time>
      </trkpt>
      <trkpt lat="43.73018" lon="6.35718">
        <ele>853.31</ele>
        <time>2025-11-13T14:40:46Z</time>
      </trkpt>
      <trkpt lat="43.73019" lon="6.35716">
        <ele>853.31</ele>
        <time>2025-11-13T14:41:03Z</time>
      </trkpt>
      <trkpt lat="43.73017" lon="6.35716">
        <ele>853.31</ele>
        <time>2025-11-13T14:41:23Z</time>
      </trkpt>
      <trkpt lat="43.73017" lon="6.35714">
        <ele>853.31</ele>
        <time>2025-11-13T14:41:43Z</time>
      </trkpt>
      <trkpt lat="43.73016" lon="6.35714">
        <ele>853.31</ele>
        <time>2025-11-13T14:41:54Z</time>
      </trkpt>
      <trkpt lat="43.73015" lon="6.35717">
        <ele>853.31</ele>
        <time>2025-11-13T14:42:20Z</time>
      </trkpt>
      <trkpt lat="43.73016" lon="6.35719">
        <ele>853.31</ele>
        <time>2025-11-13T14:42:45Z</time>
      </trkpt>
      <trkpt lat="43.73018" lon="6.35716">
        <ele>853.31</ele>
        <time>2025-11-13T14:43:10Z</time>
      </trkpt>
      <trkpt lat="43.73016" lon="6.35716">
        <ele>853.31</ele>
        <time>2025-11-13T14:43:46Z</time>
      </trkpt>
      <trkpt lat="43.73015" lon="6.35715">
        <ele>853.79</ele>
        <time>2025-11-13T14:44:16Z</time>
      </trkpt>
      <trkpt lat="43.73017" lon="6.35719">
        <ele>853.79</ele>
        <time>2025-11-13T14:44:41Z</time>
      </trkpt>
      <trkpt lat="43.73017" lon="6.35717">
        <ele>853.79</ele>
        <time>2025-11-13T14:44:53Z</time>
      </trkpt>
      <trkpt lat="43.73016" lon="6.35716">
        <ele>853.79</ele>
        <time>2025-11-13T14:44:56Z</time>
      </trkpt>
      <trkpt lat="43.73014" lon="6.35715">
        <ele>853.79</ele>
        <time>2025-11-13T14:44:57Z</time>
      </trkpt>
      <trkpt lat="43.73001" lon="6.35709">
        <ele>853.79</ele>
        <time>2025-11-13T14:45:05Z</time>
      </trkpt>
      <trkpt lat="43.72998" lon="6.35708">
        <ele>853.31</ele>
        <time>2025-11-13T14:45:13Z</time>
      </trkpt>
      <trkpt lat="43.72994" lon="6.35705">
        <ele>852.83</ele>
        <time>2025-11-13T14:45:16Z</time>
      </trkpt>
      <trkpt lat="43.72993" lon="6.35704">
        <ele>852.83</ele>
        <time>2025-11-13T14:45:17Z</time>
      </trkpt>
      <trkpt lat="43.72992" lon="6.35703">
        <ele>852.83</ele>
        <time>2025-11-13T14:45:18Z</time>
      </trkpt>
      <trkpt lat="43.7299" lon="6.35704">
        <ele>852.83</ele>
        <time>2025-11-13T14:45:19Z</time>
      </trkpt>
      <trkpt lat="43.72989" lon="6.35704">
        <ele>852.35</ele>
        <time>2025-11-13T14:45:20Z</time>
      </trkpt>
      <trkpt lat="43.72987" lon="6.35706">
        <ele>852.35</ele>
        <time>2025-11-13T14:45:21Z</time>
      </trkpt>
      <trkpt lat="43.72986" lon="6.35707">
        <ele>852.35</ele>
        <time>2025-11-13T14:45:22Z</time>
      </trkpt>
      <trkpt lat="43.72984" lon="6.35709">
        <ele>852.35</ele>
        <time>2025-11-13T14:45:23Z</time>
      </trkpt>
      <trkpt lat="43.72981" lon="6.35717">
        <ele>851.87</ele>
        <time>2025-11-13T14:45:32Z</time>
      </trkpt>
      <trkpt lat="43.7298" lon="6.35717">
        <ele>851.87</ele>
        <time>2025-11-13T14:45:42Z</time>
      </trkpt>
      <trkpt lat="43.72979" lon="6.35718">
        <ele>851.87</ele>
        <time>2025-11-13T14:46:01Z</time>
      </trkpt>
      <trkpt lat="43.72981" lon="6.35718">
        <ele>851.87</ele>
        <time>2025-11-13T14:46:27Z</time>
      </trkpt>
      <trkpt lat="43.72979" lon="6.35718">
        <ele>851.87</ele>
        <time>2025-11-13T14:46:51Z</time>
      </trkpt>
      <trkpt lat="43.72979" lon="6.35718">
        <ele>851.87</ele>
        <time>2025-11-13T14:47:19Z</time>
      </trkpt>
      <trkpt lat="43.72979" lon="6.35717">
        <ele>851.87</ele>
        <time>2025-11-13T14:47:41Z</time>
      </trkpt>
      <trkpt lat="43.72979" lon="6.35717">
        <ele>851.87</ele>
        <time>2025-11-13T14:47:59Z</time>
      </trkpt>
      <trkpt lat="43.72979" lon="6.35718">
        <ele>851.87</ele>
        <time>2025-11-13T14:48:18Z</time>
      </trkpt>
      <trkpt lat="43.72981" lon="6.35717">
        <ele>851.87</ele>
        <time>2025-11-13T14:48:44Z</time>
      </trkpt>
      <trkpt lat="43.72979" lon="6.3572">
        <ele>851.87</ele>
        <time>2025-11-13T14:49:06Z</time>
      </trkpt>
      <trkpt lat="43.7298" lon="6.35719">
        <ele>851.87</ele>
        <time>2025-11-13T14:49:24Z</time>
      </trkpt>
      <trkpt lat="43.72981" lon="6.35719">
        <ele>851.87</ele>
        <time>2025-11-13T14:49:44Z</time>
      </trkpt>
      <trkpt lat="43.72981" lon="6.35719">
        <ele>851.87</ele>
        <time>2025-11-13T14:50:04Z</time>
      </trkpt>
      <trkpt lat="43.72981" lon="6.3572">
        <ele>851.87</ele>
        <time>2025-11-13T14:50:27Z</time>
      </trkpt>
      <trkpt lat="43.7298" lon="6.3572">
        <ele>851.87</ele>
        <time>2025-11-13T14:50:46Z</time>
      </trkpt>
      <trkpt lat="43.72979" lon="6.3572">
        <ele>851.38</ele>
        <time>2025-11-13T14:51:09Z</time>
      </trkpt>
      <trkpt lat="43.72978" lon="6.35719">
        <ele>850.9</ele>
        <time>2025-11-13T14:51:39Z</time>
      </trkpt>
      <trkpt lat="43.72978" lon="6.3572">
        <ele>850.9</ele>
        <time>2025-11-13T14:52:03Z</time>
      </trkpt>
      <trkpt lat="43.72978" lon="6.3572">
        <ele>850.9</ele>
        <time>2025-11-13T14:52:22Z</time>
      </trkpt>
      <trkpt lat="43.72979" lon="6.3572">
        <ele>850.9</ele>
        <time>2025-11-13T14:52:41Z</time>
      </trkpt>
      <trkpt lat="43.72978" lon="6.3572">
        <ele>850.9</ele>
        <time>2025-11-13T14:52:57Z</time>
      </trkpt>
      <trkpt lat="43.72977" lon="6.3572">
        <ele>850.9</ele>
        <time>2025-11-13T14:53:14Z</time>
      </trkpt>
      <trkpt lat="43.72976" lon="6.3572">
        <ele>850.9</ele>
        <time>2025-11-13T14:53:37Z</time>
      </trkpt>
      <trkpt lat="43.72976" lon="6.35719">
        <ele>850.9</ele>
        <time>2025-11-13T14:54:03Z</time>
      </trkpt>
      <trkpt lat="43.72977" lon="6.3572">
        <ele>850.9</ele>
        <time>2025-11-13T14:54:26Z</time>
      </trkpt>
      <trkpt lat="43.72977" lon="6.3572">
        <ele>850.9</ele>
        <time>2025-11-13T14:54:44Z</time>
      </trkpt>
      <trkpt lat="43.72976" lon="6.35719">
        <ele>850.9</ele>
        <time>2025-11-13T14:55:14Z</time>
      </trkpt>
      <trkpt lat="43.72976" lon="6.35719">
        <ele>850.9</ele>
        <time>2025-11-13T14:55:30Z</time>
      </trkpt>
      <trkpt lat="43.72977" lon="6.35719">
        <ele>850.9</ele>
        <time>2025-11-13T14:55:50Z</time>
      </trkpt>
      <trkpt lat="43.72977" lon="6.3572">
        <ele>850.9</ele>
        <time>2025-11-13T14:56:19Z</time>
      </trkpt>
      <trkpt lat="43.72978" lon="6.3572">
        <ele>850.42</ele>
        <time>2025-11-13T14:56:40Z</time>
      </trkpt>
      <trkpt lat="43.72978" lon="6.35719">
        <ele>850.42</ele>
        <time>2025-11-13T14:57:05Z</time>
      </trkpt>
      <trkpt lat="43.72978" lon="6.35718">
        <ele>850.42</ele>
        <time>2025-11-13T14:57:30Z</time>
      </trkpt>
      <trkpt lat="43.72975" lon="6.35719">
        <ele>850.42</ele>
        <time>2025-11-13T14:57:57Z</time>
      </trkpt>
      <trkpt lat="43.72976" lon="6.35718">
        <ele>850.42</ele>
        <time>2025-11-13T14:58:15Z</time>
      </trkpt>
      <trkpt lat="43.72976" lon="6.35717">
        <ele>850.42</ele>
        <time>2025-11-13T14:58:38Z</time>
      </trkpt>
      <trkpt lat="43.72976" lon="6.35718">
        <ele>850.42</ele>
        <time>2025-11-13T14:59:05Z</time>
      </trkpt>
      <trkpt lat="43.72976" lon="6.35718">
        <ele>850.42</ele>
        <time>2025-11-13T14:59:24Z</time>
      </trkpt>
      <trkpt lat="43.72975" lon="6.35718">
        <ele>850.42</ele>
        <time>2025-11-13T14:59:46Z</time>
      </trkpt>
      <trkpt lat="43.72974" lon="6.35718">
        <ele>851.38</ele>
        <time>2025-11-13T15:00:12Z</time>
      </trkpt>
      <trkpt lat="43.72976" lon="6.35717">
        <ele>851.38</ele>
        <time>2025-11-13T15:00:33Z</time>
      </trkpt>
      <trkpt lat="43.72976" lon="6.35718">
        <ele>851.38</ele>
        <time>2025-11-13T15:00:51Z</time>
      </trkpt>
      <trkpt lat="43.72976" lon="6.35717">
        <ele>851.38</ele>
        <time>2025-11-13T15:01:07Z</time>
      </trkpt>
      <trkpt lat="43.72976" lon="6.35715">
        <ele>851.38</ele>
        <time>2025-11-13T15:01:31Z</time>
      </trkpt>
      <trkpt lat="43.72975" lon="6.35717">
        <ele>851.38</ele>
        <time>2025-11-13T15:01:53Z</time>
      </trkpt>
      <trkpt lat="43.72975" lon="6.35717">
        <ele>851.38</ele>
        <time>2025-11-13T15:02:09Z</time>
      </trkpt>
      <trkpt lat="43.72976" lon="6.35717">
        <ele>851.38</ele>
        <time>2025-11-13T15:02:24Z</time>
      </trkpt>
      <trkpt lat="43.72979" lon="6.35719">
        <ele>851.38</ele>
        <time>2025-11-13T15:02:52Z</time>
      </trkpt>
      <trkpt lat="43.72979" lon="6.35719">
        <ele>851.38</ele>
        <time>2025-11-13T15:03:13Z</time>
      </trkpt>
      <trkpt lat="43.72977" lon="6.35719">
        <ele>851.38</ele>
        <time>2025-11-13T15:03:38Z</time>
      </trkpt>
      <trkpt lat="43.72978" lon="6.35717">
        <ele>851.38</ele>
        <time>2025-11-13T15:04:00Z</time>
      </trkpt>
      <trkpt lat="43.72977" lon="6.35717">
        <ele>851.38</ele>
        <time>2025-11-13T15:04:21Z</time>
      </trkpt>
      <trkpt lat="43.72977" lon="6.35717">
        <ele>851.38</ele>
        <time>2025-11-13T15:04:41Z</time>
      </trkpt>
      <trkpt lat="43.72976" lon="6.35718">
        <ele>851.38</ele>
        <time>2025-11-13T15:05:06Z</time>
      </trkpt>
      <trkpt lat="43.72976" lon="6.35718">
        <ele>851.38</ele>
        <time>2025-11-13T15:05:33Z</time>
      </trkpt>
      <trkpt lat="43.72976" lon="6.35718">
        <ele>851.38</ele>
        <time>2025-11-13T15:05:55Z</time>
      </trkpt>
      <trkpt lat="43.72976" lon="6.35719">
        <ele>851.38</ele>
        <time>2025-11-13T15:06:20Z</time>
      </trkpt>
      <trkpt lat="43.72977" lon="6.35719">
        <ele>851.38</ele>
        <time>2025-11-13T15:06:43Z</time>
      </trkpt>
      <trkpt lat="43.72977" lon="6.35719">
        <ele>851.38</ele>
        <time>2025-11-13T15:07:07Z</time>
      </trkpt>
      <trkpt lat="43.72977" lon="6.35719">
        <ele>850.9</ele>
        <time>2025-11-13T15:07:26Z</time>
      </trkpt>
      <trkpt lat="43.72978" lon="6.35718">
        <ele>850.9</ele>
        <time>2025-11-13T15:07:48Z</time>
      </trkpt>
      <trkpt lat="43.72978" lon="6.3572">
        <ele>850.9</ele>
        <time>2025-11-13T15:08:08Z</time>
      </trkpt>
      <trkpt lat="43.72979" lon="6.35721">
        <ele>850.9</ele>
        <time>2025-11-13T15:08:28Z</time>
      </trkpt>
      <trkpt lat="43.7298" lon="6.35719">
        <ele>850.9</ele>
        <time>2025-11-13T15:08:48Z</time>
      </trkpt>
      <trkpt lat="43.72981" lon="6.35719">
        <ele>850.9</ele>
        <time>2025-11-13T15:09:11Z</time>
      </trkpt>
      <trkpt lat="43.7298" lon="6.3572">
        <ele>851.38</ele>
        <time>2025-11-13T15:09:30Z</time>
      </trkpt>
      <trkpt lat="43.7298" lon="6.3572">
        <ele>851.38</ele>
        <time>2025-11-13T15:09:47Z</time>
      </trkpt>
      <trkpt lat="43.72979" lon="6.35721">
        <ele>851.38</ele>
        <time>2025-11-13T15:10:10Z</time>
      </trkpt>
      <trkpt lat="43.72979" lon="6.35721">
        <ele>851.38</ele>
        <time>2025-11-13T15:10:33Z</time>
      </trkpt>
      <trkpt lat="43.72978" lon="6.35718">
        <ele>851.38</ele>
        <time>2025-11-13T15:10:55Z</time>
      </trkpt>
      <trkpt lat="43.72978" lon="6.35719">
        <ele>851.38</ele>
        <time>2025-11-13T15:11:17Z</time>
      </trkpt>
      <trkpt lat="43.72978" lon="6.35719">
        <ele>851.38</ele>
        <time>2025-11-13T15:11:37Z</time>
      </trkpt>
      <trkpt lat="43.72979" lon="6.35719">
        <ele>851.38</ele>
        <time>2025-11-13T15:12:00Z</time>
      </trkpt>
      <trkpt lat="43.72978" lon="6.35719">
        <ele>851.38</ele>
        <time>2025-11-13T15:12:25Z</time>
      </trkpt>
      <trkpt lat="43.72977" lon="6.35719">
        <ele>851.38</ele>
        <time>2025-11-13T15:12:49Z</time>
      </trkpt>
      <trkpt lat="43.72975" lon="6.35718">
        <ele>851.38</ele>
        <time>2025-11-13T15:13:12Z</time>
      </trkpt>
      <trkpt lat="43.72977" lon="6.35718">
        <ele>851.38</ele>
        <time>2025-11-13T15:13:41Z</time>
      </trkpt>
      <trkpt lat="43.72977" lon="6.35719">
        <ele>851.38</ele>
        <time>2025-11-13T15:14:01Z</time>
      </trkpt>
      <trkpt lat="43.72978" lon="6.35718">
        <ele>851.38</ele>
        <time>2025-11-13T15:14:28Z</time>
      </trkpt>
      <trkpt lat="43.7298" lon="6.35718">
        <ele>851.38</ele>
        <time>2025-11-13T15:14:51Z</time>
      </trkpt>
      <trkpt lat="43.72979" lon="6.35718">
        <ele>851.38</ele>
        <time>2025-11-13T15:15:16Z</time>
      </trkpt>
      <trkpt lat="43.72978" lon="6.35718">
        <ele>851.38</ele>
        <time>2025-11-13T15:15:37Z</time>
      </trkpt>
      <trkpt lat="43.72978" lon="6.35718">
        <ele>851.38</ele>
        <time>2025-11-13T15:16:07Z</time>
      </trkpt>
      <trkpt lat="43.72979" lon="6.35718">
        <ele>851.38</ele>
        <time>2025-11-13T15:16:31Z</time>
      </trkpt>
      <trkpt lat="43.72979" lon="6.35719">
        <ele>851.38</ele>
        <time>2025-11-13T15:16:52Z</time>
      </trkpt>
      <trkpt lat="43.72978" lon="6.35718">
        <ele>850.9</ele>
        <time>2025-11-13T15:17:15Z</time>
      </trkpt>
      <trkpt lat="43.72978" lon="6.35719">
        <ele>850.9</ele>
        <time>2025-11-13T15:17:35Z</time>
      </trkpt>
      <trkpt lat="43.72978" lon="6.35721">
        <ele>850.9</ele>
        <time>2025-11-13T15:17:59Z</time>
      </trkpt>
      <trkpt lat="43.72978" lon="6.3572">
        <ele>850.9</ele>
        <time>2025-11-13T15:18:21Z</time>
      </trkpt>
      <trkpt lat="43.72978" lon="6.3572">
        <ele>850.9</ele>
        <time>2025-11-13T15:18:45Z</time>
      </trkpt>
      <trkpt lat="43.72978" lon="6.35721">
        <ele>850.9</ele>
        <time>2025-11-13T15:19:11Z</time>
      </trkpt>
      <trkpt lat="43.72978" lon="6.35721">
        <ele>850.9</ele>
        <time>2025-11-13T15:19:30Z</time>
      </trkpt>
      <trkpt lat="43.72978" lon="6.35721">
        <ele>850.9</ele>
        <time>2025-11-13T15:19:47Z</time>
      </trkpt>
      <trkpt lat="43.72977" lon="6.35719">
        <ele>850.9</ele>
        <time>2025-11-13T15:20:09Z</time>
      </trkpt>
      <trkpt lat="43.72977" lon="6.35719">
        <ele>850.9</ele>
        <time>2025-11-13T15:20:33Z</time>
      </trkpt>
      <trkpt lat="43.72977" lon="6.35719">
        <ele>850.9</ele>
        <time>2025-11-13T15:20:53Z</time>
      </trkpt>
      <trkpt lat="43.72977" lon="6.35718">
        <ele>850.9</ele>
        <time>2025-11-13T15:21:14Z</time>
      </trkpt>
      <trkpt lat="43.72979" lon="6.35719">
        <ele>850.9</ele>
        <time>2025-11-13T15:21:37Z</time>
      </trkpt>
      <trkpt lat="43.72979" lon="6.3572">
        <ele>850.9</ele>
        <time>2025-11-13T15:22:03Z</time>
      </trkpt>
      <trkpt lat="43.72979" lon="6.35719">
        <ele>850.9</ele>
        <time>2025-11-13T15:22:26Z</time>
      </trkpt>
      <trkpt lat="43.72977" lon="6.35718">
        <ele>850.9</ele>
        <time>2025-11-13T15:22:45Z</time>
      </trkpt>
      <trkpt lat="43.72977" lon="6.35718">
        <ele>850.9</ele>
        <time>2025-11-13T15:23:15Z</time>
      </trkpt>
      <trkpt lat="43.72976" lon="6.35718">
        <ele>850.9</ele>
        <time>2025-11-13T15:23:34Z</time>
      </trkpt>
      <trkpt lat="43.72977" lon="6.35718">
        <ele>851.38</ele>
        <time>2025-11-13T15:23:57Z</time>
      </trkpt>
      <trkpt lat="43.72977" lon="6.35718">
        <ele>851.38</ele>
        <time>2025-11-13T15:24:17Z</time>
      </trkpt>
      <trkpt lat="43.72978" lon="6.35718">
        <ele>851.38</ele>
        <time>2025-11-13T15:24:38Z</time>
      </trkpt>
      <trkpt lat="43.72978" lon="6.35718">
        <ele>850.9</ele>
        <time>2025-11-13T15:25:01Z</time>
      </trkpt>
      <trkpt lat="43.72975" lon="6.35719">
        <ele>850.9</ele>
        <time>2025-11-13T15:25:18Z</time>
      </trkpt>
      <trkpt lat="43.72975" lon="6.35716">
        <ele>850.9</ele>
        <time>2025-11-13T15:25:39Z</time>
      </trkpt>
      <trkpt lat="43.72978" lon="6.35718">
        <ele>850.9</ele>
        <time>2025-11-13T15:26:02Z</time>
      </trkpt>
      <trkpt lat="43.72978" lon="6.35718">
        <ele>850.9</ele>
        <time>2025-11-13T15:26:20Z</time>
      </trkpt>
      <trkpt lat="43.72976" lon="6.35719">
        <ele>850.9</ele>
        <time>2025-11-13T15:26:43Z</time>
      </trkpt>
      <trkpt lat="43.72976" lon="6.35719">
        <ele>850.9</ele>
        <time>2025-11-13T15:27:02Z</time>
      </trkpt>
      <trkpt lat="43.72976" lon="6.35718">
        <ele>850.9</ele>
        <time>2025-11-13T15:27:19Z</time>
      </trkpt>
      <trkpt lat="43.72978" lon="6.35717">
        <ele>850.9</ele>
        <time>2025-11-13T15:27:45Z</time>
      </trkpt>
      <trkpt lat="43.72978" lon="6.35718">
        <ele>850.9</ele>
        <time>2025-11-13T15:28:07Z</time>
      </trkpt>
      <trkpt lat="43.72979" lon="6.35717">
        <ele>850.9</ele>
        <time>2025-11-13T15:28:24Z</time>
      </trkpt>
      <trkpt lat="43.72978" lon="6.35719">
        <ele>850.9</ele>
        <time>2025-11-13T15:28:44Z</time>
      </trkpt>
      <trkpt lat="43.72978" lon="6.35719">
        <ele>850.9</ele>
        <time>2025-11-13T15:29:05Z</time>
      </trkpt>
      <trkpt lat="43.72978" lon="6.35719">
        <ele>850.9</ele>
        <time>2025-11-13T15:29:28Z</time>
      </trkpt>
      <trkpt lat="43.72978" lon="6.35718">
        <ele>850.9</ele>
        <time>2025-11-13T15:29:53Z</time>
      </trkpt>
      <trkpt lat="43.72978" lon="6.35718">
        <ele>850.9</ele>
        <time>2025-11-13T15:30:15Z</time>
      </trkpt>
      <trkpt lat="43.72978" lon="6.35718">
        <ele>850.9</ele>
        <time>2025-11-13T15:30:32Z</time>
      </trkpt>
      <trkpt lat="43.72977" lon="6.35719">
        <ele>850.9</ele>
        <time>2025-11-13T15:30:50Z</time>
      </trkpt>
      <trkpt lat="43.72977" lon="6.35721">
        <ele>850.9</ele>
        <time>2025-11-13T15:31:09Z</time>
      </trkpt>
      <trkpt lat="43.72976" lon="6.35719">
        <ele>850.9</ele>
        <time>2025-11-13T15:31:36Z</time>
      </trkpt>
      <trkpt lat="43.72976" lon="6.35718">
        <ele>850.9</ele>
        <time>2025-11-13T15:31:57Z</time>
      </trkpt>
      <trkpt lat="43.72978" lon="6.35717">
        <ele>850.42</ele>
        <time>2025-11-13T15:32:23Z</time>
      </trkpt>
      <trkpt lat="43.72978" lon="6.35718">
        <ele>850.42</ele>
        <time>2025-11-13T15:32:44Z</time>
      </trkpt>
      <trkpt lat="43.72977" lon="6.35717">
        <ele>850.42</ele>
        <time>2025-11-13T15:33:03Z</time>
      </trkpt>
      <trkpt lat="43.72978" lon="6.35718">
        <ele>850.42</ele>
        <time>2025-11-13T15:33:22Z</time>
      </trkpt>
      <trkpt lat="43.72978" lon="6.35718">
        <ele>850.42</ele>
        <time>2025-11-13T15:33:41Z</time>
      </trkpt>
      <trkpt lat="43.72978" lon="6.35718">
        <ele>850.42</ele>
        <time>2025-11-13T15:34:14Z</time>
      </trkpt>
      <trkpt lat="43.72978" lon="6.35719">
        <ele>850.42</ele>
        <time>2025-11-13T15:34:41Z</time>
      </trkpt>
      <trkpt lat="43.72979" lon="6.35717">
        <ele>850.42</ele>
        <time>2025-11-13T15:35:07Z</time>
      </trkpt>
      <trkpt lat="43.7298" lon="6.35718">
        <ele>850.42</ele>
        <time>2025-11-13T15:35:35Z</time>
      </trkpt>
      <trkpt lat="43.72978" lon="6.35719">
        <ele>850.42</ele>
        <time>2025-11-13T15:36:02Z</time>
      </trkpt>
      <trkpt lat="43.72978" lon="6.35719">
        <ele>850.42</ele>
        <time>2025-11-13T15:36:20Z</time>
      </trkpt>
      <trkpt lat="43.72978" lon="6.35719">
        <ele>850.42</ele>
        <time>2025-11-13T15:36:39Z</time>
      </trkpt>
      <trkpt lat="43.72979" lon="6.35718">
        <ele>850.42</ele>
        <time>2025-11-13T15:36:59Z</time>
      </trkpt>
      <trkpt lat="43.72979" lon="6.35718">
        <ele>850.42</ele>
        <time>2025-11-13T15:37:18Z</time>
      </trkpt>
      <trkpt lat="43.7298" lon="6.3572">
        <ele>850.42</ele>
        <time>2025-11-13T15:37:39Z</time>
      </trkpt>
      <trkpt lat="43.72978" lon="6.3572">
        <ele>850.42</ele>
        <time>2025-11-13T15:37:57Z</time>
      </trkpt>
      <trkpt lat="43.72976" lon="6.35719">
        <ele>850.42</ele>
        <time>2025-11-13T15:38:21Z</time>
      </trkpt>
      <trkpt lat="43.72976" lon="6.35719">
        <ele>850.42</ele>
        <time>2025-11-13T15:38:43Z</time>
      </trkpt>
      <trkpt lat="43.72977" lon="6.35718">
        <ele>850.42</ele>
        <time>2025-11-13T15:39:10Z</time>
      </trkpt>
      <trkpt lat="43.72978" lon="6.35719">
        <ele>850.42</ele>
        <time>2025-11-13T15:39:33Z</time>
      </trkpt>
      <trkpt lat="43.72978" lon="6.35718">
        <ele>850.42</ele>
        <time>2025-11-13T15:39:53Z</time>
      </trkpt>
      <trkpt lat="43.72979" lon="6.3572">
        <ele>850.42</ele>
        <time>2025-11-13T15:40:16Z</time>
      </trkpt>
      <trkpt lat="43.72978" lon="6.35717">
        <ele>850.42</ele>
        <time>2025-11-13T15:40:41Z</time>
      </trkpt>
      <trkpt lat="43.72978" lon="6.35717">
        <ele>848.98</ele>
        <time>2025-11-13T15:40:55Z</time>
      </trkpt>
      <trkpt lat="43.72977" lon="6.35716">
        <ele>849.46</ele>
        <time>2025-11-13T15:41:14Z</time>
      </trkpt>
      <trkpt lat="43.72977" lon="6.35719">
        <ele>849.46</ele>
        <time>2025-11-13T15:41:36Z</time>
      </trkpt>
      <trkpt lat="43.72977" lon="6.35718">
        <ele>849.46</ele>
        <time>2025-11-13T15:42:00Z</time>
      </trkpt>
      <trkpt lat="43.72981" lon="6.35723">
        <ele>849.46</ele>
        <time>2025-11-13T15:42:06Z</time>
      </trkpt>
      <trkpt lat="43.72986" lon="6.3573">
        <ele>850.42</ele>
        <time>2025-11-13T15:42:12Z</time>
      </trkpt>
      <trkpt lat="43.72985" lon="6.35737">
        <ele>850.42</ele>
        <time>2025-11-13T15:42:22Z</time>
      </trkpt>
      <trkpt lat="43.72986" lon="6.35737">
        <ele>846.1</ele>
        <time>2025-11-13T15:42:30Z</time>
      </trkpt>
      <trkpt lat="43.72986" lon="6.35737">
        <ele>851.87</ele>
        <time>2025-11-13T15:42:31Z</time>
      </trkpt>
      <trkpt lat="43.72986" lon="6.35738">
        <ele>851.87</ele>
        <time>2025-11-13T15:42:32Z</time>
      </trkpt>
      <trkpt lat="43.72985" lon="6.35738">
        <ele>844.18</ele>
        <time>2025-11-13T15:42:35Z</time>
      </trkpt>
      <trkpt lat="43.72985" lon="6.35738">
        <ele>851.87</ele>
        <time>2025-11-13T15:42:36Z</time>
      </trkpt>
      <trkpt lat="43.72984" lon="6.35738">
        <ele>851.87</ele>
        <time>2025-11-13T15:42:37Z</time>
      </trkpt>
      <trkpt lat="43.72984" lon="6.35738">
        <ele>849.94</ele>
        <time>2025-11-13T15:42:40Z</time>
      </trkpt>
      <trkpt lat="43.72985" lon="6.35732">
        <ele>845.62</ele>
        <time>2025-11-13T15:42:43Z</time>
      </trkpt>
      <trkpt lat="43.72987" lon="6.35699">
        <ele>862.44</ele>
        <time>2025-11-14T07:34:24Z</time>
      </trkpt>
    </trkseg>
  </trk>
</gpx>